<?xml version="1.0" encoding="UTF-8" standalone="no" ?>
<gpx xmlns="http://www.topografix.com/GPX/1/1" xmlns:xsi="http://www.w3.org/2001/XMLSchema-instance" xsi:schemaLocation="http://www.topografix.com/GPX/1/1 http://www.topografix.com/GPX/1/1/gpx.xsd" version="1.1" creator="VisuGPX - https://www.visugpx.com">
  <metadata>
    <name>Mont Ventoux montee par Sault</name>
    <desc><![CDATA[Montee par Sault, redescente par le GR ]]></desc>
  </metadata>
  <trk>
    <name><![CDATA[Mont Ventoux montee par Sault_1]]></name>
    <trkseg>
      <trkpt lat="44.09253" lon="5.40886">
        <ele>821.5</ele>
        <time>2011-10-01T10:58:11Z</time>
      </trkpt>
      <trkpt lat="44.09253" lon="5.40886">
        <ele>821.5</ele>
        <time>2011-10-01T10:58:16Z</time>
      </trkpt>
      <trkpt lat="44.09253" lon="5.40886">
        <ele>821.5</ele>
        <time>2011-10-01T10:58:31Z</time>
      </trkpt>
      <trkpt lat="44.09252" lon="5.40887">
        <ele>821</ele>
        <time>2011-10-01T10:58:36Z</time>
      </trkpt>
      <trkpt lat="44.09251" lon="5.40889">
        <ele>819.5</ele>
        <time>2011-10-01T10:58:41Z</time>
      </trkpt>
      <trkpt lat="44.09252" lon="5.40891">
        <ele>820</ele>
        <time>2011-10-01T10:58:46Z</time>
      </trkpt>
      <trkpt lat="44.09251" lon="5.40893">
        <ele>822</ele>
        <time>2011-10-01T10:58:51Z</time>
      </trkpt>
      <trkpt lat="44.09252" lon="5.40893">
        <ele>821.5</ele>
        <time>2011-10-01T10:58:56Z</time>
      </trkpt>
      <trkpt lat="44.09249" lon="5.40894">
        <ele>823.5</ele>
        <time>2011-10-01T10:59:01Z</time>
      </trkpt>
      <trkpt lat="44.09248" lon="5.40895">
        <ele>822.5</ele>
        <time>2011-10-01T10:59:06Z</time>
      </trkpt>
      <trkpt lat="44.09248" lon="5.40896">
        <ele>821.5</ele>
        <time>2011-10-01T10:59:11Z</time>
      </trkpt>
      <trkpt lat="44.09248" lon="5.40896">
        <ele>821.5</ele>
        <time>2011-10-01T10:59:16Z</time>
      </trkpt>
      <trkpt lat="44.09248" lon="5.40896">
        <ele>821</ele>
        <time>2011-10-01T10:59:21Z</time>
      </trkpt>
      <trkpt lat="44.09248" lon="5.40896">
        <ele>820</ele>
        <time>2011-10-01T10:59:26Z</time>
      </trkpt>
      <trkpt lat="44.0925" lon="5.40896">
        <ele>817</ele>
        <time>2011-10-01T10:59:31Z</time>
      </trkpt>
      <trkpt lat="44.0925" lon="5.40897">
        <ele>817</ele>
        <time>2011-10-01T10:59:36Z</time>
      </trkpt>
      <trkpt lat="44.0925" lon="5.40898">
        <ele>817</ele>
        <time>2011-10-01T10:59:41Z</time>
      </trkpt>
      <trkpt lat="44.0925" lon="5.40898">
        <ele>816.5</ele>
        <time>2011-10-01T10:59:46Z</time>
      </trkpt>
      <trkpt lat="44.09248" lon="5.40898">
        <ele>817</ele>
        <time>2011-10-01T10:59:51Z</time>
      </trkpt>
      <trkpt lat="44.09247" lon="5.40898">
        <ele>816.5</ele>
        <time>2011-10-01T10:59:56Z</time>
      </trkpt>
      <trkpt lat="44.09248" lon="5.40898">
        <ele>815.5</ele>
        <time>2011-10-01T11:00:01Z</time>
      </trkpt>
      <trkpt lat="44.09249" lon="5.40898">
        <ele>815.5</ele>
        <time>2011-10-01T11:00:06Z</time>
      </trkpt>
      <trkpt lat="44.0925" lon="5.40898">
        <ele>815.5</ele>
        <time>2011-10-01T11:00:11Z</time>
      </trkpt>
      <trkpt lat="44.09251" lon="5.40898">
        <ele>815.5</ele>
        <time>2011-10-01T11:00:16Z</time>
      </trkpt>
      <trkpt lat="44.09251" lon="5.40898">
        <ele>816</ele>
        <time>2011-10-01T11:00:21Z</time>
      </trkpt>
      <trkpt lat="44.09251" lon="5.40898">
        <ele>816</ele>
        <time>2011-10-01T11:00:26Z</time>
      </trkpt>
      <trkpt lat="44.09252" lon="5.40899">
        <ele>817.5</ele>
        <time>2011-10-01T11:00:31Z</time>
      </trkpt>
      <trkpt lat="44.09252" lon="5.40899">
        <ele>817.5</ele>
        <time>2011-10-01T11:00:36Z</time>
      </trkpt>
      <trkpt lat="44.09252" lon="5.40901">
        <ele>818.5</ele>
        <time>2011-10-01T11:00:41Z</time>
      </trkpt>
      <trkpt lat="44.09252" lon="5.40902">
        <ele>818</ele>
        <time>2011-10-01T11:00:46Z</time>
      </trkpt>
      <trkpt lat="44.09253" lon="5.40908">
        <ele>817.5</ele>
        <time>2011-10-01T11:00:51Z</time>
      </trkpt>
      <trkpt lat="44.0925" lon="5.40916">
        <ele>818</ele>
        <time>2011-10-01T11:00:56Z</time>
      </trkpt>
      <trkpt lat="44.09242" lon="5.40913">
        <ele>819.5</ele>
        <time>2011-10-01T11:01:01Z</time>
      </trkpt>
      <trkpt lat="44.09234" lon="5.40911">
        <ele>821.5</ele>
        <time>2011-10-01T11:01:06Z</time>
      </trkpt>
      <trkpt lat="44.09224" lon="5.40921">
        <ele>818</ele>
        <time>2011-10-01T11:01:11Z</time>
      </trkpt>
      <trkpt lat="44.0921" lon="5.40934">
        <ele>816</ele>
        <time>2011-10-01T11:01:16Z</time>
      </trkpt>
      <trkpt lat="44.09205" lon="5.40919">
        <ele>816</ele>
        <time>2011-10-01T11:01:21Z</time>
      </trkpt>
      <trkpt lat="44.09211" lon="5.40902">
        <ele>816</ele>
        <time>2011-10-01T11:01:26Z</time>
      </trkpt>
      <trkpt lat="44.09218" lon="5.40858">
        <ele>816.5</ele>
        <time>2011-10-01T11:01:31Z</time>
      </trkpt>
      <trkpt lat="44.09232" lon="5.40839">
        <ele>817</ele>
        <time>2011-10-01T11:01:36Z</time>
      </trkpt>
      <trkpt lat="44.09263" lon="5.40833">
        <ele>815</ele>
        <time>2011-10-01T11:01:41Z</time>
      </trkpt>
      <trkpt lat="44.09285" lon="5.40829">
        <ele>815</ele>
        <time>2011-10-01T11:01:46Z</time>
      </trkpt>
      <trkpt lat="44.09325" lon="5.40825">
        <ele>814.5</ele>
        <time>2011-10-01T11:01:51Z</time>
      </trkpt>
      <trkpt lat="44.09355" lon="5.40822">
        <ele>812</ele>
        <time>2011-10-01T11:01:56Z</time>
      </trkpt>
      <trkpt lat="44.09371" lon="5.40822">
        <ele>811</ele>
        <time>2011-10-01T11:02:01Z</time>
      </trkpt>
      <trkpt lat="44.09374" lon="5.40822">
        <ele>811.5</ele>
        <time>2011-10-01T11:02:06Z</time>
      </trkpt>
      <trkpt lat="44.09377" lon="5.40821">
        <ele>810</ele>
        <time>2011-10-01T11:02:11Z</time>
      </trkpt>
      <trkpt lat="44.09383" lon="5.40818">
        <ele>810</ele>
        <time>2011-10-01T11:02:16Z</time>
      </trkpt>
      <trkpt lat="44.09395" lon="5.4082">
        <ele>810</ele>
        <time>2011-10-01T11:02:21Z</time>
      </trkpt>
      <trkpt lat="44.09413" lon="5.40818">
        <ele>808</ele>
        <time>2011-10-01T11:02:26Z</time>
      </trkpt>
      <trkpt lat="44.09455" lon="5.40814">
        <ele>807</ele>
        <time>2011-10-01T11:02:31Z</time>
      </trkpt>
      <trkpt lat="44.09485" lon="5.40812">
        <ele>805.5</ele>
        <time>2011-10-01T11:02:36Z</time>
      </trkpt>
      <trkpt lat="44.09532" lon="5.4081">
        <ele>804</ele>
        <time>2011-10-01T11:02:41Z</time>
      </trkpt>
      <trkpt lat="44.09567" lon="5.40809">
        <ele>801.5</ele>
        <time>2011-10-01T11:02:46Z</time>
      </trkpt>
      <trkpt lat="44.09625" lon="5.40807">
        <ele>797.5</ele>
        <time>2011-10-01T11:02:51Z</time>
      </trkpt>
      <trkpt lat="44.09668" lon="5.40813">
        <ele>795.5</ele>
        <time>2011-10-01T11:02:56Z</time>
      </trkpt>
      <trkpt lat="44.09731" lon="5.40834">
        <ele>791.5</ele>
        <time>2011-10-01T11:03:01Z</time>
      </trkpt>
      <trkpt lat="44.09776" lon="5.40849">
        <ele>790.5</ele>
        <time>2011-10-01T11:03:06Z</time>
      </trkpt>
      <trkpt lat="44.09847" lon="5.40876">
        <ele>788</ele>
        <time>2011-10-01T11:03:11Z</time>
      </trkpt>
      <trkpt lat="44.09896" lon="5.40893">
        <ele>786.5</ele>
        <time>2011-10-01T11:03:16Z</time>
      </trkpt>
      <trkpt lat="44.09959" lon="5.40913">
        <ele>785.5</ele>
        <time>2011-10-01T11:03:21Z</time>
      </trkpt>
      <trkpt lat="44.09973" lon="5.40898">
        <ele>785</ele>
        <time>2011-10-01T11:03:26Z</time>
      </trkpt>
      <trkpt lat="44.09938" lon="5.40857">
        <ele>777.5</ele>
        <time>2011-10-01T11:03:31Z</time>
      </trkpt>
      <trkpt lat="44.09907" lon="5.40822">
        <ele>773</ele>
        <time>2011-10-01T11:03:36Z</time>
      </trkpt>
      <trkpt lat="44.09855" lon="5.40763">
        <ele>768</ele>
        <time>2011-10-01T11:03:41Z</time>
      </trkpt>
      <trkpt lat="44.09817" lon="5.40727">
        <ele>764</ele>
        <time>2011-10-01T11:03:46Z</time>
      </trkpt>
      <trkpt lat="44.09768" lon="5.40683">
        <ele>759</ele>
        <time>2011-10-01T11:03:51Z</time>
      </trkpt>
      <trkpt lat="44.09728" lon="5.40638">
        <ele>756.5</ele>
        <time>2011-10-01T11:03:56Z</time>
      </trkpt>
      <trkpt lat="44.09728" lon="5.4057">
        <ele>756.5</ele>
        <time>2011-10-01T11:04:01Z</time>
      </trkpt>
      <trkpt lat="44.09752" lon="5.40534">
        <ele>757.5</ele>
        <time>2011-10-01T11:04:06Z</time>
      </trkpt>
      <trkpt lat="44.09771" lon="5.40507">
        <ele>758</ele>
        <time>2011-10-01T11:04:11Z</time>
      </trkpt>
      <trkpt lat="44.09784" lon="5.40489">
        <ele>758</ele>
        <time>2011-10-01T11:04:16Z</time>
      </trkpt>
      <trkpt lat="44.098" lon="5.40466">
        <ele>758.5</ele>
        <time>2011-10-01T11:04:21Z</time>
      </trkpt>
      <trkpt lat="44.09811" lon="5.40452">
        <ele>759</ele>
        <time>2011-10-01T11:04:26Z</time>
      </trkpt>
      <trkpt lat="44.09827" lon="5.40434">
        <ele>760</ele>
        <time>2011-10-01T11:04:31Z</time>
      </trkpt>
      <trkpt lat="44.09836" lon="5.4042">
        <ele>759</ele>
        <time>2011-10-01T11:04:36Z</time>
      </trkpt>
      <trkpt lat="44.09851" lon="5.404">
        <ele>758.5</ele>
        <time>2011-10-01T11:04:41Z</time>
      </trkpt>
      <trkpt lat="44.0986" lon="5.40387">
        <ele>758.5</ele>
        <time>2011-10-01T11:04:46Z</time>
      </trkpt>
      <trkpt lat="44.09874" lon="5.40368">
        <ele>759.5</ele>
        <time>2011-10-01T11:04:51Z</time>
      </trkpt>
      <trkpt lat="44.09882" lon="5.40354">
        <ele>759.5</ele>
        <time>2011-10-01T11:04:56Z</time>
      </trkpt>
      <trkpt lat="44.09895" lon="5.40335">
        <ele>761</ele>
        <time>2011-10-01T11:05:01Z</time>
      </trkpt>
      <trkpt lat="44.09904" lon="5.4032">
        <ele>762.5</ele>
        <time>2011-10-01T11:05:06Z</time>
      </trkpt>
      <trkpt lat="44.09915" lon="5.40295">
        <ele>763.5</ele>
        <time>2011-10-01T11:05:11Z</time>
      </trkpt>
      <trkpt lat="44.09924" lon="5.40279">
        <ele>763.5</ele>
        <time>2011-10-01T11:05:16Z</time>
      </trkpt>
      <trkpt lat="44.09935" lon="5.40258">
        <ele>764.5</ele>
        <time>2011-10-01T11:05:21Z</time>
      </trkpt>
      <trkpt lat="44.09938" lon="5.40252">
        <ele>764.5</ele>
        <time>2011-10-01T11:05:26Z</time>
      </trkpt>
      <trkpt lat="44.09938" lon="5.40252">
        <ele>765</ele>
        <time>2011-10-01T11:05:31Z</time>
      </trkpt>
      <trkpt lat="44.09938" lon="5.40252">
        <ele>765</ele>
        <time>2011-10-01T11:05:36Z</time>
      </trkpt>
      <trkpt lat="44.09937" lon="5.40251">
        <ele>764.5</ele>
        <time>2011-10-01T11:05:41Z</time>
      </trkpt>
      <trkpt lat="44.09937" lon="5.40251">
        <ele>764.5</ele>
        <time>2011-10-01T11:05:46Z</time>
      </trkpt>
      <trkpt lat="44.09937" lon="5.40251">
        <ele>764.5</ele>
        <time>2011-10-01T11:05:51Z</time>
      </trkpt>
      <trkpt lat="44.09937" lon="5.40251">
        <ele>764.5</ele>
        <time>2011-10-01T11:05:56Z</time>
      </trkpt>
      <trkpt lat="44.09945" lon="5.4025">
        <ele>764.5</ele>
        <time>2011-10-01T11:06:01Z</time>
      </trkpt>
      <trkpt lat="44.09964" lon="5.40245">
        <ele>764</ele>
        <time>2011-10-01T11:06:06Z</time>
      </trkpt>
      <trkpt lat="44.09992" lon="5.40236">
        <ele>764</ele>
        <time>2011-10-01T11:06:11Z</time>
      </trkpt>
      <trkpt lat="44.10019" lon="5.40225">
        <ele>765</ele>
        <time>2011-10-01T11:06:16Z</time>
      </trkpt>
      <trkpt lat="44.10052" lon="5.40209">
        <ele>765</ele>
        <time>2011-10-01T11:06:21Z</time>
      </trkpt>
      <trkpt lat="44.10074" lon="5.40196">
        <ele>764.5</ele>
        <time>2011-10-01T11:06:26Z</time>
      </trkpt>
      <trkpt lat="44.10105" lon="5.40177">
        <ele>764.5</ele>
        <time>2011-10-01T11:06:31Z</time>
      </trkpt>
      <trkpt lat="44.10126" lon="5.40166">
        <ele>764</ele>
        <time>2011-10-01T11:06:36Z</time>
      </trkpt>
      <trkpt lat="44.10158" lon="5.40149">
        <ele>764.5</ele>
        <time>2011-10-01T11:06:41Z</time>
      </trkpt>
      <trkpt lat="44.10179" lon="5.40137">
        <ele>765</ele>
        <time>2011-10-01T11:06:46Z</time>
      </trkpt>
      <trkpt lat="44.10212" lon="5.40119">
        <ele>766</ele>
        <time>2011-10-01T11:06:51Z</time>
      </trkpt>
      <trkpt lat="44.10238" lon="5.40103">
        <ele>766</ele>
        <time>2011-10-01T11:06:56Z</time>
      </trkpt>
      <trkpt lat="44.10265" lon="5.40089">
        <ele>766</ele>
        <time>2011-10-01T11:07:01Z</time>
      </trkpt>
      <trkpt lat="44.10287" lon="5.40078">
        <ele>766</ele>
        <time>2011-10-01T11:07:06Z</time>
      </trkpt>
      <trkpt lat="44.10319" lon="5.4006">
        <ele>767.5</ele>
        <time>2011-10-01T11:07:11Z</time>
      </trkpt>
      <trkpt lat="44.10339" lon="5.40048">
        <ele>768.5</ele>
        <time>2011-10-01T11:07:16Z</time>
      </trkpt>
      <trkpt lat="44.10362" lon="5.4003">
        <ele>768.5</ele>
        <time>2011-10-01T11:07:21Z</time>
      </trkpt>
      <trkpt lat="44.10383" lon="5.40006">
        <ele>768</ele>
        <time>2011-10-01T11:07:26Z</time>
      </trkpt>
      <trkpt lat="44.10407" lon="5.39974">
        <ele>768</ele>
        <time>2011-10-01T11:07:31Z</time>
      </trkpt>
      <trkpt lat="44.10427" lon="5.39945">
        <ele>767.5</ele>
        <time>2011-10-01T11:07:36Z</time>
      </trkpt>
      <trkpt lat="44.10451" lon="5.39923">
        <ele>769</ele>
        <time>2011-10-01T11:07:41Z</time>
      </trkpt>
      <trkpt lat="44.10473" lon="5.39913">
        <ele>768.5</ele>
        <time>2011-10-01T11:07:46Z</time>
      </trkpt>
      <trkpt lat="44.10507" lon="5.3991">
        <ele>769</ele>
        <time>2011-10-01T11:07:51Z</time>
      </trkpt>
      <trkpt lat="44.10529" lon="5.39921">
        <ele>770</ele>
        <time>2011-10-01T11:07:56Z</time>
      </trkpt>
      <trkpt lat="44.1056" lon="5.39939">
        <ele>771</ele>
        <time>2011-10-01T11:08:01Z</time>
      </trkpt>
      <trkpt lat="44.10584" lon="5.39955">
        <ele>772</ele>
        <time>2011-10-01T11:08:06Z</time>
      </trkpt>
      <trkpt lat="44.10609" lon="5.39971">
        <ele>772.5</ele>
        <time>2011-10-01T11:08:11Z</time>
      </trkpt>
      <trkpt lat="44.10627" lon="5.39983">
        <ele>773</ele>
        <time>2011-10-01T11:08:16Z</time>
      </trkpt>
      <trkpt lat="44.10651" lon="5.4">
        <ele>776</ele>
        <time>2011-10-01T11:08:21Z</time>
      </trkpt>
      <trkpt lat="44.10666" lon="5.40011">
        <ele>777.5</ele>
        <time>2011-10-01T11:08:26Z</time>
      </trkpt>
      <trkpt lat="44.10686" lon="5.4003">
        <ele>779.5</ele>
        <time>2011-10-01T11:08:31Z</time>
      </trkpt>
      <trkpt lat="44.10703" lon="5.40043">
        <ele>780.5</ele>
        <time>2011-10-01T11:08:36Z</time>
      </trkpt>
      <trkpt lat="44.10719" lon="5.4005">
        <ele>781.5</ele>
        <time>2011-10-01T11:08:41Z</time>
      </trkpt>
      <trkpt lat="44.10734" lon="5.40055">
        <ele>781.5</ele>
        <time>2011-10-01T11:08:46Z</time>
      </trkpt>
      <trkpt lat="44.10755" lon="5.40062">
        <ele>781.5</ele>
        <time>2011-10-01T11:08:51Z</time>
      </trkpt>
      <trkpt lat="44.10768" lon="5.40067">
        <ele>781.5</ele>
        <time>2011-10-01T11:08:56Z</time>
      </trkpt>
      <trkpt lat="44.10789" lon="5.40077">
        <ele>782</ele>
        <time>2011-10-01T11:09:01Z</time>
      </trkpt>
      <trkpt lat="44.10805" lon="5.40085">
        <ele>784</ele>
        <time>2011-10-01T11:09:06Z</time>
      </trkpt>
      <trkpt lat="44.10822" lon="5.40079">
        <ele>784.5</ele>
        <time>2011-10-01T11:09:11Z</time>
      </trkpt>
      <trkpt lat="44.10832" lon="5.40066">
        <ele>786</ele>
        <time>2011-10-01T11:09:16Z</time>
      </trkpt>
      <trkpt lat="44.10846" lon="5.40046">
        <ele>787</ele>
        <time>2011-10-01T11:09:21Z</time>
      </trkpt>
      <trkpt lat="44.10855" lon="5.40032">
        <ele>787.5</ele>
        <time>2011-10-01T11:09:26Z</time>
      </trkpt>
      <trkpt lat="44.10868" lon="5.40012">
        <ele>788.5</ele>
        <time>2011-10-01T11:09:31Z</time>
      </trkpt>
      <trkpt lat="44.10877" lon="5.39999">
        <ele>789</ele>
        <time>2011-10-01T11:09:36Z</time>
      </trkpt>
      <trkpt lat="44.1089" lon="5.39978">
        <ele>789.5</ele>
        <time>2011-10-01T11:09:41Z</time>
      </trkpt>
      <trkpt lat="44.10899" lon="5.39967">
        <ele>790</ele>
        <time>2011-10-01T11:09:46Z</time>
      </trkpt>
      <trkpt lat="44.10914" lon="5.39949">
        <ele>791.5</ele>
        <time>2011-10-01T11:09:51Z</time>
      </trkpt>
      <trkpt lat="44.10924" lon="5.39939">
        <ele>792</ele>
        <time>2011-10-01T11:09:56Z</time>
      </trkpt>
      <trkpt lat="44.1094" lon="5.39925">
        <ele>793.5</ele>
        <time>2011-10-01T11:10:01Z</time>
      </trkpt>
      <trkpt lat="44.10955" lon="5.39916">
        <ele>794.5</ele>
        <time>2011-10-01T11:10:06Z</time>
      </trkpt>
      <trkpt lat="44.10968" lon="5.39907">
        <ele>795.5</ele>
        <time>2011-10-01T11:10:11Z</time>
      </trkpt>
      <trkpt lat="44.10978" lon="5.39898">
        <ele>796</ele>
        <time>2011-10-01T11:10:16Z</time>
      </trkpt>
      <trkpt lat="44.10994" lon="5.39886">
        <ele>798.5</ele>
        <time>2011-10-01T11:10:21Z</time>
      </trkpt>
      <trkpt lat="44.11005" lon="5.39879">
        <ele>800</ele>
        <time>2011-10-01T11:10:26Z</time>
      </trkpt>
      <trkpt lat="44.1102" lon="5.3987">
        <ele>801.5</ele>
        <time>2011-10-01T11:10:31Z</time>
      </trkpt>
      <trkpt lat="44.11033" lon="5.39861">
        <ele>803</ele>
        <time>2011-10-01T11:10:36Z</time>
      </trkpt>
      <trkpt lat="44.11045" lon="5.39853">
        <ele>804.5</ele>
        <time>2011-10-01T11:10:41Z</time>
      </trkpt>
      <trkpt lat="44.11055" lon="5.39845">
        <ele>805.5</ele>
        <time>2011-10-01T11:10:46Z</time>
      </trkpt>
      <trkpt lat="44.1107" lon="5.39834">
        <ele>806.5</ele>
        <time>2011-10-01T11:10:51Z</time>
      </trkpt>
      <trkpt lat="44.11081" lon="5.39825">
        <ele>807.5</ele>
        <time>2011-10-01T11:10:56Z</time>
      </trkpt>
      <trkpt lat="44.11097" lon="5.39812">
        <ele>808</ele>
        <time>2011-10-01T11:11:01Z</time>
      </trkpt>
      <trkpt lat="44.11107" lon="5.39803">
        <ele>808</ele>
        <time>2011-10-01T11:11:06Z</time>
      </trkpt>
      <trkpt lat="44.11122" lon="5.39789">
        <ele>808.5</ele>
        <time>2011-10-01T11:11:11Z</time>
      </trkpt>
      <trkpt lat="44.11132" lon="5.39779">
        <ele>809.5</ele>
        <time>2011-10-01T11:11:16Z</time>
      </trkpt>
      <trkpt lat="44.11147" lon="5.39766">
        <ele>810</ele>
        <time>2011-10-01T11:11:21Z</time>
      </trkpt>
      <trkpt lat="44.11158" lon="5.39758">
        <ele>811</ele>
        <time>2011-10-01T11:11:26Z</time>
      </trkpt>
      <trkpt lat="44.11174" lon="5.39749">
        <ele>812</ele>
        <time>2011-10-01T11:11:31Z</time>
      </trkpt>
      <trkpt lat="44.1119" lon="5.39743">
        <ele>813.5</ele>
        <time>2011-10-01T11:11:36Z</time>
      </trkpt>
      <trkpt lat="44.11205" lon="5.39741">
        <ele>816</ele>
        <time>2011-10-01T11:11:41Z</time>
      </trkpt>
      <trkpt lat="44.11217" lon="5.3974">
        <ele>816</ele>
        <time>2011-10-01T11:11:46Z</time>
      </trkpt>
      <trkpt lat="44.11235" lon="5.3974">
        <ele>817.5</ele>
        <time>2011-10-01T11:11:51Z</time>
      </trkpt>
      <trkpt lat="44.11248" lon="5.39739">
        <ele>819</ele>
        <time>2011-10-01T11:11:56Z</time>
      </trkpt>
      <trkpt lat="44.11266" lon="5.39735">
        <ele>819.5</ele>
        <time>2011-10-01T11:12:01Z</time>
      </trkpt>
      <trkpt lat="44.1128" lon="5.39733">
        <ele>820.5</ele>
        <time>2011-10-01T11:12:06Z</time>
      </trkpt>
      <trkpt lat="44.11295" lon="5.3973">
        <ele>821.5</ele>
        <time>2011-10-01T11:12:11Z</time>
      </trkpt>
      <trkpt lat="44.11306" lon="5.39728">
        <ele>822.5</ele>
        <time>2011-10-01T11:12:16Z</time>
      </trkpt>
      <trkpt lat="44.11324" lon="5.39724">
        <ele>824</ele>
        <time>2011-10-01T11:12:21Z</time>
      </trkpt>
      <trkpt lat="44.11336" lon="5.39723">
        <ele>825</ele>
        <time>2011-10-01T11:12:26Z</time>
      </trkpt>
      <trkpt lat="44.11354" lon="5.39724">
        <ele>827</ele>
        <time>2011-10-01T11:12:31Z</time>
      </trkpt>
      <trkpt lat="44.11366" lon="5.39726">
        <ele>827.5</ele>
        <time>2011-10-01T11:12:36Z</time>
      </trkpt>
      <trkpt lat="44.11382" lon="5.39725">
        <ele>828.5</ele>
        <time>2011-10-01T11:12:41Z</time>
      </trkpt>
      <trkpt lat="44.11393" lon="5.39722">
        <ele>829</ele>
        <time>2011-10-01T11:12:46Z</time>
      </trkpt>
      <trkpt lat="44.1141" lon="5.39716">
        <ele>829.5</ele>
        <time>2011-10-01T11:12:51Z</time>
      </trkpt>
      <trkpt lat="44.11422" lon="5.39711">
        <ele>829.5</ele>
        <time>2011-10-01T11:12:56Z</time>
      </trkpt>
      <trkpt lat="44.11438" lon="5.39698">
        <ele>828.5</ele>
        <time>2011-10-01T11:13:01Z</time>
      </trkpt>
      <trkpt lat="44.11443" lon="5.39685">
        <ele>828.5</ele>
        <time>2011-10-01T11:13:06Z</time>
      </trkpt>
      <trkpt lat="44.11441" lon="5.39663">
        <ele>829.5</ele>
        <time>2011-10-01T11:13:11Z</time>
      </trkpt>
      <trkpt lat="44.11436" lon="5.3965">
        <ele>831</ele>
        <time>2011-10-01T11:13:16Z</time>
      </trkpt>
      <trkpt lat="44.11426" lon="5.39632">
        <ele>835</ele>
        <time>2011-10-01T11:13:21Z</time>
      </trkpt>
      <trkpt lat="44.11419" lon="5.39619">
        <ele>837</ele>
        <time>2011-10-01T11:13:26Z</time>
      </trkpt>
      <trkpt lat="44.11412" lon="5.39597">
        <ele>839</ele>
        <time>2011-10-01T11:13:31Z</time>
      </trkpt>
      <trkpt lat="44.11406" lon="5.39583">
        <ele>839.5</ele>
        <time>2011-10-01T11:13:36Z</time>
      </trkpt>
      <trkpt lat="44.11399" lon="5.3956">
        <ele>840</ele>
        <time>2011-10-01T11:13:41Z</time>
      </trkpt>
      <trkpt lat="44.11393" lon="5.39545">
        <ele>839.5</ele>
        <time>2011-10-01T11:13:46Z</time>
      </trkpt>
      <trkpt lat="44.11384" lon="5.39524">
        <ele>840.5</ele>
        <time>2011-10-01T11:13:51Z</time>
      </trkpt>
      <trkpt lat="44.11377" lon="5.39511">
        <ele>841.5</ele>
        <time>2011-10-01T11:13:56Z</time>
      </trkpt>
      <trkpt lat="44.11365" lon="5.39492">
        <ele>842.5</ele>
        <time>2011-10-01T11:14:01Z</time>
      </trkpt>
      <trkpt lat="44.11357" lon="5.3948">
        <ele>842</ele>
        <time>2011-10-01T11:14:06Z</time>
      </trkpt>
      <trkpt lat="44.1134" lon="5.39467">
        <ele>842.5</ele>
        <time>2011-10-01T11:14:11Z</time>
      </trkpt>
      <trkpt lat="44.11329" lon="5.3946">
        <ele>843.5</ele>
        <time>2011-10-01T11:14:16Z</time>
      </trkpt>
      <trkpt lat="44.11313" lon="5.39451">
        <ele>844</ele>
        <time>2011-10-01T11:14:21Z</time>
      </trkpt>
      <trkpt lat="44.11303" lon="5.39446">
        <ele>845</ele>
        <time>2011-10-01T11:14:26Z</time>
      </trkpt>
      <trkpt lat="44.11286" lon="5.39436">
        <ele>846</ele>
        <time>2011-10-01T11:14:31Z</time>
      </trkpt>
      <trkpt lat="44.11275" lon="5.3943">
        <ele>846.5</ele>
        <time>2011-10-01T11:14:36Z</time>
      </trkpt>
      <trkpt lat="44.11258" lon="5.39421">
        <ele>848</ele>
        <time>2011-10-01T11:14:41Z</time>
      </trkpt>
      <trkpt lat="44.11247" lon="5.39414">
        <ele>848</ele>
        <time>2011-10-01T11:14:46Z</time>
      </trkpt>
      <trkpt lat="44.11229" lon="5.39405">
        <ele>851.5</ele>
        <time>2011-10-01T11:14:51Z</time>
      </trkpt>
      <trkpt lat="44.11217" lon="5.39399">
        <ele>852</ele>
        <time>2011-10-01T11:14:56Z</time>
      </trkpt>
      <trkpt lat="44.11197" lon="5.3939">
        <ele>853</ele>
        <time>2011-10-01T11:15:01Z</time>
      </trkpt>
      <trkpt lat="44.11187" lon="5.39375">
        <ele>853.5</ele>
        <time>2011-10-01T11:15:06Z</time>
      </trkpt>
      <trkpt lat="44.11188" lon="5.39344">
        <ele>854</ele>
        <time>2011-10-01T11:15:11Z</time>
      </trkpt>
      <trkpt lat="44.11195" lon="5.39327">
        <ele>854</ele>
        <time>2011-10-01T11:15:16Z</time>
      </trkpt>
      <trkpt lat="44.11207" lon="5.39308">
        <ele>854</ele>
        <time>2011-10-01T11:15:21Z</time>
      </trkpt>
      <trkpt lat="44.11215" lon="5.39295">
        <ele>854</ele>
        <time>2011-10-01T11:15:26Z</time>
      </trkpt>
      <trkpt lat="44.11218" lon="5.39272">
        <ele>854</ele>
        <time>2011-10-01T11:15:31Z</time>
      </trkpt>
      <trkpt lat="44.11213" lon="5.39259">
        <ele>854.5</ele>
        <time>2011-10-01T11:15:36Z</time>
      </trkpt>
      <trkpt lat="44.11198" lon="5.39251">
        <ele>854</ele>
        <time>2011-10-01T11:15:41Z</time>
      </trkpt>
      <trkpt lat="44.11187" lon="5.39248">
        <ele>854</ele>
        <time>2011-10-01T11:15:46Z</time>
      </trkpt>
      <trkpt lat="44.11171" lon="5.39242">
        <ele>854</ele>
        <time>2011-10-01T11:15:51Z</time>
      </trkpt>
      <trkpt lat="44.11162" lon="5.39237">
        <ele>855</ele>
        <time>2011-10-01T11:15:56Z</time>
      </trkpt>
      <trkpt lat="44.11147" lon="5.39229">
        <ele>856</ele>
        <time>2011-10-01T11:16:01Z</time>
      </trkpt>
      <trkpt lat="44.11136" lon="5.39223">
        <ele>857</ele>
        <time>2011-10-01T11:16:06Z</time>
      </trkpt>
      <trkpt lat="44.11119" lon="5.39214">
        <ele>858.5</ele>
        <time>2011-10-01T11:16:11Z</time>
      </trkpt>
      <trkpt lat="44.11107" lon="5.39207">
        <ele>858.5</ele>
        <time>2011-10-01T11:16:16Z</time>
      </trkpt>
      <trkpt lat="44.1109" lon="5.39197">
        <ele>861</ele>
        <time>2011-10-01T11:16:21Z</time>
      </trkpt>
      <trkpt lat="44.11079" lon="5.39191">
        <ele>861.5</ele>
        <time>2011-10-01T11:16:26Z</time>
      </trkpt>
      <trkpt lat="44.11065" lon="5.39184">
        <ele>863</ele>
        <time>2011-10-01T11:16:31Z</time>
      </trkpt>
      <trkpt lat="44.11053" lon="5.39177">
        <ele>864</ele>
        <time>2011-10-01T11:16:36Z</time>
      </trkpt>
      <trkpt lat="44.11039" lon="5.39162">
        <ele>865</ele>
        <time>2011-10-01T11:16:41Z</time>
      </trkpt>
      <trkpt lat="44.11024" lon="5.39149">
        <ele>867</ele>
        <time>2011-10-01T11:16:46Z</time>
      </trkpt>
      <trkpt lat="44.11012" lon="5.39138">
        <ele>867.5</ele>
        <time>2011-10-01T11:16:51Z</time>
      </trkpt>
      <trkpt lat="44.11002" lon="5.39129">
        <ele>870.5</ele>
        <time>2011-10-01T11:16:56Z</time>
      </trkpt>
      <trkpt lat="44.10989" lon="5.39114">
        <ele>873</ele>
        <time>2011-10-01T11:17:01Z</time>
      </trkpt>
      <trkpt lat="44.10981" lon="5.391">
        <ele>874</ele>
        <time>2011-10-01T11:17:06Z</time>
      </trkpt>
      <trkpt lat="44.10976" lon="5.39074">
        <ele>873.5</ele>
        <time>2011-10-01T11:17:11Z</time>
      </trkpt>
      <trkpt lat="44.10976" lon="5.39054">
        <ele>874</ele>
        <time>2011-10-01T11:17:16Z</time>
      </trkpt>
      <trkpt lat="44.10978" lon="5.39025">
        <ele>875</ele>
        <time>2011-10-01T11:17:21Z</time>
      </trkpt>
      <trkpt lat="44.10981" lon="5.39006">
        <ele>876.5</ele>
        <time>2011-10-01T11:17:26Z</time>
      </trkpt>
      <trkpt lat="44.10988" lon="5.38979">
        <ele>877</ele>
        <time>2011-10-01T11:17:31Z</time>
      </trkpt>
      <trkpt lat="44.10995" lon="5.38962">
        <ele>877.5</ele>
        <time>2011-10-01T11:17:36Z</time>
      </trkpt>
      <trkpt lat="44.11008" lon="5.38942">
        <ele>879</ele>
        <time>2011-10-01T11:17:41Z</time>
      </trkpt>
      <trkpt lat="44.11018" lon="5.3893">
        <ele>880</ele>
        <time>2011-10-01T11:17:46Z</time>
      </trkpt>
      <trkpt lat="44.11032" lon="5.38912">
        <ele>881</ele>
        <time>2011-10-01T11:17:51Z</time>
      </trkpt>
      <trkpt lat="44.11043" lon="5.38902">
        <ele>881.5</ele>
        <time>2011-10-01T11:17:56Z</time>
      </trkpt>
      <trkpt lat="44.1106" lon="5.3889">
        <ele>880.5</ele>
        <time>2011-10-01T11:18:01Z</time>
      </trkpt>
      <trkpt lat="44.11072" lon="5.38883">
        <ele>881</ele>
        <time>2011-10-01T11:18:06Z</time>
      </trkpt>
      <trkpt lat="44.11092" lon="5.38875">
        <ele>880.5</ele>
        <time>2011-10-01T11:18:11Z</time>
      </trkpt>
      <trkpt lat="44.11106" lon="5.38872">
        <ele>881</ele>
        <time>2011-10-01T11:18:16Z</time>
      </trkpt>
      <trkpt lat="44.11126" lon="5.3887">
        <ele>882</ele>
        <time>2011-10-01T11:18:21Z</time>
      </trkpt>
      <trkpt lat="44.11141" lon="5.38871">
        <ele>882.5</ele>
        <time>2011-10-01T11:18:26Z</time>
      </trkpt>
      <trkpt lat="44.11166" lon="5.38873">
        <ele>883.5</ele>
        <time>2011-10-01T11:18:31Z</time>
      </trkpt>
      <trkpt lat="44.11182" lon="5.38874">
        <ele>883.5</ele>
        <time>2011-10-01T11:18:36Z</time>
      </trkpt>
      <trkpt lat="44.11206" lon="5.38874">
        <ele>884.5</ele>
        <time>2011-10-01T11:18:41Z</time>
      </trkpt>
      <trkpt lat="44.11225" lon="5.38872">
        <ele>885.5</ele>
        <time>2011-10-01T11:18:46Z</time>
      </trkpt>
      <trkpt lat="44.11245" lon="5.38873">
        <ele>885</ele>
        <time>2011-10-01T11:18:51Z</time>
      </trkpt>
      <trkpt lat="44.1126" lon="5.38879">
        <ele>886</ele>
        <time>2011-10-01T11:18:56Z</time>
      </trkpt>
      <trkpt lat="44.11281" lon="5.38896">
        <ele>887.5</ele>
        <time>2011-10-01T11:19:01Z</time>
      </trkpt>
      <trkpt lat="44.11293" lon="5.38909">
        <ele>888</ele>
        <time>2011-10-01T11:19:06Z</time>
      </trkpt>
      <trkpt lat="44.11311" lon="5.38927">
        <ele>889</ele>
        <time>2011-10-01T11:19:11Z</time>
      </trkpt>
      <trkpt lat="44.11323" lon="5.38936">
        <ele>891</ele>
        <time>2011-10-01T11:19:16Z</time>
      </trkpt>
      <trkpt lat="44.11346" lon="5.38941">
        <ele>891.5</ele>
        <time>2011-10-01T11:19:21Z</time>
      </trkpt>
      <trkpt lat="44.11361" lon="5.38936">
        <ele>892.5</ele>
        <time>2011-10-01T11:19:26Z</time>
      </trkpt>
      <trkpt lat="44.11382" lon="5.38919">
        <ele>893.5</ele>
        <time>2011-10-01T11:19:31Z</time>
      </trkpt>
      <trkpt lat="44.11396" lon="5.38909">
        <ele>893</ele>
        <time>2011-10-01T11:19:36Z</time>
      </trkpt>
      <trkpt lat="44.11417" lon="5.38895">
        <ele>894</ele>
        <time>2011-10-01T11:19:41Z</time>
      </trkpt>
      <trkpt lat="44.1143" lon="5.38887">
        <ele>894.5</ele>
        <time>2011-10-01T11:19:46Z</time>
      </trkpt>
      <trkpt lat="44.11447" lon="5.38886">
        <ele>895.5</ele>
        <time>2011-10-01T11:19:51Z</time>
      </trkpt>
      <trkpt lat="44.11448" lon="5.38886">
        <ele>894.5</ele>
        <time>2011-10-01T11:19:56Z</time>
      </trkpt>
      <trkpt lat="44.11448" lon="5.38886">
        <ele>893.5</ele>
        <time>2011-10-01T11:20:01Z</time>
      </trkpt>
      <trkpt lat="44.11448" lon="5.38886">
        <ele>894</ele>
        <time>2011-10-01T11:20:06Z</time>
      </trkpt>
      <trkpt lat="44.11454" lon="5.38888">
        <ele>894.5</ele>
        <time>2011-10-01T11:20:11Z</time>
      </trkpt>
      <trkpt lat="44.11458" lon="5.38891">
        <ele>895.5</ele>
        <time>2011-10-01T11:20:16Z</time>
      </trkpt>
      <trkpt lat="44.11457" lon="5.3889">
        <ele>896</ele>
        <time>2011-10-01T11:20:21Z</time>
      </trkpt>
      <trkpt lat="44.11457" lon="5.38891">
        <ele>895.5</ele>
        <time>2011-10-01T11:20:26Z</time>
      </trkpt>
      <trkpt lat="44.11458" lon="5.38891">
        <ele>895.5</ele>
        <time>2011-10-01T11:20:31Z</time>
      </trkpt>
      <trkpt lat="44.11468" lon="5.38896">
        <ele>895</ele>
        <time>2011-10-01T11:20:36Z</time>
      </trkpt>
      <trkpt lat="44.11489" lon="5.38904">
        <ele>896</ele>
        <time>2011-10-01T11:20:41Z</time>
      </trkpt>
      <trkpt lat="44.11504" lon="5.38902">
        <ele>896.5</ele>
        <time>2011-10-01T11:20:46Z</time>
      </trkpt>
      <trkpt lat="44.11524" lon="5.38885">
        <ele>897</ele>
        <time>2011-10-01T11:20:51Z</time>
      </trkpt>
      <trkpt lat="44.11535" lon="5.38865">
        <ele>898.5</ele>
        <time>2011-10-01T11:20:56Z</time>
      </trkpt>
      <trkpt lat="44.1155" lon="5.38835">
        <ele>900.5</ele>
        <time>2011-10-01T11:21:01Z</time>
      </trkpt>
      <trkpt lat="44.11558" lon="5.38815">
        <ele>901</ele>
        <time>2011-10-01T11:21:06Z</time>
      </trkpt>
      <trkpt lat="44.11573" lon="5.38787">
        <ele>901.5</ele>
        <time>2011-10-01T11:21:11Z</time>
      </trkpt>
      <trkpt lat="44.11584" lon="5.3877">
        <ele>901.5</ele>
        <time>2011-10-01T11:21:16Z</time>
      </trkpt>
      <trkpt lat="44.11603" lon="5.38749">
        <ele>903</ele>
        <time>2011-10-01T11:21:21Z</time>
      </trkpt>
      <trkpt lat="44.11616" lon="5.38741">
        <ele>904.5</ele>
        <time>2011-10-01T11:21:26Z</time>
      </trkpt>
      <trkpt lat="44.11636" lon="5.3873">
        <ele>906</ele>
        <time>2011-10-01T11:21:31Z</time>
      </trkpt>
      <trkpt lat="44.1165" lon="5.38723">
        <ele>907.5</ele>
        <time>2011-10-01T11:21:36Z</time>
      </trkpt>
      <trkpt lat="44.11669" lon="5.38712">
        <ele>908</ele>
        <time>2011-10-01T11:21:41Z</time>
      </trkpt>
      <trkpt lat="44.11682" lon="5.38704">
        <ele>908.5</ele>
        <time>2011-10-01T11:21:46Z</time>
      </trkpt>
      <trkpt lat="44.11702" lon="5.38691">
        <ele>910</ele>
        <time>2011-10-01T11:21:51Z</time>
      </trkpt>
      <trkpt lat="44.11716" lon="5.38681">
        <ele>911</ele>
        <time>2011-10-01T11:21:56Z</time>
      </trkpt>
      <trkpt lat="44.11733" lon="5.38665">
        <ele>912</ele>
        <time>2011-10-01T11:22:01Z</time>
      </trkpt>
      <trkpt lat="44.11745" lon="5.38655">
        <ele>913.5</ele>
        <time>2011-10-01T11:22:06Z</time>
      </trkpt>
      <trkpt lat="44.11761" lon="5.38639">
        <ele>914.5</ele>
        <time>2011-10-01T11:22:11Z</time>
      </trkpt>
      <trkpt lat="44.1177" lon="5.38628">
        <ele>915</ele>
        <time>2011-10-01T11:22:16Z</time>
      </trkpt>
      <trkpt lat="44.11775" lon="5.38604">
        <ele>916</ele>
        <time>2011-10-01T11:22:21Z</time>
      </trkpt>
      <trkpt lat="44.11769" lon="5.38589">
        <ele>916</ele>
        <time>2011-10-01T11:22:26Z</time>
      </trkpt>
      <trkpt lat="44.11756" lon="5.38567">
        <ele>916</ele>
        <time>2011-10-01T11:22:31Z</time>
      </trkpt>
      <trkpt lat="44.11747" lon="5.38554">
        <ele>916.5</ele>
        <time>2011-10-01T11:22:36Z</time>
      </trkpt>
      <trkpt lat="44.11735" lon="5.38533">
        <ele>919</ele>
        <time>2011-10-01T11:22:41Z</time>
      </trkpt>
      <trkpt lat="44.11728" lon="5.38519">
        <ele>920</ele>
        <time>2011-10-01T11:22:46Z</time>
      </trkpt>
      <trkpt lat="44.11722" lon="5.38493">
        <ele>921</ele>
        <time>2011-10-01T11:22:51Z</time>
      </trkpt>
      <trkpt lat="44.1172" lon="5.38475">
        <ele>921</ele>
        <time>2011-10-01T11:22:56Z</time>
      </trkpt>
      <trkpt lat="44.1172" lon="5.38449">
        <ele>922</ele>
        <time>2011-10-01T11:23:01Z</time>
      </trkpt>
      <trkpt lat="44.11723" lon="5.38432">
        <ele>922.5</ele>
        <time>2011-10-01T11:23:06Z</time>
      </trkpt>
      <trkpt lat="44.11728" lon="5.38408">
        <ele>924.5</ele>
        <time>2011-10-01T11:23:11Z</time>
      </trkpt>
      <trkpt lat="44.11734" lon="5.38395">
        <ele>925</ele>
        <time>2011-10-01T11:23:16Z</time>
      </trkpt>
      <trkpt lat="44.11746" lon="5.38375">
        <ele>925.5</ele>
        <time>2011-10-01T11:23:21Z</time>
      </trkpt>
      <trkpt lat="44.11755" lon="5.38364">
        <ele>926</ele>
        <time>2011-10-01T11:23:26Z</time>
      </trkpt>
      <trkpt lat="44.11769" lon="5.38349">
        <ele>927</ele>
        <time>2011-10-01T11:23:31Z</time>
      </trkpt>
      <trkpt lat="44.11779" lon="5.38339">
        <ele>927.5</ele>
        <time>2011-10-01T11:23:36Z</time>
      </trkpt>
      <trkpt lat="44.11793" lon="5.38324">
        <ele>928.5</ele>
        <time>2011-10-01T11:23:41Z</time>
      </trkpt>
      <trkpt lat="44.11803" lon="5.38314">
        <ele>929</ele>
        <time>2011-10-01T11:23:46Z</time>
      </trkpt>
      <trkpt lat="44.11817" lon="5.38298">
        <ele>929.5</ele>
        <time>2011-10-01T11:23:51Z</time>
      </trkpt>
      <trkpt lat="44.11827" lon="5.38286">
        <ele>930</ele>
        <time>2011-10-01T11:23:56Z</time>
      </trkpt>
      <trkpt lat="44.11842" lon="5.38271">
        <ele>930.5</ele>
        <time>2011-10-01T11:24:01Z</time>
      </trkpt>
      <trkpt lat="44.11852" lon="5.3826">
        <ele>932</ele>
        <time>2011-10-01T11:24:06Z</time>
      </trkpt>
      <trkpt lat="44.11867" lon="5.38244">
        <ele>932.5</ele>
        <time>2011-10-01T11:24:11Z</time>
      </trkpt>
      <trkpt lat="44.11877" lon="5.38234">
        <ele>933</ele>
        <time>2011-10-01T11:24:16Z</time>
      </trkpt>
      <trkpt lat="44.11889" lon="5.38214">
        <ele>932.5</ele>
        <time>2011-10-01T11:24:21Z</time>
      </trkpt>
      <trkpt lat="44.11894" lon="5.38198">
        <ele>933</ele>
        <time>2011-10-01T11:24:26Z</time>
      </trkpt>
      <trkpt lat="44.11896" lon="5.38175">
        <ele>935.5</ele>
        <time>2011-10-01T11:24:31Z</time>
      </trkpt>
      <trkpt lat="44.11897" lon="5.38162">
        <ele>939</ele>
        <time>2011-10-01T11:24:36Z</time>
      </trkpt>
      <trkpt lat="44.11901" lon="5.38138">
        <ele>941.5</ele>
        <time>2011-10-01T11:24:41Z</time>
      </trkpt>
      <trkpt lat="44.11906" lon="5.38123">
        <ele>942</ele>
        <time>2011-10-01T11:24:46Z</time>
      </trkpt>
      <trkpt lat="44.11916" lon="5.38101">
        <ele>942.5</ele>
        <time>2011-10-01T11:24:51Z</time>
      </trkpt>
      <trkpt lat="44.11923" lon="5.38088">
        <ele>941.5</ele>
        <time>2011-10-01T11:24:56Z</time>
      </trkpt>
      <trkpt lat="44.11935" lon="5.38067">
        <ele>940</ele>
        <time>2011-10-01T11:25:01Z</time>
      </trkpt>
      <trkpt lat="44.11943" lon="5.38053">
        <ele>940.5</ele>
        <time>2011-10-01T11:25:06Z</time>
      </trkpt>
      <trkpt lat="44.11956" lon="5.38033">
        <ele>941</ele>
        <time>2011-10-01T11:25:11Z</time>
      </trkpt>
      <trkpt lat="44.11964" lon="5.38019">
        <ele>941.5</ele>
        <time>2011-10-01T11:25:16Z</time>
      </trkpt>
      <trkpt lat="44.11976" lon="5.37998">
        <ele>942.5</ele>
        <time>2011-10-01T11:25:21Z</time>
      </trkpt>
      <trkpt lat="44.11984" lon="5.37984">
        <ele>944</ele>
        <time>2011-10-01T11:25:26Z</time>
      </trkpt>
      <trkpt lat="44.11996" lon="5.37965">
        <ele>942.5</ele>
        <time>2011-10-01T11:25:31Z</time>
      </trkpt>
      <trkpt lat="44.12005" lon="5.37953">
        <ele>943</ele>
        <time>2011-10-01T11:25:36Z</time>
      </trkpt>
      <trkpt lat="44.1202" lon="5.37935">
        <ele>942.5</ele>
        <time>2011-10-01T11:25:41Z</time>
      </trkpt>
      <trkpt lat="44.12031" lon="5.37923">
        <ele>943</ele>
        <time>2011-10-01T11:25:46Z</time>
      </trkpt>
      <trkpt lat="44.12047" lon="5.37906">
        <ele>943.5</ele>
        <time>2011-10-01T11:25:51Z</time>
      </trkpt>
      <trkpt lat="44.12057" lon="5.37895">
        <ele>944.5</ele>
        <time>2011-10-01T11:25:56Z</time>
      </trkpt>
      <trkpt lat="44.12073" lon="5.37878">
        <ele>944.5</ele>
        <time>2011-10-01T11:26:01Z</time>
      </trkpt>
      <trkpt lat="44.12083" lon="5.37867">
        <ele>945</ele>
        <time>2011-10-01T11:26:06Z</time>
      </trkpt>
      <trkpt lat="44.12097" lon="5.37849">
        <ele>947</ele>
        <time>2011-10-01T11:26:11Z</time>
      </trkpt>
      <trkpt lat="44.12104" lon="5.37835">
        <ele>948</ele>
        <time>2011-10-01T11:26:16Z</time>
      </trkpt>
      <trkpt lat="44.12111" lon="5.37812">
        <ele>949.5</ele>
        <time>2011-10-01T11:26:21Z</time>
      </trkpt>
      <trkpt lat="44.12114" lon="5.37796">
        <ele>951.5</ele>
        <time>2011-10-01T11:26:26Z</time>
      </trkpt>
      <trkpt lat="44.12119" lon="5.37772">
        <ele>954</ele>
        <time>2011-10-01T11:26:31Z</time>
      </trkpt>
      <trkpt lat="44.12125" lon="5.37755">
        <ele>955</ele>
        <time>2011-10-01T11:26:36Z</time>
      </trkpt>
      <trkpt lat="44.12133" lon="5.37729">
        <ele>958</ele>
        <time>2011-10-01T11:26:41Z</time>
      </trkpt>
      <trkpt lat="44.12137" lon="5.37715">
        <ele>958.5</ele>
        <time>2011-10-01T11:26:46Z</time>
      </trkpt>
      <trkpt lat="44.12143" lon="5.3769">
        <ele>962</ele>
        <time>2011-10-01T11:26:51Z</time>
      </trkpt>
      <trkpt lat="44.12148" lon="5.37673">
        <ele>963</ele>
        <time>2011-10-01T11:26:56Z</time>
      </trkpt>
      <trkpt lat="44.12155" lon="5.37649">
        <ele>965</ele>
        <time>2011-10-01T11:27:01Z</time>
      </trkpt>
      <trkpt lat="44.12161" lon="5.37633">
        <ele>965.5</ele>
        <time>2011-10-01T11:27:06Z</time>
      </trkpt>
      <trkpt lat="44.12171" lon="5.3761">
        <ele>967.5</ele>
        <time>2011-10-01T11:27:11Z</time>
      </trkpt>
      <trkpt lat="44.12179" lon="5.37594">
        <ele>968</ele>
        <time>2011-10-01T11:27:16Z</time>
      </trkpt>
      <trkpt lat="44.1219" lon="5.3757">
        <ele>967.5</ele>
        <time>2011-10-01T11:27:21Z</time>
      </trkpt>
      <trkpt lat="44.12198" lon="5.37557">
        <ele>968</ele>
        <time>2011-10-01T11:27:26Z</time>
      </trkpt>
      <trkpt lat="44.12212" lon="5.37536">
        <ele>968</ele>
        <time>2011-10-01T11:27:31Z</time>
      </trkpt>
      <trkpt lat="44.12221" lon="5.37522">
        <ele>968</ele>
        <time>2011-10-01T11:27:36Z</time>
      </trkpt>
      <trkpt lat="44.12236" lon="5.37502">
        <ele>969.5</ele>
        <time>2011-10-01T11:27:41Z</time>
      </trkpt>
      <trkpt lat="44.12245" lon="5.37488">
        <ele>969</ele>
        <time>2011-10-01T11:27:46Z</time>
      </trkpt>
      <trkpt lat="44.12261" lon="5.37469">
        <ele>970.5</ele>
        <time>2011-10-01T11:27:51Z</time>
      </trkpt>
      <trkpt lat="44.12272" lon="5.37456">
        <ele>971.5</ele>
        <time>2011-10-01T11:27:56Z</time>
      </trkpt>
      <trkpt lat="44.12289" lon="5.37437">
        <ele>971.5</ele>
        <time>2011-10-01T11:28:01Z</time>
      </trkpt>
      <trkpt lat="44.123" lon="5.37424">
        <ele>972</ele>
        <time>2011-10-01T11:28:06Z</time>
      </trkpt>
      <trkpt lat="44.12314" lon="5.37408">
        <ele>972</ele>
        <time>2011-10-01T11:28:11Z</time>
      </trkpt>
      <trkpt lat="44.12325" lon="5.37397">
        <ele>972</ele>
        <time>2011-10-01T11:28:16Z</time>
      </trkpt>
      <trkpt lat="44.1234" lon="5.3738">
        <ele>972</ele>
        <time>2011-10-01T11:28:21Z</time>
      </trkpt>
      <trkpt lat="44.1235" lon="5.37369">
        <ele>973</ele>
        <time>2011-10-01T11:28:26Z</time>
      </trkpt>
      <trkpt lat="44.12367" lon="5.37353">
        <ele>975</ele>
        <time>2011-10-01T11:28:31Z</time>
      </trkpt>
      <trkpt lat="44.12378" lon="5.37344">
        <ele>975.5</ele>
        <time>2011-10-01T11:28:36Z</time>
      </trkpt>
      <trkpt lat="44.12396" lon="5.3733">
        <ele>977</ele>
        <time>2011-10-01T11:28:41Z</time>
      </trkpt>
      <trkpt lat="44.12407" lon="5.37321">
        <ele>978</ele>
        <time>2011-10-01T11:28:46Z</time>
      </trkpt>
      <trkpt lat="44.12425" lon="5.37311">
        <ele>978.5</ele>
        <time>2011-10-01T11:28:51Z</time>
      </trkpt>
      <trkpt lat="44.12437" lon="5.37306">
        <ele>979.5</ele>
        <time>2011-10-01T11:28:56Z</time>
      </trkpt>
      <trkpt lat="44.12455" lon="5.373">
        <ele>980.5</ele>
        <time>2011-10-01T11:29:01Z</time>
      </trkpt>
      <trkpt lat="44.12468" lon="5.37296">
        <ele>982</ele>
        <time>2011-10-01T11:29:06Z</time>
      </trkpt>
      <trkpt lat="44.12488" lon="5.37294">
        <ele>985</ele>
        <time>2011-10-01T11:29:11Z</time>
      </trkpt>
      <trkpt lat="44.125" lon="5.37292">
        <ele>986</ele>
        <time>2011-10-01T11:29:16Z</time>
      </trkpt>
      <trkpt lat="44.12519" lon="5.3729">
        <ele>989</ele>
        <time>2011-10-01T11:29:21Z</time>
      </trkpt>
      <trkpt lat="44.12532" lon="5.37291">
        <ele>989.5</ele>
        <time>2011-10-01T11:29:26Z</time>
      </trkpt>
      <trkpt lat="44.12551" lon="5.37291">
        <ele>992</ele>
        <time>2011-10-01T11:29:31Z</time>
      </trkpt>
      <trkpt lat="44.12564" lon="5.3729">
        <ele>994.5</ele>
        <time>2011-10-01T11:29:36Z</time>
      </trkpt>
      <trkpt lat="44.12583" lon="5.37289">
        <ele>998.5</ele>
        <time>2011-10-01T11:29:41Z</time>
      </trkpt>
      <trkpt lat="44.12596" lon="5.37287">
        <ele>1000.5</ele>
        <time>2011-10-01T11:29:46Z</time>
      </trkpt>
      <trkpt lat="44.12615" lon="5.37285">
        <ele>1004</ele>
        <time>2011-10-01T11:29:51Z</time>
      </trkpt>
      <trkpt lat="44.12627" lon="5.37285">
        <ele>1005.5</ele>
        <time>2011-10-01T11:29:56Z</time>
      </trkpt>
      <trkpt lat="44.12647" lon="5.37283">
        <ele>1009.5</ele>
        <time>2011-10-01T11:30:01Z</time>
      </trkpt>
      <trkpt lat="44.12661" lon="5.37285">
        <ele>1010.5</ele>
        <time>2011-10-01T11:30:06Z</time>
      </trkpt>
      <trkpt lat="44.12681" lon="5.37288">
        <ele>1012.5</ele>
        <time>2011-10-01T11:30:11Z</time>
      </trkpt>
      <trkpt lat="44.12694" lon="5.37293">
        <ele>1013.5</ele>
        <time>2011-10-01T11:30:16Z</time>
      </trkpt>
      <trkpt lat="44.12715" lon="5.37299">
        <ele>1016</ele>
        <time>2011-10-01T11:30:21Z</time>
      </trkpt>
      <trkpt lat="44.12728" lon="5.37305">
        <ele>1016</ele>
        <time>2011-10-01T11:30:26Z</time>
      </trkpt>
      <trkpt lat="44.12745" lon="5.37315">
        <ele>1018</ele>
        <time>2011-10-01T11:30:31Z</time>
      </trkpt>
      <trkpt lat="44.12758" lon="5.37319">
        <ele>1018.5</ele>
        <time>2011-10-01T11:30:36Z</time>
      </trkpt>
      <trkpt lat="44.12777" lon="5.37325">
        <ele>1019.5</ele>
        <time>2011-10-01T11:30:41Z</time>
      </trkpt>
      <trkpt lat="44.1279" lon="5.3733">
        <ele>1021</ele>
        <time>2011-10-01T11:30:46Z</time>
      </trkpt>
      <trkpt lat="44.12808" lon="5.37334">
        <ele>1022.5</ele>
        <time>2011-10-01T11:30:51Z</time>
      </trkpt>
      <trkpt lat="44.12821" lon="5.37335">
        <ele>1022.5</ele>
        <time>2011-10-01T11:30:56Z</time>
      </trkpt>
      <trkpt lat="44.12839" lon="5.37336">
        <ele>1023</ele>
        <time>2011-10-01T11:31:01Z</time>
      </trkpt>
      <trkpt lat="44.12852" lon="5.37334">
        <ele>1025</ele>
        <time>2011-10-01T11:31:06Z</time>
      </trkpt>
      <trkpt lat="44.12872" lon="5.37334">
        <ele>1026</ele>
        <time>2011-10-01T11:31:11Z</time>
      </trkpt>
      <trkpt lat="44.12885" lon="5.37334">
        <ele>1026.5</ele>
        <time>2011-10-01T11:31:16Z</time>
      </trkpt>
      <trkpt lat="44.12905" lon="5.37336">
        <ele>1026.5</ele>
        <time>2011-10-01T11:31:21Z</time>
      </trkpt>
      <trkpt lat="44.12917" lon="5.37335">
        <ele>1026.5</ele>
        <time>2011-10-01T11:31:26Z</time>
      </trkpt>
      <trkpt lat="44.12936" lon="5.37332">
        <ele>1027</ele>
        <time>2011-10-01T11:31:31Z</time>
      </trkpt>
      <trkpt lat="44.12949" lon="5.37328">
        <ele>1027.5</ele>
        <time>2011-10-01T11:31:36Z</time>
      </trkpt>
      <trkpt lat="44.12967" lon="5.37319">
        <ele>1029.5</ele>
        <time>2011-10-01T11:31:41Z</time>
      </trkpt>
      <trkpt lat="44.12978" lon="5.37316">
        <ele>1028.5</ele>
        <time>2011-10-01T11:31:46Z</time>
      </trkpt>
      <trkpt lat="44.12995" lon="5.37308">
        <ele>1029</ele>
        <time>2011-10-01T11:31:51Z</time>
      </trkpt>
      <trkpt lat="44.13009" lon="5.37306">
        <ele>1030.5</ele>
        <time>2011-10-01T11:31:56Z</time>
      </trkpt>
      <trkpt lat="44.13028" lon="5.37304">
        <ele>1030.5</ele>
        <time>2011-10-01T11:32:01Z</time>
      </trkpt>
      <trkpt lat="44.13041" lon="5.37307">
        <ele>1029</ele>
        <time>2011-10-01T11:32:06Z</time>
      </trkpt>
      <trkpt lat="44.1306" lon="5.37313">
        <ele>1030</ele>
        <time>2011-10-01T11:32:11Z</time>
      </trkpt>
      <trkpt lat="44.13073" lon="5.37316">
        <ele>1030.5</ele>
        <time>2011-10-01T11:32:16Z</time>
      </trkpt>
      <trkpt lat="44.13092" lon="5.37322">
        <ele>1031</ele>
        <time>2011-10-01T11:32:21Z</time>
      </trkpt>
      <trkpt lat="44.13104" lon="5.37326">
        <ele>1032</ele>
        <time>2011-10-01T11:32:26Z</time>
      </trkpt>
      <trkpt lat="44.13123" lon="5.37333">
        <ele>1035.5</ele>
        <time>2011-10-01T11:32:31Z</time>
      </trkpt>
      <trkpt lat="44.13136" lon="5.37339">
        <ele>1037</ele>
        <time>2011-10-01T11:32:36Z</time>
      </trkpt>
      <trkpt lat="44.13152" lon="5.37348">
        <ele>1036.5</ele>
        <time>2011-10-01T11:32:41Z</time>
      </trkpt>
      <trkpt lat="44.13166" lon="5.37356">
        <ele>1037</ele>
        <time>2011-10-01T11:32:46Z</time>
      </trkpt>
      <trkpt lat="44.13184" lon="5.37366">
        <ele>1038</ele>
        <time>2011-10-01T11:32:51Z</time>
      </trkpt>
      <trkpt lat="44.13195" lon="5.37373">
        <ele>1037.5</ele>
        <time>2011-10-01T11:32:56Z</time>
      </trkpt>
      <trkpt lat="44.13213" lon="5.37382">
        <ele>1039</ele>
        <time>2011-10-01T11:33:01Z</time>
      </trkpt>
      <trkpt lat="44.13224" lon="5.3739">
        <ele>1039</ele>
        <time>2011-10-01T11:33:06Z</time>
      </trkpt>
      <trkpt lat="44.13241" lon="5.374">
        <ele>1040.5</ele>
        <time>2011-10-01T11:33:11Z</time>
      </trkpt>
      <trkpt lat="44.13254" lon="5.37405">
        <ele>1041.5</ele>
        <time>2011-10-01T11:33:16Z</time>
      </trkpt>
      <trkpt lat="44.13272" lon="5.37414">
        <ele>1042.5</ele>
        <time>2011-10-01T11:33:21Z</time>
      </trkpt>
      <trkpt lat="44.13283" lon="5.37417">
        <ele>1044</ele>
        <time>2011-10-01T11:33:26Z</time>
      </trkpt>
      <trkpt lat="44.13301" lon="5.37424">
        <ele>1045</ele>
        <time>2011-10-01T11:33:31Z</time>
      </trkpt>
      <trkpt lat="44.13313" lon="5.37428">
        <ele>1046</ele>
        <time>2011-10-01T11:33:36Z</time>
      </trkpt>
      <trkpt lat="44.13332" lon="5.37432">
        <ele>1048</ele>
        <time>2011-10-01T11:33:41Z</time>
      </trkpt>
      <trkpt lat="44.13344" lon="5.37435">
        <ele>1049.5</ele>
        <time>2011-10-01T11:33:46Z</time>
      </trkpt>
      <trkpt lat="44.13362" lon="5.3744">
        <ele>1051</ele>
        <time>2011-10-01T11:33:51Z</time>
      </trkpt>
      <trkpt lat="44.13374" lon="5.37442">
        <ele>1053.5</ele>
        <time>2011-10-01T11:33:56Z</time>
      </trkpt>
      <trkpt lat="44.13392" lon="5.37441">
        <ele>1056.5</ele>
        <time>2011-10-01T11:34:01Z</time>
      </trkpt>
      <trkpt lat="44.13404" lon="5.37437">
        <ele>1059</ele>
        <time>2011-10-01T11:34:06Z</time>
      </trkpt>
      <trkpt lat="44.13422" lon="5.3743">
        <ele>1060</ele>
        <time>2011-10-01T11:34:11Z</time>
      </trkpt>
      <trkpt lat="44.13434" lon="5.37427">
        <ele>1060.5</ele>
        <time>2011-10-01T11:34:16Z</time>
      </trkpt>
      <trkpt lat="44.13453" lon="5.37425">
        <ele>1059.5</ele>
        <time>2011-10-01T11:34:21Z</time>
      </trkpt>
      <trkpt lat="44.13465" lon="5.37422">
        <ele>1060</ele>
        <time>2011-10-01T11:34:26Z</time>
      </trkpt>
      <trkpt lat="44.13484" lon="5.37419">
        <ele>1060</ele>
        <time>2011-10-01T11:34:31Z</time>
      </trkpt>
      <trkpt lat="44.13495" lon="5.37416">
        <ele>1061</ele>
        <time>2011-10-01T11:34:36Z</time>
      </trkpt>
      <trkpt lat="44.13514" lon="5.37412">
        <ele>1062</ele>
        <time>2011-10-01T11:34:41Z</time>
      </trkpt>
      <trkpt lat="44.13525" lon="5.3741">
        <ele>1062.5</ele>
        <time>2011-10-01T11:34:46Z</time>
      </trkpt>
      <trkpt lat="44.13544" lon="5.37404">
        <ele>1063</ele>
        <time>2011-10-01T11:34:51Z</time>
      </trkpt>
      <trkpt lat="44.13556" lon="5.37401">
        <ele>1063.5</ele>
        <time>2011-10-01T11:34:56Z</time>
      </trkpt>
      <trkpt lat="44.13574" lon="5.37398">
        <ele>1064</ele>
        <time>2011-10-01T11:35:01Z</time>
      </trkpt>
      <trkpt lat="44.13584" lon="5.37395">
        <ele>1064.5</ele>
        <time>2011-10-01T11:35:06Z</time>
      </trkpt>
      <trkpt lat="44.13601" lon="5.37393">
        <ele>1066.5</ele>
        <time>2011-10-01T11:35:11Z</time>
      </trkpt>
      <trkpt lat="44.13612" lon="5.37391">
        <ele>1067.5</ele>
        <time>2011-10-01T11:35:16Z</time>
      </trkpt>
      <trkpt lat="44.13627" lon="5.37387">
        <ele>1068.5</ele>
        <time>2011-10-01T11:35:21Z</time>
      </trkpt>
      <trkpt lat="44.13637" lon="5.37383">
        <ele>1069.5</ele>
        <time>2011-10-01T11:35:26Z</time>
      </trkpt>
      <trkpt lat="44.13647" lon="5.37369">
        <ele>1069</ele>
        <time>2011-10-01T11:35:31Z</time>
      </trkpt>
      <trkpt lat="44.13645" lon="5.37354">
        <ele>1069</ele>
        <time>2011-10-01T11:35:36Z</time>
      </trkpt>
      <trkpt lat="44.13634" lon="5.37338">
        <ele>1069</ele>
        <time>2011-10-01T11:35:41Z</time>
      </trkpt>
      <trkpt lat="44.13626" lon="5.37334">
        <ele>1069.5</ele>
        <time>2011-10-01T11:35:46Z</time>
      </trkpt>
      <trkpt lat="44.13609" lon="5.37328">
        <ele>1069</ele>
        <time>2011-10-01T11:35:51Z</time>
      </trkpt>
      <trkpt lat="44.136" lon="5.37322">
        <ele>1068.5</ele>
        <time>2011-10-01T11:35:56Z</time>
      </trkpt>
      <trkpt lat="44.13584" lon="5.37312">
        <ele>1069</ele>
        <time>2011-10-01T11:36:01Z</time>
      </trkpt>
      <trkpt lat="44.13574" lon="5.37306">
        <ele>1069.5</ele>
        <time>2011-10-01T11:36:06Z</time>
      </trkpt>
      <trkpt lat="44.13561" lon="5.37288">
        <ele>1069.5</ele>
        <time>2011-10-01T11:36:11Z</time>
      </trkpt>
      <trkpt lat="44.13552" lon="5.3728">
        <ele>1071.5</ele>
        <time>2011-10-01T11:36:16Z</time>
      </trkpt>
      <trkpt lat="44.13538" lon="5.37264">
        <ele>1073.5</ele>
        <time>2011-10-01T11:36:21Z</time>
      </trkpt>
      <trkpt lat="44.13528" lon="5.37251">
        <ele>1074.5</ele>
        <time>2011-10-01T11:36:26Z</time>
      </trkpt>
      <trkpt lat="44.13512" lon="5.37229">
        <ele>1076</ele>
        <time>2011-10-01T11:36:31Z</time>
      </trkpt>
      <trkpt lat="44.13499" lon="5.37215">
        <ele>1075.5</ele>
        <time>2011-10-01T11:36:36Z</time>
      </trkpt>
      <trkpt lat="44.13482" lon="5.37191">
        <ele>1077.5</ele>
        <time>2011-10-01T11:36:41Z</time>
      </trkpt>
      <trkpt lat="44.13469" lon="5.37176">
        <ele>1078</ele>
        <time>2011-10-01T11:36:46Z</time>
      </trkpt>
      <trkpt lat="44.13451" lon="5.37155">
        <ele>1080</ele>
        <time>2011-10-01T11:36:51Z</time>
      </trkpt>
      <trkpt lat="44.1344" lon="5.37138">
        <ele>1081</ele>
        <time>2011-10-01T11:36:56Z</time>
      </trkpt>
      <trkpt lat="44.13434" lon="5.37106">
        <ele>1081.5</ele>
        <time>2011-10-01T11:37:01Z</time>
      </trkpt>
      <trkpt lat="44.13439" lon="5.37086">
        <ele>1083.5</ele>
        <time>2011-10-01T11:37:06Z</time>
      </trkpt>
      <trkpt lat="44.13455" lon="5.37067">
        <ele>1085</ele>
        <time>2011-10-01T11:37:11Z</time>
      </trkpt>
      <trkpt lat="44.13468" lon="5.37057">
        <ele>1086.5</ele>
        <time>2011-10-01T11:37:16Z</time>
      </trkpt>
      <trkpt lat="44.13487" lon="5.37044">
        <ele>1087.5</ele>
        <time>2011-10-01T11:37:21Z</time>
      </trkpt>
      <trkpt lat="44.13499" lon="5.37036">
        <ele>1088.5</ele>
        <time>2011-10-01T11:37:26Z</time>
      </trkpt>
      <trkpt lat="44.13518" lon="5.37023">
        <ele>1090</ele>
        <time>2011-10-01T11:37:31Z</time>
      </trkpt>
      <trkpt lat="44.13529" lon="5.37014">
        <ele>1091.5</ele>
        <time>2011-10-01T11:37:36Z</time>
      </trkpt>
      <trkpt lat="44.13545" lon="5.37">
        <ele>1091.5</ele>
        <time>2011-10-01T11:37:41Z</time>
      </trkpt>
      <trkpt lat="44.13556" lon="5.36992">
        <ele>1092.5</ele>
        <time>2011-10-01T11:37:46Z</time>
      </trkpt>
      <trkpt lat="44.13572" lon="5.36978">
        <ele>1093.5</ele>
        <time>2011-10-01T11:37:51Z</time>
      </trkpt>
      <trkpt lat="44.13582" lon="5.36971">
        <ele>1094</ele>
        <time>2011-10-01T11:37:56Z</time>
      </trkpt>
      <trkpt lat="44.13598" lon="5.3696">
        <ele>1095</ele>
        <time>2011-10-01T11:38:01Z</time>
      </trkpt>
      <trkpt lat="44.13609" lon="5.36955">
        <ele>1096</ele>
        <time>2011-10-01T11:38:06Z</time>
      </trkpt>
      <trkpt lat="44.13625" lon="5.36948">
        <ele>1097</ele>
        <time>2011-10-01T11:38:11Z</time>
      </trkpt>
      <trkpt lat="44.13636" lon="5.36945">
        <ele>1097.5</ele>
        <time>2011-10-01T11:38:16Z</time>
      </trkpt>
      <trkpt lat="44.13651" lon="5.36937">
        <ele>1097.5</ele>
        <time>2011-10-01T11:38:21Z</time>
      </trkpt>
      <trkpt lat="44.13664" lon="5.36932">
        <ele>1098</ele>
        <time>2011-10-01T11:38:26Z</time>
      </trkpt>
      <trkpt lat="44.13683" lon="5.36925">
        <ele>1100.5</ele>
        <time>2011-10-01T11:38:31Z</time>
      </trkpt>
      <trkpt lat="44.13695" lon="5.36921">
        <ele>1101.5</ele>
        <time>2011-10-01T11:38:36Z</time>
      </trkpt>
      <trkpt lat="44.13712" lon="5.36915">
        <ele>1102.5</ele>
        <time>2011-10-01T11:38:41Z</time>
      </trkpt>
      <trkpt lat="44.13721" lon="5.3691">
        <ele>1103.5</ele>
        <time>2011-10-01T11:38:46Z</time>
      </trkpt>
      <trkpt lat="44.13737" lon="5.36902">
        <ele>1106</ele>
        <time>2011-10-01T11:38:51Z</time>
      </trkpt>
      <trkpt lat="44.13748" lon="5.36893">
        <ele>1107.5</ele>
        <time>2011-10-01T11:38:56Z</time>
      </trkpt>
      <trkpt lat="44.13763" lon="5.36879">
        <ele>1109</ele>
        <time>2011-10-01T11:39:01Z</time>
      </trkpt>
      <trkpt lat="44.13773" lon="5.3687">
        <ele>1111</ele>
        <time>2011-10-01T11:39:06Z</time>
      </trkpt>
      <trkpt lat="44.13787" lon="5.36853">
        <ele>1112</ele>
        <time>2011-10-01T11:39:11Z</time>
      </trkpt>
      <trkpt lat="44.13797" lon="5.36843">
        <ele>1113</ele>
        <time>2011-10-01T11:39:16Z</time>
      </trkpt>
      <trkpt lat="44.1381" lon="5.36828">
        <ele>1114.5</ele>
        <time>2011-10-01T11:39:21Z</time>
      </trkpt>
      <trkpt lat="44.1382" lon="5.36818">
        <ele>1115.5</ele>
        <time>2011-10-01T11:39:26Z</time>
      </trkpt>
      <trkpt lat="44.13836" lon="5.36806">
        <ele>1116.5</ele>
        <time>2011-10-01T11:39:31Z</time>
      </trkpt>
      <trkpt lat="44.13847" lon="5.36799">
        <ele>1117</ele>
        <time>2011-10-01T11:39:36Z</time>
      </trkpt>
      <trkpt lat="44.13864" lon="5.3679">
        <ele>1118.5</ele>
        <time>2011-10-01T11:39:41Z</time>
      </trkpt>
      <trkpt lat="44.13874" lon="5.36785">
        <ele>1119</ele>
        <time>2011-10-01T11:39:46Z</time>
      </trkpt>
      <trkpt lat="44.1389" lon="5.36779">
        <ele>1120.5</ele>
        <time>2011-10-01T11:39:51Z</time>
      </trkpt>
      <trkpt lat="44.139" lon="5.36776">
        <ele>1120.5</ele>
        <time>2011-10-01T11:39:56Z</time>
      </trkpt>
      <trkpt lat="44.13917" lon="5.36774">
        <ele>1122</ele>
        <time>2011-10-01T11:40:01Z</time>
      </trkpt>
      <trkpt lat="44.13928" lon="5.36774">
        <ele>1123.5</ele>
        <time>2011-10-01T11:40:06Z</time>
      </trkpt>
      <trkpt lat="44.13945" lon="5.36775">
        <ele>1125.5</ele>
        <time>2011-10-01T11:40:11Z</time>
      </trkpt>
      <trkpt lat="44.13957" lon="5.36777">
        <ele>1125.5</ele>
        <time>2011-10-01T11:40:16Z</time>
      </trkpt>
      <trkpt lat="44.13972" lon="5.36775">
        <ele>1127</ele>
        <time>2011-10-01T11:40:21Z</time>
      </trkpt>
      <trkpt lat="44.13981" lon="5.36775">
        <ele>1127.5</ele>
        <time>2011-10-01T11:40:26Z</time>
      </trkpt>
      <trkpt lat="44.13991" lon="5.36775">
        <ele>1130</ele>
        <time>2011-10-01T11:40:31Z</time>
      </trkpt>
      <trkpt lat="44.13998" lon="5.36775">
        <ele>1131.5</ele>
        <time>2011-10-01T11:40:36Z</time>
      </trkpt>
      <trkpt lat="44.14009" lon="5.36777">
        <ele>1134</ele>
        <time>2011-10-01T11:40:41Z</time>
      </trkpt>
      <trkpt lat="44.14015" lon="5.3678">
        <ele>1135.5</ele>
        <time>2011-10-01T11:40:46Z</time>
      </trkpt>
      <trkpt lat="44.14032" lon="5.36784">
        <ele>1139</ele>
        <time>2011-10-01T11:40:51Z</time>
      </trkpt>
      <trkpt lat="44.14043" lon="5.3679">
        <ele>1141.5</ele>
        <time>2011-10-01T11:40:56Z</time>
      </trkpt>
      <trkpt lat="44.14061" lon="5.36799">
        <ele>1146</ele>
        <time>2011-10-01T11:41:01Z</time>
      </trkpt>
      <trkpt lat="44.14072" lon="5.36806">
        <ele>1149</ele>
        <time>2011-10-01T11:41:06Z</time>
      </trkpt>
      <trkpt lat="44.1409" lon="5.36819">
        <ele>1151.5</ele>
        <time>2011-10-01T11:41:11Z</time>
      </trkpt>
      <trkpt lat="44.14099" lon="5.36827">
        <ele>1153.5</ele>
        <time>2011-10-01T11:41:16Z</time>
      </trkpt>
      <trkpt lat="44.14112" lon="5.36841">
        <ele>1156.5</ele>
        <time>2011-10-01T11:41:21Z</time>
      </trkpt>
      <trkpt lat="44.1412" lon="5.36851">
        <ele>1158</ele>
        <time>2011-10-01T11:41:26Z</time>
      </trkpt>
      <trkpt lat="44.14132" lon="5.36865">
        <ele>1162.5</ele>
        <time>2011-10-01T11:41:31Z</time>
      </trkpt>
      <trkpt lat="44.14139" lon="5.36876">
        <ele>1163.5</ele>
        <time>2011-10-01T11:41:36Z</time>
      </trkpt>
      <trkpt lat="44.14147" lon="5.36898">
        <ele>1160</ele>
        <time>2011-10-01T11:41:41Z</time>
      </trkpt>
      <trkpt lat="44.14152" lon="5.36911">
        <ele>1158</ele>
        <time>2011-10-01T11:41:46Z</time>
      </trkpt>
      <trkpt lat="44.14161" lon="5.3693">
        <ele>1156</ele>
        <time>2011-10-01T11:41:51Z</time>
      </trkpt>
      <trkpt lat="44.14167" lon="5.36943">
        <ele>1153.5</ele>
        <time>2011-10-01T11:41:56Z</time>
      </trkpt>
      <trkpt lat="44.14174" lon="5.36962">
        <ele>1150</ele>
        <time>2011-10-01T11:42:01Z</time>
      </trkpt>
      <trkpt lat="44.14177" lon="5.36976">
        <ele>1147</ele>
        <time>2011-10-01T11:42:06Z</time>
      </trkpt>
      <trkpt lat="44.14181" lon="5.37">
        <ele>1145.5</ele>
        <time>2011-10-01T11:42:11Z</time>
      </trkpt>
      <trkpt lat="44.14185" lon="5.37017">
        <ele>1145.5</ele>
        <time>2011-10-01T11:42:16Z</time>
      </trkpt>
      <trkpt lat="44.14192" lon="5.3704">
        <ele>1146</ele>
        <time>2011-10-01T11:42:21Z</time>
      </trkpt>
      <trkpt lat="44.14198" lon="5.37049">
        <ele>1146.5</ele>
        <time>2011-10-01T11:42:26Z</time>
      </trkpt>
      <trkpt lat="44.14212" lon="5.37058">
        <ele>1148.5</ele>
        <time>2011-10-01T11:42:31Z</time>
      </trkpt>
      <trkpt lat="44.14228" lon="5.37055">
        <ele>1149</ele>
        <time>2011-10-01T11:42:36Z</time>
      </trkpt>
      <trkpt lat="44.14242" lon="5.37042">
        <ele>1149.5</ele>
        <time>2011-10-01T11:42:41Z</time>
      </trkpt>
      <trkpt lat="44.14251" lon="5.37028">
        <ele>1150</ele>
        <time>2011-10-01T11:42:46Z</time>
      </trkpt>
      <trkpt lat="44.14259" lon="5.37009">
        <ele>1152.5</ele>
        <time>2011-10-01T11:42:51Z</time>
      </trkpt>
      <trkpt lat="44.14259" lon="5.36997">
        <ele>1153.5</ele>
        <time>2011-10-01T11:42:56Z</time>
      </trkpt>
      <trkpt lat="44.14259" lon="5.36977">
        <ele>1156.5</ele>
        <time>2011-10-01T11:43:01Z</time>
      </trkpt>
      <trkpt lat="44.14261" lon="5.36962">
        <ele>1156</ele>
        <time>2011-10-01T11:43:06Z</time>
      </trkpt>
      <trkpt lat="44.14263" lon="5.36939">
        <ele>1156</ele>
        <time>2011-10-01T11:43:11Z</time>
      </trkpt>
      <trkpt lat="44.14264" lon="5.36925">
        <ele>1157.5</ele>
        <time>2011-10-01T11:43:16Z</time>
      </trkpt>
      <trkpt lat="44.14266" lon="5.36903">
        <ele>1158.5</ele>
        <time>2011-10-01T11:43:21Z</time>
      </trkpt>
      <trkpt lat="44.14266" lon="5.36888">
        <ele>1159.5</ele>
        <time>2011-10-01T11:43:26Z</time>
      </trkpt>
      <trkpt lat="44.14267" lon="5.36866">
        <ele>1161.5</ele>
        <time>2011-10-01T11:43:31Z</time>
      </trkpt>
      <trkpt lat="44.14267" lon="5.36852">
        <ele>1162.5</ele>
        <time>2011-10-01T11:43:36Z</time>
      </trkpt>
      <trkpt lat="44.14268" lon="5.3683">
        <ele>1164</ele>
        <time>2011-10-01T11:43:41Z</time>
      </trkpt>
      <trkpt lat="44.1427" lon="5.36817">
        <ele>1164</ele>
        <time>2011-10-01T11:43:46Z</time>
      </trkpt>
      <trkpt lat="44.14274" lon="5.36796">
        <ele>1164.5</ele>
        <time>2011-10-01T11:43:51Z</time>
      </trkpt>
      <trkpt lat="44.14279" lon="5.36785">
        <ele>1164.5</ele>
        <time>2011-10-01T11:43:56Z</time>
      </trkpt>
      <trkpt lat="44.14289" lon="5.36769">
        <ele>1163.5</ele>
        <time>2011-10-01T11:44:01Z</time>
      </trkpt>
      <trkpt lat="44.14299" lon="5.36757">
        <ele>1164</ele>
        <time>2011-10-01T11:44:06Z</time>
      </trkpt>
      <trkpt lat="44.14314" lon="5.36738">
        <ele>1166.5</ele>
        <time>2011-10-01T11:44:11Z</time>
      </trkpt>
      <trkpt lat="44.14324" lon="5.36726">
        <ele>1168.5</ele>
        <time>2011-10-01T11:44:16Z</time>
      </trkpt>
      <trkpt lat="44.14341" lon="5.36708">
        <ele>1169.5</ele>
        <time>2011-10-01T11:44:21Z</time>
      </trkpt>
      <trkpt lat="44.14351" lon="5.36698">
        <ele>1170</ele>
        <time>2011-10-01T11:44:26Z</time>
      </trkpt>
      <trkpt lat="44.14366" lon="5.36687">
        <ele>1170.5</ele>
        <time>2011-10-01T11:44:31Z</time>
      </trkpt>
      <trkpt lat="44.14376" lon="5.3668">
        <ele>1169.5</ele>
        <time>2011-10-01T11:44:36Z</time>
      </trkpt>
      <trkpt lat="44.14393" lon="5.3667">
        <ele>1169.5</ele>
        <time>2011-10-01T11:44:41Z</time>
      </trkpt>
      <trkpt lat="44.14403" lon="5.36665">
        <ele>1170.5</ele>
        <time>2011-10-01T11:44:46Z</time>
      </trkpt>
      <trkpt lat="44.1442" lon="5.36659">
        <ele>1171.5</ele>
        <time>2011-10-01T11:44:51Z</time>
      </trkpt>
      <trkpt lat="44.14431" lon="5.36656">
        <ele>1171.5</ele>
        <time>2011-10-01T11:44:56Z</time>
      </trkpt>
      <trkpt lat="44.14447" lon="5.36653">
        <ele>1172</ele>
        <time>2011-10-01T11:45:01Z</time>
      </trkpt>
      <trkpt lat="44.14457" lon="5.36649">
        <ele>1174.5</ele>
        <time>2011-10-01T11:45:06Z</time>
      </trkpt>
      <trkpt lat="44.14475" lon="5.36645">
        <ele>1175.5</ele>
        <time>2011-10-01T11:45:11Z</time>
      </trkpt>
      <trkpt lat="44.14487" lon="5.36644">
        <ele>1177</ele>
        <time>2011-10-01T11:45:16Z</time>
      </trkpt>
      <trkpt lat="44.14506" lon="5.36645">
        <ele>1178.5</ele>
        <time>2011-10-01T11:45:21Z</time>
      </trkpt>
      <trkpt lat="44.14519" lon="5.36646">
        <ele>1179.5</ele>
        <time>2011-10-01T11:45:26Z</time>
      </trkpt>
      <trkpt lat="44.14537" lon="5.36646">
        <ele>1183</ele>
        <time>2011-10-01T11:45:31Z</time>
      </trkpt>
      <trkpt lat="44.14549" lon="5.36646">
        <ele>1185.5</ele>
        <time>2011-10-01T11:45:36Z</time>
      </trkpt>
      <trkpt lat="44.14565" lon="5.36646">
        <ele>1187</ele>
        <time>2011-10-01T11:45:41Z</time>
      </trkpt>
      <trkpt lat="44.14575" lon="5.3664">
        <ele>1187.5</ele>
        <time>2011-10-01T11:45:46Z</time>
      </trkpt>
      <trkpt lat="44.14577" lon="5.36629">
        <ele>1182</ele>
        <time>2011-10-01T11:45:51Z</time>
      </trkpt>
      <trkpt lat="44.1457" lon="5.36619">
        <ele>1179.5</ele>
        <time>2011-10-01T11:45:56Z</time>
      </trkpt>
      <trkpt lat="44.14559" lon="5.366">
        <ele>1179</ele>
        <time>2011-10-01T11:46:01Z</time>
      </trkpt>
      <trkpt lat="44.14552" lon="5.36588">
        <ele>1179</ele>
        <time>2011-10-01T11:46:06Z</time>
      </trkpt>
      <trkpt lat="44.14542" lon="5.3657">
        <ele>1178.5</ele>
        <time>2011-10-01T11:46:11Z</time>
      </trkpt>
      <trkpt lat="44.14534" lon="5.36557">
        <ele>1179</ele>
        <time>2011-10-01T11:46:16Z</time>
      </trkpt>
      <trkpt lat="44.14522" lon="5.36538">
        <ele>1180.5</ele>
        <time>2011-10-01T11:46:21Z</time>
      </trkpt>
      <trkpt lat="44.14517" lon="5.36523">
        <ele>1183</ele>
        <time>2011-10-01T11:46:26Z</time>
      </trkpt>
      <trkpt lat="44.14506" lon="5.36504">
        <ele>1184</ele>
        <time>2011-10-01T11:46:31Z</time>
      </trkpt>
      <trkpt lat="44.145" lon="5.3649">
        <ele>1185.5</ele>
        <time>2011-10-01T11:46:36Z</time>
      </trkpt>
      <trkpt lat="44.14491" lon="5.36467">
        <ele>1187</ele>
        <time>2011-10-01T11:46:41Z</time>
      </trkpt>
      <trkpt lat="44.14489" lon="5.36452">
        <ele>1188.5</ele>
        <time>2011-10-01T11:46:46Z</time>
      </trkpt>
      <trkpt lat="44.1449" lon="5.36428">
        <ele>1190.5</ele>
        <time>2011-10-01T11:46:51Z</time>
      </trkpt>
      <trkpt lat="44.14496" lon="5.36411">
        <ele>1189</ele>
        <time>2011-10-01T11:46:56Z</time>
      </trkpt>
      <trkpt lat="44.14511" lon="5.36389">
        <ele>1189</ele>
        <time>2011-10-01T11:47:01Z</time>
      </trkpt>
      <trkpt lat="44.14523" lon="5.36376">
        <ele>1188.5</ele>
        <time>2011-10-01T11:47:06Z</time>
      </trkpt>
      <trkpt lat="44.1454" lon="5.36358">
        <ele>1190</ele>
        <time>2011-10-01T11:47:11Z</time>
      </trkpt>
      <trkpt lat="44.14552" lon="5.36345">
        <ele>1191.5</ele>
        <time>2011-10-01T11:47:16Z</time>
      </trkpt>
      <trkpt lat="44.14569" lon="5.36327">
        <ele>1195</ele>
        <time>2011-10-01T11:47:21Z</time>
      </trkpt>
      <trkpt lat="44.1458" lon="5.36316">
        <ele>1197.5</ele>
        <time>2011-10-01T11:47:26Z</time>
      </trkpt>
      <trkpt lat="44.14589" lon="5.36298">
        <ele>1199.5</ele>
        <time>2011-10-01T11:47:31Z</time>
      </trkpt>
      <trkpt lat="44.14593" lon="5.3628">
        <ele>1202</ele>
        <time>2011-10-01T11:47:36Z</time>
      </trkpt>
      <trkpt lat="44.14594" lon="5.36255">
        <ele>1203.5</ele>
        <time>2011-10-01T11:47:41Z</time>
      </trkpt>
      <trkpt lat="44.14592" lon="5.36238">
        <ele>1204.5</ele>
        <time>2011-10-01T11:47:46Z</time>
      </trkpt>
      <trkpt lat="44.14589" lon="5.36209">
        <ele>1204.5</ele>
        <time>2011-10-01T11:47:51Z</time>
      </trkpt>
      <trkpt lat="44.14586" lon="5.36192">
        <ele>1205</ele>
        <time>2011-10-01T11:47:56Z</time>
      </trkpt>
      <trkpt lat="44.14583" lon="5.36167">
        <ele>1206.5</ele>
        <time>2011-10-01T11:48:01Z</time>
      </trkpt>
      <trkpt lat="44.1458" lon="5.36152">
        <ele>1207.5</ele>
        <time>2011-10-01T11:48:06Z</time>
      </trkpt>
      <trkpt lat="44.14579" lon="5.3613">
        <ele>1211</ele>
        <time>2011-10-01T11:48:11Z</time>
      </trkpt>
      <trkpt lat="44.14579" lon="5.36114">
        <ele>1211.5</ele>
        <time>2011-10-01T11:48:16Z</time>
      </trkpt>
      <trkpt lat="44.14584" lon="5.3609">
        <ele>1212</ele>
        <time>2011-10-01T11:48:21Z</time>
      </trkpt>
      <trkpt lat="44.14588" lon="5.36074">
        <ele>1211.5</ele>
        <time>2011-10-01T11:48:26Z</time>
      </trkpt>
      <trkpt lat="44.14598" lon="5.36051">
        <ele>1210.5</ele>
        <time>2011-10-01T11:48:31Z</time>
      </trkpt>
      <trkpt lat="44.14605" lon="5.36036">
        <ele>1212.5</ele>
        <time>2011-10-01T11:48:36Z</time>
      </trkpt>
      <trkpt lat="44.14615" lon="5.36012">
        <ele>1213</ele>
        <time>2011-10-01T11:48:41Z</time>
      </trkpt>
      <trkpt lat="44.14625" lon="5.35998">
        <ele>1213.5</ele>
        <time>2011-10-01T11:48:46Z</time>
      </trkpt>
      <trkpt lat="44.14641" lon="5.35977">
        <ele>1213</ele>
        <time>2011-10-01T11:48:51Z</time>
      </trkpt>
      <trkpt lat="44.14653" lon="5.35966">
        <ele>1213.5</ele>
        <time>2011-10-01T11:48:56Z</time>
      </trkpt>
      <trkpt lat="44.14671" lon="5.3595">
        <ele>1214</ele>
        <time>2011-10-01T11:49:01Z</time>
      </trkpt>
      <trkpt lat="44.14683" lon="5.35941">
        <ele>1215</ele>
        <time>2011-10-01T11:49:06Z</time>
      </trkpt>
      <trkpt lat="44.14701" lon="5.35931">
        <ele>1215</ele>
        <time>2011-10-01T11:49:11Z</time>
      </trkpt>
      <trkpt lat="44.14714" lon="5.35924">
        <ele>1216</ele>
        <time>2011-10-01T11:49:16Z</time>
      </trkpt>
      <trkpt lat="44.14733" lon="5.35918">
        <ele>1217.5</ele>
        <time>2011-10-01T11:49:21Z</time>
      </trkpt>
      <trkpt lat="44.14747" lon="5.35915">
        <ele>1218</ele>
        <time>2011-10-01T11:49:26Z</time>
      </trkpt>
      <trkpt lat="44.14768" lon="5.35911">
        <ele>1220.5</ele>
        <time>2011-10-01T11:49:31Z</time>
      </trkpt>
      <trkpt lat="44.14781" lon="5.35914">
        <ele>1221.5</ele>
        <time>2011-10-01T11:49:36Z</time>
      </trkpt>
      <trkpt lat="44.14797" lon="5.35916">
        <ele>1224</ele>
        <time>2011-10-01T11:49:41Z</time>
      </trkpt>
      <trkpt lat="44.14808" lon="5.35918">
        <ele>1226</ele>
        <time>2011-10-01T11:49:46Z</time>
      </trkpt>
      <trkpt lat="44.14824" lon="5.35921">
        <ele>1227.5</ele>
        <time>2011-10-01T11:49:51Z</time>
      </trkpt>
      <trkpt lat="44.14836" lon="5.35922">
        <ele>1229.5</ele>
        <time>2011-10-01T11:49:56Z</time>
      </trkpt>
      <trkpt lat="44.14854" lon="5.35926">
        <ele>1231.5</ele>
        <time>2011-10-01T11:50:01Z</time>
      </trkpt>
      <trkpt lat="44.14864" lon="5.35928">
        <ele>1233</ele>
        <time>2011-10-01T11:50:06Z</time>
      </trkpt>
      <trkpt lat="44.14881" lon="5.35931">
        <ele>1235</ele>
        <time>2011-10-01T11:50:11Z</time>
      </trkpt>
      <trkpt lat="44.14892" lon="5.35933">
        <ele>1237</ele>
        <time>2011-10-01T11:50:16Z</time>
      </trkpt>
      <trkpt lat="44.14908" lon="5.35936">
        <ele>1240</ele>
        <time>2011-10-01T11:50:21Z</time>
      </trkpt>
      <trkpt lat="44.14919" lon="5.35939">
        <ele>1241.5</ele>
        <time>2011-10-01T11:50:26Z</time>
      </trkpt>
      <trkpt lat="44.14934" lon="5.35942">
        <ele>1243</ele>
        <time>2011-10-01T11:50:31Z</time>
      </trkpt>
      <trkpt lat="44.14943" lon="5.3594">
        <ele>1244</ele>
        <time>2011-10-01T11:50:36Z</time>
      </trkpt>
      <trkpt lat="44.1495" lon="5.35932">
        <ele>1241</ele>
        <time>2011-10-01T11:50:41Z</time>
      </trkpt>
      <trkpt lat="44.14948" lon="5.3593">
        <ele>1234</ele>
        <time>2011-10-01T11:50:46Z</time>
      </trkpt>
      <trkpt lat="44.14937" lon="5.3592">
        <ele>1231.5</ele>
        <time>2011-10-01T11:50:51Z</time>
      </trkpt>
      <trkpt lat="44.14928" lon="5.3591">
        <ele>1230.5</ele>
        <time>2011-10-01T11:50:56Z</time>
      </trkpt>
      <trkpt lat="44.14914" lon="5.35895">
        <ele>1231</ele>
        <time>2011-10-01T11:51:01Z</time>
      </trkpt>
      <trkpt lat="44.14904" lon="5.35885">
        <ele>1232</ele>
        <time>2011-10-01T11:51:06Z</time>
      </trkpt>
      <trkpt lat="44.14892" lon="5.35865">
        <ele>1233.5</ele>
        <time>2011-10-01T11:51:11Z</time>
      </trkpt>
      <trkpt lat="44.14887" lon="5.3585">
        <ele>1234.5</ele>
        <time>2011-10-01T11:51:16Z</time>
      </trkpt>
      <trkpt lat="44.14881" lon="5.35826">
        <ele>1235.5</ele>
        <time>2011-10-01T11:51:21Z</time>
      </trkpt>
      <trkpt lat="44.14876" lon="5.35811">
        <ele>1236.5</ele>
        <time>2011-10-01T11:51:26Z</time>
      </trkpt>
      <trkpt lat="44.14869" lon="5.35789">
        <ele>1238.5</ele>
        <time>2011-10-01T11:51:31Z</time>
      </trkpt>
      <trkpt lat="44.14867" lon="5.35772">
        <ele>1241.5</ele>
        <time>2011-10-01T11:51:36Z</time>
      </trkpt>
      <trkpt lat="44.14863" lon="5.35752">
        <ele>1244</ele>
        <time>2011-10-01T11:51:41Z</time>
      </trkpt>
      <trkpt lat="44.14861" lon="5.35741">
        <ele>1247</ele>
        <time>2011-10-01T11:51:46Z</time>
      </trkpt>
      <trkpt lat="44.14859" lon="5.35721">
        <ele>1250</ele>
        <time>2011-10-01T11:51:51Z</time>
      </trkpt>
      <trkpt lat="44.14859" lon="5.35707">
        <ele>1252.5</ele>
        <time>2011-10-01T11:51:56Z</time>
      </trkpt>
      <trkpt lat="44.14861" lon="5.35685">
        <ele>1254</ele>
        <time>2011-10-01T11:52:01Z</time>
      </trkpt>
      <trkpt lat="44.14863" lon="5.35671">
        <ele>1255</ele>
        <time>2011-10-01T11:52:06Z</time>
      </trkpt>
      <trkpt lat="44.1487" lon="5.35648">
        <ele>1255</ele>
        <time>2011-10-01T11:52:11Z</time>
      </trkpt>
      <trkpt lat="44.14877" lon="5.35633">
        <ele>1253.5</ele>
        <time>2011-10-01T11:52:16Z</time>
      </trkpt>
      <trkpt lat="44.14889" lon="5.35612">
        <ele>1252.5</ele>
        <time>2011-10-01T11:52:21Z</time>
      </trkpt>
      <trkpt lat="44.14897" lon="5.35599">
        <ele>1252</ele>
        <time>2011-10-01T11:52:26Z</time>
      </trkpt>
      <trkpt lat="44.14911" lon="5.35581">
        <ele>1251</ele>
        <time>2011-10-01T11:52:31Z</time>
      </trkpt>
      <trkpt lat="44.14921" lon="5.35568">
        <ele>1251.5</ele>
        <time>2011-10-01T11:52:36Z</time>
      </trkpt>
      <trkpt lat="44.14937" lon="5.35548">
        <ele>1255.5</ele>
        <time>2011-10-01T11:52:41Z</time>
      </trkpt>
      <trkpt lat="44.14948" lon="5.35535">
        <ele>1257</ele>
        <time>2011-10-01T11:52:46Z</time>
      </trkpt>
      <trkpt lat="44.14962" lon="5.3552">
        <ele>1259</ele>
        <time>2011-10-01T11:52:51Z</time>
      </trkpt>
      <trkpt lat="44.14973" lon="5.35511">
        <ele>1260</ele>
        <time>2011-10-01T11:52:56Z</time>
      </trkpt>
      <trkpt lat="44.14988" lon="5.35501">
        <ele>1261</ele>
        <time>2011-10-01T11:53:01Z</time>
      </trkpt>
      <trkpt lat="44.15" lon="5.35495">
        <ele>1261.5</ele>
        <time>2011-10-01T11:53:06Z</time>
      </trkpt>
      <trkpt lat="44.1502" lon="5.35494">
        <ele>1264</ele>
        <time>2011-10-01T11:53:11Z</time>
      </trkpt>
      <trkpt lat="44.15032" lon="5.35495">
        <ele>1265</ele>
        <time>2011-10-01T11:53:16Z</time>
      </trkpt>
      <trkpt lat="44.15051" lon="5.35502">
        <ele>1266</ele>
        <time>2011-10-01T11:53:21Z</time>
      </trkpt>
      <trkpt lat="44.15061" lon="5.3551">
        <ele>1267.5</ele>
        <time>2011-10-01T11:53:26Z</time>
      </trkpt>
      <trkpt lat="44.15074" lon="5.35525">
        <ele>1270</ele>
        <time>2011-10-01T11:53:31Z</time>
      </trkpt>
      <trkpt lat="44.15082" lon="5.35533">
        <ele>1271.5</ele>
        <time>2011-10-01T11:53:36Z</time>
      </trkpt>
      <trkpt lat="44.15094" lon="5.35542">
        <ele>1275.5</ele>
        <time>2011-10-01T11:53:41Z</time>
      </trkpt>
      <trkpt lat="44.15104" lon="5.35541">
        <ele>1277</ele>
        <time>2011-10-01T11:53:46Z</time>
      </trkpt>
      <trkpt lat="44.15115" lon="5.35531">
        <ele>1277.5</ele>
        <time>2011-10-01T11:53:51Z</time>
      </trkpt>
      <trkpt lat="44.15119" lon="5.35522">
        <ele>1278</ele>
        <time>2011-10-01T11:53:56Z</time>
      </trkpt>
      <trkpt lat="44.15127" lon="5.35506">
        <ele>1278.5</ele>
        <time>2011-10-01T11:54:01Z</time>
      </trkpt>
      <trkpt lat="44.15134" lon="5.35499">
        <ele>1279</ele>
        <time>2011-10-01T11:54:06Z</time>
      </trkpt>
      <trkpt lat="44.15144" lon="5.35487">
        <ele>1279.5</ele>
        <time>2011-10-01T11:54:11Z</time>
      </trkpt>
      <trkpt lat="44.15151" lon="5.35481">
        <ele>1279</ele>
        <time>2011-10-01T11:54:16Z</time>
      </trkpt>
      <trkpt lat="44.15161" lon="5.35471">
        <ele>1279.5</ele>
        <time>2011-10-01T11:54:21Z</time>
      </trkpt>
      <trkpt lat="44.1517" lon="5.35464">
        <ele>1279.5</ele>
        <time>2011-10-01T11:54:26Z</time>
      </trkpt>
      <trkpt lat="44.15184" lon="5.35456">
        <ele>1282</ele>
        <time>2011-10-01T11:54:31Z</time>
      </trkpt>
      <trkpt lat="44.15194" lon="5.35452">
        <ele>1283</ele>
        <time>2011-10-01T11:54:36Z</time>
      </trkpt>
      <trkpt lat="44.15207" lon="5.35445">
        <ele>1283</ele>
        <time>2011-10-01T11:54:41Z</time>
      </trkpt>
      <trkpt lat="44.15217" lon="5.35443">
        <ele>1282.5</ele>
        <time>2011-10-01T11:54:46Z</time>
      </trkpt>
      <trkpt lat="44.15229" lon="5.35442">
        <ele>1285</ele>
        <time>2011-10-01T11:54:51Z</time>
      </trkpt>
      <trkpt lat="44.15231" lon="5.35445">
        <ele>1285.5</ele>
        <time>2011-10-01T11:54:56Z</time>
      </trkpt>
      <trkpt lat="44.15232" lon="5.35453">
        <ele>1285</ele>
        <time>2011-10-01T11:55:01Z</time>
      </trkpt>
      <trkpt lat="44.15232" lon="5.35455">
        <ele>1285</ele>
        <time>2011-10-01T11:55:06Z</time>
      </trkpt>
      <trkpt lat="44.15234" lon="5.35456">
        <ele>1284.5</ele>
        <time>2011-10-01T11:55:11Z</time>
      </trkpt>
      <trkpt lat="44.15234" lon="5.35457">
        <ele>1284.5</ele>
        <time>2011-10-01T11:55:16Z</time>
      </trkpt>
      <trkpt lat="44.15234" lon="5.35456">
        <ele>1285.5</ele>
        <time>2011-10-01T11:55:21Z</time>
      </trkpt>
      <trkpt lat="44.15234" lon="5.35456">
        <ele>1285.5</ele>
        <time>2011-10-01T11:55:26Z</time>
      </trkpt>
      <trkpt lat="44.15234" lon="5.35456">
        <ele>1285.5</ele>
        <time>2011-10-01T11:55:31Z</time>
      </trkpt>
      <trkpt lat="44.15234" lon="5.35456">
        <ele>1285.5</ele>
        <time>2011-10-01T11:55:36Z</time>
      </trkpt>
      <trkpt lat="44.15234" lon="5.35456">
        <ele>1285.5</ele>
        <time>2011-10-01T11:55:41Z</time>
      </trkpt>
      <trkpt lat="44.15234" lon="5.35456">
        <ele>1285.5</ele>
        <time>2011-10-01T11:55:46Z</time>
      </trkpt>
      <trkpt lat="44.15234" lon="5.35456">
        <ele>1285.5</ele>
        <time>2011-10-01T11:55:51Z</time>
      </trkpt>
      <trkpt lat="44.15234" lon="5.35456">
        <ele>1285.5</ele>
        <time>2011-10-01T11:55:56Z</time>
      </trkpt>
      <trkpt lat="44.15243" lon="5.35462">
        <ele>1284.5</ele>
        <time>2011-10-01T11:56:01Z</time>
      </trkpt>
      <trkpt lat="44.15242" lon="5.35461">
        <ele>1283.5</ele>
        <time>2011-10-01T11:56:06Z</time>
      </trkpt>
      <trkpt lat="44.15241" lon="5.35461">
        <ele>1283</ele>
        <time>2011-10-01T11:56:11Z</time>
      </trkpt>
      <trkpt lat="44.15239" lon="5.3546">
        <ele>1282</ele>
        <time>2011-10-01T11:56:16Z</time>
      </trkpt>
      <trkpt lat="44.15237" lon="5.3546">
        <ele>1281</ele>
        <time>2011-10-01T11:56:21Z</time>
      </trkpt>
      <trkpt lat="44.15236" lon="5.3546">
        <ele>1280.5</ele>
        <time>2011-10-01T11:56:26Z</time>
      </trkpt>
      <trkpt lat="44.15234" lon="5.3546">
        <ele>1281.5</ele>
        <time>2011-10-01T11:56:31Z</time>
      </trkpt>
      <trkpt lat="44.15234" lon="5.35459">
        <ele>1282</ele>
        <time>2011-10-01T11:56:36Z</time>
      </trkpt>
      <trkpt lat="44.15234" lon="5.35459">
        <ele>1282.5</ele>
        <time>2011-10-01T11:56:41Z</time>
      </trkpt>
      <trkpt lat="44.15233" lon="5.35457">
        <ele>1282.5</ele>
        <time>2011-10-01T11:56:46Z</time>
      </trkpt>
      <trkpt lat="44.15232" lon="5.35456">
        <ele>1283</ele>
        <time>2011-10-01T11:56:51Z</time>
      </trkpt>
      <trkpt lat="44.15232" lon="5.35456">
        <ele>1283</ele>
        <time>2011-10-01T11:56:56Z</time>
      </trkpt>
      <trkpt lat="44.15232" lon="5.35456">
        <ele>1283</ele>
        <time>2011-10-01T11:57:01Z</time>
      </trkpt>
      <trkpt lat="44.15232" lon="5.35456">
        <ele>1283</ele>
        <time>2011-10-01T11:57:06Z</time>
      </trkpt>
      <trkpt lat="44.15232" lon="5.35456">
        <ele>1282</ele>
        <time>2011-10-01T11:57:11Z</time>
      </trkpt>
      <trkpt lat="44.15232" lon="5.35455">
        <ele>1281.5</ele>
        <time>2011-10-01T11:57:16Z</time>
      </trkpt>
      <trkpt lat="44.15231" lon="5.35454">
        <ele>1281.5</ele>
        <time>2011-10-01T11:57:21Z</time>
      </trkpt>
      <trkpt lat="44.15231" lon="5.35454">
        <ele>1282</ele>
        <time>2011-10-01T11:57:26Z</time>
      </trkpt>
      <trkpt lat="44.15231" lon="5.35454">
        <ele>1282</ele>
        <time>2011-10-01T11:57:31Z</time>
      </trkpt>
      <trkpt lat="44.15231" lon="5.35454">
        <ele>1282</ele>
        <time>2011-10-01T11:57:36Z</time>
      </trkpt>
      <trkpt lat="44.15231" lon="5.35454">
        <ele>1282</ele>
        <time>2011-10-01T11:57:41Z</time>
      </trkpt>
      <trkpt lat="44.15231" lon="5.35454">
        <ele>1282</ele>
        <time>2011-10-01T11:57:46Z</time>
      </trkpt>
      <trkpt lat="44.15223" lon="5.35435">
        <ele>1283.5</ele>
        <time>2011-10-01T11:57:51Z</time>
      </trkpt>
      <trkpt lat="44.15219" lon="5.35419">
        <ele>1284.5</ele>
        <time>2011-10-01T11:57:56Z</time>
      </trkpt>
      <trkpt lat="44.15217" lon="5.35398">
        <ele>1287</ele>
        <time>2011-10-01T11:58:01Z</time>
      </trkpt>
      <trkpt lat="44.15218" lon="5.35383">
        <ele>1289</ele>
        <time>2011-10-01T11:58:06Z</time>
      </trkpt>
      <trkpt lat="44.15219" lon="5.35366">
        <ele>1290.5</ele>
        <time>2011-10-01T11:58:11Z</time>
      </trkpt>
      <trkpt lat="44.15222" lon="5.35347">
        <ele>1290</ele>
        <time>2011-10-01T11:58:16Z</time>
      </trkpt>
      <trkpt lat="44.15224" lon="5.35332">
        <ele>1290.5</ele>
        <time>2011-10-01T11:58:21Z</time>
      </trkpt>
      <trkpt lat="44.15229" lon="5.35317">
        <ele>1289</ele>
        <time>2011-10-01T11:58:26Z</time>
      </trkpt>
      <trkpt lat="44.15237" lon="5.353">
        <ele>1288.5</ele>
        <time>2011-10-01T11:58:31Z</time>
      </trkpt>
      <trkpt lat="44.15244" lon="5.35288">
        <ele>1287.5</ele>
        <time>2011-10-01T11:58:36Z</time>
      </trkpt>
      <trkpt lat="44.15252" lon="5.35271">
        <ele>1286</ele>
        <time>2011-10-01T11:58:41Z</time>
      </trkpt>
      <trkpt lat="44.15258" lon="5.35258">
        <ele>1287</ele>
        <time>2011-10-01T11:58:46Z</time>
      </trkpt>
      <trkpt lat="44.15263" lon="5.35242">
        <ele>1288.5</ele>
        <time>2011-10-01T11:58:51Z</time>
      </trkpt>
      <trkpt lat="44.15265" lon="5.35232">
        <ele>1288.5</ele>
        <time>2011-10-01T11:58:56Z</time>
      </trkpt>
      <trkpt lat="44.15263" lon="5.3521">
        <ele>1291</ele>
        <time>2011-10-01T11:59:01Z</time>
      </trkpt>
      <trkpt lat="44.15261" lon="5.35191">
        <ele>1294</ele>
        <time>2011-10-01T11:59:06Z</time>
      </trkpt>
      <trkpt lat="44.15263" lon="5.35169">
        <ele>1295.5</ele>
        <time>2011-10-01T11:59:11Z</time>
      </trkpt>
      <trkpt lat="44.15264" lon="5.35147">
        <ele>1295.5</ele>
        <time>2011-10-01T11:59:16Z</time>
      </trkpt>
      <trkpt lat="44.15268" lon="5.35129">
        <ele>1297</ele>
        <time>2011-10-01T11:59:21Z</time>
      </trkpt>
      <trkpt lat="44.15271" lon="5.35106">
        <ele>1297.5</ele>
        <time>2011-10-01T11:59:26Z</time>
      </trkpt>
      <trkpt lat="44.15276" lon="5.35084">
        <ele>1298</ele>
        <time>2011-10-01T11:59:31Z</time>
      </trkpt>
      <trkpt lat="44.15283" lon="5.35066">
        <ele>1298.5</ele>
        <time>2011-10-01T11:59:36Z</time>
      </trkpt>
      <trkpt lat="44.15291" lon="5.3505">
        <ele>1299</ele>
        <time>2011-10-01T11:59:41Z</time>
      </trkpt>
      <trkpt lat="44.15303" lon="5.35035">
        <ele>1298</ele>
        <time>2011-10-01T11:59:46Z</time>
      </trkpt>
      <trkpt lat="44.15315" lon="5.35024">
        <ele>1299</ele>
        <time>2011-10-01T11:59:51Z</time>
      </trkpt>
      <trkpt lat="44.15329" lon="5.35015">
        <ele>1299.5</ele>
        <time>2011-10-01T11:59:56Z</time>
      </trkpt>
      <trkpt lat="44.15342" lon="5.35006">
        <ele>1301</ele>
        <time>2011-10-01T12:00:01Z</time>
      </trkpt>
      <trkpt lat="44.15354" lon="5.35002">
        <ele>1302.5</ele>
        <time>2011-10-01T12:00:06Z</time>
      </trkpt>
      <trkpt lat="44.15374" lon="5.34997">
        <ele>1304</ele>
        <time>2011-10-01T12:00:11Z</time>
      </trkpt>
      <trkpt lat="44.15392" lon="5.34995">
        <ele>1305</ele>
        <time>2011-10-01T12:00:16Z</time>
      </trkpt>
      <trkpt lat="44.1541" lon="5.34994">
        <ele>1306</ele>
        <time>2011-10-01T12:00:21Z</time>
      </trkpt>
      <trkpt lat="44.1543" lon="5.34996">
        <ele>1307</ele>
        <time>2011-10-01T12:00:26Z</time>
      </trkpt>
      <trkpt lat="44.15451" lon="5.34994">
        <ele>1307</ele>
        <time>2011-10-01T12:00:31Z</time>
      </trkpt>
      <trkpt lat="44.15473" lon="5.34984">
        <ele>1307.5</ele>
        <time>2011-10-01T12:00:36Z</time>
      </trkpt>
      <trkpt lat="44.15501" lon="5.3497">
        <ele>1307.5</ele>
        <time>2011-10-01T12:00:41Z</time>
      </trkpt>
      <trkpt lat="44.15523" lon="5.34953">
        <ele>1307.5</ele>
        <time>2011-10-01T12:00:46Z</time>
      </trkpt>
      <trkpt lat="44.15559" lon="5.34933">
        <ele>1308</ele>
        <time>2011-10-01T12:00:51Z</time>
      </trkpt>
      <trkpt lat="44.15585" lon="5.34928">
        <ele>1308</ele>
        <time>2011-10-01T12:00:56Z</time>
      </trkpt>
      <trkpt lat="44.15623" lon="5.34937">
        <ele>1308.5</ele>
        <time>2011-10-01T12:01:01Z</time>
      </trkpt>
      <trkpt lat="44.1565" lon="5.34951">
        <ele>1310.5</ele>
        <time>2011-10-01T12:01:06Z</time>
      </trkpt>
      <trkpt lat="44.15678" lon="5.34953">
        <ele>1311.5</ele>
        <time>2011-10-01T12:01:11Z</time>
      </trkpt>
      <trkpt lat="44.15706" lon="5.34954">
        <ele>1312</ele>
        <time>2011-10-01T12:01:16Z</time>
      </trkpt>
      <trkpt lat="44.15722" lon="5.34933">
        <ele>1312</ele>
        <time>2011-10-01T12:01:21Z</time>
      </trkpt>
      <trkpt lat="44.15711" lon="5.34912">
        <ele>1308.5</ele>
        <time>2011-10-01T12:01:26Z</time>
      </trkpt>
      <trkpt lat="44.15697" lon="5.34887">
        <ele>1308</ele>
        <time>2011-10-01T12:01:31Z</time>
      </trkpt>
      <trkpt lat="44.15689" lon="5.34856">
        <ele>1308.5</ele>
        <time>2011-10-01T12:01:36Z</time>
      </trkpt>
      <trkpt lat="44.15701" lon="5.34828">
        <ele>1309.5</ele>
        <time>2011-10-01T12:01:41Z</time>
      </trkpt>
      <trkpt lat="44.15719" lon="5.34812">
        <ele>1309.5</ele>
        <time>2011-10-01T12:01:46Z</time>
      </trkpt>
      <trkpt lat="44.15742" lon="5.34799">
        <ele>1310.5</ele>
        <time>2011-10-01T12:01:51Z</time>
      </trkpt>
      <trkpt lat="44.15762" lon="5.34783">
        <ele>1311.5</ele>
        <time>2011-10-01T12:01:56Z</time>
      </trkpt>
      <trkpt lat="44.15763" lon="5.34756">
        <ele>1311.5</ele>
        <time>2011-10-01T12:02:01Z</time>
      </trkpt>
      <trkpt lat="44.15746" lon="5.34742">
        <ele>1311.5</ele>
        <time>2011-10-01T12:02:06Z</time>
      </trkpt>
      <trkpt lat="44.15726" lon="5.34739">
        <ele>1312</ele>
        <time>2011-10-01T12:02:11Z</time>
      </trkpt>
      <trkpt lat="44.15707" lon="5.34734">
        <ele>1315</ele>
        <time>2011-10-01T12:02:16Z</time>
      </trkpt>
      <trkpt lat="44.15692" lon="5.34725">
        <ele>1316.5</ele>
        <time>2011-10-01T12:02:21Z</time>
      </trkpt>
      <trkpt lat="44.15676" lon="5.34715">
        <ele>1320</ele>
        <time>2011-10-01T12:02:26Z</time>
      </trkpt>
      <trkpt lat="44.1566" lon="5.34704">
        <ele>1323</ele>
        <time>2011-10-01T12:02:31Z</time>
      </trkpt>
      <trkpt lat="44.15643" lon="5.34689">
        <ele>1325</ele>
        <time>2011-10-01T12:02:36Z</time>
      </trkpt>
      <trkpt lat="44.15626" lon="5.34667">
        <ele>1322.5</ele>
        <time>2011-10-01T12:02:41Z</time>
      </trkpt>
      <trkpt lat="44.15614" lon="5.34646">
        <ele>1323</ele>
        <time>2011-10-01T12:02:46Z</time>
      </trkpt>
      <trkpt lat="44.15601" lon="5.34624">
        <ele>1323</ele>
        <time>2011-10-01T12:02:51Z</time>
      </trkpt>
      <trkpt lat="44.15589" lon="5.3461">
        <ele>1322</ele>
        <time>2011-10-01T12:02:56Z</time>
      </trkpt>
      <trkpt lat="44.15571" lon="5.34591">
        <ele>1321.5</ele>
        <time>2011-10-01T12:03:01Z</time>
      </trkpt>
      <trkpt lat="44.15555" lon="5.34575">
        <ele>1322.5</ele>
        <time>2011-10-01T12:03:06Z</time>
      </trkpt>
      <trkpt lat="44.15545" lon="5.34553">
        <ele>1323</ele>
        <time>2011-10-01T12:03:11Z</time>
      </trkpt>
      <trkpt lat="44.15536" lon="5.34533">
        <ele>1323.5</ele>
        <time>2011-10-01T12:03:16Z</time>
      </trkpt>
      <trkpt lat="44.15529" lon="5.34514">
        <ele>1325</ele>
        <time>2011-10-01T12:03:21Z</time>
      </trkpt>
      <trkpt lat="44.1552" lon="5.34497">
        <ele>1325.5</ele>
        <time>2011-10-01T12:03:26Z</time>
      </trkpt>
      <trkpt lat="44.15512" lon="5.3448">
        <ele>1326.5</ele>
        <time>2011-10-01T12:03:31Z</time>
      </trkpt>
      <trkpt lat="44.15502" lon="5.34465">
        <ele>1327.5</ele>
        <time>2011-10-01T12:03:36Z</time>
      </trkpt>
      <trkpt lat="44.1549" lon="5.3446">
        <ele>1329</ele>
        <time>2011-10-01T12:03:41Z</time>
      </trkpt>
      <trkpt lat="44.15479" lon="5.3447">
        <ele>1328.5</ele>
        <time>2011-10-01T12:03:46Z</time>
      </trkpt>
      <trkpt lat="44.1547" lon="5.34488">
        <ele>1328.5</ele>
        <time>2011-10-01T12:03:51Z</time>
      </trkpt>
      <trkpt lat="44.15463" lon="5.34509">
        <ele>1330</ele>
        <time>2011-10-01T12:03:56Z</time>
      </trkpt>
      <trkpt lat="44.15452" lon="5.34529">
        <ele>1328.5</ele>
        <time>2011-10-01T12:04:01Z</time>
      </trkpt>
      <trkpt lat="44.15439" lon="5.3455">
        <ele>1328</ele>
        <time>2011-10-01T12:04:06Z</time>
      </trkpt>
      <trkpt lat="44.15425" lon="5.34567">
        <ele>1329.5</ele>
        <time>2011-10-01T12:04:11Z</time>
      </trkpt>
      <trkpt lat="44.15409" lon="5.3458">
        <ele>1331</ele>
        <time>2011-10-01T12:04:16Z</time>
      </trkpt>
      <trkpt lat="44.1539" lon="5.34589">
        <ele>1332.5</ele>
        <time>2011-10-01T12:04:21Z</time>
      </trkpt>
      <trkpt lat="44.15367" lon="5.34592">
        <ele>1332</ele>
        <time>2011-10-01T12:04:26Z</time>
      </trkpt>
      <trkpt lat="44.15344" lon="5.34591">
        <ele>1332</ele>
        <time>2011-10-01T12:04:31Z</time>
      </trkpt>
      <trkpt lat="44.15322" lon="5.34586">
        <ele>1332.5</ele>
        <time>2011-10-01T12:04:36Z</time>
      </trkpt>
      <trkpt lat="44.15299" lon="5.34579">
        <ele>1331.5</ele>
        <time>2011-10-01T12:04:41Z</time>
      </trkpt>
      <trkpt lat="44.15281" lon="5.34571">
        <ele>1331.5</ele>
        <time>2011-10-01T12:04:46Z</time>
      </trkpt>
      <trkpt lat="44.15255" lon="5.34552">
        <ele>1331.5</ele>
        <time>2011-10-01T12:04:51Z</time>
      </trkpt>
      <trkpt lat="44.1524" lon="5.34526">
        <ele>1333.5</ele>
        <time>2011-10-01T12:04:56Z</time>
      </trkpt>
      <trkpt lat="44.15224" lon="5.34501">
        <ele>1334.5</ele>
        <time>2011-10-01T12:05:01Z</time>
      </trkpt>
      <trkpt lat="44.15207" lon="5.34486">
        <ele>1335.5</ele>
        <time>2011-10-01T12:05:06Z</time>
      </trkpt>
      <trkpt lat="44.15187" lon="5.34493">
        <ele>1338</ele>
        <time>2011-10-01T12:05:11Z</time>
      </trkpt>
      <trkpt lat="44.15169" lon="5.34514">
        <ele>1338.5</ele>
        <time>2011-10-01T12:05:16Z</time>
      </trkpt>
      <trkpt lat="44.15149" lon="5.3453">
        <ele>1339</ele>
        <time>2011-10-01T12:05:21Z</time>
      </trkpt>
      <trkpt lat="44.15125" lon="5.34537">
        <ele>1339.5</ele>
        <time>2011-10-01T12:05:26Z</time>
      </trkpt>
      <trkpt lat="44.15101" lon="5.34539">
        <ele>1341</ele>
        <time>2011-10-01T12:05:31Z</time>
      </trkpt>
      <trkpt lat="44.15078" lon="5.34539">
        <ele>1341.5</ele>
        <time>2011-10-01T12:05:36Z</time>
      </trkpt>
      <trkpt lat="44.15054" lon="5.34535">
        <ele>1342</ele>
        <time>2011-10-01T12:05:41Z</time>
      </trkpt>
      <trkpt lat="44.15032" lon="5.34529">
        <ele>1342</ele>
        <time>2011-10-01T12:05:46Z</time>
      </trkpt>
      <trkpt lat="44.1501" lon="5.34523">
        <ele>1343</ele>
        <time>2011-10-01T12:05:51Z</time>
      </trkpt>
      <trkpt lat="44.1499" lon="5.34513">
        <ele>1344.5</ele>
        <time>2011-10-01T12:05:56Z</time>
      </trkpt>
      <trkpt lat="44.1497" lon="5.345">
        <ele>1346</ele>
        <time>2011-10-01T12:06:01Z</time>
      </trkpt>
      <trkpt lat="44.14951" lon="5.34483">
        <ele>1347</ele>
        <time>2011-10-01T12:06:06Z</time>
      </trkpt>
      <trkpt lat="44.1493" lon="5.34481">
        <ele>1348.5</ele>
        <time>2011-10-01T12:06:11Z</time>
      </trkpt>
      <trkpt lat="44.14911" lon="5.34493">
        <ele>1349</ele>
        <time>2011-10-01T12:06:16Z</time>
      </trkpt>
      <trkpt lat="44.1489" lon="5.34501">
        <ele>1350.5</ele>
        <time>2011-10-01T12:06:21Z</time>
      </trkpt>
      <trkpt lat="44.1487" lon="5.34505">
        <ele>1352.5</ele>
        <time>2011-10-01T12:06:26Z</time>
      </trkpt>
      <trkpt lat="44.1485" lon="5.34509">
        <ele>1353.5</ele>
        <time>2011-10-01T12:06:31Z</time>
      </trkpt>
      <trkpt lat="44.1483" lon="5.34513">
        <ele>1353.5</ele>
        <time>2011-10-01T12:06:36Z</time>
      </trkpt>
      <trkpt lat="44.14809" lon="5.34515">
        <ele>1353.5</ele>
        <time>2011-10-01T12:06:41Z</time>
      </trkpt>
      <trkpt lat="44.14787" lon="5.34517">
        <ele>1353.5</ele>
        <time>2011-10-01T12:06:46Z</time>
      </trkpt>
      <trkpt lat="44.14766" lon="5.34515">
        <ele>1354</ele>
        <time>2011-10-01T12:06:51Z</time>
      </trkpt>
      <trkpt lat="44.14746" lon="5.34515">
        <ele>1354.5</ele>
        <time>2011-10-01T12:06:56Z</time>
      </trkpt>
      <trkpt lat="44.14727" lon="5.34513">
        <ele>1354.5</ele>
        <time>2011-10-01T12:07:01Z</time>
      </trkpt>
      <trkpt lat="44.14708" lon="5.34513">
        <ele>1354.5</ele>
        <time>2011-10-01T12:07:06Z</time>
      </trkpt>
      <trkpt lat="44.14688" lon="5.34512">
        <ele>1355.5</ele>
        <time>2011-10-01T12:07:11Z</time>
      </trkpt>
      <trkpt lat="44.14667" lon="5.3451">
        <ele>1357</ele>
        <time>2011-10-01T12:07:16Z</time>
      </trkpt>
      <trkpt lat="44.14646" lon="5.34507">
        <ele>1358</ele>
        <time>2011-10-01T12:07:21Z</time>
      </trkpt>
      <trkpt lat="44.14626" lon="5.34501">
        <ele>1359</ele>
        <time>2011-10-01T12:07:26Z</time>
      </trkpt>
      <trkpt lat="44.14607" lon="5.34491">
        <ele>1360</ele>
        <time>2011-10-01T12:07:31Z</time>
      </trkpt>
      <trkpt lat="44.14589" lon="5.34477">
        <ele>1361</ele>
        <time>2011-10-01T12:07:36Z</time>
      </trkpt>
      <trkpt lat="44.14573" lon="5.34458">
        <ele>1362.5</ele>
        <time>2011-10-01T12:07:41Z</time>
      </trkpt>
      <trkpt lat="44.1456" lon="5.34438">
        <ele>1364</ele>
        <time>2011-10-01T12:07:46Z</time>
      </trkpt>
      <trkpt lat="44.14548" lon="5.34418">
        <ele>1365</ele>
        <time>2011-10-01T12:07:51Z</time>
      </trkpt>
      <trkpt lat="44.14533" lon="5.34403">
        <ele>1367.5</ele>
        <time>2011-10-01T12:07:56Z</time>
      </trkpt>
      <trkpt lat="44.14517" lon="5.34396">
        <ele>1368.5</ele>
        <time>2011-10-01T12:08:01Z</time>
      </trkpt>
      <trkpt lat="44.145" lon="5.34402">
        <ele>1370</ele>
        <time>2011-10-01T12:08:06Z</time>
      </trkpt>
      <trkpt lat="44.14484" lon="5.34414">
        <ele>1369.5</ele>
        <time>2011-10-01T12:08:11Z</time>
      </trkpt>
      <trkpt lat="44.14468" lon="5.34429">
        <ele>1370.5</ele>
        <time>2011-10-01T12:08:16Z</time>
      </trkpt>
      <trkpt lat="44.14452" lon="5.34445">
        <ele>1371</ele>
        <time>2011-10-01T12:08:21Z</time>
      </trkpt>
      <trkpt lat="44.14435" lon="5.34461">
        <ele>1372</ele>
        <time>2011-10-01T12:08:26Z</time>
      </trkpt>
      <trkpt lat="44.14418" lon="5.34475">
        <ele>1374</ele>
        <time>2011-10-01T12:08:31Z</time>
      </trkpt>
      <trkpt lat="44.144" lon="5.34488">
        <ele>1374.5</ele>
        <time>2011-10-01T12:08:36Z</time>
      </trkpt>
      <trkpt lat="44.14379" lon="5.34501">
        <ele>1375</ele>
        <time>2011-10-01T12:08:41Z</time>
      </trkpt>
      <trkpt lat="44.14363" lon="5.34511">
        <ele>1377.5</ele>
        <time>2011-10-01T12:08:46Z</time>
      </trkpt>
      <trkpt lat="44.14345" lon="5.34519">
        <ele>1378</ele>
        <time>2011-10-01T12:08:51Z</time>
      </trkpt>
      <trkpt lat="44.14329" lon="5.34526">
        <ele>1379</ele>
        <time>2011-10-01T12:08:56Z</time>
      </trkpt>
      <trkpt lat="44.14309" lon="5.34529">
        <ele>1378</ele>
        <time>2011-10-01T12:09:01Z</time>
      </trkpt>
      <trkpt lat="44.14287" lon="5.3453">
        <ele>1377</ele>
        <time>2011-10-01T12:09:06Z</time>
      </trkpt>
      <trkpt lat="44.14274" lon="5.34531">
        <ele>1376.5</ele>
        <time>2011-10-01T12:09:11Z</time>
      </trkpt>
      <trkpt lat="44.14245" lon="5.34527">
        <ele>1376.5</ele>
        <time>2011-10-01T12:09:16Z</time>
      </trkpt>
      <trkpt lat="44.14222" lon="5.34522">
        <ele>1376.5</ele>
        <time>2011-10-01T12:09:21Z</time>
      </trkpt>
      <trkpt lat="44.14201" lon="5.34513">
        <ele>1377</ele>
        <time>2011-10-01T12:09:26Z</time>
      </trkpt>
      <trkpt lat="44.14181" lon="5.34502">
        <ele>1376.5</ele>
        <time>2011-10-01T12:09:31Z</time>
      </trkpt>
      <trkpt lat="44.14162" lon="5.3449">
        <ele>1376.5</ele>
        <time>2011-10-01T12:09:36Z</time>
      </trkpt>
      <trkpt lat="44.14145" lon="5.34479">
        <ele>1377</ele>
        <time>2011-10-01T12:09:41Z</time>
      </trkpt>
      <trkpt lat="44.14127" lon="5.34466">
        <ele>1378.5</ele>
        <time>2011-10-01T12:09:46Z</time>
      </trkpt>
      <trkpt lat="44.14114" lon="5.34445">
        <ele>1378</ele>
        <time>2011-10-01T12:09:51Z</time>
      </trkpt>
      <trkpt lat="44.14116" lon="5.34416">
        <ele>1377.5</ele>
        <time>2011-10-01T12:09:56Z</time>
      </trkpt>
      <trkpt lat="44.14129" lon="5.34395">
        <ele>1378</ele>
        <time>2011-10-01T12:10:01Z</time>
      </trkpt>
      <trkpt lat="44.14144" lon="5.34377">
        <ele>1377</ele>
        <time>2011-10-01T12:10:06Z</time>
      </trkpt>
      <trkpt lat="44.14156" lon="5.34358">
        <ele>1376.5</ele>
        <time>2011-10-01T12:10:11Z</time>
      </trkpt>
      <trkpt lat="44.1417" lon="5.34342">
        <ele>1375.5</ele>
        <time>2011-10-01T12:10:16Z</time>
      </trkpt>
      <trkpt lat="44.14182" lon="5.34324">
        <ele>1375.5</ele>
        <time>2011-10-01T12:10:21Z</time>
      </trkpt>
      <trkpt lat="44.1419" lon="5.34301">
        <ele>1375.5</ele>
        <time>2011-10-01T12:10:26Z</time>
      </trkpt>
      <trkpt lat="44.14198" lon="5.34276">
        <ele>1376</ele>
        <time>2011-10-01T12:10:31Z</time>
      </trkpt>
      <trkpt lat="44.14206" lon="5.34253">
        <ele>1377</ele>
        <time>2011-10-01T12:10:36Z</time>
      </trkpt>
      <trkpt lat="44.14213" lon="5.34228">
        <ele>1377</ele>
        <time>2011-10-01T12:10:41Z</time>
      </trkpt>
      <trkpt lat="44.14217" lon="5.34204">
        <ele>1378</ele>
        <time>2011-10-01T12:10:46Z</time>
      </trkpt>
      <trkpt lat="44.14219" lon="5.3418">
        <ele>1379.5</ele>
        <time>2011-10-01T12:10:51Z</time>
      </trkpt>
      <trkpt lat="44.14221" lon="5.34155">
        <ele>1381</ele>
        <time>2011-10-01T12:10:56Z</time>
      </trkpt>
      <trkpt lat="44.14225" lon="5.34128">
        <ele>1381</ele>
        <time>2011-10-01T12:11:01Z</time>
      </trkpt>
      <trkpt lat="44.14233" lon="5.34103">
        <ele>1381</ele>
        <time>2011-10-01T12:11:06Z</time>
      </trkpt>
      <trkpt lat="44.1424" lon="5.3408">
        <ele>1382.5</ele>
        <time>2011-10-01T12:11:11Z</time>
      </trkpt>
      <trkpt lat="44.14247" lon="5.34061">
        <ele>1383</ele>
        <time>2011-10-01T12:11:16Z</time>
      </trkpt>
      <trkpt lat="44.14253" lon="5.34039">
        <ele>1383</ele>
        <time>2011-10-01T12:11:21Z</time>
      </trkpt>
      <trkpt lat="44.1426" lon="5.34022">
        <ele>1383</ele>
        <time>2011-10-01T12:11:26Z</time>
      </trkpt>
      <trkpt lat="44.14275" lon="5.34001">
        <ele>1382.5</ele>
        <time>2011-10-01T12:11:31Z</time>
      </trkpt>
      <trkpt lat="44.14287" lon="5.33989">
        <ele>1381.5</ele>
        <time>2011-10-01T12:11:36Z</time>
      </trkpt>
      <trkpt lat="44.14306" lon="5.33968">
        <ele>1382</ele>
        <time>2011-10-01T12:11:41Z</time>
      </trkpt>
      <trkpt lat="44.14323" lon="5.33955">
        <ele>1383.5</ele>
        <time>2011-10-01T12:11:46Z</time>
      </trkpt>
      <trkpt lat="44.14343" lon="5.33944">
        <ele>1384.5</ele>
        <time>2011-10-01T12:11:51Z</time>
      </trkpt>
      <trkpt lat="44.14365" lon="5.33935">
        <ele>1390.5</ele>
        <time>2011-10-01T12:11:56Z</time>
      </trkpt>
      <trkpt lat="44.14386" lon="5.3393">
        <ele>1394</ele>
        <time>2011-10-01T12:12:01Z</time>
      </trkpt>
      <trkpt lat="44.14405" lon="5.33926">
        <ele>1395.5</ele>
        <time>2011-10-01T12:12:06Z</time>
      </trkpt>
      <trkpt lat="44.14423" lon="5.33917">
        <ele>1399</ele>
        <time>2011-10-01T12:12:11Z</time>
      </trkpt>
      <trkpt lat="44.14439" lon="5.33904">
        <ele>1401</ele>
        <time>2011-10-01T12:12:16Z</time>
      </trkpt>
      <trkpt lat="44.14455" lon="5.33891">
        <ele>1403</ele>
        <time>2011-10-01T12:12:21Z</time>
      </trkpt>
      <trkpt lat="44.14468" lon="5.33882">
        <ele>1403.5</ele>
        <time>2011-10-01T12:12:26Z</time>
      </trkpt>
      <trkpt lat="44.14489" lon="5.33869">
        <ele>1404</ele>
        <time>2011-10-01T12:12:31Z</time>
      </trkpt>
      <trkpt lat="44.14507" lon="5.33858">
        <ele>1405</ele>
        <time>2011-10-01T12:12:36Z</time>
      </trkpt>
      <trkpt lat="44.14524" lon="5.33848">
        <ele>1408</ele>
        <time>2011-10-01T12:12:41Z</time>
      </trkpt>
      <trkpt lat="44.14544" lon="5.33841">
        <ele>1410</ele>
        <time>2011-10-01T12:12:46Z</time>
      </trkpt>
      <trkpt lat="44.14563" lon="5.33838">
        <ele>1412</ele>
        <time>2011-10-01T12:12:51Z</time>
      </trkpt>
      <trkpt lat="44.14582" lon="5.33836">
        <ele>1414</ele>
        <time>2011-10-01T12:12:56Z</time>
      </trkpt>
      <trkpt lat="44.146" lon="5.33834">
        <ele>1415.5</ele>
        <time>2011-10-01T12:13:01Z</time>
      </trkpt>
      <trkpt lat="44.14612" lon="5.33822">
        <ele>1416.5</ele>
        <time>2011-10-01T12:13:06Z</time>
      </trkpt>
      <trkpt lat="44.14617" lon="5.33825">
        <ele>1410.5</ele>
        <time>2011-10-01T12:13:11Z</time>
      </trkpt>
      <trkpt lat="44.14595" lon="5.33819">
        <ele>1409</ele>
        <time>2011-10-01T12:13:16Z</time>
      </trkpt>
      <trkpt lat="44.14578" lon="5.3381">
        <ele>1410.5</ele>
        <time>2011-10-01T12:13:21Z</time>
      </trkpt>
      <trkpt lat="44.14563" lon="5.33803">
        <ele>1411.5</ele>
        <time>2011-10-01T12:13:26Z</time>
      </trkpt>
      <trkpt lat="44.14552" lon="5.33797">
        <ele>1412.5</ele>
        <time>2011-10-01T12:13:31Z</time>
      </trkpt>
      <trkpt lat="44.1454" lon="5.33792">
        <ele>1414</ele>
        <time>2011-10-01T12:13:36Z</time>
      </trkpt>
      <trkpt lat="44.14516" lon="5.3378">
        <ele>1413.5</ele>
        <time>2011-10-01T12:13:41Z</time>
      </trkpt>
      <trkpt lat="44.14496" lon="5.33765">
        <ele>1413</ele>
        <time>2011-10-01T12:13:46Z</time>
      </trkpt>
      <trkpt lat="44.14479" lon="5.3374">
        <ele>1412</ele>
        <time>2011-10-01T12:13:51Z</time>
      </trkpt>
      <trkpt lat="44.1447" lon="5.33714">
        <ele>1411</ele>
        <time>2011-10-01T12:13:56Z</time>
      </trkpt>
      <trkpt lat="44.14469" lon="5.33681">
        <ele>1410</ele>
        <time>2011-10-01T12:14:01Z</time>
      </trkpt>
      <trkpt lat="44.14472" lon="5.3365">
        <ele>1411</ele>
        <time>2011-10-01T12:14:06Z</time>
      </trkpt>
      <trkpt lat="44.14476" lon="5.33621">
        <ele>1412</ele>
        <time>2011-10-01T12:14:11Z</time>
      </trkpt>
      <trkpt lat="44.14483" lon="5.33595">
        <ele>1412</ele>
        <time>2011-10-01T12:14:16Z</time>
      </trkpt>
      <trkpt lat="44.14489" lon="5.33568">
        <ele>1413</ele>
        <time>2011-10-01T12:14:21Z</time>
      </trkpt>
      <trkpt lat="44.14497" lon="5.3354">
        <ele>1414</ele>
        <time>2011-10-01T12:14:26Z</time>
      </trkpt>
      <trkpt lat="44.14506" lon="5.33513">
        <ele>1415</ele>
        <time>2011-10-01T12:14:31Z</time>
      </trkpt>
      <trkpt lat="44.14516" lon="5.33485">
        <ele>1416.5</ele>
        <time>2011-10-01T12:14:36Z</time>
      </trkpt>
      <trkpt lat="44.14532" lon="5.33459">
        <ele>1416.5</ele>
        <time>2011-10-01T12:14:41Z</time>
      </trkpt>
      <trkpt lat="44.14553" lon="5.33444">
        <ele>1416.5</ele>
        <time>2011-10-01T12:14:46Z</time>
      </trkpt>
      <trkpt lat="44.14574" lon="5.33436">
        <ele>1420</ele>
        <time>2011-10-01T12:14:51Z</time>
      </trkpt>
      <trkpt lat="44.14592" lon="5.33434">
        <ele>1423</ele>
        <time>2011-10-01T12:14:56Z</time>
      </trkpt>
      <trkpt lat="44.1461" lon="5.33431">
        <ele>1426.5</ele>
        <time>2011-10-01T12:15:01Z</time>
      </trkpt>
      <trkpt lat="44.14627" lon="5.33429">
        <ele>1429</ele>
        <time>2011-10-01T12:15:06Z</time>
      </trkpt>
      <trkpt lat="44.14645" lon="5.33427">
        <ele>1430.5</ele>
        <time>2011-10-01T12:15:11Z</time>
      </trkpt>
      <trkpt lat="44.14663" lon="5.33427">
        <ele>1432</ele>
        <time>2011-10-01T12:15:16Z</time>
      </trkpt>
      <trkpt lat="44.1468" lon="5.33425">
        <ele>1434</ele>
        <time>2011-10-01T12:15:21Z</time>
      </trkpt>
      <trkpt lat="44.14696" lon="5.33423">
        <ele>1436.5</ele>
        <time>2011-10-01T12:15:26Z</time>
      </trkpt>
      <trkpt lat="44.14712" lon="5.33419">
        <ele>1439</ele>
        <time>2011-10-01T12:15:31Z</time>
      </trkpt>
      <trkpt lat="44.14727" lon="5.33415">
        <ele>1440.5</ele>
        <time>2011-10-01T12:15:36Z</time>
      </trkpt>
      <trkpt lat="44.14744" lon="5.33412">
        <ele>1441.5</ele>
        <time>2011-10-01T12:15:41Z</time>
      </trkpt>
      <trkpt lat="44.14761" lon="5.33407">
        <ele>1442</ele>
        <time>2011-10-01T12:15:46Z</time>
      </trkpt>
      <trkpt lat="44.14779" lon="5.33405">
        <ele>1442.5</ele>
        <time>2011-10-01T12:15:51Z</time>
      </trkpt>
      <trkpt lat="44.14796" lon="5.33401">
        <ele>1442.5</ele>
        <time>2011-10-01T12:15:56Z</time>
      </trkpt>
      <trkpt lat="44.14813" lon="5.33396">
        <ele>1442</ele>
        <time>2011-10-01T12:16:01Z</time>
      </trkpt>
      <trkpt lat="44.14827" lon="5.33391">
        <ele>1443</ele>
        <time>2011-10-01T12:16:06Z</time>
      </trkpt>
      <trkpt lat="44.14846" lon="5.33383">
        <ele>1444.5</ele>
        <time>2011-10-01T12:16:11Z</time>
      </trkpt>
      <trkpt lat="44.14861" lon="5.33381">
        <ele>1446</ele>
        <time>2011-10-01T12:16:16Z</time>
      </trkpt>
      <trkpt lat="44.14877" lon="5.33387">
        <ele>1448.5</ele>
        <time>2011-10-01T12:16:21Z</time>
      </trkpt>
      <trkpt lat="44.1489" lon="5.33387">
        <ele>1452</ele>
        <time>2011-10-01T12:16:26Z</time>
      </trkpt>
      <trkpt lat="44.14902" lon="5.3339">
        <ele>1452.5</ele>
        <time>2011-10-01T12:16:31Z</time>
      </trkpt>
      <trkpt lat="44.14916" lon="5.33391">
        <ele>1453.5</ele>
        <time>2011-10-01T12:16:36Z</time>
      </trkpt>
      <trkpt lat="44.14925" lon="5.33384">
        <ele>1452.5</ele>
        <time>2011-10-01T12:16:41Z</time>
      </trkpt>
      <trkpt lat="44.14924" lon="5.33384">
        <ele>1442.5</ele>
        <time>2011-10-01T12:16:46Z</time>
      </trkpt>
      <trkpt lat="44.14915" lon="5.33372">
        <ele>1439.5</ele>
        <time>2011-10-01T12:16:51Z</time>
      </trkpt>
      <trkpt lat="44.14907" lon="5.33359">
        <ele>1438</ele>
        <time>2011-10-01T12:16:56Z</time>
      </trkpt>
      <trkpt lat="44.14897" lon="5.33346">
        <ele>1440.5</ele>
        <time>2011-10-01T12:17:01Z</time>
      </trkpt>
      <trkpt lat="44.14889" lon="5.33328">
        <ele>1442</ele>
        <time>2011-10-01T12:17:06Z</time>
      </trkpt>
      <trkpt lat="44.14881" lon="5.33308">
        <ele>1444</ele>
        <time>2011-10-01T12:17:11Z</time>
      </trkpt>
      <trkpt lat="44.14888" lon="5.33284">
        <ele>1445.5</ele>
        <time>2011-10-01T12:17:16Z</time>
      </trkpt>
      <trkpt lat="44.14906" lon="5.33269">
        <ele>1449</ele>
        <time>2011-10-01T12:17:21Z</time>
      </trkpt>
      <trkpt lat="44.14924" lon="5.33261">
        <ele>1449</ele>
        <time>2011-10-01T12:17:26Z</time>
      </trkpt>
      <trkpt lat="44.14936" lon="5.33244">
        <ele>1448.5</ele>
        <time>2011-10-01T12:17:31Z</time>
      </trkpt>
      <trkpt lat="44.14937" lon="5.33219">
        <ele>1446.5</ele>
        <time>2011-10-01T12:17:36Z</time>
      </trkpt>
      <trkpt lat="44.14931" lon="5.33188">
        <ele>1447</ele>
        <time>2011-10-01T12:17:41Z</time>
      </trkpt>
      <trkpt lat="44.1492" lon="5.33157">
        <ele>1447.5</ele>
        <time>2011-10-01T12:17:46Z</time>
      </trkpt>
      <trkpt lat="44.14909" lon="5.33123">
        <ele>1448</ele>
        <time>2011-10-01T12:17:51Z</time>
      </trkpt>
      <trkpt lat="44.14898" lon="5.33082">
        <ele>1449</ele>
        <time>2011-10-01T12:17:56Z</time>
      </trkpt>
      <trkpt lat="44.14887" lon="5.33035">
        <ele>1449</ele>
        <time>2011-10-01T12:18:01Z</time>
      </trkpt>
      <trkpt lat="44.14883" lon="5.32985">
        <ele>1450</ele>
        <time>2011-10-01T12:18:06Z</time>
      </trkpt>
      <trkpt lat="44.1489" lon="5.32936">
        <ele>1451</ele>
        <time>2011-10-01T12:18:11Z</time>
      </trkpt>
      <trkpt lat="44.14894" lon="5.32885">
        <ele>1450</ele>
        <time>2011-10-01T12:18:16Z</time>
      </trkpt>
      <trkpt lat="44.14898" lon="5.32835">
        <ele>1450.5</ele>
        <time>2011-10-01T12:18:21Z</time>
      </trkpt>
      <trkpt lat="44.14888" lon="5.32788">
        <ele>1451</ele>
        <time>2011-10-01T12:18:26Z</time>
      </trkpt>
      <trkpt lat="44.14874" lon="5.32743">
        <ele>1451</ele>
        <time>2011-10-01T12:18:31Z</time>
      </trkpt>
      <trkpt lat="44.14879" lon="5.32697">
        <ele>1451</ele>
        <time>2011-10-01T12:18:36Z</time>
      </trkpt>
      <trkpt lat="44.14907" lon="5.32682">
        <ele>1452</ele>
        <time>2011-10-01T12:18:41Z</time>
      </trkpt>
      <trkpt lat="44.14937" lon="5.32694">
        <ele>1452</ele>
        <time>2011-10-01T12:18:46Z</time>
      </trkpt>
      <trkpt lat="44.14966" lon="5.3271">
        <ele>1451.5</ele>
        <time>2011-10-01T12:18:51Z</time>
      </trkpt>
      <trkpt lat="44.14995" lon="5.32724">
        <ele>1452.5</ele>
        <time>2011-10-01T12:18:56Z</time>
      </trkpt>
      <trkpt lat="44.15027" lon="5.32735">
        <ele>1453.5</ele>
        <time>2011-10-01T12:19:01Z</time>
      </trkpt>
      <trkpt lat="44.1506" lon="5.32746">
        <ele>1454.5</ele>
        <time>2011-10-01T12:19:06Z</time>
      </trkpt>
      <trkpt lat="44.15091" lon="5.32758">
        <ele>1455.5</ele>
        <time>2011-10-01T12:19:11Z</time>
      </trkpt>
      <trkpt lat="44.15124" lon="5.32765">
        <ele>1456.5</ele>
        <time>2011-10-01T12:19:16Z</time>
      </trkpt>
      <trkpt lat="44.15157" lon="5.32772">
        <ele>1457</ele>
        <time>2011-10-01T12:19:21Z</time>
      </trkpt>
      <trkpt lat="44.15192" lon="5.32775">
        <ele>1458</ele>
        <time>2011-10-01T12:19:26Z</time>
      </trkpt>
      <trkpt lat="44.15227" lon="5.32777">
        <ele>1459</ele>
        <time>2011-10-01T12:19:31Z</time>
      </trkpt>
      <trkpt lat="44.1526" lon="5.32776">
        <ele>1460</ele>
        <time>2011-10-01T12:19:36Z</time>
      </trkpt>
      <trkpt lat="44.15291" lon="5.32775">
        <ele>1461</ele>
        <time>2011-10-01T12:19:41Z</time>
      </trkpt>
      <trkpt lat="44.1532" lon="5.32764">
        <ele>1461</ele>
        <time>2011-10-01T12:19:46Z</time>
      </trkpt>
      <trkpt lat="44.15316" lon="5.32745">
        <ele>1458.5</ele>
        <time>2011-10-01T12:19:51Z</time>
      </trkpt>
      <trkpt lat="44.15295" lon="5.32739">
        <ele>1454</ele>
        <time>2011-10-01T12:19:56Z</time>
      </trkpt>
      <trkpt lat="44.1527" lon="5.32729">
        <ele>1454.5</ele>
        <time>2011-10-01T12:20:01Z</time>
      </trkpt>
      <trkpt lat="44.15243" lon="5.32717">
        <ele>1454</ele>
        <time>2011-10-01T12:20:06Z</time>
      </trkpt>
      <trkpt lat="44.15218" lon="5.32703">
        <ele>1454</ele>
        <time>2011-10-01T12:20:11Z</time>
      </trkpt>
      <trkpt lat="44.15195" lon="5.32689">
        <ele>1453.5</ele>
        <time>2011-10-01T12:20:16Z</time>
      </trkpt>
      <trkpt lat="44.15173" lon="5.32673">
        <ele>1455</ele>
        <time>2011-10-01T12:20:21Z</time>
      </trkpt>
      <trkpt lat="44.15152" lon="5.32647">
        <ele>1454</ele>
        <time>2011-10-01T12:20:26Z</time>
      </trkpt>
      <trkpt lat="44.15134" lon="5.32616">
        <ele>1453.5</ele>
        <time>2011-10-01T12:20:31Z</time>
      </trkpt>
      <trkpt lat="44.15117" lon="5.32586">
        <ele>1454.5</ele>
        <time>2011-10-01T12:20:36Z</time>
      </trkpt>
      <trkpt lat="44.15099" lon="5.32558">
        <ele>1454.5</ele>
        <time>2011-10-01T12:20:41Z</time>
      </trkpt>
      <trkpt lat="44.15077" lon="5.32527">
        <ele>1455</ele>
        <time>2011-10-01T12:20:46Z</time>
      </trkpt>
      <trkpt lat="44.15053" lon="5.32503">
        <ele>1455.5</ele>
        <time>2011-10-01T12:20:51Z</time>
      </trkpt>
      <trkpt lat="44.1503" lon="5.32479">
        <ele>1456</ele>
        <time>2011-10-01T12:20:56Z</time>
      </trkpt>
      <trkpt lat="44.15007" lon="5.32458">
        <ele>1457</ele>
        <time>2011-10-01T12:21:01Z</time>
      </trkpt>
      <trkpt lat="44.14981" lon="5.32437">
        <ele>1456.5</ele>
        <time>2011-10-01T12:21:06Z</time>
      </trkpt>
      <trkpt lat="44.14956" lon="5.32414">
        <ele>1456.5</ele>
        <time>2011-10-01T12:21:11Z</time>
      </trkpt>
      <trkpt lat="44.14929" lon="5.32391">
        <ele>1456</ele>
        <time>2011-10-01T12:21:16Z</time>
      </trkpt>
      <trkpt lat="44.14898" lon="5.32371">
        <ele>1456.5</ele>
        <time>2011-10-01T12:21:21Z</time>
      </trkpt>
      <trkpt lat="44.1487" lon="5.32352">
        <ele>1458</ele>
        <time>2011-10-01T12:21:26Z</time>
      </trkpt>
      <trkpt lat="44.14851" lon="5.32332">
        <ele>1460</ele>
        <time>2011-10-01T12:21:31Z</time>
      </trkpt>
      <trkpt lat="44.14837" lon="5.32304">
        <ele>1461</ele>
        <time>2011-10-01T12:21:36Z</time>
      </trkpt>
      <trkpt lat="44.14832" lon="5.3227">
        <ele>1462</ele>
        <time>2011-10-01T12:21:41Z</time>
      </trkpt>
      <trkpt lat="44.14834" lon="5.32236">
        <ele>1462</ele>
        <time>2011-10-01T12:21:46Z</time>
      </trkpt>
      <trkpt lat="44.14844" lon="5.32206">
        <ele>1462</ele>
        <time>2011-10-01T12:21:51Z</time>
      </trkpt>
      <trkpt lat="44.14857" lon="5.32174">
        <ele>1462.5</ele>
        <time>2011-10-01T12:21:56Z</time>
      </trkpt>
      <trkpt lat="44.14869" lon="5.32141">
        <ele>1461.5</ele>
        <time>2011-10-01T12:22:01Z</time>
      </trkpt>
      <trkpt lat="44.14877" lon="5.32108">
        <ele>1461</ele>
        <time>2011-10-01T12:22:06Z</time>
      </trkpt>
      <trkpt lat="44.14887" lon="5.32072">
        <ele>1460.5</ele>
        <time>2011-10-01T12:22:11Z</time>
      </trkpt>
      <trkpt lat="44.1489" lon="5.32034">
        <ele>1461.5</ele>
        <time>2011-10-01T12:22:16Z</time>
      </trkpt>
      <trkpt lat="44.14889" lon="5.31999">
        <ele>1463.5</ele>
        <time>2011-10-01T12:22:21Z</time>
      </trkpt>
      <trkpt lat="44.14889" lon="5.31973">
        <ele>1464.5</ele>
        <time>2011-10-01T12:22:26Z</time>
      </trkpt>
      <trkpt lat="44.14889" lon="5.31926">
        <ele>1463.5</ele>
        <time>2011-10-01T12:22:31Z</time>
      </trkpt>
      <trkpt lat="44.14893" lon="5.31889">
        <ele>1463</ele>
        <time>2011-10-01T12:22:36Z</time>
      </trkpt>
      <trkpt lat="44.14897" lon="5.31854">
        <ele>1463</ele>
        <time>2011-10-01T12:22:41Z</time>
      </trkpt>
      <trkpt lat="44.14907" lon="5.3182">
        <ele>1463.5</ele>
        <time>2011-10-01T12:22:46Z</time>
      </trkpt>
      <trkpt lat="44.14919" lon="5.31788">
        <ele>1464</ele>
        <time>2011-10-01T12:22:51Z</time>
      </trkpt>
      <trkpt lat="44.14944" lon="5.31775">
        <ele>1464</ele>
        <time>2011-10-01T12:22:56Z</time>
      </trkpt>
      <trkpt lat="44.14969" lon="5.31784">
        <ele>1464</ele>
        <time>2011-10-01T12:23:01Z</time>
      </trkpt>
      <trkpt lat="44.14994" lon="5.31791">
        <ele>1463.5</ele>
        <time>2011-10-01T12:23:06Z</time>
      </trkpt>
      <trkpt lat="44.1502" lon="5.31798">
        <ele>1464</ele>
        <time>2011-10-01T12:23:11Z</time>
      </trkpt>
      <trkpt lat="44.15045" lon="5.31804">
        <ele>1463.5</ele>
        <time>2011-10-01T12:23:16Z</time>
      </trkpt>
      <trkpt lat="44.15068" lon="5.3181">
        <ele>1464.5</ele>
        <time>2011-10-01T12:23:21Z</time>
      </trkpt>
      <trkpt lat="44.1509" lon="5.31817">
        <ele>1465</ele>
        <time>2011-10-01T12:23:26Z</time>
      </trkpt>
      <trkpt lat="44.15109" lon="5.31825">
        <ele>1465.5</ele>
        <time>2011-10-01T12:23:31Z</time>
      </trkpt>
      <trkpt lat="44.15125" lon="5.31833">
        <ele>1466.5</ele>
        <time>2011-10-01T12:23:36Z</time>
      </trkpt>
      <trkpt lat="44.15137" lon="5.31843">
        <ele>1467</ele>
        <time>2011-10-01T12:23:41Z</time>
      </trkpt>
      <trkpt lat="44.15151" lon="5.31852">
        <ele>1469</ele>
        <time>2011-10-01T12:23:46Z</time>
      </trkpt>
      <trkpt lat="44.15165" lon="5.31864">
        <ele>1468.5</ele>
        <time>2011-10-01T12:23:51Z</time>
      </trkpt>
      <trkpt lat="44.15176" lon="5.31876">
        <ele>1469</ele>
        <time>2011-10-01T12:23:56Z</time>
      </trkpt>
      <trkpt lat="44.15185" lon="5.31883">
        <ele>1469.5</ele>
        <time>2011-10-01T12:24:01Z</time>
      </trkpt>
      <trkpt lat="44.15186" lon="5.31885">
        <ele>1470.5</ele>
        <time>2011-10-01T12:24:06Z</time>
      </trkpt>
      <trkpt lat="44.15187" lon="5.31887">
        <ele>1469</ele>
        <time>2011-10-01T12:24:11Z</time>
      </trkpt>
      <trkpt lat="44.15186" lon="5.31892">
        <ele>1468.5</ele>
        <time>2011-10-01T12:24:16Z</time>
      </trkpt>
      <trkpt lat="44.15186" lon="5.31892">
        <ele>1468.5</ele>
        <time>2011-10-01T12:24:21Z</time>
      </trkpt>
      <trkpt lat="44.15186" lon="5.31892">
        <ele>1468.5</ele>
        <time>2011-10-01T12:24:26Z</time>
      </trkpt>
      <trkpt lat="44.15186" lon="5.31892">
        <ele>1469.5</ele>
        <time>2011-10-01T12:24:31Z</time>
      </trkpt>
      <trkpt lat="44.15187" lon="5.31892">
        <ele>1471.5</ele>
        <time>2011-10-01T12:24:36Z</time>
      </trkpt>
      <trkpt lat="44.15191" lon="5.31894">
        <ele>1471</ele>
        <time>2011-10-01T12:24:41Z</time>
      </trkpt>
      <trkpt lat="44.15192" lon="5.31894">
        <ele>1471</ele>
        <time>2011-10-01T12:24:46Z</time>
      </trkpt>
      <trkpt lat="44.15195" lon="5.31897">
        <ele>1475.5</ele>
        <time>2011-10-01T12:24:51Z</time>
      </trkpt>
      <trkpt lat="44.15194" lon="5.31898">
        <ele>1476.5</ele>
        <time>2011-10-01T12:24:56Z</time>
      </trkpt>
      <trkpt lat="44.15197" lon="5.31897">
        <ele>1476</ele>
        <time>2011-10-01T12:25:01Z</time>
      </trkpt>
      <trkpt lat="44.15196" lon="5.31896">
        <ele>1476</ele>
        <time>2011-10-01T12:25:06Z</time>
      </trkpt>
      <trkpt lat="44.152" lon="5.31895">
        <ele>1477</ele>
        <time>2011-10-01T12:25:11Z</time>
      </trkpt>
      <trkpt lat="44.15199" lon="5.31898">
        <ele>1479</ele>
        <time>2011-10-01T12:25:16Z</time>
      </trkpt>
      <trkpt lat="44.15201" lon="5.319">
        <ele>1482</ele>
        <time>2011-10-01T12:25:21Z</time>
      </trkpt>
      <trkpt lat="44.15202" lon="5.319">
        <ele>1483.5</ele>
        <time>2011-10-01T12:25:26Z</time>
      </trkpt>
      <trkpt lat="44.15203" lon="5.31899">
        <ele>1483</ele>
        <time>2011-10-01T12:25:31Z</time>
      </trkpt>
      <trkpt lat="44.15204" lon="5.31898">
        <ele>1484</ele>
        <time>2011-10-01T12:25:36Z</time>
      </trkpt>
      <trkpt lat="44.15208" lon="5.31897">
        <ele>1485.5</ele>
        <time>2011-10-01T12:25:41Z</time>
      </trkpt>
      <trkpt lat="44.15212" lon="5.31895">
        <ele>1486.5</ele>
        <time>2011-10-01T12:25:46Z</time>
      </trkpt>
      <trkpt lat="44.15212" lon="5.31895">
        <ele>1486.5</ele>
        <time>2011-10-01T12:25:51Z</time>
      </trkpt>
      <trkpt lat="44.15212" lon="5.31895">
        <ele>1486.5</ele>
        <time>2011-10-01T12:25:56Z</time>
      </trkpt>
      <trkpt lat="44.15212" lon="5.31895">
        <ele>1486.5</ele>
        <time>2011-10-01T12:26:01Z</time>
      </trkpt>
      <trkpt lat="44.15212" lon="5.31895">
        <ele>1486.5</ele>
        <time>2011-10-01T12:26:06Z</time>
      </trkpt>
      <trkpt lat="44.15212" lon="5.31895">
        <ele>1486.5</ele>
        <time>2011-10-01T12:26:11Z</time>
      </trkpt>
      <trkpt lat="44.15221" lon="5.31893">
        <ele>1499.5</ele>
        <time>2011-10-01T12:26:16Z</time>
      </trkpt>
      <trkpt lat="44.15223" lon="5.31891">
        <ele>1499</ele>
        <time>2011-10-01T12:26:21Z</time>
      </trkpt>
      <trkpt lat="44.15225" lon="5.31892">
        <ele>1501</ele>
        <time>2011-10-01T12:26:26Z</time>
      </trkpt>
      <trkpt lat="44.15226" lon="5.31892">
        <ele>1501.5</ele>
        <time>2011-10-01T12:26:31Z</time>
      </trkpt>
      <trkpt lat="44.15226" lon="5.31892">
        <ele>1501.5</ele>
        <time>2011-10-01T12:26:36Z</time>
      </trkpt>
      <trkpt lat="44.15231" lon="5.3189">
        <ele>1501.5</ele>
        <time>2011-10-01T12:26:41Z</time>
      </trkpt>
      <trkpt lat="44.15232" lon="5.31888">
        <ele>1498.5</ele>
        <time>2011-10-01T12:26:46Z</time>
      </trkpt>
      <trkpt lat="44.15234" lon="5.31888">
        <ele>1496.5</ele>
        <time>2011-10-01T12:26:51Z</time>
      </trkpt>
      <trkpt lat="44.15234" lon="5.31887">
        <ele>1496.5</ele>
        <time>2011-10-01T12:26:56Z</time>
      </trkpt>
      <trkpt lat="44.15234" lon="5.31887">
        <ele>1496.5</ele>
        <time>2011-10-01T12:27:01Z</time>
      </trkpt>
      <trkpt lat="44.15234" lon="5.31887">
        <ele>1496.5</ele>
        <time>2011-10-01T12:27:06Z</time>
      </trkpt>
      <trkpt lat="44.15234" lon="5.31887">
        <ele>1496.5</ele>
        <time>2011-10-01T12:27:11Z</time>
      </trkpt>
      <trkpt lat="44.15234" lon="5.31887">
        <ele>1496.5</ele>
        <time>2011-10-01T12:27:16Z</time>
      </trkpt>
      <trkpt lat="44.15233" lon="5.31887">
        <ele>1496</ele>
        <time>2011-10-01T12:27:21Z</time>
      </trkpt>
      <trkpt lat="44.15233" lon="5.31884">
        <ele>1493.5</ele>
        <time>2011-10-01T12:27:26Z</time>
      </trkpt>
      <trkpt lat="44.15232" lon="5.31884">
        <ele>1494.5</ele>
        <time>2011-10-01T12:27:31Z</time>
      </trkpt>
      <trkpt lat="44.1523" lon="5.31884">
        <ele>1494.5</ele>
        <time>2011-10-01T12:27:36Z</time>
      </trkpt>
      <trkpt lat="44.15228" lon="5.31885">
        <ele>1495</ele>
        <time>2011-10-01T12:27:41Z</time>
      </trkpt>
      <trkpt lat="44.15223" lon="5.31882">
        <ele>1488.5</ele>
        <time>2011-10-01T12:27:46Z</time>
      </trkpt>
      <trkpt lat="44.15222" lon="5.31876">
        <ele>1477</ele>
        <time>2011-10-01T12:27:51Z</time>
      </trkpt>
      <trkpt lat="44.15229" lon="5.31869">
        <ele>1470</ele>
        <time>2011-10-01T12:27:56Z</time>
      </trkpt>
      <trkpt lat="44.15232" lon="5.31859">
        <ele>1469</ele>
        <time>2011-10-01T12:28:01Z</time>
      </trkpt>
      <trkpt lat="44.15237" lon="5.31844">
        <ele>1467.5</ele>
        <time>2011-10-01T12:28:06Z</time>
      </trkpt>
      <trkpt lat="44.15233" lon="5.31824">
        <ele>1466.5</ele>
        <time>2011-10-01T12:28:11Z</time>
      </trkpt>
      <trkpt lat="44.15225" lon="5.31805">
        <ele>1465.5</ele>
        <time>2011-10-01T12:28:16Z</time>
      </trkpt>
      <trkpt lat="44.15218" lon="5.31785">
        <ele>1467.5</ele>
        <time>2011-10-01T12:28:21Z</time>
      </trkpt>
      <trkpt lat="44.15213" lon="5.31766">
        <ele>1469</ele>
        <time>2011-10-01T12:28:26Z</time>
      </trkpt>
      <trkpt lat="44.15206" lon="5.31741">
        <ele>1469</ele>
        <time>2011-10-01T12:28:31Z</time>
      </trkpt>
      <trkpt lat="44.152" lon="5.31723">
        <ele>1470</ele>
        <time>2011-10-01T12:28:36Z</time>
      </trkpt>
      <trkpt lat="44.15194" lon="5.31707">
        <ele>1473</ele>
        <time>2011-10-01T12:28:41Z</time>
      </trkpt>
      <trkpt lat="44.15188" lon="5.31693">
        <ele>1474.5</ele>
        <time>2011-10-01T12:28:46Z</time>
      </trkpt>
      <trkpt lat="44.1518" lon="5.31678">
        <ele>1476.5</ele>
        <time>2011-10-01T12:28:51Z</time>
      </trkpt>
      <trkpt lat="44.15171" lon="5.31655">
        <ele>1477</ele>
        <time>2011-10-01T12:28:56Z</time>
      </trkpt>
      <trkpt lat="44.15165" lon="5.31635">
        <ele>1478</ele>
        <time>2011-10-01T12:29:01Z</time>
      </trkpt>
      <trkpt lat="44.15158" lon="5.31616">
        <ele>1480</ele>
        <time>2011-10-01T12:29:06Z</time>
      </trkpt>
      <trkpt lat="44.15152" lon="5.31595">
        <ele>1481</ele>
        <time>2011-10-01T12:29:11Z</time>
      </trkpt>
      <trkpt lat="44.15147" lon="5.31575">
        <ele>1481.5</ele>
        <time>2011-10-01T12:29:16Z</time>
      </trkpt>
      <trkpt lat="44.15143" lon="5.31556">
        <ele>1483</ele>
        <time>2011-10-01T12:29:21Z</time>
      </trkpt>
      <trkpt lat="44.15138" lon="5.31537">
        <ele>1484</ele>
        <time>2011-10-01T12:29:26Z</time>
      </trkpt>
      <trkpt lat="44.15131" lon="5.31516">
        <ele>1485.5</ele>
        <time>2011-10-01T12:29:31Z</time>
      </trkpt>
      <trkpt lat="44.15125" lon="5.31496">
        <ele>1488</ele>
        <time>2011-10-01T12:29:36Z</time>
      </trkpt>
      <trkpt lat="44.15115" lon="5.31477">
        <ele>1490</ele>
        <time>2011-10-01T12:29:41Z</time>
      </trkpt>
      <trkpt lat="44.15107" lon="5.31463">
        <ele>1492</ele>
        <time>2011-10-01T12:29:46Z</time>
      </trkpt>
      <trkpt lat="44.15097" lon="5.3144">
        <ele>1493.5</ele>
        <time>2011-10-01T12:29:51Z</time>
      </trkpt>
      <trkpt lat="44.15097" lon="5.31422">
        <ele>1495.5</ele>
        <time>2011-10-01T12:29:56Z</time>
      </trkpt>
      <trkpt lat="44.15102" lon="5.31404">
        <ele>1499</ele>
        <time>2011-10-01T12:30:01Z</time>
      </trkpt>
      <trkpt lat="44.15109" lon="5.31396">
        <ele>1501</ele>
        <time>2011-10-01T12:30:06Z</time>
      </trkpt>
      <trkpt lat="44.15119" lon="5.31385">
        <ele>1501.5</ele>
        <time>2011-10-01T12:30:11Z</time>
      </trkpt>
      <trkpt lat="44.15132" lon="5.31371">
        <ele>1503</ele>
        <time>2011-10-01T12:30:16Z</time>
      </trkpt>
      <trkpt lat="44.15144" lon="5.3136">
        <ele>1503</ele>
        <time>2011-10-01T12:30:21Z</time>
      </trkpt>
      <trkpt lat="44.15156" lon="5.31352">
        <ele>1503.5</ele>
        <time>2011-10-01T12:30:26Z</time>
      </trkpt>
      <trkpt lat="44.15168" lon="5.3135">
        <ele>1504.5</ele>
        <time>2011-10-01T12:30:31Z</time>
      </trkpt>
      <trkpt lat="44.15179" lon="5.31351">
        <ele>1506</ele>
        <time>2011-10-01T12:30:36Z</time>
      </trkpt>
      <trkpt lat="44.15189" lon="5.31352">
        <ele>1508.5</ele>
        <time>2011-10-01T12:30:41Z</time>
      </trkpt>
      <trkpt lat="44.15201" lon="5.31353">
        <ele>1509.5</ele>
        <time>2011-10-01T12:30:46Z</time>
      </trkpt>
      <trkpt lat="44.15213" lon="5.31355">
        <ele>1510</ele>
        <time>2011-10-01T12:30:51Z</time>
      </trkpt>
      <trkpt lat="44.15225" lon="5.31358">
        <ele>1510.5</ele>
        <time>2011-10-01T12:30:56Z</time>
      </trkpt>
      <trkpt lat="44.15237" lon="5.31362">
        <ele>1511</ele>
        <time>2011-10-01T12:31:01Z</time>
      </trkpt>
      <trkpt lat="44.15247" lon="5.3137">
        <ele>1512.5</ele>
        <time>2011-10-01T12:31:06Z</time>
      </trkpt>
      <trkpt lat="44.15258" lon="5.31379">
        <ele>1513.5</ele>
        <time>2011-10-01T12:31:11Z</time>
      </trkpt>
      <trkpt lat="44.15268" lon="5.31388">
        <ele>1515</ele>
        <time>2011-10-01T12:31:16Z</time>
      </trkpt>
      <trkpt lat="44.15278" lon="5.31398">
        <ele>1515</ele>
        <time>2011-10-01T12:31:21Z</time>
      </trkpt>
      <trkpt lat="44.15285" lon="5.31407">
        <ele>1515</ele>
        <time>2011-10-01T12:31:26Z</time>
      </trkpt>
      <trkpt lat="44.153" lon="5.31425">
        <ele>1516</ele>
        <time>2011-10-01T12:31:31Z</time>
      </trkpt>
      <trkpt lat="44.15311" lon="5.31434">
        <ele>1517.5</ele>
        <time>2011-10-01T12:31:36Z</time>
      </trkpt>
      <trkpt lat="44.15323" lon="5.31441">
        <ele>1519.5</ele>
        <time>2011-10-01T12:31:41Z</time>
      </trkpt>
      <trkpt lat="44.15335" lon="5.31447">
        <ele>1520.5</ele>
        <time>2011-10-01T12:31:46Z</time>
      </trkpt>
      <trkpt lat="44.15348" lon="5.31453">
        <ele>1522</ele>
        <time>2011-10-01T12:31:51Z</time>
      </trkpt>
      <trkpt lat="44.15358" lon="5.31458">
        <ele>1522.5</ele>
        <time>2011-10-01T12:31:56Z</time>
      </trkpt>
      <trkpt lat="44.15368" lon="5.31465">
        <ele>1523.5</ele>
        <time>2011-10-01T12:32:01Z</time>
      </trkpt>
      <trkpt lat="44.1538" lon="5.31471">
        <ele>1524.5</ele>
        <time>2011-10-01T12:32:06Z</time>
      </trkpt>
      <trkpt lat="44.15392" lon="5.31479">
        <ele>1525</ele>
        <time>2011-10-01T12:32:11Z</time>
      </trkpt>
      <trkpt lat="44.15405" lon="5.31487">
        <ele>1525</ele>
        <time>2011-10-01T12:32:16Z</time>
      </trkpt>
      <trkpt lat="44.15416" lon="5.31494">
        <ele>1526</ele>
        <time>2011-10-01T12:32:21Z</time>
      </trkpt>
      <trkpt lat="44.15426" lon="5.315">
        <ele>1526</ele>
        <time>2011-10-01T12:32:26Z</time>
      </trkpt>
      <trkpt lat="44.1544" lon="5.31511">
        <ele>1527</ele>
        <time>2011-10-01T12:32:31Z</time>
      </trkpt>
      <trkpt lat="44.15453" lon="5.31518">
        <ele>1528.5</ele>
        <time>2011-10-01T12:32:36Z</time>
      </trkpt>
      <trkpt lat="44.15465" lon="5.31528">
        <ele>1528.5</ele>
        <time>2011-10-01T12:32:41Z</time>
      </trkpt>
      <trkpt lat="44.1548" lon="5.31536">
        <ele>1529.5</ele>
        <time>2011-10-01T12:32:46Z</time>
      </trkpt>
      <trkpt lat="44.15495" lon="5.31539">
        <ele>1530</ele>
        <time>2011-10-01T12:32:51Z</time>
      </trkpt>
      <trkpt lat="44.15505" lon="5.31526">
        <ele>1532</ele>
        <time>2011-10-01T12:32:56Z</time>
      </trkpt>
      <trkpt lat="44.15496" lon="5.31503">
        <ele>1535.5</ele>
        <time>2011-10-01T12:33:01Z</time>
      </trkpt>
      <trkpt lat="44.15486" lon="5.31475">
        <ele>1536</ele>
        <time>2011-10-01T12:33:06Z</time>
      </trkpt>
      <trkpt lat="44.15483" lon="5.31445">
        <ele>1538</ele>
        <time>2011-10-01T12:33:11Z</time>
      </trkpt>
      <trkpt lat="44.15483" lon="5.31417">
        <ele>1540.5</ele>
        <time>2011-10-01T12:33:16Z</time>
      </trkpt>
      <trkpt lat="44.15484" lon="5.3139">
        <ele>1543</ele>
        <time>2011-10-01T12:33:21Z</time>
      </trkpt>
      <trkpt lat="44.15485" lon="5.31364">
        <ele>1544.5</ele>
        <time>2011-10-01T12:33:26Z</time>
      </trkpt>
      <trkpt lat="44.15487" lon="5.31338">
        <ele>1547.5</ele>
        <time>2011-10-01T12:33:31Z</time>
      </trkpt>
      <trkpt lat="44.15489" lon="5.31311">
        <ele>1549</ele>
        <time>2011-10-01T12:33:36Z</time>
      </trkpt>
      <trkpt lat="44.15491" lon="5.31285">
        <ele>1551</ele>
        <time>2011-10-01T12:33:41Z</time>
      </trkpt>
      <trkpt lat="44.15496" lon="5.31256">
        <ele>1553</ele>
        <time>2011-10-01T12:33:46Z</time>
      </trkpt>
      <trkpt lat="44.15505" lon="5.31232">
        <ele>1554.5</ele>
        <time>2011-10-01T12:33:51Z</time>
      </trkpt>
      <trkpt lat="44.15519" lon="5.31219">
        <ele>1556.5</ele>
        <time>2011-10-01T12:33:56Z</time>
      </trkpt>
      <trkpt lat="44.15533" lon="5.31217">
        <ele>1557.5</ele>
        <time>2011-10-01T12:34:01Z</time>
      </trkpt>
      <trkpt lat="44.15545" lon="5.31222">
        <ele>1558.5</ele>
        <time>2011-10-01T12:34:06Z</time>
      </trkpt>
      <trkpt lat="44.15559" lon="5.31231">
        <ele>1559.5</ele>
        <time>2011-10-01T12:34:11Z</time>
      </trkpt>
      <trkpt lat="44.15571" lon="5.31239">
        <ele>1560</ele>
        <time>2011-10-01T12:34:16Z</time>
      </trkpt>
      <trkpt lat="44.15584" lon="5.31248">
        <ele>1560.5</ele>
        <time>2011-10-01T12:34:21Z</time>
      </trkpt>
      <trkpt lat="44.15599" lon="5.31257">
        <ele>1560.5</ele>
        <time>2011-10-01T12:34:26Z</time>
      </trkpt>
      <trkpt lat="44.15614" lon="5.31266">
        <ele>1560.5</ele>
        <time>2011-10-01T12:34:31Z</time>
      </trkpt>
      <trkpt lat="44.15632" lon="5.31273">
        <ele>1559.5</ele>
        <time>2011-10-01T12:34:36Z</time>
      </trkpt>
      <trkpt lat="44.15649" lon="5.31281">
        <ele>1560</ele>
        <time>2011-10-01T12:34:41Z</time>
      </trkpt>
      <trkpt lat="44.15665" lon="5.31287">
        <ele>1561</ele>
        <time>2011-10-01T12:34:46Z</time>
      </trkpt>
      <trkpt lat="44.15681" lon="5.31292">
        <ele>1562</ele>
        <time>2011-10-01T12:34:51Z</time>
      </trkpt>
      <trkpt lat="44.15697" lon="5.31299">
        <ele>1562</ele>
        <time>2011-10-01T12:34:56Z</time>
      </trkpt>
      <trkpt lat="44.15711" lon="5.31306">
        <ele>1562.5</ele>
        <time>2011-10-01T12:35:01Z</time>
      </trkpt>
      <trkpt lat="44.15725" lon="5.31314">
        <ele>1562.5</ele>
        <time>2011-10-01T12:35:06Z</time>
      </trkpt>
      <trkpt lat="44.1574" lon="5.31324">
        <ele>1563</ele>
        <time>2011-10-01T12:35:11Z</time>
      </trkpt>
      <trkpt lat="44.15754" lon="5.31334">
        <ele>1563</ele>
        <time>2011-10-01T12:35:16Z</time>
      </trkpt>
      <trkpt lat="44.1577" lon="5.31337">
        <ele>1562</ele>
        <time>2011-10-01T12:35:21Z</time>
      </trkpt>
      <trkpt lat="44.15783" lon="5.31332">
        <ele>1563.5</ele>
        <time>2011-10-01T12:35:26Z</time>
      </trkpt>
      <trkpt lat="44.15789" lon="5.31316">
        <ele>1565.5</ele>
        <time>2011-10-01T12:35:31Z</time>
      </trkpt>
      <trkpt lat="44.1579" lon="5.31297">
        <ele>1565</ele>
        <time>2011-10-01T12:35:36Z</time>
      </trkpt>
      <trkpt lat="44.15787" lon="5.31276">
        <ele>1567</ele>
        <time>2011-10-01T12:35:41Z</time>
      </trkpt>
      <trkpt lat="44.15786" lon="5.31257">
        <ele>1568.5</ele>
        <time>2011-10-01T12:35:46Z</time>
      </trkpt>
      <trkpt lat="44.15785" lon="5.31236">
        <ele>1570</ele>
        <time>2011-10-01T12:35:51Z</time>
      </trkpt>
      <trkpt lat="44.15783" lon="5.31216">
        <ele>1571.5</ele>
        <time>2011-10-01T12:35:56Z</time>
      </trkpt>
      <trkpt lat="44.15778" lon="5.31199">
        <ele>1573</ele>
        <time>2011-10-01T12:36:01Z</time>
      </trkpt>
      <trkpt lat="44.15771" lon="5.31184">
        <ele>1573</ele>
        <time>2011-10-01T12:36:06Z</time>
      </trkpt>
      <trkpt lat="44.15763" lon="5.3117">
        <ele>1572.5</ele>
        <time>2011-10-01T12:36:11Z</time>
      </trkpt>
      <trkpt lat="44.15757" lon="5.31151">
        <ele>1572.5</ele>
        <time>2011-10-01T12:36:16Z</time>
      </trkpt>
      <trkpt lat="44.15752" lon="5.31132">
        <ele>1574</ele>
        <time>2011-10-01T12:36:21Z</time>
      </trkpt>
      <trkpt lat="44.15749" lon="5.31114">
        <ele>1576</ele>
        <time>2011-10-01T12:36:26Z</time>
      </trkpt>
      <trkpt lat="44.15746" lon="5.31096">
        <ele>1578</ele>
        <time>2011-10-01T12:36:31Z</time>
      </trkpt>
      <trkpt lat="44.15744" lon="5.31079">
        <ele>1580</ele>
        <time>2011-10-01T12:36:36Z</time>
      </trkpt>
      <trkpt lat="44.15744" lon="5.31062">
        <ele>1580.5</ele>
        <time>2011-10-01T12:36:41Z</time>
      </trkpt>
      <trkpt lat="44.15745" lon="5.31045">
        <ele>1581.5</ele>
        <time>2011-10-01T12:36:46Z</time>
      </trkpt>
      <trkpt lat="44.15746" lon="5.31028">
        <ele>1583.5</ele>
        <time>2011-10-01T12:36:51Z</time>
      </trkpt>
      <trkpt lat="44.15749" lon="5.31011">
        <ele>1585.5</ele>
        <time>2011-10-01T12:36:56Z</time>
      </trkpt>
      <trkpt lat="44.15751" lon="5.30994">
        <ele>1587.5</ele>
        <time>2011-10-01T12:37:01Z</time>
      </trkpt>
      <trkpt lat="44.15753" lon="5.30978">
        <ele>1589</ele>
        <time>2011-10-01T12:37:06Z</time>
      </trkpt>
      <trkpt lat="44.15757" lon="5.3096">
        <ele>1590.5</ele>
        <time>2011-10-01T12:37:11Z</time>
      </trkpt>
      <trkpt lat="44.15763" lon="5.30944">
        <ele>1592</ele>
        <time>2011-10-01T12:37:16Z</time>
      </trkpt>
      <trkpt lat="44.15768" lon="5.30929">
        <ele>1594</ele>
        <time>2011-10-01T12:37:21Z</time>
      </trkpt>
      <trkpt lat="44.15775" lon="5.30914">
        <ele>1595.5</ele>
        <time>2011-10-01T12:37:26Z</time>
      </trkpt>
      <trkpt lat="44.15781" lon="5.30898">
        <ele>1597.5</ele>
        <time>2011-10-01T12:37:31Z</time>
      </trkpt>
      <trkpt lat="44.15789" lon="5.30883">
        <ele>1597.5</ele>
        <time>2011-10-01T12:37:36Z</time>
      </trkpt>
      <trkpt lat="44.15797" lon="5.30873">
        <ele>1599</ele>
        <time>2011-10-01T12:37:41Z</time>
      </trkpt>
      <trkpt lat="44.15806" lon="5.30863">
        <ele>1600.5</ele>
        <time>2011-10-01T12:37:46Z</time>
      </trkpt>
      <trkpt lat="44.15816" lon="5.30852">
        <ele>1600</ele>
        <time>2011-10-01T12:37:51Z</time>
      </trkpt>
      <trkpt lat="44.15827" lon="5.30844">
        <ele>1600</ele>
        <time>2011-10-01T12:37:56Z</time>
      </trkpt>
      <trkpt lat="44.15838" lon="5.30837">
        <ele>1599.5</ele>
        <time>2011-10-01T12:38:01Z</time>
      </trkpt>
      <trkpt lat="44.15848" lon="5.30831">
        <ele>1602</ele>
        <time>2011-10-01T12:38:06Z</time>
      </trkpt>
      <trkpt lat="44.1586" lon="5.30826">
        <ele>1602</ele>
        <time>2011-10-01T12:38:11Z</time>
      </trkpt>
      <trkpt lat="44.15872" lon="5.3082">
        <ele>1602</ele>
        <time>2011-10-01T12:38:16Z</time>
      </trkpt>
      <trkpt lat="44.15881" lon="5.30816">
        <ele>1603</ele>
        <time>2011-10-01T12:38:21Z</time>
      </trkpt>
      <trkpt lat="44.1589" lon="5.30812">
        <ele>1604</ele>
        <time>2011-10-01T12:38:26Z</time>
      </trkpt>
      <trkpt lat="44.15901" lon="5.3081">
        <ele>1606</ele>
        <time>2011-10-01T12:38:31Z</time>
      </trkpt>
      <trkpt lat="44.15909" lon="5.3081">
        <ele>1609</ele>
        <time>2011-10-01T12:38:36Z</time>
      </trkpt>
      <trkpt lat="44.15922" lon="5.30809">
        <ele>1609.5</ele>
        <time>2011-10-01T12:38:41Z</time>
      </trkpt>
      <trkpt lat="44.15935" lon="5.3081">
        <ele>1610</ele>
        <time>2011-10-01T12:38:46Z</time>
      </trkpt>
      <trkpt lat="44.15948" lon="5.30812">
        <ele>1610.5</ele>
        <time>2011-10-01T12:38:51Z</time>
      </trkpt>
      <trkpt lat="44.1596" lon="5.30814">
        <ele>1611</ele>
        <time>2011-10-01T12:38:56Z</time>
      </trkpt>
      <trkpt lat="44.15971" lon="5.30816">
        <ele>1615</ele>
        <time>2011-10-01T12:39:01Z</time>
      </trkpt>
      <trkpt lat="44.15983" lon="5.30817">
        <ele>1617.5</ele>
        <time>2011-10-01T12:39:06Z</time>
      </trkpt>
      <trkpt lat="44.15997" lon="5.30818">
        <ele>1619</ele>
        <time>2011-10-01T12:39:11Z</time>
      </trkpt>
      <trkpt lat="44.1601" lon="5.30818">
        <ele>1620.5</ele>
        <time>2011-10-01T12:39:16Z</time>
      </trkpt>
      <trkpt lat="44.16023" lon="5.3081">
        <ele>1621</ele>
        <time>2011-10-01T12:39:21Z</time>
      </trkpt>
      <trkpt lat="44.16031" lon="5.30794">
        <ele>1618</ele>
        <time>2011-10-01T12:39:26Z</time>
      </trkpt>
      <trkpt lat="44.16027" lon="5.30773">
        <ele>1617</ele>
        <time>2011-10-01T12:39:31Z</time>
      </trkpt>
      <trkpt lat="44.16019" lon="5.30753">
        <ele>1617.5</ele>
        <time>2011-10-01T12:39:36Z</time>
      </trkpt>
      <trkpt lat="44.16008" lon="5.30735">
        <ele>1618.5</ele>
        <time>2011-10-01T12:39:41Z</time>
      </trkpt>
      <trkpt lat="44.16" lon="5.30715">
        <ele>1618</ele>
        <time>2011-10-01T12:39:46Z</time>
      </trkpt>
      <trkpt lat="44.15992" lon="5.30695">
        <ele>1618.5</ele>
        <time>2011-10-01T12:39:51Z</time>
      </trkpt>
      <trkpt lat="44.15987" lon="5.30674">
        <ele>1620.5</ele>
        <time>2011-10-01T12:39:56Z</time>
      </trkpt>
      <trkpt lat="44.15983" lon="5.30655">
        <ele>1622.5</ele>
        <time>2011-10-01T12:40:01Z</time>
      </trkpt>
      <trkpt lat="44.15979" lon="5.30638">
        <ele>1624</ele>
        <time>2011-10-01T12:40:06Z</time>
      </trkpt>
      <trkpt lat="44.15975" lon="5.3062">
        <ele>1625</ele>
        <time>2011-10-01T12:40:11Z</time>
      </trkpt>
      <trkpt lat="44.15972" lon="5.306">
        <ele>1628</ele>
        <time>2011-10-01T12:40:16Z</time>
      </trkpt>
      <trkpt lat="44.15969" lon="5.3058">
        <ele>1629.5</ele>
        <time>2011-10-01T12:40:21Z</time>
      </trkpt>
      <trkpt lat="44.15967" lon="5.3056">
        <ele>1630</ele>
        <time>2011-10-01T12:40:26Z</time>
      </trkpt>
      <trkpt lat="44.15966" lon="5.30542">
        <ele>1631</ele>
        <time>2011-10-01T12:40:31Z</time>
      </trkpt>
      <trkpt lat="44.15967" lon="5.30524">
        <ele>1633</ele>
        <time>2011-10-01T12:40:36Z</time>
      </trkpt>
      <trkpt lat="44.15968" lon="5.30505">
        <ele>1635</ele>
        <time>2011-10-01T12:40:41Z</time>
      </trkpt>
      <trkpt lat="44.15971" lon="5.30487">
        <ele>1636.5</ele>
        <time>2011-10-01T12:40:46Z</time>
      </trkpt>
      <trkpt lat="44.15975" lon="5.30471">
        <ele>1638</ele>
        <time>2011-10-01T12:40:51Z</time>
      </trkpt>
      <trkpt lat="44.15978" lon="5.30455">
        <ele>1640</ele>
        <time>2011-10-01T12:40:56Z</time>
      </trkpt>
      <trkpt lat="44.15982" lon="5.30438">
        <ele>1641</ele>
        <time>2011-10-01T12:41:01Z</time>
      </trkpt>
      <trkpt lat="44.15986" lon="5.30421">
        <ele>1641.5</ele>
        <time>2011-10-01T12:41:06Z</time>
      </trkpt>
      <trkpt lat="44.1599" lon="5.30401">
        <ele>1643.5</ele>
        <time>2011-10-01T12:41:11Z</time>
      </trkpt>
      <trkpt lat="44.15994" lon="5.30384">
        <ele>1644.5</ele>
        <time>2011-10-01T12:41:16Z</time>
      </trkpt>
      <trkpt lat="44.15997" lon="5.30367">
        <ele>1645.5</ele>
        <time>2011-10-01T12:41:21Z</time>
      </trkpt>
      <trkpt lat="44.16001" lon="5.3035">
        <ele>1646</ele>
        <time>2011-10-01T12:41:26Z</time>
      </trkpt>
      <trkpt lat="44.16004" lon="5.30332">
        <ele>1647</ele>
        <time>2011-10-01T12:41:31Z</time>
      </trkpt>
      <trkpt lat="44.16009" lon="5.30316">
        <ele>1647.5</ele>
        <time>2011-10-01T12:41:36Z</time>
      </trkpt>
      <trkpt lat="44.16015" lon="5.30298">
        <ele>1649</ele>
        <time>2011-10-01T12:41:41Z</time>
      </trkpt>
      <trkpt lat="44.16022" lon="5.30284">
        <ele>1649.5</ele>
        <time>2011-10-01T12:41:46Z</time>
      </trkpt>
      <trkpt lat="44.16027" lon="5.30269">
        <ele>1651</ele>
        <time>2011-10-01T12:41:51Z</time>
      </trkpt>
      <trkpt lat="44.16033" lon="5.30254">
        <ele>1652</ele>
        <time>2011-10-01T12:41:56Z</time>
      </trkpt>
      <trkpt lat="44.16039" lon="5.30238">
        <ele>1654</ele>
        <time>2011-10-01T12:42:01Z</time>
      </trkpt>
      <trkpt lat="44.16043" lon="5.30223">
        <ele>1655.5</ele>
        <time>2011-10-01T12:42:06Z</time>
      </trkpt>
      <trkpt lat="44.16049" lon="5.30208">
        <ele>1657</ele>
        <time>2011-10-01T12:42:11Z</time>
      </trkpt>
      <trkpt lat="44.16054" lon="5.30194">
        <ele>1658.5</ele>
        <time>2011-10-01T12:42:16Z</time>
      </trkpt>
      <trkpt lat="44.16061" lon="5.3018">
        <ele>1660</ele>
        <time>2011-10-01T12:42:21Z</time>
      </trkpt>
      <trkpt lat="44.16067" lon="5.30166">
        <ele>1661.5</ele>
        <time>2011-10-01T12:42:26Z</time>
      </trkpt>
      <trkpt lat="44.16075" lon="5.30153">
        <ele>1662</ele>
        <time>2011-10-01T12:42:31Z</time>
      </trkpt>
      <trkpt lat="44.16083" lon="5.30141">
        <ele>1663</ele>
        <time>2011-10-01T12:42:36Z</time>
      </trkpt>
      <trkpt lat="44.16092" lon="5.3013">
        <ele>1664.5</ele>
        <time>2011-10-01T12:42:41Z</time>
      </trkpt>
      <trkpt lat="44.16101" lon="5.3012">
        <ele>1664.5</ele>
        <time>2011-10-01T12:42:46Z</time>
      </trkpt>
      <trkpt lat="44.16111" lon="5.30111">
        <ele>1666.5</ele>
        <time>2011-10-01T12:42:51Z</time>
      </trkpt>
      <trkpt lat="44.16121" lon="5.30102">
        <ele>1667</ele>
        <time>2011-10-01T12:42:56Z</time>
      </trkpt>
      <trkpt lat="44.16132" lon="5.30094">
        <ele>1668.5</ele>
        <time>2011-10-01T12:43:01Z</time>
      </trkpt>
      <trkpt lat="44.16142" lon="5.30088">
        <ele>1669.5</ele>
        <time>2011-10-01T12:43:06Z</time>
      </trkpt>
      <trkpt lat="44.16151" lon="5.30082">
        <ele>1670.5</ele>
        <time>2011-10-01T12:43:11Z</time>
      </trkpt>
      <trkpt lat="44.16162" lon="5.30078">
        <ele>1671.5</ele>
        <time>2011-10-01T12:43:16Z</time>
      </trkpt>
      <trkpt lat="44.16173" lon="5.30077">
        <ele>1672</ele>
        <time>2011-10-01T12:43:21Z</time>
      </trkpt>
      <trkpt lat="44.16183" lon="5.30079">
        <ele>1673</ele>
        <time>2011-10-01T12:43:26Z</time>
      </trkpt>
      <trkpt lat="44.16191" lon="5.30084">
        <ele>1672</ele>
        <time>2011-10-01T12:43:31Z</time>
      </trkpt>
      <trkpt lat="44.16198" lon="5.30095">
        <ele>1672</ele>
        <time>2011-10-01T12:43:36Z</time>
      </trkpt>
      <trkpt lat="44.16205" lon="5.30107">
        <ele>1672</ele>
        <time>2011-10-01T12:43:41Z</time>
      </trkpt>
      <trkpt lat="44.16211" lon="5.30118">
        <ele>1673</ele>
        <time>2011-10-01T12:43:46Z</time>
      </trkpt>
      <trkpt lat="44.16219" lon="5.3013">
        <ele>1673</ele>
        <time>2011-10-01T12:43:51Z</time>
      </trkpt>
      <trkpt lat="44.16226" lon="5.30142">
        <ele>1672.5</ele>
        <time>2011-10-01T12:43:56Z</time>
      </trkpt>
      <trkpt lat="44.16232" lon="5.30153">
        <ele>1673</ele>
        <time>2011-10-01T12:44:01Z</time>
      </trkpt>
      <trkpt lat="44.16238" lon="5.30164">
        <ele>1674</ele>
        <time>2011-10-01T12:44:06Z</time>
      </trkpt>
      <trkpt lat="44.16244" lon="5.30176">
        <ele>1675</ele>
        <time>2011-10-01T12:44:11Z</time>
      </trkpt>
      <trkpt lat="44.16251" lon="5.30187">
        <ele>1674.5</ele>
        <time>2011-10-01T12:44:16Z</time>
      </trkpt>
      <trkpt lat="44.16257" lon="5.30199">
        <ele>1675</ele>
        <time>2011-10-01T12:44:21Z</time>
      </trkpt>
      <trkpt lat="44.16263" lon="5.3021">
        <ele>1675</ele>
        <time>2011-10-01T12:44:26Z</time>
      </trkpt>
      <trkpt lat="44.16269" lon="5.30222">
        <ele>1676</ele>
        <time>2011-10-01T12:44:31Z</time>
      </trkpt>
      <trkpt lat="44.16277" lon="5.30233">
        <ele>1676</ele>
        <time>2011-10-01T12:44:36Z</time>
      </trkpt>
      <trkpt lat="44.16285" lon="5.30243">
        <ele>1675.5</ele>
        <time>2011-10-01T12:44:41Z</time>
      </trkpt>
      <trkpt lat="44.16292" lon="5.30253">
        <ele>1677</ele>
        <time>2011-10-01T12:44:46Z</time>
      </trkpt>
      <trkpt lat="44.16304" lon="5.30257">
        <ele>1678</ele>
        <time>2011-10-01T12:44:51Z</time>
      </trkpt>
      <trkpt lat="44.16318" lon="5.30253">
        <ele>1678</ele>
        <time>2011-10-01T12:44:56Z</time>
      </trkpt>
      <trkpt lat="44.16333" lon="5.30244">
        <ele>1679</ele>
        <time>2011-10-01T12:45:01Z</time>
      </trkpt>
      <trkpt lat="44.16347" lon="5.30235">
        <ele>1680.5</ele>
        <time>2011-10-01T12:45:06Z</time>
      </trkpt>
      <trkpt lat="44.1636" lon="5.30226">
        <ele>1682</ele>
        <time>2011-10-01T12:45:11Z</time>
      </trkpt>
      <trkpt lat="44.16373" lon="5.30216">
        <ele>1683</ele>
        <time>2011-10-01T12:45:16Z</time>
      </trkpt>
      <trkpt lat="44.16384" lon="5.30205">
        <ele>1684.5</ele>
        <time>2011-10-01T12:45:21Z</time>
      </trkpt>
      <trkpt lat="44.16394" lon="5.3019">
        <ele>1685.5</ele>
        <time>2011-10-01T12:45:26Z</time>
      </trkpt>
      <trkpt lat="44.16402" lon="5.30175">
        <ele>1688</ele>
        <time>2011-10-01T12:45:31Z</time>
      </trkpt>
      <trkpt lat="44.16408" lon="5.30156">
        <ele>1689</ele>
        <time>2011-10-01T12:45:36Z</time>
      </trkpt>
      <trkpt lat="44.16414" lon="5.30139">
        <ele>1690.5</ele>
        <time>2011-10-01T12:45:41Z</time>
      </trkpt>
      <trkpt lat="44.1642" lon="5.30122">
        <ele>1692</ele>
        <time>2011-10-01T12:45:46Z</time>
      </trkpt>
      <trkpt lat="44.16424" lon="5.30107">
        <ele>1694</ele>
        <time>2011-10-01T12:45:51Z</time>
      </trkpt>
      <trkpt lat="44.16428" lon="5.30092">
        <ele>1695.5</ele>
        <time>2011-10-01T12:45:56Z</time>
      </trkpt>
      <trkpt lat="44.16433" lon="5.30077">
        <ele>1698</ele>
        <time>2011-10-01T12:46:01Z</time>
      </trkpt>
      <trkpt lat="44.16438" lon="5.30062">
        <ele>1699.5</ele>
        <time>2011-10-01T12:46:06Z</time>
      </trkpt>
      <trkpt lat="44.16442" lon="5.30048">
        <ele>1701.5</ele>
        <time>2011-10-01T12:46:11Z</time>
      </trkpt>
      <trkpt lat="44.16446" lon="5.30038">
        <ele>1701</ele>
        <time>2011-10-01T12:46:16Z</time>
      </trkpt>
      <trkpt lat="44.1645" lon="5.30025">
        <ele>1702.5</ele>
        <time>2011-10-01T12:46:21Z</time>
      </trkpt>
      <trkpt lat="44.16456" lon="5.30011">
        <ele>1703</ele>
        <time>2011-10-01T12:46:26Z</time>
      </trkpt>
      <trkpt lat="44.16462" lon="5.3">
        <ele>1703</ele>
        <time>2011-10-01T12:46:31Z</time>
      </trkpt>
      <trkpt lat="44.16466" lon="5.29986">
        <ele>1704.5</ele>
        <time>2011-10-01T12:46:36Z</time>
      </trkpt>
      <trkpt lat="44.16472" lon="5.29974">
        <ele>1705</ele>
        <time>2011-10-01T12:46:41Z</time>
      </trkpt>
      <trkpt lat="44.16478" lon="5.29965">
        <ele>1705.5</ele>
        <time>2011-10-01T12:46:46Z</time>
      </trkpt>
      <trkpt lat="44.16483" lon="5.29954">
        <ele>1707</ele>
        <time>2011-10-01T12:46:51Z</time>
      </trkpt>
      <trkpt lat="44.16488" lon="5.29943">
        <ele>1707.5</ele>
        <time>2011-10-01T12:46:56Z</time>
      </trkpt>
      <trkpt lat="44.16493" lon="5.29933">
        <ele>1709</ele>
        <time>2011-10-01T12:47:01Z</time>
      </trkpt>
      <trkpt lat="44.16498" lon="5.29922">
        <ele>1709.5</ele>
        <time>2011-10-01T12:47:06Z</time>
      </trkpt>
      <trkpt lat="44.16504" lon="5.29908">
        <ele>1711</ele>
        <time>2011-10-01T12:47:11Z</time>
      </trkpt>
      <trkpt lat="44.16509" lon="5.29895">
        <ele>1712.5</ele>
        <time>2011-10-01T12:47:16Z</time>
      </trkpt>
      <trkpt lat="44.16512" lon="5.2988">
        <ele>1714.5</ele>
        <time>2011-10-01T12:47:21Z</time>
      </trkpt>
      <trkpt lat="44.16515" lon="5.29867">
        <ele>1715.5</ele>
        <time>2011-10-01T12:47:26Z</time>
      </trkpt>
      <trkpt lat="44.16518" lon="5.29852">
        <ele>1716.5</ele>
        <time>2011-10-01T12:47:31Z</time>
      </trkpt>
      <trkpt lat="44.16521" lon="5.29837">
        <ele>1716.5</ele>
        <time>2011-10-01T12:47:36Z</time>
      </trkpt>
      <trkpt lat="44.16524" lon="5.29822">
        <ele>1718.5</ele>
        <time>2011-10-01T12:47:41Z</time>
      </trkpt>
      <trkpt lat="44.16526" lon="5.29807">
        <ele>1720.5</ele>
        <time>2011-10-01T12:47:46Z</time>
      </trkpt>
      <trkpt lat="44.16528" lon="5.29792">
        <ele>1721.5</ele>
        <time>2011-10-01T12:47:51Z</time>
      </trkpt>
      <trkpt lat="44.16531" lon="5.29778">
        <ele>1722</ele>
        <time>2011-10-01T12:47:56Z</time>
      </trkpt>
      <trkpt lat="44.16534" lon="5.29762">
        <ele>1723.5</ele>
        <time>2011-10-01T12:48:01Z</time>
      </trkpt>
      <trkpt lat="44.16538" lon="5.29748">
        <ele>1724</ele>
        <time>2011-10-01T12:48:06Z</time>
      </trkpt>
      <trkpt lat="44.16543" lon="5.29735">
        <ele>1724.5</ele>
        <time>2011-10-01T12:48:11Z</time>
      </trkpt>
      <trkpt lat="44.16551" lon="5.29723">
        <ele>1725</ele>
        <time>2011-10-01T12:48:16Z</time>
      </trkpt>
      <trkpt lat="44.1656" lon="5.29712">
        <ele>1725.5</ele>
        <time>2011-10-01T12:48:21Z</time>
      </trkpt>
      <trkpt lat="44.16569" lon="5.29702">
        <ele>1726.5</ele>
        <time>2011-10-01T12:48:26Z</time>
      </trkpt>
      <trkpt lat="44.16577" lon="5.29694">
        <ele>1729</ele>
        <time>2011-10-01T12:48:31Z</time>
      </trkpt>
      <trkpt lat="44.16587" lon="5.29687">
        <ele>1729</ele>
        <time>2011-10-01T12:48:36Z</time>
      </trkpt>
      <trkpt lat="44.16596" lon="5.29681">
        <ele>1729.5</ele>
        <time>2011-10-01T12:48:41Z</time>
      </trkpt>
      <trkpt lat="44.16605" lon="5.29675">
        <ele>1730.5</ele>
        <time>2011-10-01T12:48:46Z</time>
      </trkpt>
      <trkpt lat="44.16614" lon="5.2967">
        <ele>1731.5</ele>
        <time>2011-10-01T12:48:51Z</time>
      </trkpt>
      <trkpt lat="44.16622" lon="5.29665">
        <ele>1732.5</ele>
        <time>2011-10-01T12:48:56Z</time>
      </trkpt>
      <trkpt lat="44.1663" lon="5.29661">
        <ele>1733.5</ele>
        <time>2011-10-01T12:49:01Z</time>
      </trkpt>
      <trkpt lat="44.16637" lon="5.29657">
        <ele>1735</ele>
        <time>2011-10-01T12:49:06Z</time>
      </trkpt>
      <trkpt lat="44.16645" lon="5.29652">
        <ele>1736</ele>
        <time>2011-10-01T12:49:11Z</time>
      </trkpt>
      <trkpt lat="44.16653" lon="5.29648">
        <ele>1736.5</ele>
        <time>2011-10-01T12:49:16Z</time>
      </trkpt>
      <trkpt lat="44.16661" lon="5.29643">
        <ele>1736.5</ele>
        <time>2011-10-01T12:49:21Z</time>
      </trkpt>
      <trkpt lat="44.16669" lon="5.29637">
        <ele>1736.5</ele>
        <time>2011-10-01T12:49:26Z</time>
      </trkpt>
      <trkpt lat="44.16677" lon="5.2963">
        <ele>1737</ele>
        <time>2011-10-01T12:49:31Z</time>
      </trkpt>
      <trkpt lat="44.16686" lon="5.29624">
        <ele>1738</ele>
        <time>2011-10-01T12:49:36Z</time>
      </trkpt>
      <trkpt lat="44.16694" lon="5.29619">
        <ele>1738</ele>
        <time>2011-10-01T12:49:41Z</time>
      </trkpt>
      <trkpt lat="44.16702" lon="5.29613">
        <ele>1739</ele>
        <time>2011-10-01T12:49:46Z</time>
      </trkpt>
      <trkpt lat="44.1671" lon="5.29606">
        <ele>1740.5</ele>
        <time>2011-10-01T12:49:51Z</time>
      </trkpt>
      <trkpt lat="44.16717" lon="5.29599">
        <ele>1741.5</ele>
        <time>2011-10-01T12:49:56Z</time>
      </trkpt>
      <trkpt lat="44.16724" lon="5.29591">
        <ele>1743.5</ele>
        <time>2011-10-01T12:50:01Z</time>
      </trkpt>
      <trkpt lat="44.1673" lon="5.29583">
        <ele>1745.5</ele>
        <time>2011-10-01T12:50:06Z</time>
      </trkpt>
      <trkpt lat="44.16737" lon="5.29575">
        <ele>1747.5</ele>
        <time>2011-10-01T12:50:11Z</time>
      </trkpt>
      <trkpt lat="44.16745" lon="5.29567">
        <ele>1748</ele>
        <time>2011-10-01T12:50:16Z</time>
      </trkpt>
      <trkpt lat="44.1675" lon="5.29558">
        <ele>1750.5</ele>
        <time>2011-10-01T12:50:21Z</time>
      </trkpt>
      <trkpt lat="44.16754" lon="5.2955">
        <ele>1751.5</ele>
        <time>2011-10-01T12:50:26Z</time>
      </trkpt>
      <trkpt lat="44.1676" lon="5.29537">
        <ele>1753.5</ele>
        <time>2011-10-01T12:50:31Z</time>
      </trkpt>
      <trkpt lat="44.16766" lon="5.29525">
        <ele>1754.5</ele>
        <time>2011-10-01T12:50:36Z</time>
      </trkpt>
      <trkpt lat="44.16769" lon="5.29512">
        <ele>1754.5</ele>
        <time>2011-10-01T12:50:41Z</time>
      </trkpt>
      <trkpt lat="44.1677" lon="5.29498">
        <ele>1754</ele>
        <time>2011-10-01T12:50:46Z</time>
      </trkpt>
      <trkpt lat="44.16767" lon="5.29484">
        <ele>1754.5</ele>
        <time>2011-10-01T12:50:51Z</time>
      </trkpt>
      <trkpt lat="44.16762" lon="5.29471">
        <ele>1754.5</ele>
        <time>2011-10-01T12:50:56Z</time>
      </trkpt>
      <trkpt lat="44.16758" lon="5.29459">
        <ele>1754</ele>
        <time>2011-10-01T12:51:01Z</time>
      </trkpt>
      <trkpt lat="44.1675" lon="5.29445">
        <ele>1754</ele>
        <time>2011-10-01T12:51:06Z</time>
      </trkpt>
      <trkpt lat="44.16743" lon="5.29429">
        <ele>1755</ele>
        <time>2011-10-01T12:51:11Z</time>
      </trkpt>
      <trkpt lat="44.16738" lon="5.29414">
        <ele>1755</ele>
        <time>2011-10-01T12:51:16Z</time>
      </trkpt>
      <trkpt lat="44.16733" lon="5.294">
        <ele>1754.5</ele>
        <time>2011-10-01T12:51:21Z</time>
      </trkpt>
      <trkpt lat="44.16728" lon="5.29386">
        <ele>1754.5</ele>
        <time>2011-10-01T12:51:26Z</time>
      </trkpt>
      <trkpt lat="44.1672" lon="5.29371">
        <ele>1756</ele>
        <time>2011-10-01T12:51:31Z</time>
      </trkpt>
      <trkpt lat="44.16714" lon="5.29356">
        <ele>1757</ele>
        <time>2011-10-01T12:51:36Z</time>
      </trkpt>
      <trkpt lat="44.16711" lon="5.29341">
        <ele>1758</ele>
        <time>2011-10-01T12:51:41Z</time>
      </trkpt>
      <trkpt lat="44.1671" lon="5.29325">
        <ele>1759</ele>
        <time>2011-10-01T12:51:46Z</time>
      </trkpt>
      <trkpt lat="44.16708" lon="5.29308">
        <ele>1759</ele>
        <time>2011-10-01T12:51:51Z</time>
      </trkpt>
      <trkpt lat="44.16709" lon="5.29293">
        <ele>1760</ele>
        <time>2011-10-01T12:51:56Z</time>
      </trkpt>
      <trkpt lat="44.16712" lon="5.29276">
        <ele>1760.5</ele>
        <time>2011-10-01T12:52:01Z</time>
      </trkpt>
      <trkpt lat="44.16715" lon="5.29263">
        <ele>1761</ele>
        <time>2011-10-01T12:52:06Z</time>
      </trkpt>
      <trkpt lat="44.16721" lon="5.29251">
        <ele>1760</ele>
        <time>2011-10-01T12:52:11Z</time>
      </trkpt>
      <trkpt lat="44.16725" lon="5.2924">
        <ele>1763</ele>
        <time>2011-10-01T12:52:16Z</time>
      </trkpt>
      <trkpt lat="44.16732" lon="5.2923">
        <ele>1763.5</ele>
        <time>2011-10-01T12:52:21Z</time>
      </trkpt>
      <trkpt lat="44.16739" lon="5.2922">
        <ele>1765.5</ele>
        <time>2011-10-01T12:52:26Z</time>
      </trkpt>
      <trkpt lat="44.16747" lon="5.29211">
        <ele>1767</ele>
        <time>2011-10-01T12:52:31Z</time>
      </trkpt>
      <trkpt lat="44.16755" lon="5.29203">
        <ele>1769</ele>
        <time>2011-10-01T12:52:36Z</time>
      </trkpt>
      <trkpt lat="44.16764" lon="5.29197">
        <ele>1769.5</ele>
        <time>2011-10-01T12:52:41Z</time>
      </trkpt>
      <trkpt lat="44.16775" lon="5.29191">
        <ele>1770</ele>
        <time>2011-10-01T12:52:46Z</time>
      </trkpt>
      <trkpt lat="44.16786" lon="5.29187">
        <ele>1770.5</ele>
        <time>2011-10-01T12:52:51Z</time>
      </trkpt>
      <trkpt lat="44.16797" lon="5.29183">
        <ele>1770.5</ele>
        <time>2011-10-01T12:52:56Z</time>
      </trkpt>
      <trkpt lat="44.16808" lon="5.29178">
        <ele>1770.5</ele>
        <time>2011-10-01T12:53:01Z</time>
      </trkpt>
      <trkpt lat="44.16818" lon="5.29173">
        <ele>1770.5</ele>
        <time>2011-10-01T12:53:06Z</time>
      </trkpt>
      <trkpt lat="44.16826" lon="5.29169">
        <ele>1770.5</ele>
        <time>2011-10-01T12:53:11Z</time>
      </trkpt>
      <trkpt lat="44.16834" lon="5.29164">
        <ele>1770.5</ele>
        <time>2011-10-01T12:53:16Z</time>
      </trkpt>
      <trkpt lat="44.16841" lon="5.2916">
        <ele>1770.5</ele>
        <time>2011-10-01T12:53:21Z</time>
      </trkpt>
      <trkpt lat="44.1685" lon="5.29156">
        <ele>1770.5</ele>
        <time>2011-10-01T12:53:26Z</time>
      </trkpt>
      <trkpt lat="44.16859" lon="5.29151">
        <ele>1770.5</ele>
        <time>2011-10-01T12:53:31Z</time>
      </trkpt>
      <trkpt lat="44.16868" lon="5.29148">
        <ele>1770.5</ele>
        <time>2011-10-01T12:53:36Z</time>
      </trkpt>
      <trkpt lat="44.16877" lon="5.29145">
        <ele>1770.5</ele>
        <time>2011-10-01T12:53:41Z</time>
      </trkpt>
      <trkpt lat="44.16882" lon="5.29139">
        <ele>1770.5</ele>
        <time>2011-10-01T12:53:46Z</time>
      </trkpt>
      <trkpt lat="44.16892" lon="5.29134">
        <ele>1770</ele>
        <time>2011-10-01T12:53:51Z</time>
      </trkpt>
      <trkpt lat="44.169" lon="5.2913">
        <ele>1770.5</ele>
        <time>2011-10-01T12:53:56Z</time>
      </trkpt>
      <trkpt lat="44.16907" lon="5.29124">
        <ele>1770.5</ele>
        <time>2011-10-01T12:54:01Z</time>
      </trkpt>
      <trkpt lat="44.16914" lon="5.29119">
        <ele>1770.5</ele>
        <time>2011-10-01T12:54:06Z</time>
      </trkpt>
      <trkpt lat="44.16922" lon="5.29115">
        <ele>1771</ele>
        <time>2011-10-01T12:54:11Z</time>
      </trkpt>
      <trkpt lat="44.1693" lon="5.29108">
        <ele>1771</ele>
        <time>2011-10-01T12:54:16Z</time>
      </trkpt>
      <trkpt lat="44.16937" lon="5.29104">
        <ele>1771.5</ele>
        <time>2011-10-01T12:54:21Z</time>
      </trkpt>
      <trkpt lat="44.16944" lon="5.29098">
        <ele>1771</ele>
        <time>2011-10-01T12:54:26Z</time>
      </trkpt>
      <trkpt lat="44.16951" lon="5.29096">
        <ele>1770.5</ele>
        <time>2011-10-01T12:54:31Z</time>
      </trkpt>
      <trkpt lat="44.16953" lon="5.29086">
        <ele>1772</ele>
        <time>2011-10-01T12:54:36Z</time>
      </trkpt>
      <trkpt lat="44.16951" lon="5.29074">
        <ele>1773</ele>
        <time>2011-10-01T12:54:41Z</time>
      </trkpt>
      <trkpt lat="44.16942" lon="5.29065">
        <ele>1776</ele>
        <time>2011-10-01T12:54:46Z</time>
      </trkpt>
      <trkpt lat="44.1693" lon="5.2906">
        <ele>1779.5</ele>
        <time>2011-10-01T12:54:51Z</time>
      </trkpt>
      <trkpt lat="44.16917" lon="5.29057">
        <ele>1784</ele>
        <time>2011-10-01T12:54:56Z</time>
      </trkpt>
      <trkpt lat="44.16904" lon="5.29051">
        <ele>1789.5</ele>
        <time>2011-10-01T12:55:01Z</time>
      </trkpt>
      <trkpt lat="44.1689" lon="5.29046">
        <ele>1796.5</ele>
        <time>2011-10-01T12:55:06Z</time>
      </trkpt>
      <trkpt lat="44.16879" lon="5.2904">
        <ele>1800</ele>
        <time>2011-10-01T12:55:11Z</time>
      </trkpt>
      <trkpt lat="44.16873" lon="5.29027">
        <ele>1798</ele>
        <time>2011-10-01T12:55:16Z</time>
      </trkpt>
      <trkpt lat="44.16868" lon="5.29012">
        <ele>1795</ele>
        <time>2011-10-01T12:55:21Z</time>
      </trkpt>
      <trkpt lat="44.16865" lon="5.28999">
        <ele>1794</ele>
        <time>2011-10-01T12:55:26Z</time>
      </trkpt>
      <trkpt lat="44.16864" lon="5.28986">
        <ele>1792.5</ele>
        <time>2011-10-01T12:55:31Z</time>
      </trkpt>
      <trkpt lat="44.16861" lon="5.2897">
        <ele>1792.5</ele>
        <time>2011-10-01T12:55:36Z</time>
      </trkpt>
      <trkpt lat="44.16859" lon="5.28956">
        <ele>1793.5</ele>
        <time>2011-10-01T12:55:41Z</time>
      </trkpt>
      <trkpt lat="44.16858" lon="5.28942">
        <ele>1794</ele>
        <time>2011-10-01T12:55:46Z</time>
      </trkpt>
      <trkpt lat="44.16858" lon="5.28928">
        <ele>1795</ele>
        <time>2011-10-01T12:55:51Z</time>
      </trkpt>
      <trkpt lat="44.16859" lon="5.28912">
        <ele>1795</ele>
        <time>2011-10-01T12:55:56Z</time>
      </trkpt>
      <trkpt lat="44.16861" lon="5.28898">
        <ele>1795.5</ele>
        <time>2011-10-01T12:56:01Z</time>
      </trkpt>
      <trkpt lat="44.16863" lon="5.28883">
        <ele>1795.5</ele>
        <time>2011-10-01T12:56:06Z</time>
      </trkpt>
      <trkpt lat="44.16865" lon="5.28869">
        <ele>1796.5</ele>
        <time>2011-10-01T12:56:11Z</time>
      </trkpt>
      <trkpt lat="44.16868" lon="5.28855">
        <ele>1797</ele>
        <time>2011-10-01T12:56:16Z</time>
      </trkpt>
      <trkpt lat="44.1687" lon="5.28842">
        <ele>1797.5</ele>
        <time>2011-10-01T12:56:21Z</time>
      </trkpt>
      <trkpt lat="44.16873" lon="5.28828">
        <ele>1799</ele>
        <time>2011-10-01T12:56:26Z</time>
      </trkpt>
      <trkpt lat="44.16876" lon="5.28813">
        <ele>1800</ele>
        <time>2011-10-01T12:56:31Z</time>
      </trkpt>
      <trkpt lat="44.16878" lon="5.28801">
        <ele>1800.5</ele>
        <time>2011-10-01T12:56:36Z</time>
      </trkpt>
      <trkpt lat="44.16883" lon="5.28787">
        <ele>1802</ele>
        <time>2011-10-01T12:56:41Z</time>
      </trkpt>
      <trkpt lat="44.16887" lon="5.28775">
        <ele>1803.5</ele>
        <time>2011-10-01T12:56:46Z</time>
      </trkpt>
      <trkpt lat="44.16891" lon="5.28763">
        <ele>1804.5</ele>
        <time>2011-10-01T12:56:51Z</time>
      </trkpt>
      <trkpt lat="44.16896" lon="5.28751">
        <ele>1805</ele>
        <time>2011-10-01T12:56:56Z</time>
      </trkpt>
      <trkpt lat="44.169" lon="5.2874">
        <ele>1806</ele>
        <time>2011-10-01T12:57:01Z</time>
      </trkpt>
      <trkpt lat="44.16904" lon="5.28727">
        <ele>1807</ele>
        <time>2011-10-01T12:57:06Z</time>
      </trkpt>
      <trkpt lat="44.16909" lon="5.28716">
        <ele>1807</ele>
        <time>2011-10-01T12:57:11Z</time>
      </trkpt>
      <trkpt lat="44.16913" lon="5.28705">
        <ele>1807.5</ele>
        <time>2011-10-01T12:57:16Z</time>
      </trkpt>
      <trkpt lat="44.16918" lon="5.28695">
        <ele>1808.5</ele>
        <time>2011-10-01T12:57:21Z</time>
      </trkpt>
      <trkpt lat="44.16922" lon="5.28684">
        <ele>1809</ele>
        <time>2011-10-01T12:57:26Z</time>
      </trkpt>
      <trkpt lat="44.16927" lon="5.28674">
        <ele>1810.5</ele>
        <time>2011-10-01T12:57:31Z</time>
      </trkpt>
      <trkpt lat="44.16931" lon="5.28667">
        <ele>1811</ele>
        <time>2011-10-01T12:57:36Z</time>
      </trkpt>
      <trkpt lat="44.16936" lon="5.28658">
        <ele>1810.5</ele>
        <time>2011-10-01T12:57:41Z</time>
      </trkpt>
      <trkpt lat="44.16941" lon="5.2865">
        <ele>1811</ele>
        <time>2011-10-01T12:57:46Z</time>
      </trkpt>
      <trkpt lat="44.16945" lon="5.28643">
        <ele>1811</ele>
        <time>2011-10-01T12:57:51Z</time>
      </trkpt>
      <trkpt lat="44.16949" lon="5.28635">
        <ele>1811</ele>
        <time>2011-10-01T12:57:56Z</time>
      </trkpt>
      <trkpt lat="44.16954" lon="5.28629">
        <ele>1811.5</ele>
        <time>2011-10-01T12:58:01Z</time>
      </trkpt>
      <trkpt lat="44.16957" lon="5.28622">
        <ele>1812.5</ele>
        <time>2011-10-01T12:58:06Z</time>
      </trkpt>
      <trkpt lat="44.16961" lon="5.28615">
        <ele>1813</ele>
        <time>2011-10-01T12:58:11Z</time>
      </trkpt>
      <trkpt lat="44.16965" lon="5.28609">
        <ele>1813</ele>
        <time>2011-10-01T12:58:16Z</time>
      </trkpt>
      <trkpt lat="44.16969" lon="5.28601">
        <ele>1813.5</ele>
        <time>2011-10-01T12:58:21Z</time>
      </trkpt>
      <trkpt lat="44.16975" lon="5.28596">
        <ele>1814</ele>
        <time>2011-10-01T12:58:26Z</time>
      </trkpt>
      <trkpt lat="44.16983" lon="5.28592">
        <ele>1814</ele>
        <time>2011-10-01T12:58:31Z</time>
      </trkpt>
      <trkpt lat="44.16989" lon="5.28586">
        <ele>1814.5</ele>
        <time>2011-10-01T12:58:36Z</time>
      </trkpt>
      <trkpt lat="44.16995" lon="5.28578">
        <ele>1814.5</ele>
        <time>2011-10-01T12:58:41Z</time>
      </trkpt>
      <trkpt lat="44.17002" lon="5.28572">
        <ele>1815</ele>
        <time>2011-10-01T12:58:46Z</time>
      </trkpt>
      <trkpt lat="44.17007" lon="5.28567">
        <ele>1815</ele>
        <time>2011-10-01T12:58:51Z</time>
      </trkpt>
      <trkpt lat="44.17013" lon="5.28562">
        <ele>1815</ele>
        <time>2011-10-01T12:58:56Z</time>
      </trkpt>
      <trkpt lat="44.17019" lon="5.28556">
        <ele>1815.5</ele>
        <time>2011-10-01T12:59:01Z</time>
      </trkpt>
      <trkpt lat="44.17025" lon="5.2855">
        <ele>1816</ele>
        <time>2011-10-01T12:59:06Z</time>
      </trkpt>
      <trkpt lat="44.17032" lon="5.28544">
        <ele>1816.5</ele>
        <time>2011-10-01T12:59:11Z</time>
      </trkpt>
      <trkpt lat="44.17037" lon="5.2854">
        <ele>1817.5</ele>
        <time>2011-10-01T12:59:16Z</time>
      </trkpt>
      <trkpt lat="44.17043" lon="5.28535">
        <ele>1817.5</ele>
        <time>2011-10-01T12:59:21Z</time>
      </trkpt>
      <trkpt lat="44.17049" lon="5.2853">
        <ele>1818</ele>
        <time>2011-10-01T12:59:26Z</time>
      </trkpt>
      <trkpt lat="44.17057" lon="5.28525">
        <ele>1818.5</ele>
        <time>2011-10-01T12:59:31Z</time>
      </trkpt>
      <trkpt lat="44.17063" lon="5.28519">
        <ele>1818.5</ele>
        <time>2011-10-01T12:59:36Z</time>
      </trkpt>
      <trkpt lat="44.17068" lon="5.28514">
        <ele>1819</ele>
        <time>2011-10-01T12:59:41Z</time>
      </trkpt>
      <trkpt lat="44.17073" lon="5.28507">
        <ele>1820</ele>
        <time>2011-10-01T12:59:46Z</time>
      </trkpt>
      <trkpt lat="44.17077" lon="5.285">
        <ele>1821</ele>
        <time>2011-10-01T12:59:51Z</time>
      </trkpt>
      <trkpt lat="44.17081" lon="5.28492">
        <ele>1821.5</ele>
        <time>2011-10-01T12:59:56Z</time>
      </trkpt>
      <trkpt lat="44.17084" lon="5.28483">
        <ele>1822</ele>
        <time>2011-10-01T13:00:01Z</time>
      </trkpt>
      <trkpt lat="44.17089" lon="5.28476">
        <ele>1822</ele>
        <time>2011-10-01T13:00:06Z</time>
      </trkpt>
      <trkpt lat="44.17094" lon="5.28469">
        <ele>1823.5</ele>
        <time>2011-10-01T13:00:11Z</time>
      </trkpt>
      <trkpt lat="44.17101" lon="5.28462">
        <ele>1824.5</ele>
        <time>2011-10-01T13:00:16Z</time>
      </trkpt>
      <trkpt lat="44.17108" lon="5.28456">
        <ele>1825</ele>
        <time>2011-10-01T13:00:21Z</time>
      </trkpt>
      <trkpt lat="44.17114" lon="5.28449">
        <ele>1826.5</ele>
        <time>2011-10-01T13:00:26Z</time>
      </trkpt>
      <trkpt lat="44.1712" lon="5.28443">
        <ele>1826.5</ele>
        <time>2011-10-01T13:00:31Z</time>
      </trkpt>
      <trkpt lat="44.17127" lon="5.28438">
        <ele>1827.5</ele>
        <time>2011-10-01T13:00:36Z</time>
      </trkpt>
      <trkpt lat="44.17134" lon="5.28435">
        <ele>1828</ele>
        <time>2011-10-01T13:00:41Z</time>
      </trkpt>
      <trkpt lat="44.17142" lon="5.28431">
        <ele>1828</ele>
        <time>2011-10-01T13:00:46Z</time>
      </trkpt>
      <trkpt lat="44.1715" lon="5.28427">
        <ele>1828.5</ele>
        <time>2011-10-01T13:00:51Z</time>
      </trkpt>
      <trkpt lat="44.17158" lon="5.28425">
        <ele>1829</ele>
        <time>2011-10-01T13:00:56Z</time>
      </trkpt>
      <trkpt lat="44.17165" lon="5.28422">
        <ele>1828.5</ele>
        <time>2011-10-01T13:01:01Z</time>
      </trkpt>
      <trkpt lat="44.17173" lon="5.28421">
        <ele>1829</ele>
        <time>2011-10-01T13:01:06Z</time>
      </trkpt>
      <trkpt lat="44.1718" lon="5.28416">
        <ele>1828.5</ele>
        <time>2011-10-01T13:01:11Z</time>
      </trkpt>
      <trkpt lat="44.17187" lon="5.28414">
        <ele>1829</ele>
        <time>2011-10-01T13:01:16Z</time>
      </trkpt>
      <trkpt lat="44.17195" lon="5.28413">
        <ele>1828.5</ele>
        <time>2011-10-01T13:01:21Z</time>
      </trkpt>
      <trkpt lat="44.17201" lon="5.28413">
        <ele>1828.5</ele>
        <time>2011-10-01T13:01:26Z</time>
      </trkpt>
      <trkpt lat="44.17209" lon="5.28413">
        <ele>1828.5</ele>
        <time>2011-10-01T13:01:31Z</time>
      </trkpt>
      <trkpt lat="44.17216" lon="5.28412">
        <ele>1829</ele>
        <time>2011-10-01T13:01:36Z</time>
      </trkpt>
      <trkpt lat="44.17223" lon="5.28413">
        <ele>1829</ele>
        <time>2011-10-01T13:01:41Z</time>
      </trkpt>
      <trkpt lat="44.17231" lon="5.28412">
        <ele>1829</ele>
        <time>2011-10-01T13:01:46Z</time>
      </trkpt>
      <trkpt lat="44.17237" lon="5.28411">
        <ele>1829</ele>
        <time>2011-10-01T13:01:51Z</time>
      </trkpt>
      <trkpt lat="44.17244" lon="5.2841">
        <ele>1829</ele>
        <time>2011-10-01T13:01:56Z</time>
      </trkpt>
      <trkpt lat="44.1725" lon="5.28408">
        <ele>1829</ele>
        <time>2011-10-01T13:02:01Z</time>
      </trkpt>
      <trkpt lat="44.17256" lon="5.28407">
        <ele>1829</ele>
        <time>2011-10-01T13:02:06Z</time>
      </trkpt>
      <trkpt lat="44.17262" lon="5.28405">
        <ele>1829</ele>
        <time>2011-10-01T13:02:11Z</time>
      </trkpt>
      <trkpt lat="44.17269" lon="5.28403">
        <ele>1828.5</ele>
        <time>2011-10-01T13:02:16Z</time>
      </trkpt>
      <trkpt lat="44.17275" lon="5.28399">
        <ele>1828.5</ele>
        <time>2011-10-01T13:02:21Z</time>
      </trkpt>
      <trkpt lat="44.17281" lon="5.28396">
        <ele>1828.5</ele>
        <time>2011-10-01T13:02:26Z</time>
      </trkpt>
      <trkpt lat="44.17287" lon="5.28393">
        <ele>1828.5</ele>
        <time>2011-10-01T13:02:31Z</time>
      </trkpt>
      <trkpt lat="44.17293" lon="5.2839">
        <ele>1828.5</ele>
        <time>2011-10-01T13:02:36Z</time>
      </trkpt>
      <trkpt lat="44.17299" lon="5.2839">
        <ele>1828.5</ele>
        <time>2011-10-01T13:02:41Z</time>
      </trkpt>
      <trkpt lat="44.17306" lon="5.28389">
        <ele>1828</ele>
        <time>2011-10-01T13:02:46Z</time>
      </trkpt>
      <trkpt lat="44.17312" lon="5.28388">
        <ele>1828</ele>
        <time>2011-10-01T13:02:51Z</time>
      </trkpt>
      <trkpt lat="44.17318" lon="5.28383">
        <ele>1828</ele>
        <time>2011-10-01T13:02:56Z</time>
      </trkpt>
      <trkpt lat="44.17325" lon="5.28382">
        <ele>1828</ele>
        <time>2011-10-01T13:03:01Z</time>
      </trkpt>
      <trkpt lat="44.1733" lon="5.28378">
        <ele>1828</ele>
        <time>2011-10-01T13:03:06Z</time>
      </trkpt>
      <trkpt lat="44.17338" lon="5.28379">
        <ele>1827.5</ele>
        <time>2011-10-01T13:03:11Z</time>
      </trkpt>
      <trkpt lat="44.17344" lon="5.28379">
        <ele>1827.5</ele>
        <time>2011-10-01T13:03:16Z</time>
      </trkpt>
      <trkpt lat="44.17351" lon="5.28376">
        <ele>1827.5</ele>
        <time>2011-10-01T13:03:21Z</time>
      </trkpt>
      <trkpt lat="44.17358" lon="5.28374">
        <ele>1828</ele>
        <time>2011-10-01T13:03:26Z</time>
      </trkpt>
      <trkpt lat="44.17365" lon="5.28374">
        <ele>1827.5</ele>
        <time>2011-10-01T13:03:31Z</time>
      </trkpt>
      <trkpt lat="44.17372" lon="5.28373">
        <ele>1828</ele>
        <time>2011-10-01T13:03:36Z</time>
      </trkpt>
      <trkpt lat="44.1738" lon="5.2837">
        <ele>1828.5</ele>
        <time>2011-10-01T13:03:41Z</time>
      </trkpt>
      <trkpt lat="44.17386" lon="5.28368">
        <ele>1832</ele>
        <time>2011-10-01T13:03:46Z</time>
      </trkpt>
      <trkpt lat="44.17393" lon="5.28367">
        <ele>1834</ele>
        <time>2011-10-01T13:03:51Z</time>
      </trkpt>
      <trkpt lat="44.17398" lon="5.28365">
        <ele>1839</ele>
        <time>2011-10-01T13:03:56Z</time>
      </trkpt>
      <trkpt lat="44.17403" lon="5.28364">
        <ele>1843.5</ele>
        <time>2011-10-01T13:04:01Z</time>
      </trkpt>
      <trkpt lat="44.1741" lon="5.28362">
        <ele>1843.5</ele>
        <time>2011-10-01T13:04:06Z</time>
      </trkpt>
      <trkpt lat="44.17416" lon="5.2836">
        <ele>1846.5</ele>
        <time>2011-10-01T13:04:11Z</time>
      </trkpt>
      <trkpt lat="44.17421" lon="5.28355">
        <ele>1852</ele>
        <time>2011-10-01T13:04:16Z</time>
      </trkpt>
      <trkpt lat="44.17422" lon="5.28355">
        <ele>1854.5</ele>
        <time>2011-10-01T13:04:21Z</time>
      </trkpt>
      <trkpt lat="44.17424" lon="5.2835">
        <ele>1856</ele>
        <time>2011-10-01T13:04:26Z</time>
      </trkpt>
      <trkpt lat="44.17426" lon="5.28347">
        <ele>1865</ele>
        <time>2011-10-01T13:04:31Z</time>
      </trkpt>
      <trkpt lat="44.17425" lon="5.28351">
        <ele>1869</ele>
        <time>2011-10-01T13:04:36Z</time>
      </trkpt>
      <trkpt lat="44.17425" lon="5.28351">
        <ele>1870</ele>
        <time>2011-10-01T13:04:41Z</time>
      </trkpt>
      <trkpt lat="44.17424" lon="5.28352">
        <ele>1874</ele>
        <time>2011-10-01T13:04:46Z</time>
      </trkpt>
      <trkpt lat="44.17422" lon="5.28353">
        <ele>1877.5</ele>
        <time>2011-10-01T13:04:51Z</time>
      </trkpt>
      <trkpt lat="44.17422" lon="5.28354">
        <ele>1879</ele>
        <time>2011-10-01T13:04:56Z</time>
      </trkpt>
      <trkpt lat="44.17422" lon="5.28354">
        <ele>1879.5</ele>
        <time>2011-10-01T13:05:01Z</time>
      </trkpt>
      <trkpt lat="44.17423" lon="5.28353">
        <ele>1880</ele>
        <time>2011-10-01T13:05:06Z</time>
      </trkpt>
      <trkpt lat="44.17423" lon="5.28353">
        <ele>1880</ele>
        <time>2011-10-01T13:05:11Z</time>
      </trkpt>
      <trkpt lat="44.17424" lon="5.28354">
        <ele>1881.5</ele>
        <time>2011-10-01T13:05:16Z</time>
      </trkpt>
      <trkpt lat="44.17425" lon="5.28354">
        <ele>1881.5</ele>
        <time>2011-10-01T13:05:21Z</time>
      </trkpt>
      <trkpt lat="44.17424" lon="5.28348">
        <ele>1881.5</ele>
        <time>2011-10-01T13:05:26Z</time>
      </trkpt>
      <trkpt lat="44.17424" lon="5.28337">
        <ele>1880.5</ele>
        <time>2011-10-01T13:05:31Z</time>
      </trkpt>
      <trkpt lat="44.17422" lon="5.28327">
        <ele>1880.5</ele>
        <time>2011-10-01T13:05:36Z</time>
      </trkpt>
      <trkpt lat="44.17422" lon="5.28316">
        <ele>1882</ele>
        <time>2011-10-01T13:05:41Z</time>
      </trkpt>
      <trkpt lat="44.17421" lon="5.28303">
        <ele>1882</ele>
        <time>2011-10-01T13:05:46Z</time>
      </trkpt>
      <trkpt lat="44.17419" lon="5.2829">
        <ele>1883.5</ele>
        <time>2011-10-01T13:05:51Z</time>
      </trkpt>
      <trkpt lat="44.17418" lon="5.2828">
        <ele>1884</ele>
        <time>2011-10-01T13:05:56Z</time>
      </trkpt>
      <trkpt lat="44.17416" lon="5.28267">
        <ele>1885.5</ele>
        <time>2011-10-01T13:06:01Z</time>
      </trkpt>
      <trkpt lat="44.17414" lon="5.28255">
        <ele>1886.5</ele>
        <time>2011-10-01T13:06:06Z</time>
      </trkpt>
      <trkpt lat="44.17413" lon="5.28244">
        <ele>1887.5</ele>
        <time>2011-10-01T13:06:11Z</time>
      </trkpt>
      <trkpt lat="44.17411" lon="5.28232">
        <ele>1888.5</ele>
        <time>2011-10-01T13:06:16Z</time>
      </trkpt>
      <trkpt lat="44.17407" lon="5.28219">
        <ele>1889</ele>
        <time>2011-10-01T13:06:21Z</time>
      </trkpt>
      <trkpt lat="44.17405" lon="5.28207">
        <ele>1889.5</ele>
        <time>2011-10-01T13:06:26Z</time>
      </trkpt>
      <trkpt lat="44.17404" lon="5.28197">
        <ele>1889.5</ele>
        <time>2011-10-01T13:06:31Z</time>
      </trkpt>
      <trkpt lat="44.17403" lon="5.28188">
        <ele>1890</ele>
        <time>2011-10-01T13:06:36Z</time>
      </trkpt>
      <trkpt lat="44.174" lon="5.28175">
        <ele>1892.5</ele>
        <time>2011-10-01T13:06:41Z</time>
      </trkpt>
      <trkpt lat="44.17398" lon="5.28165">
        <ele>1894.5</ele>
        <time>2011-10-01T13:06:46Z</time>
      </trkpt>
      <trkpt lat="44.17395" lon="5.28155">
        <ele>1895.5</ele>
        <time>2011-10-01T13:06:51Z</time>
      </trkpt>
      <trkpt lat="44.17391" lon="5.28142">
        <ele>1897</ele>
        <time>2011-10-01T13:06:56Z</time>
      </trkpt>
      <trkpt lat="44.17388" lon="5.28131">
        <ele>1900.5</ele>
        <time>2011-10-01T13:07:01Z</time>
      </trkpt>
      <trkpt lat="44.17386" lon="5.28121">
        <ele>1902</ele>
        <time>2011-10-01T13:07:06Z</time>
      </trkpt>
      <trkpt lat="44.17384" lon="5.2811">
        <ele>1901.5</ele>
        <time>2011-10-01T13:07:11Z</time>
      </trkpt>
      <trkpt lat="44.17382" lon="5.28099">
        <ele>1901.5</ele>
        <time>2011-10-01T13:07:16Z</time>
      </trkpt>
      <trkpt lat="44.17379" lon="5.28087">
        <ele>1903</ele>
        <time>2011-10-01T13:07:21Z</time>
      </trkpt>
      <trkpt lat="44.17378" lon="5.28076">
        <ele>1904</ele>
        <time>2011-10-01T13:07:26Z</time>
      </trkpt>
      <trkpt lat="44.17376" lon="5.28065">
        <ele>1901.5</ele>
        <time>2011-10-01T13:07:31Z</time>
      </trkpt>
      <trkpt lat="44.17373" lon="5.28056">
        <ele>1902</ele>
        <time>2011-10-01T13:07:36Z</time>
      </trkpt>
      <trkpt lat="44.17368" lon="5.28047">
        <ele>1900</ele>
        <time>2011-10-01T13:07:41Z</time>
      </trkpt>
      <trkpt lat="44.17364" lon="5.28038">
        <ele>1900.5</ele>
        <time>2011-10-01T13:07:46Z</time>
      </trkpt>
      <trkpt lat="44.17359" lon="5.28028">
        <ele>1900</ele>
        <time>2011-10-01T13:07:51Z</time>
      </trkpt>
      <trkpt lat="44.17356" lon="5.28021">
        <ele>1902</ele>
        <time>2011-10-01T13:07:56Z</time>
      </trkpt>
      <trkpt lat="44.17351" lon="5.28011">
        <ele>1903</ele>
        <time>2011-10-01T13:08:01Z</time>
      </trkpt>
      <trkpt lat="44.17345" lon="5.27999">
        <ele>1904</ele>
        <time>2011-10-01T13:08:06Z</time>
      </trkpt>
      <trkpt lat="44.17339" lon="5.27987">
        <ele>1906</ele>
        <time>2011-10-01T13:08:11Z</time>
      </trkpt>
      <trkpt lat="44.17335" lon="5.27978">
        <ele>1907.5</ele>
        <time>2011-10-01T13:08:16Z</time>
      </trkpt>
      <trkpt lat="44.17332" lon="5.27971">
        <ele>1908</ele>
        <time>2011-10-01T13:08:21Z</time>
      </trkpt>
      <trkpt lat="44.17328" lon="5.27964">
        <ele>1909.5</ele>
        <time>2011-10-01T13:08:26Z</time>
      </trkpt>
      <trkpt lat="44.17324" lon="5.27956">
        <ele>1910.5</ele>
        <time>2011-10-01T13:08:31Z</time>
      </trkpt>
      <trkpt lat="44.17321" lon="5.27947">
        <ele>1911.5</ele>
        <time>2011-10-01T13:08:36Z</time>
      </trkpt>
      <trkpt lat="44.17317" lon="5.2794">
        <ele>1912.5</ele>
        <time>2011-10-01T13:08:41Z</time>
      </trkpt>
      <trkpt lat="44.17314" lon="5.2793">
        <ele>1914.5</ele>
        <time>2011-10-01T13:08:46Z</time>
      </trkpt>
      <trkpt lat="44.17311" lon="5.2792">
        <ele>1916</ele>
        <time>2011-10-01T13:08:51Z</time>
      </trkpt>
      <trkpt lat="44.1731" lon="5.27908">
        <ele>1918</ele>
        <time>2011-10-01T13:08:56Z</time>
      </trkpt>
      <trkpt lat="44.17308" lon="5.27896">
        <ele>1918.5</ele>
        <time>2011-10-01T13:09:01Z</time>
      </trkpt>
      <trkpt lat="44.17307" lon="5.27881">
        <ele>1920</ele>
        <time>2011-10-01T13:09:06Z</time>
      </trkpt>
      <trkpt lat="44.17306" lon="5.27864">
        <ele>1919.5</ele>
        <time>2011-10-01T13:09:11Z</time>
      </trkpt>
      <trkpt lat="44.17306" lon="5.27851">
        <ele>1919.5</ele>
        <time>2011-10-01T13:09:16Z</time>
      </trkpt>
      <trkpt lat="44.17305" lon="5.27839">
        <ele>1920.5</ele>
        <time>2011-10-01T13:09:21Z</time>
      </trkpt>
      <trkpt lat="44.17306" lon="5.27827">
        <ele>1920.5</ele>
        <time>2011-10-01T13:09:26Z</time>
      </trkpt>
      <trkpt lat="44.17309" lon="5.27814">
        <ele>1922</ele>
        <time>2011-10-01T13:09:31Z</time>
      </trkpt>
      <trkpt lat="44.17311" lon="5.27802">
        <ele>1921.5</ele>
        <time>2011-10-01T13:09:36Z</time>
      </trkpt>
      <trkpt lat="44.17314" lon="5.2779">
        <ele>1923</ele>
        <time>2011-10-01T13:09:41Z</time>
      </trkpt>
      <trkpt lat="44.17317" lon="5.27779">
        <ele>1924.5</ele>
        <time>2011-10-01T13:09:46Z</time>
      </trkpt>
      <trkpt lat="44.1732" lon="5.27767">
        <ele>1924.5</ele>
        <time>2011-10-01T13:09:51Z</time>
      </trkpt>
      <trkpt lat="44.17324" lon="5.27757">
        <ele>1925.5</ele>
        <time>2011-10-01T13:09:56Z</time>
      </trkpt>
      <trkpt lat="44.17329" lon="5.27745">
        <ele>1926</ele>
        <time>2011-10-01T13:10:01Z</time>
      </trkpt>
      <trkpt lat="44.17333" lon="5.27731">
        <ele>1927</ele>
        <time>2011-10-01T13:10:06Z</time>
      </trkpt>
      <trkpt lat="44.17338" lon="5.27715">
        <ele>1928</ele>
        <time>2011-10-01T13:10:11Z</time>
      </trkpt>
      <trkpt lat="44.17345" lon="5.27705">
        <ele>1928</ele>
        <time>2011-10-01T13:10:16Z</time>
      </trkpt>
      <trkpt lat="44.17351" lon="5.27712">
        <ele>1928.5</ele>
        <time>2011-10-01T13:10:21Z</time>
      </trkpt>
      <trkpt lat="44.17352" lon="5.27723">
        <ele>1930</ele>
        <time>2011-10-01T13:10:26Z</time>
      </trkpt>
      <trkpt lat="44.1735" lon="5.27732">
        <ele>1933</ele>
        <time>2011-10-01T13:10:31Z</time>
      </trkpt>
      <trkpt lat="44.1735" lon="5.27742">
        <ele>1933.5</ele>
        <time>2011-10-01T13:10:36Z</time>
      </trkpt>
      <trkpt lat="44.17352" lon="5.27751">
        <ele>1934</ele>
        <time>2011-10-01T13:10:41Z</time>
      </trkpt>
      <trkpt lat="44.17353" lon="5.27761">
        <ele>1933.5</ele>
        <time>2011-10-01T13:10:46Z</time>
      </trkpt>
      <trkpt lat="44.17354" lon="5.27775">
        <ele>1933.5</ele>
        <time>2011-10-01T13:10:51Z</time>
      </trkpt>
      <trkpt lat="44.17355" lon="5.27789">
        <ele>1935</ele>
        <time>2011-10-01T13:10:56Z</time>
      </trkpt>
      <trkpt lat="44.17354" lon="5.278">
        <ele>1936</ele>
        <time>2011-10-01T13:11:01Z</time>
      </trkpt>
      <trkpt lat="44.17361" lon="5.27809">
        <ele>1934.5</ele>
        <time>2011-10-01T13:11:06Z</time>
      </trkpt>
      <trkpt lat="44.17366" lon="5.27816">
        <ele>1936</ele>
        <time>2011-10-01T13:11:11Z</time>
      </trkpt>
      <trkpt lat="44.17368" lon="5.27824">
        <ele>1936</ele>
        <time>2011-10-01T13:11:16Z</time>
      </trkpt>
      <trkpt lat="44.17369" lon="5.27831">
        <ele>1935.5</ele>
        <time>2011-10-01T13:11:21Z</time>
      </trkpt>
      <trkpt lat="44.17367" lon="5.27836">
        <ele>1936</ele>
        <time>2011-10-01T13:11:26Z</time>
      </trkpt>
      <trkpt lat="44.17364" lon="5.27839">
        <ele>1937</ele>
        <time>2011-10-01T13:11:31Z</time>
      </trkpt>
      <trkpt lat="44.17363" lon="5.2784">
        <ele>1937.5</ele>
        <time>2011-10-01T13:11:36Z</time>
      </trkpt>
      <trkpt lat="44.17361" lon="5.27842">
        <ele>1937.5</ele>
        <time>2011-10-01T13:11:41Z</time>
      </trkpt>
      <trkpt lat="44.1736" lon="5.27843">
        <ele>1938</ele>
        <time>2011-10-01T13:11:46Z</time>
      </trkpt>
      <trkpt lat="44.17359" lon="5.27844">
        <ele>1938.5</ele>
        <time>2011-10-01T13:11:51Z</time>
      </trkpt>
      <trkpt lat="44.17359" lon="5.27846">
        <ele>1939.5</ele>
        <time>2011-10-01T13:11:56Z</time>
      </trkpt>
      <trkpt lat="44.17359" lon="5.27845">
        <ele>1939.5</ele>
        <time>2011-10-01T13:12:01Z</time>
      </trkpt>
      <trkpt lat="44.17359" lon="5.27841">
        <ele>1939.5</ele>
        <time>2011-10-01T13:12:06Z</time>
      </trkpt>
      <trkpt lat="44.17358" lon="5.27841">
        <ele>1940</ele>
        <time>2011-10-01T13:12:11Z</time>
      </trkpt>
      <trkpt lat="44.17357" lon="5.27841">
        <ele>1940</ele>
        <time>2011-10-01T13:12:16Z</time>
      </trkpt>
      <trkpt lat="44.17358" lon="5.2784">
        <ele>1940</ele>
        <time>2011-10-01T13:12:21Z</time>
      </trkpt>
      <trkpt lat="44.17357" lon="5.2784">
        <ele>1940</ele>
        <time>2011-10-01T13:12:26Z</time>
      </trkpt>
      <trkpt lat="44.17358" lon="5.27834">
        <ele>1939.5</ele>
        <time>2011-10-01T13:12:31Z</time>
      </trkpt>
      <trkpt lat="44.17357" lon="5.27828">
        <ele>1939.5</ele>
        <time>2011-10-01T13:12:36Z</time>
      </trkpt>
      <trkpt lat="44.17355" lon="5.27822">
        <ele>1939</ele>
        <time>2011-10-01T13:12:41Z</time>
      </trkpt>
      <trkpt lat="44.17355" lon="5.27816">
        <ele>1938.5</ele>
        <time>2011-10-01T13:12:46Z</time>
      </trkpt>
      <trkpt lat="44.17355" lon="5.27812">
        <ele>1938.5</ele>
        <time>2011-10-01T13:12:51Z</time>
      </trkpt>
      <trkpt lat="44.17354" lon="5.27808">
        <ele>1939</ele>
        <time>2011-10-01T13:12:56Z</time>
      </trkpt>
      <trkpt lat="44.17354" lon="5.27803">
        <ele>1939</ele>
        <time>2011-10-01T13:13:01Z</time>
      </trkpt>
      <trkpt lat="44.17354" lon="5.27802">
        <ele>1939.5</ele>
        <time>2011-10-01T13:13:06Z</time>
      </trkpt>
      <trkpt lat="44.17354" lon="5.27801">
        <ele>1939</ele>
        <time>2011-10-01T13:13:11Z</time>
      </trkpt>
      <trkpt lat="44.17354" lon="5.27779">
        <ele>1940</ele>
        <time>2011-10-01T13:13:16Z</time>
      </trkpt>
      <trkpt lat="44.17355" lon="5.27742">
        <ele>1939</ele>
        <time>2011-10-01T13:13:21Z</time>
      </trkpt>
      <trkpt lat="44.17353" lon="5.2771">
        <ele>1937.5</ele>
        <time>2011-10-01T13:13:26Z</time>
      </trkpt>
      <trkpt lat="44.17344" lon="5.27694">
        <ele>1937</ele>
        <time>2011-10-01T13:13:31Z</time>
      </trkpt>
      <trkpt lat="44.17343" lon="5.27694">
        <ele>1937.5</ele>
        <time>2011-10-01T13:13:36Z</time>
      </trkpt>
      <trkpt lat="44.17344" lon="5.27694">
        <ele>1937.5</ele>
        <time>2011-10-01T13:13:41Z</time>
      </trkpt>
      <trkpt lat="44.17344" lon="5.27694">
        <ele>1937</ele>
        <time>2011-10-01T13:13:46Z</time>
      </trkpt>
      <trkpt lat="44.17343" lon="5.27694">
        <ele>1937.5</ele>
        <time>2011-10-01T13:13:51Z</time>
      </trkpt>
      <trkpt lat="44.17343" lon="5.27693">
        <ele>1938</ele>
        <time>2011-10-01T13:13:56Z</time>
      </trkpt>
      <trkpt lat="44.17343" lon="5.27693">
        <ele>1937.5</ele>
        <time>2011-10-01T13:14:01Z</time>
      </trkpt>
      <trkpt lat="44.17344" lon="5.27691">
        <ele>1937</ele>
        <time>2011-10-01T13:14:06Z</time>
      </trkpt>
      <trkpt lat="44.17344" lon="5.27685">
        <ele>1936</ele>
        <time>2011-10-01T13:14:11Z</time>
      </trkpt>
      <trkpt lat="44.17342" lon="5.27681">
        <ele>1937</ele>
        <time>2011-10-01T13:14:16Z</time>
      </trkpt>
      <trkpt lat="44.17344" lon="5.27679">
        <ele>1935.5</ele>
        <time>2011-10-01T13:14:21Z</time>
      </trkpt>
      <trkpt lat="44.17342" lon="5.27679">
        <ele>1933.5</ele>
        <time>2011-10-01T13:14:26Z</time>
      </trkpt>
      <trkpt lat="44.17342" lon="5.27678">
        <ele>1932.5</ele>
        <time>2011-10-01T13:14:31Z</time>
      </trkpt>
      <trkpt lat="44.17342" lon="5.27678">
        <ele>1932.5</ele>
        <time>2011-10-01T13:14:36Z</time>
      </trkpt>
      <trkpt lat="44.17343" lon="5.27678">
        <ele>1932.5</ele>
        <time>2011-10-01T13:14:41Z</time>
      </trkpt>
      <trkpt lat="44.17343" lon="5.27677">
        <ele>1932.5</ele>
        <time>2011-10-01T13:14:46Z</time>
      </trkpt>
      <trkpt lat="44.17344" lon="5.27677">
        <ele>1930.5</ele>
        <time>2011-10-01T13:14:51Z</time>
      </trkpt>
      <trkpt lat="44.17344" lon="5.27678">
        <ele>1930</ele>
        <time>2011-10-01T13:14:56Z</time>
      </trkpt>
      <trkpt lat="44.17344" lon="5.27678">
        <ele>1930.5</ele>
        <time>2011-10-01T13:15:01Z</time>
      </trkpt>
      <trkpt lat="44.17344" lon="5.27677">
        <ele>1930.5</ele>
        <time>2011-10-01T13:15:06Z</time>
      </trkpt>
      <trkpt lat="44.17344" lon="5.27677">
        <ele>1930.5</ele>
        <time>2011-10-01T13:15:11Z</time>
      </trkpt>
      <trkpt lat="44.17345" lon="5.27676">
        <ele>1931.5</ele>
        <time>2011-10-01T13:15:16Z</time>
      </trkpt>
      <trkpt lat="44.17345" lon="5.27677">
        <ele>1931.5</ele>
        <time>2011-10-01T13:15:21Z</time>
      </trkpt>
      <trkpt lat="44.17345" lon="5.27677">
        <ele>1931</ele>
        <time>2011-10-01T13:15:26Z</time>
      </trkpt>
      <trkpt lat="44.17345" lon="5.27677">
        <ele>1931</ele>
        <time>2011-10-01T13:15:31Z</time>
      </trkpt>
      <trkpt lat="44.17345" lon="5.27677">
        <ele>1931</ele>
        <time>2011-10-01T13:15:36Z</time>
      </trkpt>
      <trkpt lat="44.17345" lon="5.27677">
        <ele>1931</ele>
        <time>2011-10-01T13:15:41Z</time>
      </trkpt>
      <trkpt lat="44.17345" lon="5.27677">
        <ele>1931</ele>
        <time>2011-10-01T13:15:46Z</time>
      </trkpt>
      <trkpt lat="44.17345" lon="5.27677">
        <ele>1931</ele>
        <time>2011-10-01T13:15:51Z</time>
      </trkpt>
      <trkpt lat="44.17345" lon="5.27677">
        <ele>1931</ele>
        <time>2011-10-01T13:15:56Z</time>
      </trkpt>
      <trkpt lat="44.17345" lon="5.27677">
        <ele>1931</ele>
        <time>2011-10-01T13:16:01Z</time>
      </trkpt>
      <trkpt lat="44.17343" lon="5.27677">
        <ele>1931.5</ele>
        <time>2011-10-01T13:16:11Z</time>
      </trkpt>
      <trkpt lat="44.17344" lon="5.27676">
        <ele>1931.5</ele>
        <time>2011-10-01T13:16:16Z</time>
      </trkpt>
      <trkpt lat="44.17343" lon="5.27676">
        <ele>1931</ele>
        <time>2011-10-01T13:16:21Z</time>
      </trkpt>
      <trkpt lat="44.17343" lon="5.27676">
        <ele>1931</ele>
        <time>2011-10-01T13:16:26Z</time>
      </trkpt>
      <trkpt lat="44.17343" lon="5.27676">
        <ele>1931</ele>
        <time>2011-10-01T13:16:31Z</time>
      </trkpt>
      <trkpt lat="44.17343" lon="5.27676">
        <ele>1931</ele>
        <time>2011-10-01T13:16:36Z</time>
      </trkpt>
      <trkpt lat="44.17343" lon="5.27676">
        <ele>1931</ele>
        <time>2011-10-01T13:16:41Z</time>
      </trkpt>
      <trkpt lat="44.17343" lon="5.27676">
        <ele>1931</ele>
        <time>2011-10-01T13:16:46Z</time>
      </trkpt>
      <trkpt lat="44.17343" lon="5.27676">
        <ele>1931</ele>
        <time>2011-10-01T13:16:51Z</time>
      </trkpt>
      <trkpt lat="44.17343" lon="5.27676">
        <ele>1931</ele>
        <time>2011-10-01T13:16:56Z</time>
      </trkpt>
      <trkpt lat="44.17343" lon="5.27673">
        <ele>1931</ele>
        <time>2011-10-01T13:17:06Z</time>
      </trkpt>
      <trkpt lat="44.17343" lon="5.27673">
        <ele>1931</ele>
        <time>2011-10-01T13:17:11Z</time>
      </trkpt>
      <trkpt lat="44.17343" lon="5.27672">
        <ele>1930.5</ele>
        <time>2011-10-01T13:17:16Z</time>
      </trkpt>
      <trkpt lat="44.17343" lon="5.27672">
        <ele>1930.5</ele>
        <time>2011-10-01T13:17:21Z</time>
      </trkpt>
      <trkpt lat="44.17343" lon="5.27672">
        <ele>1930.5</ele>
        <time>2011-10-01T13:17:26Z</time>
      </trkpt>
      <trkpt lat="44.17343" lon="5.27672">
        <ele>1930.5</ele>
        <time>2011-10-01T13:17:31Z</time>
      </trkpt>
      <trkpt lat="44.17343" lon="5.27672">
        <ele>1930.5</ele>
        <time>2011-10-01T13:17:36Z</time>
      </trkpt>
      <trkpt lat="44.17343" lon="5.27672">
        <ele>1930.5</ele>
        <time>2011-10-01T13:17:41Z</time>
      </trkpt>
      <trkpt lat="44.17343" lon="5.27672">
        <ele>1930.5</ele>
        <time>2011-10-01T13:17:51Z</time>
      </trkpt>
      <trkpt lat="44.17343" lon="5.27672">
        <ele>1930.5</ele>
        <time>2011-10-01T13:17:56Z</time>
      </trkpt>
      <trkpt lat="44.17343" lon="5.27672">
        <ele>1930.5</ele>
        <time>2011-10-01T13:18:01Z</time>
      </trkpt>
      <trkpt lat="44.17343" lon="5.27672">
        <ele>1930.5</ele>
        <time>2011-10-01T13:18:06Z</time>
      </trkpt>
      <trkpt lat="44.17343" lon="5.27672">
        <ele>1930.5</ele>
        <time>2011-10-01T13:18:16Z</time>
      </trkpt>
      <trkpt lat="44.17343" lon="5.27672">
        <ele>1930.5</ele>
        <time>2011-10-01T13:18:26Z</time>
      </trkpt>
      <trkpt lat="44.17343" lon="5.27672">
        <ele>1930.5</ele>
        <time>2011-10-01T13:18:36Z</time>
      </trkpt>
      <trkpt lat="44.17343" lon="5.27672">
        <ele>1930.5</ele>
        <time>2011-10-01T13:18:41Z</time>
      </trkpt>
      <trkpt lat="44.17343" lon="5.27672">
        <ele>1930.5</ele>
        <time>2011-10-01T13:18:46Z</time>
      </trkpt>
      <trkpt lat="44.17343" lon="5.27672">
        <ele>1930.5</ele>
        <time>2011-10-01T13:18:51Z</time>
      </trkpt>
      <trkpt lat="44.17343" lon="5.27672">
        <ele>1930.5</ele>
        <time>2011-10-01T13:18:56Z</time>
      </trkpt>
      <trkpt lat="44.17343" lon="5.27672">
        <ele>1930.5</ele>
        <time>2011-10-01T13:19:01Z</time>
      </trkpt>
      <trkpt lat="44.17343" lon="5.27672">
        <ele>1930.5</ele>
        <time>2011-10-01T13:19:06Z</time>
      </trkpt>
      <trkpt lat="44.17343" lon="5.27672">
        <ele>1930.5</ele>
        <time>2011-10-01T13:19:11Z</time>
      </trkpt>
      <trkpt lat="44.17343" lon="5.27672">
        <ele>1930</ele>
        <time>2011-10-01T13:19:16Z</time>
      </trkpt>
      <trkpt lat="44.17343" lon="5.27672">
        <ele>1930</ele>
        <time>2011-10-01T13:19:21Z</time>
      </trkpt>
      <trkpt lat="44.17343" lon="5.27672">
        <ele>1930.5</ele>
        <time>2011-10-01T13:19:26Z</time>
      </trkpt>
      <trkpt lat="44.17343" lon="5.27672">
        <ele>1930</ele>
        <time>2011-10-01T13:19:31Z</time>
      </trkpt>
      <trkpt lat="44.17343" lon="5.27672">
        <ele>1930.5</ele>
        <time>2011-10-01T13:19:36Z</time>
      </trkpt>
      <trkpt lat="44.17343" lon="5.27672">
        <ele>1930</ele>
        <time>2011-10-01T13:19:41Z</time>
      </trkpt>
      <trkpt lat="44.17343" lon="5.27672">
        <ele>1930</ele>
        <time>2011-10-01T13:19:46Z</time>
      </trkpt>
      <trkpt lat="44.17343" lon="5.27672">
        <ele>1930</ele>
        <time>2011-10-01T13:19:51Z</time>
      </trkpt>
      <trkpt lat="44.17343" lon="5.27672">
        <ele>1930</ele>
        <time>2011-10-01T13:19:56Z</time>
      </trkpt>
      <trkpt lat="44.17343" lon="5.27672">
        <ele>1930.5</ele>
        <time>2011-10-01T13:20:06Z</time>
      </trkpt>
      <trkpt lat="44.17343" lon="5.27672">
        <ele>1930</ele>
        <time>2011-10-01T13:20:11Z</time>
      </trkpt>
      <trkpt lat="44.17343" lon="5.27672">
        <ele>1930</ele>
        <time>2011-10-01T13:20:16Z</time>
      </trkpt>
      <trkpt lat="44.17343" lon="5.27672">
        <ele>1930</ele>
        <time>2011-10-01T13:20:21Z</time>
      </trkpt>
      <trkpt lat="44.17343" lon="5.27672">
        <ele>1930</ele>
        <time>2011-10-01T13:20:26Z</time>
      </trkpt>
      <trkpt lat="44.17343" lon="5.27672">
        <ele>1930</ele>
        <time>2011-10-01T13:20:31Z</time>
      </trkpt>
      <trkpt lat="44.17343" lon="5.27672">
        <ele>1930</ele>
        <time>2011-10-01T13:20:36Z</time>
      </trkpt>
      <trkpt lat="44.17343" lon="5.27672">
        <ele>1930</ele>
        <time>2011-10-01T13:20:41Z</time>
      </trkpt>
      <trkpt lat="44.17343" lon="5.27672">
        <ele>1930</ele>
        <time>2011-10-01T13:20:46Z</time>
      </trkpt>
      <trkpt lat="44.17343" lon="5.27672">
        <ele>1930</ele>
        <time>2011-10-01T13:20:51Z</time>
      </trkpt>
      <trkpt lat="44.17343" lon="5.27672">
        <ele>1930</ele>
        <time>2011-10-01T13:20:56Z</time>
      </trkpt>
      <trkpt lat="44.17343" lon="5.27672">
        <ele>1930</ele>
        <time>2011-10-01T13:21:01Z</time>
      </trkpt>
      <trkpt lat="44.17343" lon="5.27672">
        <ele>1930</ele>
        <time>2011-10-01T13:21:06Z</time>
      </trkpt>
      <trkpt lat="44.17343" lon="5.27672">
        <ele>1930</ele>
        <time>2011-10-01T13:21:11Z</time>
      </trkpt>
      <trkpt lat="44.17343" lon="5.27672">
        <ele>1930</ele>
        <time>2011-10-01T13:21:16Z</time>
      </trkpt>
      <trkpt lat="44.17343" lon="5.27672">
        <ele>1930</ele>
        <time>2011-10-01T13:21:21Z</time>
      </trkpt>
      <trkpt lat="44.17343" lon="5.27672">
        <ele>1930</ele>
        <time>2011-10-01T13:21:26Z</time>
      </trkpt>
      <trkpt lat="44.17343" lon="5.27672">
        <ele>1930</ele>
        <time>2011-10-01T13:21:31Z</time>
      </trkpt>
      <trkpt lat="44.17343" lon="5.27672">
        <ele>1930</ele>
        <time>2011-10-01T13:21:36Z</time>
      </trkpt>
      <trkpt lat="44.17343" lon="5.27672">
        <ele>1930</ele>
        <time>2011-10-01T13:21:41Z</time>
      </trkpt>
      <trkpt lat="44.17343" lon="5.27672">
        <ele>1930</ele>
        <time>2011-10-01T13:21:51Z</time>
      </trkpt>
      <trkpt lat="44.17343" lon="5.27672">
        <ele>1930</ele>
        <time>2011-10-01T13:21:56Z</time>
      </trkpt>
      <trkpt lat="44.17343" lon="5.27672">
        <ele>1930</ele>
        <time>2011-10-01T13:22:01Z</time>
      </trkpt>
      <trkpt lat="44.17343" lon="5.27672">
        <ele>1930</ele>
        <time>2011-10-01T13:22:06Z</time>
      </trkpt>
      <trkpt lat="44.17343" lon="5.27672">
        <ele>1930</ele>
        <time>2011-10-01T13:22:11Z</time>
      </trkpt>
      <trkpt lat="44.17343" lon="5.27672">
        <ele>1930</ele>
        <time>2011-10-01T13:22:16Z</time>
      </trkpt>
      <trkpt lat="44.17343" lon="5.27672">
        <ele>1930</ele>
        <time>2011-10-01T13:22:21Z</time>
      </trkpt>
      <trkpt lat="44.17343" lon="5.27672">
        <ele>1930</ele>
        <time>2011-10-01T13:22:26Z</time>
      </trkpt>
      <trkpt lat="44.17342" lon="5.27672">
        <ele>1931</ele>
        <time>2011-10-01T13:22:46Z</time>
      </trkpt>
      <trkpt lat="44.17342" lon="5.27672">
        <ele>1931</ele>
        <time>2011-10-01T13:22:51Z</time>
      </trkpt>
      <trkpt lat="44.17342" lon="5.27673">
        <ele>1931</ele>
        <time>2011-10-01T13:22:56Z</time>
      </trkpt>
      <trkpt lat="44.17342" lon="5.27673">
        <ele>1931.5</ele>
        <time>2011-10-01T13:23:01Z</time>
      </trkpt>
      <trkpt lat="44.17342" lon="5.27673">
        <ele>1931</ele>
        <time>2011-10-01T13:23:06Z</time>
      </trkpt>
      <trkpt lat="44.17342" lon="5.27673">
        <ele>1931</ele>
        <time>2011-10-01T13:23:11Z</time>
      </trkpt>
      <trkpt lat="44.17342" lon="5.27673">
        <ele>1931</ele>
        <time>2011-10-01T13:23:16Z</time>
      </trkpt>
      <trkpt lat="44.17342" lon="5.27673">
        <ele>1931.5</ele>
        <time>2011-10-01T13:23:21Z</time>
      </trkpt>
      <trkpt lat="44.17342" lon="5.27673">
        <ele>1931.5</ele>
        <time>2011-10-01T13:23:26Z</time>
      </trkpt>
      <trkpt lat="44.17342" lon="5.27673">
        <ele>1932</ele>
        <time>2011-10-01T13:23:31Z</time>
      </trkpt>
      <trkpt lat="44.17342" lon="5.27673">
        <ele>1932</ele>
        <time>2011-10-01T13:23:36Z</time>
      </trkpt>
      <trkpt lat="44.17342" lon="5.27673">
        <ele>1932</ele>
        <time>2011-10-01T13:23:41Z</time>
      </trkpt>
      <trkpt lat="44.17342" lon="5.27673">
        <ele>1932</ele>
        <time>2011-10-01T13:23:46Z</time>
      </trkpt>
      <trkpt lat="44.17342" lon="5.27673">
        <ele>1932</ele>
        <time>2011-10-01T13:23:51Z</time>
      </trkpt>
      <trkpt lat="44.17342" lon="5.27673">
        <ele>1932</ele>
        <time>2011-10-01T13:23:56Z</time>
      </trkpt>
      <trkpt lat="44.17342" lon="5.27673">
        <ele>1932</ele>
        <time>2011-10-01T13:24:01Z</time>
      </trkpt>
      <trkpt lat="44.17342" lon="5.27673">
        <ele>1932</ele>
        <time>2011-10-01T13:24:06Z</time>
      </trkpt>
      <trkpt lat="44.17342" lon="5.27673">
        <ele>1932</ele>
        <time>2011-10-01T13:24:11Z</time>
      </trkpt>
      <trkpt lat="44.17342" lon="5.27673">
        <ele>1932</ele>
        <time>2011-10-01T13:24:16Z</time>
      </trkpt>
      <trkpt lat="44.17342" lon="5.27673">
        <ele>1932</ele>
        <time>2011-10-01T13:24:21Z</time>
      </trkpt>
      <trkpt lat="44.17342" lon="5.27673">
        <ele>1932</ele>
        <time>2011-10-01T13:24:31Z</time>
      </trkpt>
      <trkpt lat="44.17342" lon="5.27673">
        <ele>1932</ele>
        <time>2011-10-01T13:24:36Z</time>
      </trkpt>
      <trkpt lat="44.17342" lon="5.27673">
        <ele>1932</ele>
        <time>2011-10-01T13:24:41Z</time>
      </trkpt>
      <trkpt lat="44.17342" lon="5.27673">
        <ele>1932</ele>
        <time>2011-10-01T13:24:46Z</time>
      </trkpt>
      <trkpt lat="44.17342" lon="5.27673">
        <ele>1932</ele>
        <time>2011-10-01T13:24:51Z</time>
      </trkpt>
      <trkpt lat="44.17342" lon="5.27673">
        <ele>1932</ele>
        <time>2011-10-01T13:24:56Z</time>
      </trkpt>
      <trkpt lat="44.17342" lon="5.27673">
        <ele>1932</ele>
        <time>2011-10-01T13:25:01Z</time>
      </trkpt>
      <trkpt lat="44.17342" lon="5.27673">
        <ele>1932</ele>
        <time>2011-10-01T13:25:06Z</time>
      </trkpt>
      <trkpt lat="44.17342" lon="5.27673">
        <ele>1932</ele>
        <time>2011-10-01T13:25:11Z</time>
      </trkpt>
      <trkpt lat="44.17342" lon="5.27673">
        <ele>1932</ele>
        <time>2011-10-01T13:25:16Z</time>
      </trkpt>
      <trkpt lat="44.17342" lon="5.27673">
        <ele>1932</ele>
        <time>2011-10-01T13:25:21Z</time>
      </trkpt>
      <trkpt lat="44.17342" lon="5.27673">
        <ele>1932</ele>
        <time>2011-10-01T13:25:31Z</time>
      </trkpt>
      <trkpt lat="44.17342" lon="5.27673">
        <ele>1932</ele>
        <time>2011-10-01T13:25:36Z</time>
      </trkpt>
      <trkpt lat="44.17342" lon="5.27673">
        <ele>1932</ele>
        <time>2011-10-01T13:25:41Z</time>
      </trkpt>
      <trkpt lat="44.17342" lon="5.27673">
        <ele>1932</ele>
        <time>2011-10-01T13:25:46Z</time>
      </trkpt>
      <trkpt lat="44.17342" lon="5.27673">
        <ele>1932</ele>
        <time>2011-10-01T13:25:51Z</time>
      </trkpt>
      <trkpt lat="44.17342" lon="5.27673">
        <ele>1932</ele>
        <time>2011-10-01T13:25:56Z</time>
      </trkpt>
      <trkpt lat="44.17342" lon="5.27673">
        <ele>1932</ele>
        <time>2011-10-01T13:26:01Z</time>
      </trkpt>
      <trkpt lat="44.17342" lon="5.27673">
        <ele>1932</ele>
        <time>2011-10-01T13:26:11Z</time>
      </trkpt>
      <trkpt lat="44.17342" lon="5.27673">
        <ele>1932</ele>
        <time>2011-10-01T13:26:16Z</time>
      </trkpt>
      <trkpt lat="44.17342" lon="5.27673">
        <ele>1932</ele>
        <time>2011-10-01T13:26:21Z</time>
      </trkpt>
      <trkpt lat="44.17342" lon="5.27673">
        <ele>1932</ele>
        <time>2011-10-01T13:26:31Z</time>
      </trkpt>
      <trkpt lat="44.17342" lon="5.27673">
        <ele>1932</ele>
        <time>2011-10-01T13:26:41Z</time>
      </trkpt>
      <trkpt lat="44.17342" lon="5.27673">
        <ele>1932</ele>
        <time>2011-10-01T13:26:46Z</time>
      </trkpt>
      <trkpt lat="44.17342" lon="5.27673">
        <ele>1932</ele>
        <time>2011-10-01T13:26:51Z</time>
      </trkpt>
      <trkpt lat="44.17342" lon="5.27673">
        <ele>1932</ele>
        <time>2011-10-01T13:26:56Z</time>
      </trkpt>
      <trkpt lat="44.17342" lon="5.27673">
        <ele>1932</ele>
        <time>2011-10-01T13:27:01Z</time>
      </trkpt>
      <trkpt lat="44.17342" lon="5.27673">
        <ele>1932</ele>
        <time>2011-10-01T13:27:16Z</time>
      </trkpt>
      <trkpt lat="44.17342" lon="5.27673">
        <ele>1932</ele>
        <time>2011-10-01T13:27:21Z</time>
      </trkpt>
      <trkpt lat="44.17342" lon="5.27673">
        <ele>1932</ele>
        <time>2011-10-01T13:27:26Z</time>
      </trkpt>
      <trkpt lat="44.17342" lon="5.27673">
        <ele>1932</ele>
        <time>2011-10-01T13:27:31Z</time>
      </trkpt>
      <trkpt lat="44.17342" lon="5.27673">
        <ele>1932</ele>
        <time>2011-10-01T13:27:36Z</time>
      </trkpt>
      <trkpt lat="44.17342" lon="5.27673">
        <ele>1932</ele>
        <time>2011-10-01T13:27:41Z</time>
      </trkpt>
      <trkpt lat="44.17342" lon="5.27673">
        <ele>1932</ele>
        <time>2011-10-01T13:27:51Z</time>
      </trkpt>
      <trkpt lat="44.17342" lon="5.27673">
        <ele>1932</ele>
        <time>2011-10-01T13:27:56Z</time>
      </trkpt>
      <trkpt lat="44.17342" lon="5.27673">
        <ele>1932</ele>
        <time>2011-10-01T13:28:01Z</time>
      </trkpt>
      <trkpt lat="44.17342" lon="5.27673">
        <ele>1932</ele>
        <time>2011-10-01T13:28:11Z</time>
      </trkpt>
      <trkpt lat="44.17342" lon="5.27673">
        <ele>1932</ele>
        <time>2011-10-01T13:28:16Z</time>
      </trkpt>
      <trkpt lat="44.17342" lon="5.27673">
        <ele>1932</ele>
        <time>2011-10-01T13:28:21Z</time>
      </trkpt>
      <trkpt lat="44.17342" lon="5.27673">
        <ele>1932</ele>
        <time>2011-10-01T13:28:31Z</time>
      </trkpt>
      <trkpt lat="44.17342" lon="5.27673">
        <ele>1932</ele>
        <time>2011-10-01T13:28:36Z</time>
      </trkpt>
      <trkpt lat="44.17342" lon="5.27673">
        <ele>1932</ele>
        <time>2011-10-01T13:28:41Z</time>
      </trkpt>
      <trkpt lat="44.17342" lon="5.27673">
        <ele>1932</ele>
        <time>2011-10-01T13:28:46Z</time>
      </trkpt>
      <trkpt lat="44.17342" lon="5.27673">
        <ele>1932</ele>
        <time>2011-10-01T13:28:51Z</time>
      </trkpt>
      <trkpt lat="44.17342" lon="5.27673">
        <ele>1932</ele>
        <time>2011-10-01T13:28:56Z</time>
      </trkpt>
      <trkpt lat="44.17342" lon="5.27673">
        <ele>1932</ele>
        <time>2011-10-01T13:29:06Z</time>
      </trkpt>
      <trkpt lat="44.17342" lon="5.27673">
        <ele>1932</ele>
        <time>2011-10-01T13:29:11Z</time>
      </trkpt>
      <trkpt lat="44.17342" lon="5.27673">
        <ele>1932</ele>
        <time>2011-10-01T13:29:16Z</time>
      </trkpt>
      <trkpt lat="44.17342" lon="5.27673">
        <ele>1932</ele>
        <time>2011-10-01T13:29:21Z</time>
      </trkpt>
      <trkpt lat="44.17342" lon="5.27673">
        <ele>1932</ele>
        <time>2011-10-01T13:29:26Z</time>
      </trkpt>
      <trkpt lat="44.17342" lon="5.27673">
        <ele>1932</ele>
        <time>2011-10-01T13:29:31Z</time>
      </trkpt>
      <trkpt lat="44.17342" lon="5.27673">
        <ele>1932</ele>
        <time>2011-10-01T13:29:36Z</time>
      </trkpt>
      <trkpt lat="44.17342" lon="5.27673">
        <ele>1932</ele>
        <time>2011-10-01T13:29:41Z</time>
      </trkpt>
      <trkpt lat="44.17342" lon="5.27673">
        <ele>1932</ele>
        <time>2011-10-01T13:29:46Z</time>
      </trkpt>
      <trkpt lat="44.17342" lon="5.27673">
        <ele>1932</ele>
        <time>2011-10-01T13:29:51Z</time>
      </trkpt>
      <trkpt lat="44.17342" lon="5.27673">
        <ele>1932</ele>
        <time>2011-10-01T13:29:56Z</time>
      </trkpt>
      <trkpt lat="44.17342" lon="5.27673">
        <ele>1932</ele>
        <time>2011-10-01T13:30:06Z</time>
      </trkpt>
      <trkpt lat="44.17342" lon="5.27673">
        <ele>1932</ele>
        <time>2011-10-01T13:30:16Z</time>
      </trkpt>
      <trkpt lat="44.17342" lon="5.27673">
        <ele>1932</ele>
        <time>2011-10-01T13:30:21Z</time>
      </trkpt>
      <trkpt lat="44.17342" lon="5.27673">
        <ele>1932</ele>
        <time>2011-10-01T13:30:26Z</time>
      </trkpt>
      <trkpt lat="44.17342" lon="5.27673">
        <ele>1932</ele>
        <time>2011-10-01T13:30:31Z</time>
      </trkpt>
      <trkpt lat="44.17342" lon="5.27673">
        <ele>1932</ele>
        <time>2011-10-01T13:30:36Z</time>
      </trkpt>
      <trkpt lat="44.17342" lon="5.27673">
        <ele>1932</ele>
        <time>2011-10-01T13:30:46Z</time>
      </trkpt>
      <trkpt lat="44.17342" lon="5.27673">
        <ele>1932</ele>
        <time>2011-10-01T13:31:06Z</time>
      </trkpt>
      <trkpt lat="44.17342" lon="5.27673">
        <ele>1932</ele>
        <time>2011-10-01T13:31:11Z</time>
      </trkpt>
      <trkpt lat="44.17342" lon="5.27673">
        <ele>1932</ele>
        <time>2011-10-01T13:31:16Z</time>
      </trkpt>
      <trkpt lat="44.17342" lon="5.27673">
        <ele>1932</ele>
        <time>2011-10-01T13:31:21Z</time>
      </trkpt>
      <trkpt lat="44.17342" lon="5.27673">
        <ele>1932</ele>
        <time>2011-10-01T13:31:26Z</time>
      </trkpt>
      <trkpt lat="44.17342" lon="5.27673">
        <ele>1932</ele>
        <time>2011-10-01T13:31:36Z</time>
      </trkpt>
      <trkpt lat="44.17342" lon="5.27673">
        <ele>1932</ele>
        <time>2011-10-01T13:31:41Z</time>
      </trkpt>
      <trkpt lat="44.17342" lon="5.27673">
        <ele>1932</ele>
        <time>2011-10-01T13:31:46Z</time>
      </trkpt>
      <trkpt lat="44.17342" lon="5.27673">
        <ele>1932</ele>
        <time>2011-10-01T13:31:56Z</time>
      </trkpt>
      <trkpt lat="44.17342" lon="5.27673">
        <ele>1932</ele>
        <time>2011-10-01T13:32:01Z</time>
      </trkpt>
      <trkpt lat="44.17342" lon="5.27673">
        <ele>1932</ele>
        <time>2011-10-01T13:32:06Z</time>
      </trkpt>
      <trkpt lat="44.17342" lon="5.27673">
        <ele>1932</ele>
        <time>2011-10-01T13:32:11Z</time>
      </trkpt>
      <trkpt lat="44.17342" lon="5.27673">
        <ele>1932</ele>
        <time>2011-10-01T13:32:16Z</time>
      </trkpt>
      <trkpt lat="44.17342" lon="5.27673">
        <ele>1932</ele>
        <time>2011-10-01T13:32:21Z</time>
      </trkpt>
      <trkpt lat="44.17342" lon="5.27673">
        <ele>1932</ele>
        <time>2011-10-01T13:32:26Z</time>
      </trkpt>
      <trkpt lat="44.17342" lon="5.27673">
        <ele>1932</ele>
        <time>2011-10-01T13:32:31Z</time>
      </trkpt>
      <trkpt lat="44.17342" lon="5.27673">
        <ele>1932</ele>
        <time>2011-10-01T13:32:41Z</time>
      </trkpt>
      <trkpt lat="44.17342" lon="5.27673">
        <ele>1932</ele>
        <time>2011-10-01T13:32:51Z</time>
      </trkpt>
      <trkpt lat="44.17342" lon="5.27673">
        <ele>1932</ele>
        <time>2011-10-01T13:33:01Z</time>
      </trkpt>
      <trkpt lat="44.17342" lon="5.27673">
        <ele>1932</ele>
        <time>2011-10-01T13:33:06Z</time>
      </trkpt>
      <trkpt lat="44.17342" lon="5.27673">
        <ele>1932</ele>
        <time>2011-10-01T13:33:11Z</time>
      </trkpt>
      <trkpt lat="44.17342" lon="5.27673">
        <ele>1932</ele>
        <time>2011-10-01T13:33:16Z</time>
      </trkpt>
      <trkpt lat="44.17342" lon="5.27673">
        <ele>1932</ele>
        <time>2011-10-01T13:33:26Z</time>
      </trkpt>
      <trkpt lat="44.17342" lon="5.27673">
        <ele>1932</ele>
        <time>2011-10-01T13:33:31Z</time>
      </trkpt>
      <trkpt lat="44.17342" lon="5.27675">
        <ele>1934</ele>
        <time>2011-10-01T13:33:41Z</time>
      </trkpt>
      <trkpt lat="44.17342" lon="5.27675">
        <ele>1934</ele>
        <time>2011-10-01T13:33:46Z</time>
      </trkpt>
      <trkpt lat="44.17342" lon="5.27675">
        <ele>1934</ele>
        <time>2011-10-01T13:33:51Z</time>
      </trkpt>
      <trkpt lat="44.17342" lon="5.27675">
        <ele>1934</ele>
        <time>2011-10-01T13:33:56Z</time>
      </trkpt>
      <trkpt lat="44.17342" lon="5.27675">
        <ele>1934</ele>
        <time>2011-10-01T13:34:01Z</time>
      </trkpt>
      <trkpt lat="44.17342" lon="5.27675">
        <ele>1934</ele>
        <time>2011-10-01T13:34:16Z</time>
      </trkpt>
      <trkpt lat="44.17342" lon="5.27675">
        <ele>1934</ele>
        <time>2011-10-01T13:34:46Z</time>
      </trkpt>
      <trkpt lat="44.17342" lon="5.27675">
        <ele>1934</ele>
        <time>2011-10-01T13:34:51Z</time>
      </trkpt>
      <trkpt lat="44.17342" lon="5.27675">
        <ele>1934</ele>
        <time>2011-10-01T13:35:01Z</time>
      </trkpt>
      <trkpt lat="44.17342" lon="5.27675">
        <ele>1934</ele>
        <time>2011-10-01T13:35:11Z</time>
      </trkpt>
      <trkpt lat="44.17342" lon="5.27675">
        <ele>1934</ele>
        <time>2011-10-01T13:35:21Z</time>
      </trkpt>
      <trkpt lat="44.17342" lon="5.27675">
        <ele>1934</ele>
        <time>2011-10-01T13:35:36Z</time>
      </trkpt>
      <trkpt lat="44.17342" lon="5.27675">
        <ele>1934</ele>
        <time>2011-10-01T13:35:46Z</time>
      </trkpt>
      <trkpt lat="44.17342" lon="5.27675">
        <ele>1934</ele>
        <time>2011-10-01T13:35:56Z</time>
      </trkpt>
      <trkpt lat="44.17342" lon="5.27675">
        <ele>1934</ele>
        <time>2011-10-01T13:36:16Z</time>
      </trkpt>
      <trkpt lat="44.17342" lon="5.27675">
        <ele>1934</ele>
        <time>2011-10-01T13:36:36Z</time>
      </trkpt>
      <trkpt lat="44.17342" lon="5.27675">
        <ele>1934</ele>
        <time>2011-10-01T13:36:41Z</time>
      </trkpt>
      <trkpt lat="44.17342" lon="5.27675">
        <ele>1934</ele>
        <time>2011-10-01T13:36:46Z</time>
      </trkpt>
      <trkpt lat="44.17342" lon="5.27675">
        <ele>1934</ele>
        <time>2011-10-01T13:36:51Z</time>
      </trkpt>
      <trkpt lat="44.17342" lon="5.27675">
        <ele>1934</ele>
        <time>2011-10-01T13:37:01Z</time>
      </trkpt>
      <trkpt lat="44.17342" lon="5.27675">
        <ele>1934</ele>
        <time>2011-10-01T13:37:51Z</time>
      </trkpt>
      <trkpt lat="44.17342" lon="5.27675">
        <ele>1934</ele>
        <time>2011-10-01T13:38:11Z</time>
      </trkpt>
      <trkpt lat="44.17342" lon="5.27675">
        <ele>1934</ele>
        <time>2011-10-01T13:38:21Z</time>
      </trkpt>
      <trkpt lat="44.17342" lon="5.27675">
        <ele>1934</ele>
        <time>2011-10-01T13:38:31Z</time>
      </trkpt>
      <trkpt lat="44.17342" lon="5.27675">
        <ele>1934</ele>
        <time>2011-10-01T13:38:36Z</time>
      </trkpt>
      <trkpt lat="44.17342" lon="5.27675">
        <ele>1934</ele>
        <time>2011-10-01T13:39:01Z</time>
      </trkpt>
      <trkpt lat="44.17342" lon="5.27675">
        <ele>1934</ele>
        <time>2011-10-01T13:39:06Z</time>
      </trkpt>
      <trkpt lat="44.17342" lon="5.27675">
        <ele>1934</ele>
        <time>2011-10-01T13:39:31Z</time>
      </trkpt>
      <trkpt lat="44.17342" lon="5.27675">
        <ele>1934</ele>
        <time>2011-10-01T13:39:46Z</time>
      </trkpt>
      <trkpt lat="44.17342" lon="5.27675">
        <ele>1934</ele>
        <time>2011-10-01T13:39:56Z</time>
      </trkpt>
      <trkpt lat="44.17342" lon="5.27675">
        <ele>1934</ele>
        <time>2011-10-01T13:40:11Z</time>
      </trkpt>
      <trkpt lat="44.17342" lon="5.27675">
        <ele>1934</ele>
        <time>2011-10-01T13:40:26Z</time>
      </trkpt>
      <trkpt lat="44.17342" lon="5.27675">
        <ele>1934</ele>
        <time>2011-10-01T13:41:01Z</time>
      </trkpt>
      <trkpt lat="44.17342" lon="5.27675">
        <ele>1934</ele>
        <time>2011-10-01T13:41:16Z</time>
      </trkpt>
      <trkpt lat="44.17342" lon="5.27675">
        <ele>1934</ele>
        <time>2011-10-01T13:41:21Z</time>
      </trkpt>
      <trkpt lat="44.17342" lon="5.27675">
        <ele>1934</ele>
        <time>2011-10-01T13:41:26Z</time>
      </trkpt>
      <trkpt lat="44.17342" lon="5.27675">
        <ele>1934</ele>
        <time>2011-10-01T13:41:31Z</time>
      </trkpt>
      <trkpt lat="44.17342" lon="5.27675">
        <ele>1934</ele>
        <time>2011-10-01T13:41:36Z</time>
      </trkpt>
      <trkpt lat="44.17342" lon="5.27675">
        <ele>1934</ele>
        <time>2011-10-01T13:41:41Z</time>
      </trkpt>
      <trkpt lat="44.17342" lon="5.27675">
        <ele>1934</ele>
        <time>2011-10-01T13:41:46Z</time>
      </trkpt>
      <trkpt lat="44.17342" lon="5.27675">
        <ele>1934</ele>
        <time>2011-10-01T13:41:56Z</time>
      </trkpt>
      <trkpt lat="44.17342" lon="5.27675">
        <ele>1934</ele>
        <time>2011-10-01T13:42:01Z</time>
      </trkpt>
      <trkpt lat="44.17342" lon="5.27675">
        <ele>1934</ele>
        <time>2011-10-01T13:42:06Z</time>
      </trkpt>
      <trkpt lat="44.17342" lon="5.27675">
        <ele>1934</ele>
        <time>2011-10-01T13:42:16Z</time>
      </trkpt>
      <trkpt lat="44.17342" lon="5.27675">
        <ele>1934</ele>
        <time>2011-10-01T13:42:21Z</time>
      </trkpt>
      <trkpt lat="44.17342" lon="5.27675">
        <ele>1934</ele>
        <time>2011-10-01T13:42:26Z</time>
      </trkpt>
      <trkpt lat="44.17342" lon="5.27675">
        <ele>1934</ele>
        <time>2011-10-01T13:42:36Z</time>
      </trkpt>
      <trkpt lat="44.17342" lon="5.27675">
        <ele>1934</ele>
        <time>2011-10-01T13:42:51Z</time>
      </trkpt>
      <trkpt lat="44.17342" lon="5.27675">
        <ele>1934</ele>
        <time>2011-10-01T13:43:01Z</time>
      </trkpt>
      <trkpt lat="44.17342" lon="5.27675">
        <ele>1934</ele>
        <time>2011-10-01T13:43:06Z</time>
      </trkpt>
      <trkpt lat="44.17342" lon="5.27675">
        <ele>1934</ele>
        <time>2011-10-01T13:43:11Z</time>
      </trkpt>
      <trkpt lat="44.17342" lon="5.27675">
        <ele>1934</ele>
        <time>2011-10-01T13:43:21Z</time>
      </trkpt>
      <trkpt lat="44.17342" lon="5.27675">
        <ele>1934</ele>
        <time>2011-10-01T13:43:26Z</time>
      </trkpt>
      <trkpt lat="44.17342" lon="5.27675">
        <ele>1934</ele>
        <time>2011-10-01T13:43:31Z</time>
      </trkpt>
      <trkpt lat="44.17342" lon="5.27675">
        <ele>1934</ele>
        <time>2011-10-01T13:43:36Z</time>
      </trkpt>
      <trkpt lat="44.17342" lon="5.27675">
        <ele>1934</ele>
        <time>2011-10-01T13:43:41Z</time>
      </trkpt>
      <trkpt lat="44.17342" lon="5.27675">
        <ele>1934</ele>
        <time>2011-10-01T13:43:56Z</time>
      </trkpt>
      <trkpt lat="44.17342" lon="5.27675">
        <ele>1934</ele>
        <time>2011-10-01T13:44:06Z</time>
      </trkpt>
      <trkpt lat="44.17342" lon="5.27675">
        <ele>1934</ele>
        <time>2011-10-01T13:44:26Z</time>
      </trkpt>
      <trkpt lat="44.17342" lon="5.27675">
        <ele>1934</ele>
        <time>2011-10-01T13:44:31Z</time>
      </trkpt>
      <trkpt lat="44.17342" lon="5.27675">
        <ele>1934</ele>
        <time>2011-10-01T13:44:36Z</time>
      </trkpt>
      <trkpt lat="44.17342" lon="5.27675">
        <ele>1934</ele>
        <time>2011-10-01T13:44:41Z</time>
      </trkpt>
      <trkpt lat="44.17342" lon="5.27675">
        <ele>1934</ele>
        <time>2011-10-01T13:44:46Z</time>
      </trkpt>
      <trkpt lat="44.17342" lon="5.27675">
        <ele>1934</ele>
        <time>2011-10-01T13:44:51Z</time>
      </trkpt>
      <trkpt lat="44.17342" lon="5.27675">
        <ele>1934</ele>
        <time>2011-10-01T13:44:56Z</time>
      </trkpt>
      <trkpt lat="44.17342" lon="5.27675">
        <ele>1934</ele>
        <time>2011-10-01T13:45:01Z</time>
      </trkpt>
      <trkpt lat="44.17342" lon="5.27675">
        <ele>1934</ele>
        <time>2011-10-01T13:45:11Z</time>
      </trkpt>
      <trkpt lat="44.17342" lon="5.27675">
        <ele>1934</ele>
        <time>2011-10-01T13:45:21Z</time>
      </trkpt>
      <trkpt lat="44.17342" lon="5.27675">
        <ele>1934</ele>
        <time>2011-10-01T13:45:31Z</time>
      </trkpt>
      <trkpt lat="44.17342" lon="5.27675">
        <ele>1934</ele>
        <time>2011-10-01T13:45:36Z</time>
      </trkpt>
      <trkpt lat="44.17342" lon="5.27675">
        <ele>1934</ele>
        <time>2011-10-01T13:45:46Z</time>
      </trkpt>
      <trkpt lat="44.17342" lon="5.27675">
        <ele>1934</ele>
        <time>2011-10-01T13:45:51Z</time>
      </trkpt>
      <trkpt lat="44.17342" lon="5.27675">
        <ele>1934</ele>
        <time>2011-10-01T13:45:56Z</time>
      </trkpt>
      <trkpt lat="44.17342" lon="5.27675">
        <ele>1934</ele>
        <time>2011-10-01T13:46:16Z</time>
      </trkpt>
      <trkpt lat="44.17342" lon="5.27675">
        <ele>1934</ele>
        <time>2011-10-01T13:46:31Z</time>
      </trkpt>
      <trkpt lat="44.17342" lon="5.27675">
        <ele>1934</ele>
        <time>2011-10-01T13:46:36Z</time>
      </trkpt>
      <trkpt lat="44.17342" lon="5.27675">
        <ele>1934</ele>
        <time>2011-10-01T13:46:46Z</time>
      </trkpt>
      <trkpt lat="44.17342" lon="5.27675">
        <ele>1934</ele>
        <time>2011-10-01T13:47:11Z</time>
      </trkpt>
      <trkpt lat="44.17342" lon="5.27675">
        <ele>1934</ele>
        <time>2011-10-01T13:47:16Z</time>
      </trkpt>
      <trkpt lat="44.17342" lon="5.27675">
        <ele>1934</ele>
        <time>2011-10-01T13:47:21Z</time>
      </trkpt>
      <trkpt lat="44.17342" lon="5.27675">
        <ele>1934</ele>
        <time>2011-10-01T13:47:26Z</time>
      </trkpt>
      <trkpt lat="44.17342" lon="5.27675">
        <ele>1934</ele>
        <time>2011-10-01T13:47:31Z</time>
      </trkpt>
      <trkpt lat="44.17342" lon="5.27675">
        <ele>1934</ele>
        <time>2011-10-01T13:47:36Z</time>
      </trkpt>
      <trkpt lat="44.17342" lon="5.27675">
        <ele>1934</ele>
        <time>2011-10-01T13:47:51Z</time>
      </trkpt>
      <trkpt lat="44.17342" lon="5.27675">
        <ele>1934</ele>
        <time>2011-10-01T13:47:56Z</time>
      </trkpt>
      <trkpt lat="44.17342" lon="5.27675">
        <ele>1934</ele>
        <time>2011-10-01T13:48:01Z</time>
      </trkpt>
      <trkpt lat="44.17342" lon="5.27675">
        <ele>1934</ele>
        <time>2011-10-01T13:48:21Z</time>
      </trkpt>
      <trkpt lat="44.17342" lon="5.27675">
        <ele>1934</ele>
        <time>2011-10-01T13:48:26Z</time>
      </trkpt>
      <trkpt lat="44.17342" lon="5.27675">
        <ele>1934</ele>
        <time>2011-10-01T13:48:46Z</time>
      </trkpt>
      <trkpt lat="44.17342" lon="5.27675">
        <ele>1934</ele>
        <time>2011-10-01T13:48:51Z</time>
      </trkpt>
      <trkpt lat="44.17342" lon="5.27675">
        <ele>1934</ele>
        <time>2011-10-01T13:49:11Z</time>
      </trkpt>
      <trkpt lat="44.17342" lon="5.27675">
        <ele>1934</ele>
        <time>2011-10-01T13:49:16Z</time>
      </trkpt>
      <trkpt lat="44.17342" lon="5.27675">
        <ele>1934</ele>
        <time>2011-10-01T13:49:36Z</time>
      </trkpt>
      <trkpt lat="44.17342" lon="5.27675">
        <ele>1934</ele>
        <time>2011-10-01T13:49:51Z</time>
      </trkpt>
      <trkpt lat="44.17342" lon="5.27675">
        <ele>1934</ele>
        <time>2011-10-01T13:50:01Z</time>
      </trkpt>
      <trkpt lat="44.17342" lon="5.27675">
        <ele>1934</ele>
        <time>2011-10-01T13:50:11Z</time>
      </trkpt>
      <trkpt lat="44.17342" lon="5.27675">
        <ele>1934</ele>
        <time>2011-10-01T13:50:51Z</time>
      </trkpt>
      <trkpt lat="44.17342" lon="5.27675">
        <ele>1934</ele>
        <time>2011-10-01T13:50:56Z</time>
      </trkpt>
      <trkpt lat="44.17342" lon="5.27675">
        <ele>1934</ele>
        <time>2011-10-01T13:51:16Z</time>
      </trkpt>
      <trkpt lat="44.17342" lon="5.27675">
        <ele>1934</ele>
        <time>2011-10-01T13:51:26Z</time>
      </trkpt>
      <trkpt lat="44.17342" lon="5.27675">
        <ele>1934</ele>
        <time>2011-10-01T13:51:41Z</time>
      </trkpt>
      <trkpt lat="44.17342" lon="5.27675">
        <ele>1934</ele>
        <time>2011-10-01T13:52:11Z</time>
      </trkpt>
      <trkpt lat="44.17342" lon="5.27675">
        <ele>1934</ele>
        <time>2011-10-01T13:52:21Z</time>
      </trkpt>
      <trkpt lat="44.17342" lon="5.27675">
        <ele>1933.5</ele>
        <time>2011-10-01T13:52:36Z</time>
      </trkpt>
      <trkpt lat="44.17342" lon="5.27675">
        <ele>1933.5</ele>
        <time>2011-10-01T13:52:46Z</time>
      </trkpt>
      <trkpt lat="44.17342" lon="5.27675">
        <ele>1933.5</ele>
        <time>2011-10-01T13:53:31Z</time>
      </trkpt>
      <trkpt lat="44.17342" lon="5.27675">
        <ele>1933.5</ele>
        <time>2011-10-01T13:53:36Z</time>
      </trkpt>
      <trkpt lat="44.17342" lon="5.27675">
        <ele>1933.5</ele>
        <time>2011-10-01T13:53:56Z</time>
      </trkpt>
      <trkpt lat="44.17342" lon="5.27675">
        <ele>1933</ele>
        <time>2011-10-01T13:54:01Z</time>
      </trkpt>
      <trkpt lat="44.17342" lon="5.27675">
        <ele>1933</ele>
        <time>2011-10-01T13:54:06Z</time>
      </trkpt>
      <trkpt lat="44.17342" lon="5.27675">
        <ele>1933</ele>
        <time>2011-10-01T13:54:11Z</time>
      </trkpt>
      <trkpt lat="44.17342" lon="5.27675">
        <ele>1933</ele>
        <time>2011-10-01T13:54:16Z</time>
      </trkpt>
      <trkpt lat="44.17342" lon="5.27675">
        <ele>1933</ele>
        <time>2011-10-01T13:54:21Z</time>
      </trkpt>
      <trkpt lat="44.17341" lon="5.27675">
        <ele>1932.5</ele>
        <time>2011-10-01T13:54:26Z</time>
      </trkpt>
      <trkpt lat="44.1734" lon="5.27675">
        <ele>1931.5</ele>
        <time>2011-10-01T13:54:31Z</time>
      </trkpt>
      <trkpt lat="44.17341" lon="5.27676">
        <ele>1932</ele>
        <time>2011-10-01T13:54:36Z</time>
      </trkpt>
      <trkpt lat="44.17341" lon="5.27676">
        <ele>1932</ele>
        <time>2011-10-01T13:54:41Z</time>
      </trkpt>
      <trkpt lat="44.17341" lon="5.27676">
        <ele>1932</ele>
        <time>2011-10-01T13:54:46Z</time>
      </trkpt>
      <trkpt lat="44.17341" lon="5.27677">
        <ele>1932.5</ele>
        <time>2011-10-01T13:54:51Z</time>
      </trkpt>
      <trkpt lat="44.1734" lon="5.27677">
        <ele>1933</ele>
        <time>2011-10-01T13:54:56Z</time>
      </trkpt>
      <trkpt lat="44.17341" lon="5.27679">
        <ele>1933.5</ele>
        <time>2011-10-01T13:55:01Z</time>
      </trkpt>
      <trkpt lat="44.17341" lon="5.27679">
        <ele>1932.5</ele>
        <time>2011-10-01T13:55:06Z</time>
      </trkpt>
      <trkpt lat="44.17341" lon="5.27679">
        <ele>1932.5</ele>
        <time>2011-10-01T13:55:11Z</time>
      </trkpt>
      <trkpt lat="44.17341" lon="5.27679">
        <ele>1933</ele>
        <time>2011-10-01T13:55:16Z</time>
      </trkpt>
      <trkpt lat="44.17341" lon="5.27679">
        <ele>1933</ele>
        <time>2011-10-01T13:55:21Z</time>
      </trkpt>
      <trkpt lat="44.17341" lon="5.27678">
        <ele>1932.5</ele>
        <time>2011-10-01T13:55:26Z</time>
      </trkpt>
      <trkpt lat="44.17341" lon="5.27678">
        <ele>1933</ele>
        <time>2011-10-01T13:55:31Z</time>
      </trkpt>
      <trkpt lat="44.17342" lon="5.27678">
        <ele>1933</ele>
        <time>2011-10-01T13:55:36Z</time>
      </trkpt>
      <trkpt lat="44.17342" lon="5.27678">
        <ele>1933</ele>
        <time>2011-10-01T13:55:41Z</time>
      </trkpt>
      <trkpt lat="44.17342" lon="5.27678">
        <ele>1933</ele>
        <time>2011-10-01T13:55:46Z</time>
      </trkpt>
      <trkpt lat="44.17342" lon="5.27678">
        <ele>1933</ele>
        <time>2011-10-01T13:55:51Z</time>
      </trkpt>
      <trkpt lat="44.17342" lon="5.27678">
        <ele>1933</ele>
        <time>2011-10-01T13:55:56Z</time>
      </trkpt>
      <trkpt lat="44.17342" lon="5.27678">
        <ele>1933</ele>
        <time>2011-10-01T13:56:01Z</time>
      </trkpt>
      <trkpt lat="44.17341" lon="5.27678">
        <ele>1932.5</ele>
        <time>2011-10-01T13:56:06Z</time>
      </trkpt>
      <trkpt lat="44.17341" lon="5.27677">
        <ele>1931.5</ele>
        <time>2011-10-01T13:56:11Z</time>
      </trkpt>
      <trkpt lat="44.17341" lon="5.27676">
        <ele>1931.5</ele>
        <time>2011-10-01T13:56:16Z</time>
      </trkpt>
      <trkpt lat="44.17341" lon="5.27675">
        <ele>1931</ele>
        <time>2011-10-01T13:56:21Z</time>
      </trkpt>
      <trkpt lat="44.17341" lon="5.27675">
        <ele>1931</ele>
        <time>2011-10-01T13:56:26Z</time>
      </trkpt>
      <trkpt lat="44.17341" lon="5.27675">
        <ele>1931</ele>
        <time>2011-10-01T13:56:31Z</time>
      </trkpt>
      <trkpt lat="44.17341" lon="5.27675">
        <ele>1931</ele>
        <time>2011-10-01T13:56:36Z</time>
      </trkpt>
      <trkpt lat="44.17341" lon="5.27675">
        <ele>1931</ele>
        <time>2011-10-01T13:56:41Z</time>
      </trkpt>
      <trkpt lat="44.17341" lon="5.27675">
        <ele>1931</ele>
        <time>2011-10-01T13:56:46Z</time>
      </trkpt>
      <trkpt lat="44.17341" lon="5.27675">
        <ele>1931</ele>
        <time>2011-10-01T13:56:51Z</time>
      </trkpt>
      <trkpt lat="44.17341" lon="5.27675">
        <ele>1931</ele>
        <time>2011-10-01T13:56:56Z</time>
      </trkpt>
      <trkpt lat="44.17341" lon="5.27675">
        <ele>1931</ele>
        <time>2011-10-01T13:57:01Z</time>
      </trkpt>
      <trkpt lat="44.17341" lon="5.27675">
        <ele>1931</ele>
        <time>2011-10-01T13:57:06Z</time>
      </trkpt>
      <trkpt lat="44.1734" lon="5.27675">
        <ele>1931</ele>
        <time>2011-10-01T13:57:16Z</time>
      </trkpt>
      <trkpt lat="44.1734" lon="5.27676">
        <ele>1931</ele>
        <time>2011-10-01T13:57:21Z</time>
      </trkpt>
      <trkpt lat="44.17341" lon="5.27676">
        <ele>1931.5</ele>
        <time>2011-10-01T13:57:26Z</time>
      </trkpt>
      <trkpt lat="44.17341" lon="5.27676">
        <ele>1931.5</ele>
        <time>2011-10-01T13:57:31Z</time>
      </trkpt>
      <trkpt lat="44.17341" lon="5.27676">
        <ele>1931.5</ele>
        <time>2011-10-01T13:57:36Z</time>
      </trkpt>
      <trkpt lat="44.1734" lon="5.27675">
        <ele>1930.5</ele>
        <time>2011-10-01T13:57:41Z</time>
      </trkpt>
      <trkpt lat="44.17341" lon="5.27676">
        <ele>1929.5</ele>
        <time>2011-10-01T13:57:46Z</time>
      </trkpt>
      <trkpt lat="44.17341" lon="5.27676">
        <ele>1928.5</ele>
        <time>2011-10-01T13:57:51Z</time>
      </trkpt>
      <trkpt lat="44.17341" lon="5.27675">
        <ele>1928.5</ele>
        <time>2011-10-01T13:57:56Z</time>
      </trkpt>
      <trkpt lat="44.17342" lon="5.27675">
        <ele>1929</ele>
        <time>2011-10-01T13:58:01Z</time>
      </trkpt>
      <trkpt lat="44.17343" lon="5.27676">
        <ele>1929.5</ele>
        <time>2011-10-01T13:58:06Z</time>
      </trkpt>
      <trkpt lat="44.17343" lon="5.27676">
        <ele>1929.5</ele>
        <time>2011-10-01T13:58:11Z</time>
      </trkpt>
      <trkpt lat="44.17343" lon="5.27678">
        <ele>1928.5</ele>
        <time>2011-10-01T13:58:16Z</time>
      </trkpt>
      <trkpt lat="44.17343" lon="5.27678">
        <ele>1929.5</ele>
        <time>2011-10-01T13:58:21Z</time>
      </trkpt>
      <trkpt lat="44.17343" lon="5.27677">
        <ele>1930</ele>
        <time>2011-10-01T13:58:26Z</time>
      </trkpt>
      <trkpt lat="44.17343" lon="5.27677">
        <ele>1930.5</ele>
        <time>2011-10-01T13:58:31Z</time>
      </trkpt>
      <trkpt lat="44.17343" lon="5.27677">
        <ele>1931.5</ele>
        <time>2011-10-01T13:58:36Z</time>
      </trkpt>
      <trkpt lat="44.17343" lon="5.27676">
        <ele>1933</ele>
        <time>2011-10-01T13:58:41Z</time>
      </trkpt>
      <trkpt lat="44.17343" lon="5.27677">
        <ele>1932.5</ele>
        <time>2011-10-01T13:58:46Z</time>
      </trkpt>
      <trkpt lat="44.17343" lon="5.27677">
        <ele>1932.5</ele>
        <time>2011-10-01T13:58:51Z</time>
      </trkpt>
      <trkpt lat="44.17343" lon="5.27677">
        <ele>1932.5</ele>
        <time>2011-10-01T13:58:56Z</time>
      </trkpt>
      <trkpt lat="44.17341" lon="5.27677">
        <ele>1932.5</ele>
        <time>2011-10-01T13:59:01Z</time>
      </trkpt>
      <trkpt lat="44.17341" lon="5.27677">
        <ele>1933.5</ele>
        <time>2011-10-01T13:59:06Z</time>
      </trkpt>
      <trkpt lat="44.17342" lon="5.27676">
        <ele>1935</ele>
        <time>2011-10-01T13:59:11Z</time>
      </trkpt>
      <trkpt lat="44.17342" lon="5.27676">
        <ele>1935</ele>
        <time>2011-10-01T13:59:16Z</time>
      </trkpt>
      <trkpt lat="44.17342" lon="5.27676">
        <ele>1935</ele>
        <time>2011-10-01T13:59:21Z</time>
      </trkpt>
      <trkpt lat="44.17342" lon="5.27676">
        <ele>1935</ele>
        <time>2011-10-01T13:59:26Z</time>
      </trkpt>
      <trkpt lat="44.17342" lon="5.27676">
        <ele>1935</ele>
        <time>2011-10-01T13:59:31Z</time>
      </trkpt>
      <trkpt lat="44.17342" lon="5.27677">
        <ele>1935.5</ele>
        <time>2011-10-01T13:59:41Z</time>
      </trkpt>
      <trkpt lat="44.17342" lon="5.27677">
        <ele>1934.5</ele>
        <time>2011-10-01T13:59:46Z</time>
      </trkpt>
      <trkpt lat="44.17342" lon="5.27678">
        <ele>1934</ele>
        <time>2011-10-01T13:59:51Z</time>
      </trkpt>
      <trkpt lat="44.17343" lon="5.27678">
        <ele>1933</ele>
        <time>2011-10-01T13:59:56Z</time>
      </trkpt>
      <trkpt lat="44.17343" lon="5.27679">
        <ele>1933</ele>
        <time>2011-10-01T14:00:01Z</time>
      </trkpt>
      <trkpt lat="44.17344" lon="5.27683">
        <ele>1934</ele>
        <time>2011-10-01T14:00:06Z</time>
      </trkpt>
      <trkpt lat="44.17344" lon="5.27686">
        <ele>1934</ele>
        <time>2011-10-01T14:00:11Z</time>
      </trkpt>
      <trkpt lat="44.17344" lon="5.27687">
        <ele>1934.5</ele>
        <time>2011-10-01T14:00:16Z</time>
      </trkpt>
      <trkpt lat="44.17344" lon="5.27689">
        <ele>1934.5</ele>
        <time>2011-10-01T14:00:21Z</time>
      </trkpt>
      <trkpt lat="44.17344" lon="5.27689">
        <ele>1935.5</ele>
        <time>2011-10-01T14:00:26Z</time>
      </trkpt>
      <trkpt lat="44.17345" lon="5.2769">
        <ele>1935.5</ele>
        <time>2011-10-01T14:00:31Z</time>
      </trkpt>
      <trkpt lat="44.17344" lon="5.27692">
        <ele>1935.5</ele>
        <time>2011-10-01T14:00:36Z</time>
      </trkpt>
      <trkpt lat="44.17345" lon="5.27693">
        <ele>1935.5</ele>
        <time>2011-10-01T14:00:41Z</time>
      </trkpt>
      <trkpt lat="44.17345" lon="5.27694">
        <ele>1936.5</ele>
        <time>2011-10-01T14:00:46Z</time>
      </trkpt>
      <trkpt lat="44.17344" lon="5.27695">
        <ele>1937</ele>
        <time>2011-10-01T14:00:51Z</time>
      </trkpt>
      <trkpt lat="44.17344" lon="5.27695">
        <ele>1936.5</ele>
        <time>2011-10-01T14:00:56Z</time>
      </trkpt>
      <trkpt lat="44.17344" lon="5.27696">
        <ele>1936.5</ele>
        <time>2011-10-01T14:01:01Z</time>
      </trkpt>
      <trkpt lat="44.17344" lon="5.27697">
        <ele>1937.5</ele>
        <time>2011-10-01T14:01:06Z</time>
      </trkpt>
      <trkpt lat="44.17344" lon="5.27698">
        <ele>1938</ele>
        <time>2011-10-01T14:01:11Z</time>
      </trkpt>
      <trkpt lat="44.17344" lon="5.27699">
        <ele>1938.5</ele>
        <time>2011-10-01T14:01:16Z</time>
      </trkpt>
      <trkpt lat="44.17344" lon="5.277">
        <ele>1939.5</ele>
        <time>2011-10-01T14:01:21Z</time>
      </trkpt>
      <trkpt lat="44.17344" lon="5.27701">
        <ele>1939.5</ele>
        <time>2011-10-01T14:01:26Z</time>
      </trkpt>
      <trkpt lat="44.17344" lon="5.27702">
        <ele>1941</ele>
        <time>2011-10-01T14:01:31Z</time>
      </trkpt>
      <trkpt lat="44.17344" lon="5.27702">
        <ele>1941</ele>
        <time>2011-10-01T14:01:36Z</time>
      </trkpt>
      <trkpt lat="44.17344" lon="5.27702">
        <ele>1941</ele>
        <time>2011-10-01T14:01:41Z</time>
      </trkpt>
      <trkpt lat="44.17344" lon="5.27702">
        <ele>1941.5</ele>
        <time>2011-10-01T14:01:46Z</time>
      </trkpt>
      <trkpt lat="44.17344" lon="5.27702">
        <ele>1941.5</ele>
        <time>2011-10-01T14:01:51Z</time>
      </trkpt>
      <trkpt lat="44.17344" lon="5.27706">
        <ele>1944</ele>
        <time>2011-10-01T14:01:56Z</time>
      </trkpt>
      <trkpt lat="44.17339" lon="5.27708">
        <ele>1942.5</ele>
        <time>2011-10-01T14:02:01Z</time>
      </trkpt>
      <trkpt lat="44.17331" lon="5.27729">
        <ele>1940.5</ele>
        <time>2011-10-01T14:02:06Z</time>
      </trkpt>
      <trkpt lat="44.17319" lon="5.27762">
        <ele>1939</ele>
        <time>2011-10-01T14:02:11Z</time>
      </trkpt>
      <trkpt lat="44.17308" lon="5.27787">
        <ele>1936.5</ele>
        <time>2011-10-01T14:02:16Z</time>
      </trkpt>
      <trkpt lat="44.17299" lon="5.27818">
        <ele>1934</ele>
        <time>2011-10-01T14:02:21Z</time>
      </trkpt>
      <trkpt lat="44.17295" lon="5.27858">
        <ele>1932.5</ele>
        <time>2011-10-01T14:02:26Z</time>
      </trkpt>
      <trkpt lat="44.17299" lon="5.27906">
        <ele>1929.5</ele>
        <time>2011-10-01T14:02:31Z</time>
      </trkpt>
      <trkpt lat="44.17321" lon="5.2796">
        <ele>1927</ele>
        <time>2011-10-01T14:02:36Z</time>
      </trkpt>
      <trkpt lat="44.17343" lon="5.28002">
        <ele>1925.5</ele>
        <time>2011-10-01T14:02:41Z</time>
      </trkpt>
      <trkpt lat="44.17357" lon="5.28025">
        <ele>1923.5</ele>
        <time>2011-10-01T14:02:46Z</time>
      </trkpt>
      <trkpt lat="44.17367" lon="5.28046">
        <ele>1921</ele>
        <time>2011-10-01T14:02:51Z</time>
      </trkpt>
      <trkpt lat="44.17381" lon="5.2809">
        <ele>1918.5</ele>
        <time>2011-10-01T14:02:56Z</time>
      </trkpt>
      <trkpt lat="44.17394" lon="5.28152">
        <ele>1915</ele>
        <time>2011-10-01T14:03:01Z</time>
      </trkpt>
      <trkpt lat="44.17407" lon="5.28219">
        <ele>1912.5</ele>
        <time>2011-10-01T14:03:06Z</time>
      </trkpt>
      <trkpt lat="44.17419" lon="5.28283">
        <ele>1910</ele>
        <time>2011-10-01T14:03:11Z</time>
      </trkpt>
      <trkpt lat="44.17426" lon="5.2832">
        <ele>1908</ele>
        <time>2011-10-01T14:03:16Z</time>
      </trkpt>
      <trkpt lat="44.17426" lon="5.2832">
        <ele>1901.5</ele>
        <time>2011-10-01T14:03:21Z</time>
      </trkpt>
      <trkpt lat="44.17426" lon="5.28331">
        <ele>1897</ele>
        <time>2011-10-01T14:03:26Z</time>
      </trkpt>
      <trkpt lat="44.17425" lon="5.28366">
        <ele>1892.5</ele>
        <time>2011-10-01T14:03:31Z</time>
      </trkpt>
      <trkpt lat="44.17414" lon="5.28388">
        <ele>1891.5</ele>
        <time>2011-10-01T14:03:36Z</time>
      </trkpt>
      <trkpt lat="44.17399" lon="5.28402">
        <ele>1889</ele>
        <time>2011-10-01T14:03:41Z</time>
      </trkpt>
      <trkpt lat="44.17385" lon="5.28416">
        <ele>1887.5</ele>
        <time>2011-10-01T14:03:46Z</time>
      </trkpt>
      <trkpt lat="44.1737" lon="5.28427">
        <ele>1887.5</ele>
        <time>2011-10-01T14:03:51Z</time>
      </trkpt>
      <trkpt lat="44.17349" lon="5.2844">
        <ele>1887</ele>
        <time>2011-10-01T14:03:56Z</time>
      </trkpt>
      <trkpt lat="44.17331" lon="5.28452">
        <ele>1887</ele>
        <time>2011-10-01T14:04:01Z</time>
      </trkpt>
      <trkpt lat="44.17315" lon="5.28464">
        <ele>1886.5</ele>
        <time>2011-10-01T14:04:06Z</time>
      </trkpt>
      <trkpt lat="44.17297" lon="5.28484">
        <ele>1887.5</ele>
        <time>2011-10-01T14:04:11Z</time>
      </trkpt>
      <trkpt lat="44.17282" lon="5.28511">
        <ele>1888.5</ele>
        <time>2011-10-01T14:04:16Z</time>
      </trkpt>
      <trkpt lat="44.17269" lon="5.28541">
        <ele>1888.5</ele>
        <time>2011-10-01T14:04:21Z</time>
      </trkpt>
      <trkpt lat="44.17259" lon="5.2857">
        <ele>1887.5</ele>
        <time>2011-10-01T14:04:26Z</time>
      </trkpt>
      <trkpt lat="44.17249" lon="5.286">
        <ele>1886.5</ele>
        <time>2011-10-01T14:04:31Z</time>
      </trkpt>
      <trkpt lat="44.17237" lon="5.28627">
        <ele>1885</ele>
        <time>2011-10-01T14:04:36Z</time>
      </trkpt>
      <trkpt lat="44.17228" lon="5.28656">
        <ele>1885</ele>
        <time>2011-10-01T14:04:41Z</time>
      </trkpt>
      <trkpt lat="44.1722" lon="5.2869">
        <ele>1884.5</ele>
        <time>2011-10-01T14:04:46Z</time>
      </trkpt>
      <trkpt lat="44.17213" lon="5.28726">
        <ele>1884</ele>
        <time>2011-10-01T14:04:51Z</time>
      </trkpt>
      <trkpt lat="44.17211" lon="5.28762">
        <ele>1884.5</ele>
        <time>2011-10-01T14:04:56Z</time>
      </trkpt>
      <trkpt lat="44.17209" lon="5.28786">
        <ele>1884.5</ele>
        <time>2011-10-01T14:05:01Z</time>
      </trkpt>
      <trkpt lat="44.17206" lon="5.28804">
        <ele>1885.5</ele>
        <time>2011-10-01T14:05:06Z</time>
      </trkpt>
      <trkpt lat="44.17197" lon="5.28821">
        <ele>1884</ele>
        <time>2011-10-01T14:05:11Z</time>
      </trkpt>
      <trkpt lat="44.17187" lon="5.28831">
        <ele>1885</ele>
        <time>2011-10-01T14:05:16Z</time>
      </trkpt>
      <trkpt lat="44.17177" lon="5.28845">
        <ele>1883</ele>
        <time>2011-10-01T14:05:21Z</time>
      </trkpt>
      <trkpt lat="44.17166" lon="5.2886">
        <ele>1882.5</ele>
        <time>2011-10-01T14:05:26Z</time>
      </trkpt>
      <trkpt lat="44.17162" lon="5.28882">
        <ele>1882.5</ele>
        <time>2011-10-01T14:05:31Z</time>
      </trkpt>
      <trkpt lat="44.17156" lon="5.28903">
        <ele>1881</ele>
        <time>2011-10-01T14:05:36Z</time>
      </trkpt>
      <trkpt lat="44.17149" lon="5.28924">
        <ele>1881.5</ele>
        <time>2011-10-01T14:05:41Z</time>
      </trkpt>
      <trkpt lat="44.17143" lon="5.2894">
        <ele>1879.5</ele>
        <time>2011-10-01T14:05:46Z</time>
      </trkpt>
      <trkpt lat="44.17143" lon="5.2894">
        <ele>1880</ele>
        <time>2011-10-01T14:05:51Z</time>
      </trkpt>
      <trkpt lat="44.17144" lon="5.2894">
        <ele>1880</ele>
        <time>2011-10-01T14:05:56Z</time>
      </trkpt>
      <trkpt lat="44.17144" lon="5.2894">
        <ele>1880</ele>
        <time>2011-10-01T14:06:01Z</time>
      </trkpt>
      <trkpt lat="44.17144" lon="5.2894">
        <ele>1880</ele>
        <time>2011-10-01T14:06:06Z</time>
      </trkpt>
      <trkpt lat="44.17144" lon="5.2894">
        <ele>1879.5</ele>
        <time>2011-10-01T14:06:11Z</time>
      </trkpt>
      <trkpt lat="44.17145" lon="5.28939">
        <ele>1881</ele>
        <time>2011-10-01T14:06:16Z</time>
      </trkpt>
      <trkpt lat="44.17145" lon="5.28939">
        <ele>1881</ele>
        <time>2011-10-01T14:06:21Z</time>
      </trkpt>
      <trkpt lat="44.17145" lon="5.28939">
        <ele>1881.5</ele>
        <time>2011-10-01T14:06:26Z</time>
      </trkpt>
      <trkpt lat="44.17145" lon="5.28938">
        <ele>1882</ele>
        <time>2011-10-01T14:06:31Z</time>
      </trkpt>
      <trkpt lat="44.17145" lon="5.28938">
        <ele>1882</ele>
        <time>2011-10-01T14:06:36Z</time>
      </trkpt>
      <trkpt lat="44.17144" lon="5.28938">
        <ele>1882</ele>
        <time>2011-10-01T14:06:41Z</time>
      </trkpt>
      <trkpt lat="44.17144" lon="5.28938">
        <ele>1882</ele>
        <time>2011-10-01T14:06:46Z</time>
      </trkpt>
      <trkpt lat="44.17144" lon="5.28939">
        <ele>1882</ele>
        <time>2011-10-01T14:06:51Z</time>
      </trkpt>
      <trkpt lat="44.17144" lon="5.28939">
        <ele>1882</ele>
        <time>2011-10-01T14:06:56Z</time>
      </trkpt>
      <trkpt lat="44.17145" lon="5.28939">
        <ele>1881.5</ele>
        <time>2011-10-01T14:07:01Z</time>
      </trkpt>
      <trkpt lat="44.17146" lon="5.2894">
        <ele>1881</ele>
        <time>2011-10-01T14:07:06Z</time>
      </trkpt>
      <trkpt lat="44.17148" lon="5.28945">
        <ele>1880.5</ele>
        <time>2011-10-01T14:07:11Z</time>
      </trkpt>
      <trkpt lat="44.17152" lon="5.28953">
        <ele>1879.5</ele>
        <time>2011-10-01T14:07:16Z</time>
      </trkpt>
      <trkpt lat="44.17159" lon="5.28965">
        <ele>1879</ele>
        <time>2011-10-01T14:07:21Z</time>
      </trkpt>
      <trkpt lat="44.17171" lon="5.28985">
        <ele>1881</ele>
        <time>2011-10-01T14:07:26Z</time>
      </trkpt>
      <trkpt lat="44.17188" lon="5.28999">
        <ele>1882.5</ele>
        <time>2011-10-01T14:07:31Z</time>
      </trkpt>
      <trkpt lat="44.1719" lon="5.29013">
        <ele>1880</ele>
        <time>2011-10-01T14:07:36Z</time>
      </trkpt>
      <trkpt lat="44.17189" lon="5.29013">
        <ele>1879.5</ele>
        <time>2011-10-01T14:07:41Z</time>
      </trkpt>
      <trkpt lat="44.17189" lon="5.29014">
        <ele>1880.5</ele>
        <time>2011-10-01T14:07:46Z</time>
      </trkpt>
      <trkpt lat="44.17187" lon="5.29022">
        <ele>1879</ele>
        <time>2011-10-01T14:07:51Z</time>
      </trkpt>
      <trkpt lat="44.17187" lon="5.29022">
        <ele>1879</ele>
        <time>2011-10-01T14:07:56Z</time>
      </trkpt>
      <trkpt lat="44.17187" lon="5.29022">
        <ele>1879.5</ele>
        <time>2011-10-01T14:08:01Z</time>
      </trkpt>
      <trkpt lat="44.17187" lon="5.29022">
        <ele>1879.5</ele>
        <time>2011-10-01T14:08:06Z</time>
      </trkpt>
      <trkpt lat="44.17187" lon="5.29022">
        <ele>1879.5</ele>
        <time>2011-10-01T14:08:11Z</time>
      </trkpt>
      <trkpt lat="44.17187" lon="5.29023">
        <ele>1879.5</ele>
        <time>2011-10-01T14:08:16Z</time>
      </trkpt>
      <trkpt lat="44.17187" lon="5.29023">
        <ele>1879</ele>
        <time>2011-10-01T14:08:21Z</time>
      </trkpt>
      <trkpt lat="44.17187" lon="5.29023">
        <ele>1879</ele>
        <time>2011-10-01T14:08:26Z</time>
      </trkpt>
      <trkpt lat="44.17186" lon="5.29023">
        <ele>1878.5</ele>
        <time>2011-10-01T14:08:31Z</time>
      </trkpt>
      <trkpt lat="44.17182" lon="5.29026">
        <ele>1877.5</ele>
        <time>2011-10-01T14:08:36Z</time>
      </trkpt>
      <trkpt lat="44.1717" lon="5.29038">
        <ele>1874</ele>
        <time>2011-10-01T14:08:41Z</time>
      </trkpt>
      <trkpt lat="44.17161" lon="5.2905">
        <ele>1872</ele>
        <time>2011-10-01T14:08:46Z</time>
      </trkpt>
      <trkpt lat="44.1716" lon="5.29053">
        <ele>1872.5</ele>
        <time>2011-10-01T14:08:51Z</time>
      </trkpt>
      <trkpt lat="44.1716" lon="5.29054">
        <ele>1873</ele>
        <time>2011-10-01T14:08:56Z</time>
      </trkpt>
      <trkpt lat="44.1716" lon="5.29056">
        <ele>1873.5</ele>
        <time>2011-10-01T14:09:01Z</time>
      </trkpt>
      <trkpt lat="44.17158" lon="5.29063">
        <ele>1873.5</ele>
        <time>2011-10-01T14:09:06Z</time>
      </trkpt>
      <trkpt lat="44.17154" lon="5.29069">
        <ele>1870.5</ele>
        <time>2011-10-01T14:09:11Z</time>
      </trkpt>
      <trkpt lat="44.17146" lon="5.29081">
        <ele>1868.5</ele>
        <time>2011-10-01T14:09:16Z</time>
      </trkpt>
      <trkpt lat="44.17135" lon="5.29099">
        <ele>1866</ele>
        <time>2011-10-01T14:09:21Z</time>
      </trkpt>
      <trkpt lat="44.17122" lon="5.29119">
        <ele>1863</ele>
        <time>2011-10-01T14:09:26Z</time>
      </trkpt>
      <trkpt lat="44.17106" lon="5.29141">
        <ele>1858</ele>
        <time>2011-10-01T14:09:31Z</time>
      </trkpt>
      <trkpt lat="44.17094" lon="5.29157">
        <ele>1856</ele>
        <time>2011-10-01T14:09:36Z</time>
      </trkpt>
      <trkpt lat="44.17082" lon="5.29169">
        <ele>1854</ele>
        <time>2011-10-01T14:09:41Z</time>
      </trkpt>
      <trkpt lat="44.17068" lon="5.29182">
        <ele>1851.5</ele>
        <time>2011-10-01T14:09:46Z</time>
      </trkpt>
      <trkpt lat="44.17053" lon="5.29194">
        <ele>1850</ele>
        <time>2011-10-01T14:09:51Z</time>
      </trkpt>
      <trkpt lat="44.17034" lon="5.2921">
        <ele>1846</ele>
        <time>2011-10-01T14:09:56Z</time>
      </trkpt>
      <trkpt lat="44.17016" lon="5.29223">
        <ele>1843.5</ele>
        <time>2011-10-01T14:10:01Z</time>
      </trkpt>
      <trkpt lat="44.17003" lon="5.29238">
        <ele>1840.5</ele>
        <time>2011-10-01T14:10:06Z</time>
      </trkpt>
      <trkpt lat="44.16993" lon="5.29254">
        <ele>1838.5</ele>
        <time>2011-10-01T14:10:11Z</time>
      </trkpt>
      <trkpt lat="44.16983" lon="5.29269">
        <ele>1837.5</ele>
        <time>2011-10-01T14:10:16Z</time>
      </trkpt>
      <trkpt lat="44.16973" lon="5.29282">
        <ele>1835</ele>
        <time>2011-10-01T14:10:21Z</time>
      </trkpt>
      <trkpt lat="44.16967" lon="5.293">
        <ele>1831</ele>
        <time>2011-10-01T14:10:26Z</time>
      </trkpt>
      <trkpt lat="44.16959" lon="5.29321">
        <ele>1830</ele>
        <time>2011-10-01T14:10:31Z</time>
      </trkpt>
      <trkpt lat="44.16956" lon="5.2934">
        <ele>1830</ele>
        <time>2011-10-01T14:10:36Z</time>
      </trkpt>
      <trkpt lat="44.16948" lon="5.29354">
        <ele>1829</ele>
        <time>2011-10-01T14:10:41Z</time>
      </trkpt>
      <trkpt lat="44.16942" lon="5.29369">
        <ele>1827</ele>
        <time>2011-10-01T14:10:46Z</time>
      </trkpt>
      <trkpt lat="44.16935" lon="5.29384">
        <ele>1825.5</ele>
        <time>2011-10-01T14:10:51Z</time>
      </trkpt>
      <trkpt lat="44.16929" lon="5.29399">
        <ele>1824</ele>
        <time>2011-10-01T14:10:56Z</time>
      </trkpt>
      <trkpt lat="44.16921" lon="5.29411">
        <ele>1821.5</ele>
        <time>2011-10-01T14:11:01Z</time>
      </trkpt>
      <trkpt lat="44.16918" lon="5.29421">
        <ele>1820.5</ele>
        <time>2011-10-01T14:11:06Z</time>
      </trkpt>
      <trkpt lat="44.16915" lon="5.29432">
        <ele>1819</ele>
        <time>2011-10-01T14:11:11Z</time>
      </trkpt>
      <trkpt lat="44.16913" lon="5.2944">
        <ele>1817.5</ele>
        <time>2011-10-01T14:11:16Z</time>
      </trkpt>
      <trkpt lat="44.16909" lon="5.29453">
        <ele>1817</ele>
        <time>2011-10-01T14:11:21Z</time>
      </trkpt>
      <trkpt lat="44.16905" lon="5.29465">
        <ele>1816</ele>
        <time>2011-10-01T14:11:26Z</time>
      </trkpt>
      <trkpt lat="44.16902" lon="5.29469">
        <ele>1814.5</ele>
        <time>2011-10-01T14:11:31Z</time>
      </trkpt>
      <trkpt lat="44.16901" lon="5.29471">
        <ele>1813</ele>
        <time>2011-10-01T14:11:36Z</time>
      </trkpt>
      <trkpt lat="44.169" lon="5.29476">
        <ele>1812.5</ele>
        <time>2011-10-01T14:11:41Z</time>
      </trkpt>
      <trkpt lat="44.16899" lon="5.29487">
        <ele>1812</ele>
        <time>2011-10-01T14:11:46Z</time>
      </trkpt>
      <trkpt lat="44.16895" lon="5.29499">
        <ele>1809.5</ele>
        <time>2011-10-01T14:11:51Z</time>
      </trkpt>
      <trkpt lat="44.16892" lon="5.29508">
        <ele>1808</ele>
        <time>2011-10-01T14:11:56Z</time>
      </trkpt>
      <trkpt lat="44.16891" lon="5.29512">
        <ele>1808</ele>
        <time>2011-10-01T14:12:01Z</time>
      </trkpt>
      <trkpt lat="44.16888" lon="5.29517">
        <ele>1806</ele>
        <time>2011-10-01T14:12:06Z</time>
      </trkpt>
      <trkpt lat="44.16882" lon="5.29526">
        <ele>1802.5</ele>
        <time>2011-10-01T14:12:11Z</time>
      </trkpt>
      <trkpt lat="44.16878" lon="5.29536">
        <ele>1801</ele>
        <time>2011-10-01T14:12:16Z</time>
      </trkpt>
      <trkpt lat="44.16873" lon="5.2955">
        <ele>1798.5</ele>
        <time>2011-10-01T14:12:21Z</time>
      </trkpt>
      <trkpt lat="44.16868" lon="5.29564">
        <ele>1797.5</ele>
        <time>2011-10-01T14:12:26Z</time>
      </trkpt>
      <trkpt lat="44.1686" lon="5.29583">
        <ele>1795</ele>
        <time>2011-10-01T14:12:31Z</time>
      </trkpt>
      <trkpt lat="44.16845" lon="5.29607">
        <ele>1792.5</ele>
        <time>2011-10-01T14:12:36Z</time>
      </trkpt>
      <trkpt lat="44.16824" lon="5.29638">
        <ele>1791</ele>
        <time>2011-10-01T14:12:41Z</time>
      </trkpt>
      <trkpt lat="44.16808" lon="5.29666">
        <ele>1790.5</ele>
        <time>2011-10-01T14:12:46Z</time>
      </trkpt>
      <trkpt lat="44.16797" lon="5.29682">
        <ele>1789.5</ele>
        <time>2011-10-01T14:12:51Z</time>
      </trkpt>
      <trkpt lat="44.16793" lon="5.29695">
        <ele>1789.5</ele>
        <time>2011-10-01T14:12:56Z</time>
      </trkpt>
      <trkpt lat="44.1679" lon="5.29707">
        <ele>1789.5</ele>
        <time>2011-10-01T14:13:01Z</time>
      </trkpt>
      <trkpt lat="44.16788" lon="5.2972">
        <ele>1791</ele>
        <time>2011-10-01T14:13:06Z</time>
      </trkpt>
      <trkpt lat="44.16785" lon="5.29734">
        <ele>1790</ele>
        <time>2011-10-01T14:13:11Z</time>
      </trkpt>
      <trkpt lat="44.1678" lon="5.29752">
        <ele>1790</ele>
        <time>2011-10-01T14:13:16Z</time>
      </trkpt>
      <trkpt lat="44.16777" lon="5.2977">
        <ele>1790.5</ele>
        <time>2011-10-01T14:13:21Z</time>
      </trkpt>
      <trkpt lat="44.16775" lon="5.29788">
        <ele>1791.5</ele>
        <time>2011-10-01T14:13:26Z</time>
      </trkpt>
      <trkpt lat="44.16772" lon="5.29805">
        <ele>1791.5</ele>
        <time>2011-10-01T14:13:31Z</time>
      </trkpt>
      <trkpt lat="44.16765" lon="5.29821">
        <ele>1790.5</ele>
        <time>2011-10-01T14:13:36Z</time>
      </trkpt>
      <trkpt lat="44.1676" lon="5.29832">
        <ele>1790.5</ele>
        <time>2011-10-01T14:13:41Z</time>
      </trkpt>
      <trkpt lat="44.16754" lon="5.29838">
        <ele>1790</ele>
        <time>2011-10-01T14:13:46Z</time>
      </trkpt>
      <trkpt lat="44.16751" lon="5.2984">
        <ele>1788</ele>
        <time>2011-10-01T14:13:51Z</time>
      </trkpt>
      <trkpt lat="44.16749" lon="5.29841">
        <ele>1787.5</ele>
        <time>2011-10-01T14:13:56Z</time>
      </trkpt>
      <trkpt lat="44.16739" lon="5.29847">
        <ele>1785</ele>
        <time>2011-10-01T14:14:01Z</time>
      </trkpt>
      <trkpt lat="44.16728" lon="5.29852">
        <ele>1781.5</ele>
        <time>2011-10-01T14:14:06Z</time>
      </trkpt>
      <trkpt lat="44.1672" lon="5.29868">
        <ele>1777.5</ele>
        <time>2011-10-01T14:14:11Z</time>
      </trkpt>
      <trkpt lat="44.16707" lon="5.29901">
        <ele>1775.5</ele>
        <time>2011-10-01T14:14:16Z</time>
      </trkpt>
      <trkpt lat="44.16689" lon="5.29937">
        <ele>1773.5</ele>
        <time>2011-10-01T14:14:21Z</time>
      </trkpt>
      <trkpt lat="44.16671" lon="5.29972">
        <ele>1772.5</ele>
        <time>2011-10-01T14:14:26Z</time>
      </trkpt>
      <trkpt lat="44.16654" lon="5.30008">
        <ele>1771.5</ele>
        <time>2011-10-01T14:14:31Z</time>
      </trkpt>
      <trkpt lat="44.16639" lon="5.30042">
        <ele>1770.5</ele>
        <time>2011-10-01T14:14:36Z</time>
      </trkpt>
      <trkpt lat="44.16623" lon="5.30081">
        <ele>1767</ele>
        <time>2011-10-01T14:14:41Z</time>
      </trkpt>
      <trkpt lat="44.16608" lon="5.30115">
        <ele>1764.5</ele>
        <time>2011-10-01T14:14:46Z</time>
      </trkpt>
      <trkpt lat="44.1659" lon="5.30153">
        <ele>1762</ele>
        <time>2011-10-01T14:14:51Z</time>
      </trkpt>
      <trkpt lat="44.16572" lon="5.30189">
        <ele>1760</ele>
        <time>2011-10-01T14:14:56Z</time>
      </trkpt>
      <trkpt lat="44.16555" lon="5.30223">
        <ele>1755.5</ele>
        <time>2011-10-01T14:15:01Z</time>
      </trkpt>
      <trkpt lat="44.16539" lon="5.30264">
        <ele>1753.5</ele>
        <time>2011-10-01T14:15:06Z</time>
      </trkpt>
      <trkpt lat="44.16525" lon="5.30312">
        <ele>1752</ele>
        <time>2011-10-01T14:15:11Z</time>
      </trkpt>
      <trkpt lat="44.16514" lon="5.30356">
        <ele>1750.5</ele>
        <time>2011-10-01T14:15:16Z</time>
      </trkpt>
      <trkpt lat="44.16492" lon="5.30386">
        <ele>1748</ele>
        <time>2011-10-01T14:15:21Z</time>
      </trkpt>
      <trkpt lat="44.16472" lon="5.30415">
        <ele>1746</ele>
        <time>2011-10-01T14:15:26Z</time>
      </trkpt>
      <trkpt lat="44.16463" lon="5.30424">
        <ele>1743.5</ele>
        <time>2011-10-01T14:15:31Z</time>
      </trkpt>
      <trkpt lat="44.1646" lon="5.30429">
        <ele>1742.5</ele>
        <time>2011-10-01T14:15:36Z</time>
      </trkpt>
      <trkpt lat="44.16448" lon="5.30448">
        <ele>1741.5</ele>
        <time>2011-10-01T14:15:41Z</time>
      </trkpt>
      <trkpt lat="44.16431" lon="5.30475">
        <ele>1741</ele>
        <time>2011-10-01T14:15:46Z</time>
      </trkpt>
      <trkpt lat="44.16414" lon="5.30507">
        <ele>1740</ele>
        <time>2011-10-01T14:15:51Z</time>
      </trkpt>
      <trkpt lat="44.16395" lon="5.30542">
        <ele>1738.5</ele>
        <time>2011-10-01T14:15:56Z</time>
      </trkpt>
      <trkpt lat="44.16377" lon="5.30577">
        <ele>1736.5</ele>
        <time>2011-10-01T14:16:01Z</time>
      </trkpt>
      <trkpt lat="44.16364" lon="5.30613">
        <ele>1736.5</ele>
        <time>2011-10-01T14:16:06Z</time>
      </trkpt>
      <trkpt lat="44.16352" lon="5.30649">
        <ele>1734.5</ele>
        <time>2011-10-01T14:16:11Z</time>
      </trkpt>
      <trkpt lat="44.16341" lon="5.30688">
        <ele>1732</ele>
        <time>2011-10-01T14:16:16Z</time>
      </trkpt>
      <trkpt lat="44.16333" lon="5.30713">
        <ele>1730</ele>
        <time>2011-10-01T14:16:21Z</time>
      </trkpt>
      <trkpt lat="44.16333" lon="5.30714">
        <ele>1730</ele>
        <time>2011-10-01T14:16:26Z</time>
      </trkpt>
      <trkpt lat="44.16332" lon="5.30714">
        <ele>1730</ele>
        <time>2011-10-01T14:16:31Z</time>
      </trkpt>
      <trkpt lat="44.16329" lon="5.30738">
        <ele>1725.5</ele>
        <time>2011-10-01T14:16:36Z</time>
      </trkpt>
      <trkpt lat="44.16324" lon="5.30768">
        <ele>1721</ele>
        <time>2011-10-01T14:16:41Z</time>
      </trkpt>
      <trkpt lat="44.16319" lon="5.30804">
        <ele>1718</ele>
        <time>2011-10-01T14:16:46Z</time>
      </trkpt>
      <trkpt lat="44.16315" lon="5.30826">
        <ele>1714.5</ele>
        <time>2011-10-01T14:16:51Z</time>
      </trkpt>
      <trkpt lat="44.1631" lon="5.30846">
        <ele>1710.5</ele>
        <time>2011-10-01T14:16:56Z</time>
      </trkpt>
      <trkpt lat="44.16305" lon="5.30875">
        <ele>1706</ele>
        <time>2011-10-01T14:17:01Z</time>
      </trkpt>
      <trkpt lat="44.16298" lon="5.30906">
        <ele>1703.5</ele>
        <time>2011-10-01T14:17:06Z</time>
      </trkpt>
      <trkpt lat="44.16288" lon="5.30937">
        <ele>1702.5</ele>
        <time>2011-10-01T14:17:11Z</time>
      </trkpt>
      <trkpt lat="44.16276" lon="5.30977">
        <ele>1700</ele>
        <time>2011-10-01T14:17:16Z</time>
      </trkpt>
      <trkpt lat="44.16261" lon="5.3102">
        <ele>1698.5</ele>
        <time>2011-10-01T14:17:21Z</time>
      </trkpt>
      <trkpt lat="44.16248" lon="5.31055">
        <ele>1697</ele>
        <time>2011-10-01T14:17:26Z</time>
      </trkpt>
      <trkpt lat="44.16242" lon="5.31076">
        <ele>1696.5</ele>
        <time>2011-10-01T14:17:31Z</time>
      </trkpt>
      <trkpt lat="44.16233" lon="5.31096">
        <ele>1694.5</ele>
        <time>2011-10-01T14:17:36Z</time>
      </trkpt>
      <trkpt lat="44.16223" lon="5.31129">
        <ele>1693</ele>
        <time>2011-10-01T14:17:41Z</time>
      </trkpt>
      <trkpt lat="44.1621" lon="5.31162">
        <ele>1692.5</ele>
        <time>2011-10-01T14:17:46Z</time>
      </trkpt>
      <trkpt lat="44.16205" lon="5.31202">
        <ele>1691</ele>
        <time>2011-10-01T14:17:51Z</time>
      </trkpt>
      <trkpt lat="44.16211" lon="5.31236">
        <ele>1691</ele>
        <time>2011-10-01T14:17:56Z</time>
      </trkpt>
      <trkpt lat="44.16215" lon="5.31271">
        <ele>1690.5</ele>
        <time>2011-10-01T14:18:01Z</time>
      </trkpt>
      <trkpt lat="44.16219" lon="5.31303">
        <ele>1691.5</ele>
        <time>2011-10-01T14:18:06Z</time>
      </trkpt>
      <trkpt lat="44.16222" lon="5.31334">
        <ele>1692</ele>
        <time>2011-10-01T14:18:11Z</time>
      </trkpt>
      <trkpt lat="44.16224" lon="5.3136">
        <ele>1691.5</ele>
        <time>2011-10-01T14:18:16Z</time>
      </trkpt>
      <trkpt lat="44.16226" lon="5.31378">
        <ele>1692</ele>
        <time>2011-10-01T14:18:21Z</time>
      </trkpt>
      <trkpt lat="44.16229" lon="5.31393">
        <ele>1692.5</ele>
        <time>2011-10-01T14:18:26Z</time>
      </trkpt>
      <trkpt lat="44.16231" lon="5.31412">
        <ele>1692</ele>
        <time>2011-10-01T14:18:31Z</time>
      </trkpt>
      <trkpt lat="44.16233" lon="5.31433">
        <ele>1692</ele>
        <time>2011-10-01T14:18:36Z</time>
      </trkpt>
      <trkpt lat="44.16234" lon="5.31446">
        <ele>1690.5</ele>
        <time>2011-10-01T14:18:41Z</time>
      </trkpt>
      <trkpt lat="44.16237" lon="5.31472">
        <ele>1687.5</ele>
        <time>2011-10-01T14:18:46Z</time>
      </trkpt>
      <trkpt lat="44.1623" lon="5.31503">
        <ele>1686.5</ele>
        <time>2011-10-01T14:18:51Z</time>
      </trkpt>
      <trkpt lat="44.16219" lon="5.31522">
        <ele>1683.5</ele>
        <time>2011-10-01T14:18:56Z</time>
      </trkpt>
      <trkpt lat="44.16205" lon="5.31547">
        <ele>1681.5</ele>
        <time>2011-10-01T14:19:01Z</time>
      </trkpt>
      <trkpt lat="44.16186" lon="5.3158">
        <ele>1678.5</ele>
        <time>2011-10-01T14:19:06Z</time>
      </trkpt>
      <trkpt lat="44.16164" lon="5.31621">
        <ele>1677.5</ele>
        <time>2011-10-01T14:19:11Z</time>
      </trkpt>
      <trkpt lat="44.1614" lon="5.31666">
        <ele>1678</ele>
        <time>2011-10-01T14:19:16Z</time>
      </trkpt>
      <trkpt lat="44.16119" lon="5.31702">
        <ele>1677</ele>
        <time>2011-10-01T14:19:21Z</time>
      </trkpt>
      <trkpt lat="44.16101" lon="5.31735">
        <ele>1676.5</ele>
        <time>2011-10-01T14:19:26Z</time>
      </trkpt>
      <trkpt lat="44.16095" lon="5.31759">
        <ele>1676.5</ele>
        <time>2011-10-01T14:19:31Z</time>
      </trkpt>
      <trkpt lat="44.16089" lon="5.31779">
        <ele>1677</ele>
        <time>2011-10-01T14:19:36Z</time>
      </trkpt>
      <trkpt lat="44.16083" lon="5.31801">
        <ele>1677</ele>
        <time>2011-10-01T14:19:41Z</time>
      </trkpt>
      <trkpt lat="44.16079" lon="5.31822">
        <ele>1676.5</ele>
        <time>2011-10-01T14:19:46Z</time>
      </trkpt>
      <trkpt lat="44.16073" lon="5.31841">
        <ele>1677</ele>
        <time>2011-10-01T14:19:51Z</time>
      </trkpt>
      <trkpt lat="44.16069" lon="5.31858">
        <ele>1678</ele>
        <time>2011-10-01T14:19:56Z</time>
      </trkpt>
      <trkpt lat="44.16062" lon="5.3187">
        <ele>1676.5</ele>
        <time>2011-10-01T14:20:01Z</time>
      </trkpt>
      <trkpt lat="44.16048" lon="5.31873">
        <ele>1672</ele>
        <time>2011-10-01T14:20:06Z</time>
      </trkpt>
      <trkpt lat="44.16037" lon="5.31882">
        <ele>1669</ele>
        <time>2011-10-01T14:20:11Z</time>
      </trkpt>
      <trkpt lat="44.1602" lon="5.31894">
        <ele>1666</ele>
        <time>2011-10-01T14:20:16Z</time>
      </trkpt>
      <trkpt lat="44.1601" lon="5.31902">
        <ele>1665</ele>
        <time>2011-10-01T14:20:21Z</time>
      </trkpt>
      <trkpt lat="44.16004" lon="5.31914">
        <ele>1663.5</ele>
        <time>2011-10-01T14:20:26Z</time>
      </trkpt>
      <trkpt lat="44.16004" lon="5.31913">
        <ele>1666.5</ele>
        <time>2011-10-01T14:20:31Z</time>
      </trkpt>
      <trkpt lat="44.16005" lon="5.31913">
        <ele>1667</ele>
        <time>2011-10-01T14:20:36Z</time>
      </trkpt>
      <trkpt lat="44.16005" lon="5.31912">
        <ele>1666.5</ele>
        <time>2011-10-01T14:20:41Z</time>
      </trkpt>
      <trkpt lat="44.16004" lon="5.31914">
        <ele>1666</ele>
        <time>2011-10-01T14:20:46Z</time>
      </trkpt>
      <trkpt lat="44.16003" lon="5.31919">
        <ele>1667</ele>
        <time>2011-10-01T14:20:51Z</time>
      </trkpt>
      <trkpt lat="44.16002" lon="5.31918">
        <ele>1667.5</ele>
        <time>2011-10-01T14:20:56Z</time>
      </trkpt>
      <trkpt lat="44.16003" lon="5.31919">
        <ele>1667.5</ele>
        <time>2011-10-01T14:21:01Z</time>
      </trkpt>
      <trkpt lat="44.16005" lon="5.31942">
        <ele>1668</ele>
        <time>2011-10-01T14:21:06Z</time>
      </trkpt>
      <trkpt lat="44.16006" lon="5.31977">
        <ele>1669</ele>
        <time>2011-10-01T14:21:11Z</time>
      </trkpt>
      <trkpt lat="44.16008" lon="5.32009">
        <ele>1669</ele>
        <time>2011-10-01T14:21:16Z</time>
      </trkpt>
      <trkpt lat="44.16004" lon="5.32038">
        <ele>1669</ele>
        <time>2011-10-01T14:21:21Z</time>
      </trkpt>
      <trkpt lat="44.15995" lon="5.32061">
        <ele>1670</ele>
        <time>2011-10-01T14:21:26Z</time>
      </trkpt>
      <trkpt lat="44.15978" lon="5.32074">
        <ele>1666.5</ele>
        <time>2011-10-01T14:21:31Z</time>
      </trkpt>
      <trkpt lat="44.15965" lon="5.321">
        <ele>1664.5</ele>
        <time>2011-10-01T14:21:36Z</time>
      </trkpt>
      <trkpt lat="44.15957" lon="5.32123">
        <ele>1663</ele>
        <time>2011-10-01T14:21:41Z</time>
      </trkpt>
      <trkpt lat="44.15954" lon="5.32138">
        <ele>1662</ele>
        <time>2011-10-01T14:21:46Z</time>
      </trkpt>
      <trkpt lat="44.15945" lon="5.32145">
        <ele>1661</ele>
        <time>2011-10-01T14:21:51Z</time>
      </trkpt>
      <trkpt lat="44.15935" lon="5.32137">
        <ele>1659</ele>
        <time>2011-10-01T14:21:56Z</time>
      </trkpt>
      <trkpt lat="44.1593" lon="5.32155">
        <ele>1658.5</ele>
        <time>2011-10-01T14:22:01Z</time>
      </trkpt>
      <trkpt lat="44.15921" lon="5.3216">
        <ele>1656.5</ele>
        <time>2011-10-01T14:22:06Z</time>
      </trkpt>
      <trkpt lat="44.15913" lon="5.32146">
        <ele>1654</ele>
        <time>2011-10-01T14:22:11Z</time>
      </trkpt>
      <trkpt lat="44.15897" lon="5.32129">
        <ele>1653.5</ele>
        <time>2011-10-01T14:22:16Z</time>
      </trkpt>
      <trkpt lat="44.15883" lon="5.32107">
        <ele>1651</ele>
        <time>2011-10-01T14:22:21Z</time>
      </trkpt>
      <trkpt lat="44.15872" lon="5.32094">
        <ele>1649</ele>
        <time>2011-10-01T14:22:26Z</time>
      </trkpt>
      <trkpt lat="44.15858" lon="5.32092">
        <ele>1645.5</ele>
        <time>2011-10-01T14:22:31Z</time>
      </trkpt>
      <trkpt lat="44.1585" lon="5.32112">
        <ele>1643.5</ele>
        <time>2011-10-01T14:22:36Z</time>
      </trkpt>
      <trkpt lat="44.15841" lon="5.32127">
        <ele>1641.5</ele>
        <time>2011-10-01T14:22:41Z</time>
      </trkpt>
      <trkpt lat="44.15837" lon="5.32118">
        <ele>1641</ele>
        <time>2011-10-01T14:22:46Z</time>
      </trkpt>
      <trkpt lat="44.15829" lon="5.32114">
        <ele>1638.5</ele>
        <time>2011-10-01T14:22:51Z</time>
      </trkpt>
      <trkpt lat="44.1582" lon="5.32128">
        <ele>1637</ele>
        <time>2011-10-01T14:22:56Z</time>
      </trkpt>
      <trkpt lat="44.15819" lon="5.32144">
        <ele>1636</ele>
        <time>2011-10-01T14:23:01Z</time>
      </trkpt>
      <trkpt lat="44.15806" lon="5.32148">
        <ele>1635</ele>
        <time>2011-10-01T14:23:06Z</time>
      </trkpt>
      <trkpt lat="44.15785" lon="5.32143">
        <ele>1632.5</ele>
        <time>2011-10-01T14:23:11Z</time>
      </trkpt>
      <trkpt lat="44.15773" lon="5.32119">
        <ele>1629.5</ele>
        <time>2011-10-01T14:23:16Z</time>
      </trkpt>
      <trkpt lat="44.15772" lon="5.32132">
        <ele>1625</ele>
        <time>2011-10-01T14:23:21Z</time>
      </trkpt>
      <trkpt lat="44.15776" lon="5.32152">
        <ele>1623</ele>
        <time>2011-10-01T14:23:26Z</time>
      </trkpt>
      <trkpt lat="44.15773" lon="5.32168">
        <ele>1620</ele>
        <time>2011-10-01T14:23:31Z</time>
      </trkpt>
      <trkpt lat="44.15753" lon="5.32165">
        <ele>1617</ele>
        <time>2011-10-01T14:23:36Z</time>
      </trkpt>
      <trkpt lat="44.15723" lon="5.32152">
        <ele>1613.5</ele>
        <time>2011-10-01T14:23:41Z</time>
      </trkpt>
      <trkpt lat="44.15708" lon="5.32146">
        <ele>1609.5</ele>
        <time>2011-10-01T14:23:46Z</time>
      </trkpt>
      <trkpt lat="44.15697" lon="5.32149">
        <ele>1610</ele>
        <time>2011-10-01T14:23:51Z</time>
      </trkpt>
      <trkpt lat="44.15691" lon="5.32151">
        <ele>1608</ele>
        <time>2011-10-01T14:23:56Z</time>
      </trkpt>
      <trkpt lat="44.15697" lon="5.32161">
        <ele>1605.5</ele>
        <time>2011-10-01T14:24:01Z</time>
      </trkpt>
      <trkpt lat="44.15684" lon="5.32165">
        <ele>1603.5</ele>
        <time>2011-10-01T14:24:06Z</time>
      </trkpt>
      <trkpt lat="44.15673" lon="5.32173">
        <ele>1600.5</ele>
        <time>2011-10-01T14:24:11Z</time>
      </trkpt>
      <trkpt lat="44.15657" lon="5.32174">
        <ele>1597.5</ele>
        <time>2011-10-01T14:24:16Z</time>
      </trkpt>
      <trkpt lat="44.15641" lon="5.3219">
        <ele>1597</ele>
        <time>2011-10-01T14:24:21Z</time>
      </trkpt>
      <trkpt lat="44.15631" lon="5.32173">
        <ele>1597</ele>
        <time>2011-10-01T14:24:26Z</time>
      </trkpt>
      <trkpt lat="44.15628" lon="5.32177">
        <ele>1595</ele>
        <time>2011-10-01T14:24:31Z</time>
      </trkpt>
      <trkpt lat="44.15626" lon="5.32184">
        <ele>1590.5</ele>
        <time>2011-10-01T14:24:36Z</time>
      </trkpt>
      <trkpt lat="44.15631" lon="5.32196">
        <ele>1590.5</ele>
        <time>2011-10-01T14:24:41Z</time>
      </trkpt>
      <trkpt lat="44.15624" lon="5.32204">
        <ele>1588</ele>
        <time>2011-10-01T14:24:46Z</time>
      </trkpt>
      <trkpt lat="44.15604" lon="5.32201">
        <ele>1586.5</ele>
        <time>2011-10-01T14:24:51Z</time>
      </trkpt>
      <trkpt lat="44.15583" lon="5.32192">
        <ele>1583.5</ele>
        <time>2011-10-01T14:24:56Z</time>
      </trkpt>
      <trkpt lat="44.15564" lon="5.32174">
        <ele>1580.5</ele>
        <time>2011-10-01T14:25:01Z</time>
      </trkpt>
      <trkpt lat="44.15554" lon="5.32143">
        <ele>1579</ele>
        <time>2011-10-01T14:25:06Z</time>
      </trkpt>
      <trkpt lat="44.15548" lon="5.3211">
        <ele>1577</ele>
        <time>2011-10-01T14:25:11Z</time>
      </trkpt>
      <trkpt lat="44.15542" lon="5.32094">
        <ele>1575.5</ele>
        <time>2011-10-01T14:25:16Z</time>
      </trkpt>
      <trkpt lat="44.15529" lon="5.32086">
        <ele>1569.5</ele>
        <time>2011-10-01T14:25:21Z</time>
      </trkpt>
      <trkpt lat="44.15526" lon="5.32059">
        <ele>1564.5</ele>
        <time>2011-10-01T14:25:26Z</time>
      </trkpt>
      <trkpt lat="44.15523" lon="5.32041">
        <ele>1561.5</ele>
        <time>2011-10-01T14:25:31Z</time>
      </trkpt>
      <trkpt lat="44.15513" lon="5.32056">
        <ele>1559</ele>
        <time>2011-10-01T14:25:36Z</time>
      </trkpt>
      <trkpt lat="44.15506" lon="5.32055">
        <ele>1558.5</ele>
        <time>2011-10-01T14:25:41Z</time>
      </trkpt>
      <trkpt lat="44.15506" lon="5.32035">
        <ele>1557.5</ele>
        <time>2011-10-01T14:25:46Z</time>
      </trkpt>
      <trkpt lat="44.15498" lon="5.32043">
        <ele>1556</ele>
        <time>2011-10-01T14:25:51Z</time>
      </trkpt>
      <trkpt lat="44.15491" lon="5.32045">
        <ele>1554</ele>
        <time>2011-10-01T14:25:56Z</time>
      </trkpt>
      <trkpt lat="44.15494" lon="5.32017">
        <ele>1551</ele>
        <time>2011-10-01T14:26:01Z</time>
      </trkpt>
      <trkpt lat="44.15494" lon="5.31993">
        <ele>1548</ele>
        <time>2011-10-01T14:26:06Z</time>
      </trkpt>
      <trkpt lat="44.15493" lon="5.31974">
        <ele>1546</ele>
        <time>2011-10-01T14:26:11Z</time>
      </trkpt>
      <trkpt lat="44.15484" lon="5.31949">
        <ele>1545</ele>
        <time>2011-10-01T14:26:16Z</time>
      </trkpt>
      <trkpt lat="44.15462" lon="5.31927">
        <ele>1544</ele>
        <time>2011-10-01T14:26:21Z</time>
      </trkpt>
      <trkpt lat="44.15439" lon="5.31905">
        <ele>1542.5</ele>
        <time>2011-10-01T14:26:26Z</time>
      </trkpt>
      <trkpt lat="44.15426" lon="5.31877">
        <ele>1541.5</ele>
        <time>2011-10-01T14:26:31Z</time>
      </trkpt>
      <trkpt lat="44.15415" lon="5.31847">
        <ele>1541.5</ele>
        <time>2011-10-01T14:26:36Z</time>
      </trkpt>
      <trkpt lat="44.15397" lon="5.31824">
        <ele>1540</ele>
        <time>2011-10-01T14:26:41Z</time>
      </trkpt>
      <trkpt lat="44.15384" lon="5.31806">
        <ele>1539.5</ele>
        <time>2011-10-01T14:26:46Z</time>
      </trkpt>
      <trkpt lat="44.15365" lon="5.31792">
        <ele>1536.5</ele>
        <time>2011-10-01T14:26:51Z</time>
      </trkpt>
      <trkpt lat="44.15345" lon="5.31766">
        <ele>1534</ele>
        <time>2011-10-01T14:26:56Z</time>
      </trkpt>
      <trkpt lat="44.15323" lon="5.31747">
        <ele>1530.5</ele>
        <time>2011-10-01T14:27:01Z</time>
      </trkpt>
      <trkpt lat="44.15299" lon="5.31712">
        <ele>1527</ele>
        <time>2011-10-01T14:27:06Z</time>
      </trkpt>
      <trkpt lat="44.15273" lon="5.31674">
        <ele>1524</ele>
        <time>2011-10-01T14:27:11Z</time>
      </trkpt>
      <trkpt lat="44.15243" lon="5.31634">
        <ele>1522</ele>
        <time>2011-10-01T14:27:16Z</time>
      </trkpt>
      <trkpt lat="44.15215" lon="5.31596">
        <ele>1519.5</ele>
        <time>2011-10-01T14:27:21Z</time>
      </trkpt>
      <trkpt lat="44.15201" lon="5.31569">
        <ele>1516</ele>
        <time>2011-10-01T14:27:26Z</time>
      </trkpt>
      <trkpt lat="44.15193" lon="5.31552">
        <ele>1512</ele>
        <time>2011-10-01T14:27:31Z</time>
      </trkpt>
      <trkpt lat="44.15195" lon="5.31545">
        <ele>1509</ele>
        <time>2011-10-01T14:27:36Z</time>
      </trkpt>
      <trkpt lat="44.15194" lon="5.31548">
        <ele>1509.5</ele>
        <time>2011-10-01T14:27:41Z</time>
      </trkpt>
      <trkpt lat="44.15195" lon="5.3155">
        <ele>1509.5</ele>
        <time>2011-10-01T14:27:46Z</time>
      </trkpt>
      <trkpt lat="44.15196" lon="5.3155">
        <ele>1509.5</ele>
        <time>2011-10-01T14:27:51Z</time>
      </trkpt>
      <trkpt lat="44.15196" lon="5.3155">
        <ele>1509</ele>
        <time>2011-10-01T14:27:56Z</time>
      </trkpt>
      <trkpt lat="44.15197" lon="5.31553">
        <ele>1510</ele>
        <time>2011-10-01T14:28:01Z</time>
      </trkpt>
      <trkpt lat="44.15195" lon="5.31549">
        <ele>1509.5</ele>
        <time>2011-10-01T14:28:06Z</time>
      </trkpt>
      <trkpt lat="44.15198" lon="5.31526">
        <ele>1510.5</ele>
        <time>2011-10-01T14:28:11Z</time>
      </trkpt>
      <trkpt lat="44.15181" lon="5.31515">
        <ele>1507</ele>
        <time>2011-10-01T14:28:16Z</time>
      </trkpt>
      <trkpt lat="44.15157" lon="5.31518">
        <ele>1504</ele>
        <time>2011-10-01T14:28:21Z</time>
      </trkpt>
      <trkpt lat="44.15137" lon="5.31521">
        <ele>1502.5</ele>
        <time>2011-10-01T14:28:26Z</time>
      </trkpt>
      <trkpt lat="44.15125" lon="5.3152">
        <ele>1501</ele>
        <time>2011-10-01T14:28:31Z</time>
      </trkpt>
      <trkpt lat="44.15123" lon="5.3154">
        <ele>1498.5</ele>
        <time>2011-10-01T14:28:36Z</time>
      </trkpt>
      <trkpt lat="44.15135" lon="5.31579">
        <ele>1497</ele>
        <time>2011-10-01T14:28:41Z</time>
      </trkpt>
      <trkpt lat="44.15151" lon="5.31627">
        <ele>1496.5</ele>
        <time>2011-10-01T14:28:46Z</time>
      </trkpt>
      <trkpt lat="44.15171" lon="5.31681">
        <ele>1495.5</ele>
        <time>2011-10-01T14:28:51Z</time>
      </trkpt>
      <trkpt lat="44.15192" lon="5.31738">
        <ele>1495</ele>
        <time>2011-10-01T14:28:56Z</time>
      </trkpt>
      <trkpt lat="44.15211" lon="5.31796">
        <ele>1494</ele>
        <time>2011-10-01T14:29:01Z</time>
      </trkpt>
      <trkpt lat="44.15225" lon="5.31839">
        <ele>1494.5</ele>
        <time>2011-10-01T14:29:06Z</time>
      </trkpt>
      <trkpt lat="44.1523" lon="5.31865">
        <ele>1494</ele>
        <time>2011-10-01T14:29:11Z</time>
      </trkpt>
      <trkpt lat="44.15233" lon="5.31872">
        <ele>1494</ele>
        <time>2011-10-01T14:29:16Z</time>
      </trkpt>
      <trkpt lat="44.15226" lon="5.31874">
        <ele>1494</ele>
        <time>2011-10-01T14:29:21Z</time>
      </trkpt>
      <trkpt lat="44.15216" lon="5.31888">
        <ele>1492</ele>
        <time>2011-10-01T14:29:26Z</time>
      </trkpt>
      <trkpt lat="44.15221" lon="5.31907">
        <ele>1489.5</ele>
        <time>2011-10-01T14:29:31Z</time>
      </trkpt>
      <trkpt lat="44.15222" lon="5.3191">
        <ele>1487.5</ele>
        <time>2011-10-01T14:29:36Z</time>
      </trkpt>
      <trkpt lat="44.15223" lon="5.31909">
        <ele>1485.5</ele>
        <time>2011-10-01T14:29:41Z</time>
      </trkpt>
      <trkpt lat="44.15224" lon="5.31908">
        <ele>1485.5</ele>
        <time>2011-10-01T14:29:46Z</time>
      </trkpt>
      <trkpt lat="44.15224" lon="5.31909">
        <ele>1485</ele>
        <time>2011-10-01T14:29:51Z</time>
      </trkpt>
      <trkpt lat="44.15222" lon="5.31909">
        <ele>1483.5</ele>
        <time>2011-10-01T14:29:56Z</time>
      </trkpt>
      <trkpt lat="44.15223" lon="5.31909">
        <ele>1482.5</ele>
        <time>2011-10-01T14:30:01Z</time>
      </trkpt>
      <trkpt lat="44.15223" lon="5.31908">
        <ele>1482.5</ele>
        <time>2011-10-01T14:30:06Z</time>
      </trkpt>
      <trkpt lat="44.15223" lon="5.31908">
        <ele>1482</ele>
        <time>2011-10-01T14:30:11Z</time>
      </trkpt>
      <trkpt lat="44.15223" lon="5.31907">
        <ele>1482</ele>
        <time>2011-10-01T14:30:16Z</time>
      </trkpt>
      <trkpt lat="44.15222" lon="5.31907">
        <ele>1481.5</ele>
        <time>2011-10-01T14:30:21Z</time>
      </trkpt>
      <trkpt lat="44.15222" lon="5.31907">
        <ele>1481.5</ele>
        <time>2011-10-01T14:30:26Z</time>
      </trkpt>
      <trkpt lat="44.15222" lon="5.31906">
        <ele>1481</ele>
        <time>2011-10-01T14:30:31Z</time>
      </trkpt>
      <trkpt lat="44.15222" lon="5.31906">
        <ele>1481</ele>
        <time>2011-10-01T14:30:36Z</time>
      </trkpt>
      <trkpt lat="44.15221" lon="5.31907">
        <ele>1480</ele>
        <time>2011-10-01T14:30:41Z</time>
      </trkpt>
      <trkpt lat="44.1522" lon="5.31906">
        <ele>1479.5</ele>
        <time>2011-10-01T14:30:46Z</time>
      </trkpt>
      <trkpt lat="44.1522" lon="5.31905">
        <ele>1479.5</ele>
        <time>2011-10-01T14:30:51Z</time>
      </trkpt>
      <trkpt lat="44.1522" lon="5.31905">
        <ele>1479.5</ele>
        <time>2011-10-01T14:30:56Z</time>
      </trkpt>
      <trkpt lat="44.1522" lon="5.31903">
        <ele>1480.5</ele>
        <time>2011-10-01T14:31:01Z</time>
      </trkpt>
      <trkpt lat="44.1522" lon="5.31901">
        <ele>1482.5</ele>
        <time>2011-10-01T14:31:06Z</time>
      </trkpt>
      <trkpt lat="44.1522" lon="5.31901">
        <ele>1484</ele>
        <time>2011-10-01T14:31:11Z</time>
      </trkpt>
      <trkpt lat="44.15221" lon="5.319">
        <ele>1485</ele>
        <time>2011-10-01T14:31:16Z</time>
      </trkpt>
      <trkpt lat="44.15222" lon="5.31899">
        <ele>1486</ele>
        <time>2011-10-01T14:31:21Z</time>
      </trkpt>
      <trkpt lat="44.15223" lon="5.319">
        <ele>1486</ele>
        <time>2011-10-01T14:31:26Z</time>
      </trkpt>
      <trkpt lat="44.15223" lon="5.319">
        <ele>1485.5</ele>
        <time>2011-10-01T14:31:31Z</time>
      </trkpt>
      <trkpt lat="44.15223" lon="5.31901">
        <ele>1482.5</ele>
        <time>2011-10-01T14:31:36Z</time>
      </trkpt>
      <trkpt lat="44.15223" lon="5.319">
        <ele>1482.5</ele>
        <time>2011-10-01T14:31:41Z</time>
      </trkpt>
      <trkpt lat="44.15223" lon="5.31903">
        <ele>1482.5</ele>
        <time>2011-10-01T14:31:46Z</time>
      </trkpt>
      <trkpt lat="44.15222" lon="5.31903">
        <ele>1480</ele>
        <time>2011-10-01T14:31:51Z</time>
      </trkpt>
      <trkpt lat="44.15221" lon="5.31902">
        <ele>1479</ele>
        <time>2011-10-01T14:31:56Z</time>
      </trkpt>
      <trkpt lat="44.15221" lon="5.31903">
        <ele>1478.5</ele>
        <time>2011-10-01T14:32:01Z</time>
      </trkpt>
      <trkpt lat="44.15221" lon="5.31903">
        <ele>1478.5</ele>
        <time>2011-10-01T14:32:06Z</time>
      </trkpt>
      <trkpt lat="44.15221" lon="5.31898">
        <ele>1480.5</ele>
        <time>2011-10-01T14:32:11Z</time>
      </trkpt>
      <trkpt lat="44.15222" lon="5.31899">
        <ele>1479.5</ele>
        <time>2011-10-01T14:32:16Z</time>
      </trkpt>
      <trkpt lat="44.15224" lon="5.319">
        <ele>1478.5</ele>
        <time>2011-10-01T14:32:21Z</time>
      </trkpt>
      <trkpt lat="44.15224" lon="5.31901">
        <ele>1477.5</ele>
        <time>2011-10-01T14:32:26Z</time>
      </trkpt>
      <trkpt lat="44.15224" lon="5.31902">
        <ele>1477</ele>
        <time>2011-10-01T14:32:31Z</time>
      </trkpt>
      <trkpt lat="44.15224" lon="5.31902">
        <ele>1477</ele>
        <time>2011-10-01T14:32:36Z</time>
      </trkpt>
      <trkpt lat="44.15225" lon="5.319">
        <ele>1477</ele>
        <time>2011-10-01T14:32:41Z</time>
      </trkpt>
      <trkpt lat="44.15226" lon="5.31899">
        <ele>1476.5</ele>
        <time>2011-10-01T14:32:46Z</time>
      </trkpt>
      <trkpt lat="44.15227" lon="5.31899">
        <ele>1476.5</ele>
        <time>2011-10-01T14:32:51Z</time>
      </trkpt>
      <trkpt lat="44.15227" lon="5.31899">
        <ele>1476.5</ele>
        <time>2011-10-01T14:32:56Z</time>
      </trkpt>
      <trkpt lat="44.15227" lon="5.31899">
        <ele>1476.5</ele>
        <time>2011-10-01T14:33:01Z</time>
      </trkpt>
      <trkpt lat="44.15227" lon="5.31899">
        <ele>1476.5</ele>
        <time>2011-10-01T14:33:31Z</time>
      </trkpt>
      <trkpt lat="44.15227" lon="5.31899">
        <ele>1476.5</ele>
        <time>2011-10-01T14:34:16Z</time>
      </trkpt>
      <trkpt lat="44.15227" lon="5.31899">
        <ele>1476.5</ele>
        <time>2011-10-01T14:34:36Z</time>
      </trkpt>
      <trkpt lat="44.15227" lon="5.31899">
        <ele>1476.5</ele>
        <time>2011-10-01T14:35:31Z</time>
      </trkpt>
      <trkpt lat="44.15227" lon="5.31899">
        <ele>1476</ele>
        <time>2011-10-01T14:35:36Z</time>
      </trkpt>
      <trkpt lat="44.15227" lon="5.31899">
        <ele>1476.5</ele>
        <time>2011-10-01T14:35:41Z</time>
      </trkpt>
      <trkpt lat="44.15224" lon="5.31905">
        <ele>1479</ele>
        <time>2011-10-01T14:35:46Z</time>
      </trkpt>
      <trkpt lat="44.15224" lon="5.31904">
        <ele>1480.5</ele>
        <time>2011-10-01T14:35:51Z</time>
      </trkpt>
      <trkpt lat="44.15224" lon="5.31903">
        <ele>1480.5</ele>
        <time>2011-10-01T14:35:56Z</time>
      </trkpt>
      <trkpt lat="44.15224" lon="5.31903">
        <ele>1480.5</ele>
        <time>2011-10-01T14:36:01Z</time>
      </trkpt>
      <trkpt lat="44.15224" lon="5.31903">
        <ele>1480.5</ele>
        <time>2011-10-01T14:36:06Z</time>
      </trkpt>
      <trkpt lat="44.15224" lon="5.31903">
        <ele>1480.5</ele>
        <time>2011-10-01T14:36:11Z</time>
      </trkpt>
      <trkpt lat="44.15224" lon="5.31903">
        <ele>1480.5</ele>
        <time>2011-10-01T14:36:16Z</time>
      </trkpt>
      <trkpt lat="44.15224" lon="5.31903">
        <ele>1480.5</ele>
        <time>2011-10-01T14:36:21Z</time>
      </trkpt>
      <trkpt lat="44.15224" lon="5.31903">
        <ele>1480.5</ele>
        <time>2011-10-01T14:36:26Z</time>
      </trkpt>
      <trkpt lat="44.15224" lon="5.31903">
        <ele>1480.5</ele>
        <time>2011-10-01T14:36:31Z</time>
      </trkpt>
      <trkpt lat="44.15224" lon="5.31903">
        <ele>1479.5</ele>
        <time>2011-10-01T14:36:36Z</time>
      </trkpt>
      <trkpt lat="44.15224" lon="5.31903">
        <ele>1479</ele>
        <time>2011-10-01T14:36:41Z</time>
      </trkpt>
      <trkpt lat="44.15223" lon="5.31903">
        <ele>1478.5</ele>
        <time>2011-10-01T14:36:46Z</time>
      </trkpt>
      <trkpt lat="44.15223" lon="5.31903">
        <ele>1478.5</ele>
        <time>2011-10-01T14:36:51Z</time>
      </trkpt>
      <trkpt lat="44.15223" lon="5.31903">
        <ele>1478.5</ele>
        <time>2011-10-01T14:36:56Z</time>
      </trkpt>
      <trkpt lat="44.15223" lon="5.31903">
        <ele>1478.5</ele>
        <time>2011-10-01T14:37:11Z</time>
      </trkpt>
      <trkpt lat="44.15223" lon="5.31903">
        <ele>1478.5</ele>
        <time>2011-10-01T14:37:16Z</time>
      </trkpt>
      <trkpt lat="44.15223" lon="5.31903">
        <ele>1478.5</ele>
        <time>2011-10-01T14:37:26Z</time>
      </trkpt>
      <trkpt lat="44.15223" lon="5.31903">
        <ele>1478.5</ele>
        <time>2011-10-01T14:37:31Z</time>
      </trkpt>
      <trkpt lat="44.15223" lon="5.31903">
        <ele>1478.5</ele>
        <time>2011-10-01T14:37:36Z</time>
      </trkpt>
      <trkpt lat="44.15223" lon="5.31903">
        <ele>1478.5</ele>
        <time>2011-10-01T14:37:41Z</time>
      </trkpt>
      <trkpt lat="44.15223" lon="5.31903">
        <ele>1478.5</ele>
        <time>2011-10-01T14:37:46Z</time>
      </trkpt>
      <trkpt lat="44.15223" lon="5.31903">
        <ele>1478.5</ele>
        <time>2011-10-01T14:37:51Z</time>
      </trkpt>
      <trkpt lat="44.15223" lon="5.31903">
        <ele>1478.5</ele>
        <time>2011-10-01T14:38:01Z</time>
      </trkpt>
      <trkpt lat="44.15223" lon="5.31903">
        <ele>1478.5</ele>
        <time>2011-10-01T14:38:06Z</time>
      </trkpt>
      <trkpt lat="44.15223" lon="5.31903">
        <ele>1478.5</ele>
        <time>2011-10-01T14:38:11Z</time>
      </trkpt>
      <trkpt lat="44.15223" lon="5.31901">
        <ele>1475</ele>
        <time>2011-10-01T14:38:16Z</time>
      </trkpt>
      <trkpt lat="44.15223" lon="5.31901">
        <ele>1476</ele>
        <time>2011-10-01T14:38:21Z</time>
      </trkpt>
      <trkpt lat="44.15223" lon="5.31901">
        <ele>1476</ele>
        <time>2011-10-01T14:38:26Z</time>
      </trkpt>
      <trkpt lat="44.15223" lon="5.31901">
        <ele>1476</ele>
        <time>2011-10-01T14:38:31Z</time>
      </trkpt>
      <trkpt lat="44.15223" lon="5.31901">
        <ele>1476.5</ele>
        <time>2011-10-01T14:38:36Z</time>
      </trkpt>
      <trkpt lat="44.15223" lon="5.31901">
        <ele>1476.5</ele>
        <time>2011-10-01T14:38:41Z</time>
      </trkpt>
      <trkpt lat="44.15223" lon="5.31901">
        <ele>1476.5</ele>
        <time>2011-10-01T14:38:46Z</time>
      </trkpt>
      <trkpt lat="44.15223" lon="5.319">
        <ele>1477</ele>
        <time>2011-10-01T14:38:51Z</time>
      </trkpt>
      <trkpt lat="44.15223" lon="5.31898">
        <ele>1478</ele>
        <time>2011-10-01T14:38:56Z</time>
      </trkpt>
      <trkpt lat="44.15224" lon="5.31898">
        <ele>1477.5</ele>
        <time>2011-10-01T14:39:01Z</time>
      </trkpt>
      <trkpt lat="44.15224" lon="5.31898">
        <ele>1477.5</ele>
        <time>2011-10-01T14:39:06Z</time>
      </trkpt>
      <trkpt lat="44.15224" lon="5.31898">
        <ele>1477.5</ele>
        <time>2011-10-01T14:39:11Z</time>
      </trkpt>
      <trkpt lat="44.15224" lon="5.31898">
        <ele>1477.5</ele>
        <time>2011-10-01T14:41:31Z</time>
      </trkpt>
      <trkpt lat="44.15219" lon="5.31897">
        <ele>1476.5</ele>
        <time>2011-10-01T14:41:36Z</time>
      </trkpt>
      <trkpt lat="44.1522" lon="5.31901">
        <ele>1475</ele>
        <time>2011-10-01T14:41:41Z</time>
      </trkpt>
      <trkpt lat="44.15221" lon="5.31904">
        <ele>1474</ele>
        <time>2011-10-01T14:41:46Z</time>
      </trkpt>
      <trkpt lat="44.15222" lon="5.31905">
        <ele>1475.5</ele>
        <time>2011-10-01T14:41:51Z</time>
      </trkpt>
      <trkpt lat="44.15222" lon="5.31905">
        <ele>1473.5</ele>
        <time>2011-10-01T14:41:56Z</time>
      </trkpt>
      <trkpt lat="44.15222" lon="5.31905">
        <ele>1474</ele>
        <time>2011-10-01T14:42:01Z</time>
      </trkpt>
      <trkpt lat="44.15222" lon="5.31905">
        <ele>1473.5</ele>
        <time>2011-10-01T14:42:06Z</time>
      </trkpt>
      <trkpt lat="44.15222" lon="5.31905">
        <ele>1473.5</ele>
        <time>2011-10-01T14:42:11Z</time>
      </trkpt>
      <trkpt lat="44.15222" lon="5.31905">
        <ele>1473.5</ele>
        <time>2011-10-01T14:42:16Z</time>
      </trkpt>
      <trkpt lat="44.15222" lon="5.31905">
        <ele>1473.5</ele>
        <time>2011-10-01T14:42:21Z</time>
      </trkpt>
      <trkpt lat="44.15222" lon="5.31905">
        <ele>1473.5</ele>
        <time>2011-10-01T14:42:26Z</time>
      </trkpt>
      <trkpt lat="44.15222" lon="5.31905">
        <ele>1473.5</ele>
        <time>2011-10-01T14:42:31Z</time>
      </trkpt>
      <trkpt lat="44.15222" lon="5.31905">
        <ele>1473.5</ele>
        <time>2011-10-01T14:42:36Z</time>
      </trkpt>
      <trkpt lat="44.15229" lon="5.31898">
        <ele>1472.5</ele>
        <time>2011-10-01T14:42:41Z</time>
      </trkpt>
      <trkpt lat="44.15229" lon="5.31899">
        <ele>1470.5</ele>
        <time>2011-10-01T14:42:46Z</time>
      </trkpt>
      <trkpt lat="44.15228" lon="5.31901">
        <ele>1471</ele>
        <time>2011-10-01T14:42:51Z</time>
      </trkpt>
      <trkpt lat="44.15228" lon="5.31902">
        <ele>1470.5</ele>
        <time>2011-10-01T14:42:56Z</time>
      </trkpt>
      <trkpt lat="44.15228" lon="5.31902">
        <ele>1470</ele>
        <time>2011-10-01T14:43:01Z</time>
      </trkpt>
      <trkpt lat="44.15228" lon="5.31902">
        <ele>1470</ele>
        <time>2011-10-01T14:43:06Z</time>
      </trkpt>
      <trkpt lat="44.15228" lon="5.31902">
        <ele>1470</ele>
        <time>2011-10-01T14:43:16Z</time>
      </trkpt>
      <trkpt lat="44.15228" lon="5.31902">
        <ele>1470</ele>
        <time>2011-10-01T14:43:21Z</time>
      </trkpt>
      <trkpt lat="44.15228" lon="5.31902">
        <ele>1470</ele>
        <time>2011-10-01T14:43:26Z</time>
      </trkpt>
      <trkpt lat="44.15228" lon="5.31902">
        <ele>1469.5</ele>
        <time>2011-10-01T14:43:31Z</time>
      </trkpt>
      <trkpt lat="44.15228" lon="5.31902">
        <ele>1469.5</ele>
        <time>2011-10-01T14:43:36Z</time>
      </trkpt>
      <trkpt lat="44.15228" lon="5.31902">
        <ele>1470</ele>
        <time>2011-10-01T14:43:41Z</time>
      </trkpt>
      <trkpt lat="44.15228" lon="5.31902">
        <ele>1470.5</ele>
        <time>2011-10-01T14:43:46Z</time>
      </trkpt>
      <trkpt lat="44.15228" lon="5.31902">
        <ele>1470.5</ele>
        <time>2011-10-01T14:43:51Z</time>
      </trkpt>
      <trkpt lat="44.15228" lon="5.31902">
        <ele>1470.5</ele>
        <time>2011-10-01T14:43:56Z</time>
      </trkpt>
      <trkpt lat="44.15228" lon="5.31902">
        <ele>1470.5</ele>
        <time>2011-10-01T14:44:01Z</time>
      </trkpt>
      <trkpt lat="44.15228" lon="5.31902">
        <ele>1470.5</ele>
        <time>2011-10-01T14:44:06Z</time>
      </trkpt>
      <trkpt lat="44.15228" lon="5.31902">
        <ele>1470.5</ele>
        <time>2011-10-01T14:44:11Z</time>
      </trkpt>
      <trkpt lat="44.15228" lon="5.31902">
        <ele>1470.5</ele>
        <time>2011-10-01T14:44:16Z</time>
      </trkpt>
      <trkpt lat="44.15228" lon="5.31902">
        <ele>1470.5</ele>
        <time>2011-10-01T14:44:21Z</time>
      </trkpt>
      <trkpt lat="44.15228" lon="5.31903">
        <ele>1471</ele>
        <time>2011-10-01T14:44:26Z</time>
      </trkpt>
      <trkpt lat="44.15225" lon="5.31902">
        <ele>1476</ele>
        <time>2011-10-01T14:44:31Z</time>
      </trkpt>
      <trkpt lat="44.15223" lon="5.31901">
        <ele>1477.5</ele>
        <time>2011-10-01T14:44:36Z</time>
      </trkpt>
      <trkpt lat="44.15223" lon="5.31901">
        <ele>1477.5</ele>
        <time>2011-10-01T14:44:41Z</time>
      </trkpt>
      <trkpt lat="44.15223" lon="5.31901">
        <ele>1477.5</ele>
        <time>2011-10-01T14:44:46Z</time>
      </trkpt>
      <trkpt lat="44.15223" lon="5.31901">
        <ele>1477.5</ele>
        <time>2011-10-01T14:44:51Z</time>
      </trkpt>
      <trkpt lat="44.15223" lon="5.31901">
        <ele>1477</ele>
        <time>2011-10-01T14:44:56Z</time>
      </trkpt>
      <trkpt lat="44.15223" lon="5.31901">
        <ele>1477</ele>
        <time>2011-10-01T14:45:01Z</time>
      </trkpt>
      <trkpt lat="44.15223" lon="5.31901">
        <ele>1477</ele>
        <time>2011-10-01T14:45:06Z</time>
      </trkpt>
      <trkpt lat="44.15223" lon="5.31901">
        <ele>1477</ele>
        <time>2011-10-01T14:45:11Z</time>
      </trkpt>
      <trkpt lat="44.15223" lon="5.31901">
        <ele>1477</ele>
        <time>2011-10-01T14:45:16Z</time>
      </trkpt>
      <trkpt lat="44.15223" lon="5.31901">
        <ele>1477</ele>
        <time>2011-10-01T14:45:21Z</time>
      </trkpt>
      <trkpt lat="44.15223" lon="5.31901">
        <ele>1477</ele>
        <time>2011-10-01T14:45:26Z</time>
      </trkpt>
      <trkpt lat="44.15223" lon="5.31901">
        <ele>1477</ele>
        <time>2011-10-01T14:45:31Z</time>
      </trkpt>
      <trkpt lat="44.15223" lon="5.31901">
        <ele>1477</ele>
        <time>2011-10-01T14:45:36Z</time>
      </trkpt>
      <trkpt lat="44.15223" lon="5.31901">
        <ele>1477</ele>
        <time>2011-10-01T14:45:41Z</time>
      </trkpt>
      <trkpt lat="44.15223" lon="5.31901">
        <ele>1477</ele>
        <time>2011-10-01T14:45:46Z</time>
      </trkpt>
      <trkpt lat="44.15223" lon="5.31901">
        <ele>1477</ele>
        <time>2011-10-01T14:45:51Z</time>
      </trkpt>
      <trkpt lat="44.15223" lon="5.31901">
        <ele>1477</ele>
        <time>2011-10-01T14:45:56Z</time>
      </trkpt>
      <trkpt lat="44.15223" lon="5.31901">
        <ele>1477</ele>
        <time>2011-10-01T14:46:01Z</time>
      </trkpt>
      <trkpt lat="44.15223" lon="5.31901">
        <ele>1477</ele>
        <time>2011-10-01T14:46:06Z</time>
      </trkpt>
      <trkpt lat="44.15223" lon="5.31901">
        <ele>1477</ele>
        <time>2011-10-01T14:46:11Z</time>
      </trkpt>
      <trkpt lat="44.15223" lon="5.31901">
        <ele>1477</ele>
        <time>2011-10-01T14:46:16Z</time>
      </trkpt>
      <trkpt lat="44.15223" lon="5.31901">
        <ele>1477</ele>
        <time>2011-10-01T14:46:21Z</time>
      </trkpt>
      <trkpt lat="44.15223" lon="5.31901">
        <ele>1477</ele>
        <time>2011-10-01T14:46:26Z</time>
      </trkpt>
      <trkpt lat="44.15223" lon="5.31901">
        <ele>1477</ele>
        <time>2011-10-01T14:46:31Z</time>
      </trkpt>
      <trkpt lat="44.15223" lon="5.31901">
        <ele>1477</ele>
        <time>2011-10-01T14:46:36Z</time>
      </trkpt>
      <trkpt lat="44.15223" lon="5.31901">
        <ele>1477</ele>
        <time>2011-10-01T14:46:41Z</time>
      </trkpt>
      <trkpt lat="44.15223" lon="5.31901">
        <ele>1477</ele>
        <time>2011-10-01T14:46:46Z</time>
      </trkpt>
      <trkpt lat="44.15223" lon="5.31901">
        <ele>1477.5</ele>
        <time>2011-10-01T14:46:51Z</time>
      </trkpt>
      <trkpt lat="44.15218" lon="5.31902">
        <ele>1481</ele>
        <time>2011-10-01T14:46:56Z</time>
      </trkpt>
      <trkpt lat="44.15218" lon="5.31901">
        <ele>1481.5</ele>
        <time>2011-10-01T14:47:01Z</time>
      </trkpt>
      <trkpt lat="44.15218" lon="5.31901">
        <ele>1482</ele>
        <time>2011-10-01T14:47:06Z</time>
      </trkpt>
      <trkpt lat="44.15218" lon="5.31901">
        <ele>1482</ele>
        <time>2011-10-01T14:47:11Z</time>
      </trkpt>
      <trkpt lat="44.15218" lon="5.31901">
        <ele>1482</ele>
        <time>2011-10-01T14:47:16Z</time>
      </trkpt>
      <trkpt lat="44.15218" lon="5.31901">
        <ele>1482</ele>
        <time>2011-10-01T14:47:21Z</time>
      </trkpt>
      <trkpt lat="44.15218" lon="5.31901">
        <ele>1482</ele>
        <time>2011-10-01T14:47:26Z</time>
      </trkpt>
      <trkpt lat="44.15218" lon="5.31901">
        <ele>1482</ele>
        <time>2011-10-01T14:47:31Z</time>
      </trkpt>
      <trkpt lat="44.15218" lon="5.31901">
        <ele>1482</ele>
        <time>2011-10-01T14:47:36Z</time>
      </trkpt>
      <trkpt lat="44.15218" lon="5.31901">
        <ele>1482</ele>
        <time>2011-10-01T14:47:41Z</time>
      </trkpt>
      <trkpt lat="44.15218" lon="5.31901">
        <ele>1482.5</ele>
        <time>2011-10-01T14:47:46Z</time>
      </trkpt>
      <trkpt lat="44.15218" lon="5.31901">
        <ele>1482.5</ele>
        <time>2011-10-01T14:47:51Z</time>
      </trkpt>
      <trkpt lat="44.15218" lon="5.31901">
        <ele>1482.5</ele>
        <time>2011-10-01T14:47:56Z</time>
      </trkpt>
      <trkpt lat="44.15218" lon="5.31901">
        <ele>1482.5</ele>
        <time>2011-10-01T14:48:01Z</time>
      </trkpt>
      <trkpt lat="44.15218" lon="5.31901">
        <ele>1482.5</ele>
        <time>2011-10-01T14:48:06Z</time>
      </trkpt>
      <trkpt lat="44.15218" lon="5.31901">
        <ele>1482.5</ele>
        <time>2011-10-01T14:48:16Z</time>
      </trkpt>
      <trkpt lat="44.15218" lon="5.31901">
        <ele>1482.5</ele>
        <time>2011-10-01T14:48:21Z</time>
      </trkpt>
      <trkpt lat="44.15218" lon="5.31901">
        <ele>1482.5</ele>
        <time>2011-10-01T14:48:26Z</time>
      </trkpt>
      <trkpt lat="44.15218" lon="5.31901">
        <ele>1482.5</ele>
        <time>2011-10-01T14:48:36Z</time>
      </trkpt>
      <trkpt lat="44.15218" lon="5.31901">
        <ele>1482</ele>
        <time>2011-10-01T14:48:41Z</time>
      </trkpt>
      <trkpt lat="44.15218" lon="5.31901">
        <ele>1482.5</ele>
        <time>2011-10-01T14:48:46Z</time>
      </trkpt>
      <trkpt lat="44.15218" lon="5.31901">
        <ele>1482.5</ele>
        <time>2011-10-01T14:48:51Z</time>
      </trkpt>
      <trkpt lat="44.15218" lon="5.31901">
        <ele>1482.5</ele>
        <time>2011-10-01T14:48:56Z</time>
      </trkpt>
      <trkpt lat="44.15218" lon="5.31901">
        <ele>1482.5</ele>
        <time>2011-10-01T14:49:01Z</time>
      </trkpt>
      <trkpt lat="44.15218" lon="5.31901">
        <ele>1482</ele>
        <time>2011-10-01T14:49:06Z</time>
      </trkpt>
      <trkpt lat="44.15218" lon="5.31901">
        <ele>1482</ele>
        <time>2011-10-01T14:49:11Z</time>
      </trkpt>
      <trkpt lat="44.15218" lon="5.31901">
        <ele>1482</ele>
        <time>2011-10-01T14:49:16Z</time>
      </trkpt>
      <trkpt lat="44.15218" lon="5.31901">
        <ele>1482</ele>
        <time>2011-10-01T14:49:21Z</time>
      </trkpt>
      <trkpt lat="44.15218" lon="5.31901">
        <ele>1482</ele>
        <time>2011-10-01T14:49:26Z</time>
      </trkpt>
      <trkpt lat="44.15218" lon="5.31901">
        <ele>1482</ele>
        <time>2011-10-01T14:49:41Z</time>
      </trkpt>
      <trkpt lat="44.15218" lon="5.31901">
        <ele>1482</ele>
        <time>2011-10-01T14:49:46Z</time>
      </trkpt>
      <trkpt lat="44.15218" lon="5.31901">
        <ele>1482</ele>
        <time>2011-10-01T14:49:51Z</time>
      </trkpt>
      <trkpt lat="44.15218" lon="5.31901">
        <ele>1482.5</ele>
        <time>2011-10-01T14:49:56Z</time>
      </trkpt>
      <trkpt lat="44.15218" lon="5.31901">
        <ele>1482.5</ele>
        <time>2011-10-01T14:50:01Z</time>
      </trkpt>
      <trkpt lat="44.15218" lon="5.31901">
        <ele>1482.5</ele>
        <time>2011-10-01T14:50:06Z</time>
      </trkpt>
      <trkpt lat="44.15218" lon="5.31901">
        <ele>1482</ele>
        <time>2011-10-01T14:50:11Z</time>
      </trkpt>
      <trkpt lat="44.15218" lon="5.31901">
        <ele>1482</ele>
        <time>2011-10-01T14:50:16Z</time>
      </trkpt>
      <trkpt lat="44.15218" lon="5.31901">
        <ele>1482</ele>
        <time>2011-10-01T14:50:26Z</time>
      </trkpt>
      <trkpt lat="44.15218" lon="5.31901">
        <ele>1482</ele>
        <time>2011-10-01T14:50:31Z</time>
      </trkpt>
      <trkpt lat="44.15218" lon="5.31901">
        <ele>1482</ele>
        <time>2011-10-01T14:50:36Z</time>
      </trkpt>
      <trkpt lat="44.15218" lon="5.31901">
        <ele>1482</ele>
        <time>2011-10-01T14:50:41Z</time>
      </trkpt>
      <trkpt lat="44.15218" lon="5.31901">
        <ele>1482</ele>
        <time>2011-10-01T14:50:46Z</time>
      </trkpt>
      <trkpt lat="44.15218" lon="5.31901">
        <ele>1482</ele>
        <time>2011-10-01T14:50:51Z</time>
      </trkpt>
      <trkpt lat="44.15218" lon="5.31901">
        <ele>1482</ele>
        <time>2011-10-01T14:50:56Z</time>
      </trkpt>
      <trkpt lat="44.15218" lon="5.31901">
        <ele>1482</ele>
        <time>2011-10-01T14:51:01Z</time>
      </trkpt>
      <trkpt lat="44.15219" lon="5.31901">
        <ele>1482</ele>
        <time>2011-10-01T14:51:06Z</time>
      </trkpt>
      <trkpt lat="44.1522" lon="5.31902">
        <ele>1482.5</ele>
        <time>2011-10-01T14:51:11Z</time>
      </trkpt>
      <trkpt lat="44.15221" lon="5.31902">
        <ele>1483.5</ele>
        <time>2011-10-01T14:51:16Z</time>
      </trkpt>
      <trkpt lat="44.15221" lon="5.31902">
        <ele>1483.5</ele>
        <time>2011-10-01T14:51:21Z</time>
      </trkpt>
      <trkpt lat="44.15221" lon="5.31902">
        <ele>1483.5</ele>
        <time>2011-10-01T14:51:26Z</time>
      </trkpt>
      <trkpt lat="44.15221" lon="5.31902">
        <ele>1483.5</ele>
        <time>2011-10-01T14:51:31Z</time>
      </trkpt>
      <trkpt lat="44.15221" lon="5.31902">
        <ele>1483.5</ele>
        <time>2011-10-01T14:51:36Z</time>
      </trkpt>
      <trkpt lat="44.1522" lon="5.31902">
        <ele>1482.5</ele>
        <time>2011-10-01T14:51:41Z</time>
      </trkpt>
      <trkpt lat="44.1522" lon="5.31902">
        <ele>1483</ele>
        <time>2011-10-01T14:51:46Z</time>
      </trkpt>
      <trkpt lat="44.1522" lon="5.31902">
        <ele>1483.5</ele>
        <time>2011-10-01T14:51:51Z</time>
      </trkpt>
      <trkpt lat="44.1522" lon="5.31902">
        <ele>1483.5</ele>
        <time>2011-10-01T14:51:56Z</time>
      </trkpt>
      <trkpt lat="44.1522" lon="5.31902">
        <ele>1483.5</ele>
        <time>2011-10-01T14:52:01Z</time>
      </trkpt>
      <trkpt lat="44.1522" lon="5.31902">
        <ele>1483.5</ele>
        <time>2011-10-01T14:52:11Z</time>
      </trkpt>
      <trkpt lat="44.1522" lon="5.31902">
        <ele>1483.5</ele>
        <time>2011-10-01T14:52:16Z</time>
      </trkpt>
      <trkpt lat="44.1522" lon="5.31902">
        <ele>1483.5</ele>
        <time>2011-10-01T14:52:26Z</time>
      </trkpt>
      <trkpt lat="44.1522" lon="5.31902">
        <ele>1483.5</ele>
        <time>2011-10-01T14:52:31Z</time>
      </trkpt>
      <trkpt lat="44.1522" lon="5.31902">
        <ele>1483.5</ele>
        <time>2011-10-01T14:52:41Z</time>
      </trkpt>
      <trkpt lat="44.1522" lon="5.31902">
        <ele>1483.5</ele>
        <time>2011-10-01T14:52:46Z</time>
      </trkpt>
      <trkpt lat="44.1522" lon="5.31902">
        <ele>1483.5</ele>
        <time>2011-10-01T14:52:51Z</time>
      </trkpt>
      <trkpt lat="44.1522" lon="5.31902">
        <ele>1483.5</ele>
        <time>2011-10-01T14:52:56Z</time>
      </trkpt>
      <trkpt lat="44.1522" lon="5.31902">
        <ele>1483.5</ele>
        <time>2011-10-01T14:53:01Z</time>
      </trkpt>
      <trkpt lat="44.1522" lon="5.31902">
        <ele>1483.5</ele>
        <time>2011-10-01T14:53:06Z</time>
      </trkpt>
      <trkpt lat="44.1522" lon="5.31902">
        <ele>1483.5</ele>
        <time>2011-10-01T14:53:11Z</time>
      </trkpt>
      <trkpt lat="44.1522" lon="5.31902">
        <ele>1483.5</ele>
        <time>2011-10-01T14:53:21Z</time>
      </trkpt>
      <trkpt lat="44.1522" lon="5.31902">
        <ele>1483.5</ele>
        <time>2011-10-01T14:53:26Z</time>
      </trkpt>
      <trkpt lat="44.1522" lon="5.31902">
        <ele>1483</ele>
        <time>2011-10-01T14:53:31Z</time>
      </trkpt>
      <trkpt lat="44.1522" lon="5.31902">
        <ele>1483</ele>
        <time>2011-10-01T14:53:36Z</time>
      </trkpt>
      <trkpt lat="44.1522" lon="5.31902">
        <ele>1483</ele>
        <time>2011-10-01T14:53:41Z</time>
      </trkpt>
      <trkpt lat="44.1522" lon="5.31902">
        <ele>1483</ele>
        <time>2011-10-01T14:53:46Z</time>
      </trkpt>
      <trkpt lat="44.1522" lon="5.31902">
        <ele>1483</ele>
        <time>2011-10-01T14:53:51Z</time>
      </trkpt>
      <trkpt lat="44.1522" lon="5.31902">
        <ele>1483</ele>
        <time>2011-10-01T14:53:56Z</time>
      </trkpt>
      <trkpt lat="44.1522" lon="5.31901">
        <ele>1483</ele>
        <time>2011-10-01T14:54:01Z</time>
      </trkpt>
      <trkpt lat="44.1522" lon="5.31902">
        <ele>1483</ele>
        <time>2011-10-01T14:54:06Z</time>
      </trkpt>
      <trkpt lat="44.15222" lon="5.31902">
        <ele>1472</ele>
        <time>2011-10-01T14:54:11Z</time>
      </trkpt>
      <trkpt lat="44.15222" lon="5.31902">
        <ele>1472.5</ele>
        <time>2011-10-01T14:54:16Z</time>
      </trkpt>
      <trkpt lat="44.15222" lon="5.31902">
        <ele>1473</ele>
        <time>2011-10-01T14:54:21Z</time>
      </trkpt>
      <trkpt lat="44.15222" lon="5.319">
        <ele>1473</ele>
        <time>2011-10-01T14:54:26Z</time>
      </trkpt>
      <trkpt lat="44.15222" lon="5.319">
        <ele>1474</ele>
        <time>2011-10-01T14:54:31Z</time>
      </trkpt>
      <trkpt lat="44.15225" lon="5.31895">
        <ele>1473.5</ele>
        <time>2011-10-01T14:54:36Z</time>
      </trkpt>
      <trkpt lat="44.15229" lon="5.31898">
        <ele>1472</ele>
        <time>2011-10-01T14:54:41Z</time>
      </trkpt>
      <trkpt lat="44.15229" lon="5.319">
        <ele>1473</ele>
        <time>2011-10-01T14:54:46Z</time>
      </trkpt>
      <trkpt lat="44.15231" lon="5.31901">
        <ele>1473</ele>
        <time>2011-10-01T14:54:51Z</time>
      </trkpt>
      <trkpt lat="44.15233" lon="5.31903">
        <ele>1473</ele>
        <time>2011-10-01T14:54:56Z</time>
      </trkpt>
      <trkpt lat="44.15242" lon="5.319">
        <ele>1473.5</ele>
        <time>2011-10-01T14:55:11Z</time>
      </trkpt>
      <trkpt lat="44.15244" lon="5.31901">
        <ele>1473.5</ele>
        <time>2011-10-01T14:55:16Z</time>
      </trkpt>
      <trkpt lat="44.15245" lon="5.31899">
        <ele>1474</ele>
        <time>2011-10-01T14:55:21Z</time>
      </trkpt>
      <trkpt lat="44.15245" lon="5.319">
        <ele>1474</ele>
        <time>2011-10-01T14:55:26Z</time>
      </trkpt>
      <trkpt lat="44.15246" lon="5.319">
        <ele>1474</ele>
        <time>2011-10-01T14:55:31Z</time>
      </trkpt>
      <trkpt lat="44.15246" lon="5.319">
        <ele>1474</ele>
        <time>2011-10-01T14:55:36Z</time>
      </trkpt>
      <trkpt lat="44.15246" lon="5.319">
        <ele>1474</ele>
        <time>2011-10-01T14:55:41Z</time>
      </trkpt>
      <trkpt lat="44.15246" lon="5.319">
        <ele>1474</ele>
        <time>2011-10-01T14:55:46Z</time>
      </trkpt>
      <trkpt lat="44.15246" lon="5.319">
        <ele>1474</ele>
        <time>2011-10-01T14:55:51Z</time>
      </trkpt>
      <trkpt lat="44.15246" lon="5.319">
        <ele>1474</ele>
        <time>2011-10-01T14:55:56Z</time>
      </trkpt>
      <trkpt lat="44.15246" lon="5.319">
        <ele>1474</ele>
        <time>2011-10-01T14:56:01Z</time>
      </trkpt>
      <trkpt lat="44.15246" lon="5.319">
        <ele>1474</ele>
        <time>2011-10-01T14:56:06Z</time>
      </trkpt>
      <trkpt lat="44.15246" lon="5.319">
        <ele>1474</ele>
        <time>2011-10-01T14:56:11Z</time>
      </trkpt>
      <trkpt lat="44.15246" lon="5.319">
        <ele>1474</ele>
        <time>2011-10-01T14:56:16Z</time>
      </trkpt>
      <trkpt lat="44.15246" lon="5.319">
        <ele>1474</ele>
        <time>2011-10-01T14:56:21Z</time>
      </trkpt>
      <trkpt lat="44.15246" lon="5.319">
        <ele>1474</ele>
        <time>2011-10-01T14:56:26Z</time>
      </trkpt>
      <trkpt lat="44.15246" lon="5.319">
        <ele>1474</ele>
        <time>2011-10-01T14:56:31Z</time>
      </trkpt>
      <trkpt lat="44.15249" lon="5.31896">
        <ele>1475</ele>
        <time>2011-10-01T14:56:36Z</time>
      </trkpt>
      <trkpt lat="44.15249" lon="5.31895">
        <ele>1475.5</ele>
        <time>2011-10-01T14:56:41Z</time>
      </trkpt>
      <trkpt lat="44.15249" lon="5.31896">
        <ele>1476</ele>
        <time>2011-10-01T14:56:46Z</time>
      </trkpt>
      <trkpt lat="44.15249" lon="5.31896">
        <ele>1476</ele>
        <time>2011-10-01T14:56:51Z</time>
      </trkpt>
      <trkpt lat="44.15249" lon="5.31895">
        <ele>1476</ele>
        <time>2011-10-01T14:56:56Z</time>
      </trkpt>
      <trkpt lat="44.15249" lon="5.31895">
        <ele>1476</ele>
        <time>2011-10-01T14:57:01Z</time>
      </trkpt>
      <trkpt lat="44.15249" lon="5.31895">
        <ele>1476</ele>
        <time>2011-10-01T14:57:06Z</time>
      </trkpt>
      <trkpt lat="44.15249" lon="5.31895">
        <ele>1476</ele>
        <time>2011-10-01T14:57:11Z</time>
      </trkpt>
      <trkpt lat="44.15249" lon="5.31895">
        <ele>1476</ele>
        <time>2011-10-01T14:57:16Z</time>
      </trkpt>
      <trkpt lat="44.15249" lon="5.31895">
        <ele>1476</ele>
        <time>2011-10-01T14:57:21Z</time>
      </trkpt>
      <trkpt lat="44.15249" lon="5.31895">
        <ele>1476</ele>
        <time>2011-10-01T14:57:26Z</time>
      </trkpt>
      <trkpt lat="44.15249" lon="5.31895">
        <ele>1476</ele>
        <time>2011-10-01T14:57:31Z</time>
      </trkpt>
      <trkpt lat="44.15249" lon="5.31895">
        <ele>1476</ele>
        <time>2011-10-01T14:57:36Z</time>
      </trkpt>
      <trkpt lat="44.15244" lon="5.31896">
        <ele>1474.5</ele>
        <time>2011-10-01T14:57:51Z</time>
      </trkpt>
      <trkpt lat="44.15224" lon="5.319">
        <ele>1469</ele>
        <time>2011-10-01T14:57:56Z</time>
      </trkpt>
      <trkpt lat="44.15224" lon="5.31901">
        <ele>1470.5</ele>
        <time>2011-10-01T14:58:01Z</time>
      </trkpt>
      <trkpt lat="44.15225" lon="5.31903">
        <ele>1472</ele>
        <time>2011-10-01T14:58:06Z</time>
      </trkpt>
      <trkpt lat="44.15222" lon="5.31902">
        <ele>1473.5</ele>
        <time>2011-10-01T14:58:11Z</time>
      </trkpt>
      <trkpt lat="44.15223" lon="5.31904">
        <ele>1474</ele>
        <time>2011-10-01T14:58:16Z</time>
      </trkpt>
      <trkpt lat="44.15224" lon="5.31903">
        <ele>1475</ele>
        <time>2011-10-01T14:58:21Z</time>
      </trkpt>
      <trkpt lat="44.15224" lon="5.31903">
        <ele>1474.5</ele>
        <time>2011-10-01T14:58:26Z</time>
      </trkpt>
      <trkpt lat="44.15224" lon="5.31903">
        <ele>1474.5</ele>
        <time>2011-10-01T14:58:31Z</time>
      </trkpt>
      <trkpt lat="44.15224" lon="5.31903">
        <ele>1474.5</ele>
        <time>2011-10-01T14:58:36Z</time>
      </trkpt>
      <trkpt lat="44.15224" lon="5.31903">
        <ele>1474.5</ele>
        <time>2011-10-01T14:58:41Z</time>
      </trkpt>
      <trkpt lat="44.15224" lon="5.31903">
        <ele>1474.5</ele>
        <time>2011-10-01T14:58:46Z</time>
      </trkpt>
      <trkpt lat="44.15224" lon="5.31903">
        <ele>1474.5</ele>
        <time>2011-10-01T14:58:51Z</time>
      </trkpt>
      <trkpt lat="44.15223" lon="5.31902">
        <ele>1476</ele>
        <time>2011-10-01T14:58:56Z</time>
      </trkpt>
      <trkpt lat="44.15223" lon="5.31902">
        <ele>1476</ele>
        <time>2011-10-01T14:59:01Z</time>
      </trkpt>
      <trkpt lat="44.15223" lon="5.31902">
        <ele>1476.5</ele>
        <time>2011-10-01T14:59:06Z</time>
      </trkpt>
      <trkpt lat="44.15223" lon="5.31902">
        <ele>1476.5</ele>
        <time>2011-10-01T14:59:11Z</time>
      </trkpt>
      <trkpt lat="44.15223" lon="5.31902">
        <ele>1476.5</ele>
        <time>2011-10-01T14:59:16Z</time>
      </trkpt>
      <trkpt lat="44.15223" lon="5.31902">
        <ele>1476.5</ele>
        <time>2011-10-01T14:59:21Z</time>
      </trkpt>
      <trkpt lat="44.15223" lon="5.31902">
        <ele>1476.5</ele>
        <time>2011-10-01T14:59:26Z</time>
      </trkpt>
      <trkpt lat="44.15223" lon="5.31902">
        <ele>1476.5</ele>
        <time>2011-10-01T14:59:36Z</time>
      </trkpt>
      <trkpt lat="44.15223" lon="5.31902">
        <ele>1476.5</ele>
        <time>2011-10-01T14:59:41Z</time>
      </trkpt>
      <trkpt lat="44.15223" lon="5.31902">
        <ele>1476.5</ele>
        <time>2011-10-01T14:59:46Z</time>
      </trkpt>
      <trkpt lat="44.15223" lon="5.31902">
        <ele>1476</ele>
        <time>2011-10-01T14:59:51Z</time>
      </trkpt>
      <trkpt lat="44.15223" lon="5.31902">
        <ele>1476</ele>
        <time>2011-10-01T14:59:56Z</time>
      </trkpt>
      <trkpt lat="44.15223" lon="5.31902">
        <ele>1476</ele>
        <time>2011-10-01T15:00:01Z</time>
      </trkpt>
      <trkpt lat="44.15223" lon="5.31902">
        <ele>1476</ele>
        <time>2011-10-01T15:00:11Z</time>
      </trkpt>
      <trkpt lat="44.15223" lon="5.31902">
        <ele>1476</ele>
        <time>2011-10-01T15:00:21Z</time>
      </trkpt>
      <trkpt lat="44.15223" lon="5.31902">
        <ele>1476</ele>
        <time>2011-10-01T15:00:26Z</time>
      </trkpt>
      <trkpt lat="44.15223" lon="5.31902">
        <ele>1476</ele>
        <time>2011-10-01T15:00:31Z</time>
      </trkpt>
      <trkpt lat="44.15224" lon="5.31903">
        <ele>1468</ele>
        <time>2011-10-01T15:00:36Z</time>
      </trkpt>
      <trkpt lat="44.15224" lon="5.31902">
        <ele>1468</ele>
        <time>2011-10-01T15:00:41Z</time>
      </trkpt>
      <trkpt lat="44.15223" lon="5.31901">
        <ele>1469</ele>
        <time>2011-10-01T15:00:46Z</time>
      </trkpt>
      <trkpt lat="44.15223" lon="5.31901">
        <ele>1470</ele>
        <time>2011-10-01T15:00:51Z</time>
      </trkpt>
      <trkpt lat="44.15223" lon="5.31901">
        <ele>1470</ele>
        <time>2011-10-01T15:00:56Z</time>
      </trkpt>
      <trkpt lat="44.15223" lon="5.31901">
        <ele>1469.5</ele>
        <time>2011-10-01T15:01:01Z</time>
      </trkpt>
      <trkpt lat="44.15223" lon="5.31901">
        <ele>1470</ele>
        <time>2011-10-01T15:01:06Z</time>
      </trkpt>
      <trkpt lat="44.15223" lon="5.319">
        <ele>1470.5</ele>
        <time>2011-10-01T15:01:11Z</time>
      </trkpt>
      <trkpt lat="44.15223" lon="5.31899">
        <ele>1471.5</ele>
        <time>2011-10-01T15:01:16Z</time>
      </trkpt>
      <trkpt lat="44.15223" lon="5.31899">
        <ele>1471</ele>
        <time>2011-10-01T15:01:21Z</time>
      </trkpt>
      <trkpt lat="44.15225" lon="5.31903">
        <ele>1464</ele>
        <time>2011-10-01T15:01:26Z</time>
      </trkpt>
      <trkpt lat="44.15226" lon="5.31903">
        <ele>1462.5</ele>
        <time>2011-10-01T15:01:31Z</time>
      </trkpt>
      <trkpt lat="44.15226" lon="5.31903">
        <ele>1462.5</ele>
        <time>2011-10-01T15:01:36Z</time>
      </trkpt>
      <trkpt lat="44.15226" lon="5.31903">
        <ele>1462.5</ele>
        <time>2011-10-01T15:01:41Z</time>
      </trkpt>
      <trkpt lat="44.15226" lon="5.31906">
        <ele>1463.5</ele>
        <time>2011-10-01T15:01:46Z</time>
      </trkpt>
      <trkpt lat="44.15225" lon="5.31906">
        <ele>1463.5</ele>
        <time>2011-10-01T15:01:51Z</time>
      </trkpt>
      <trkpt lat="44.15225" lon="5.31906">
        <ele>1463.5</ele>
        <time>2011-10-01T15:01:56Z</time>
      </trkpt>
      <trkpt lat="44.15225" lon="5.31906">
        <ele>1464.5</ele>
        <time>2011-10-01T15:02:01Z</time>
      </trkpt>
      <trkpt lat="44.15225" lon="5.31906">
        <ele>1466</ele>
        <time>2011-10-01T15:02:06Z</time>
      </trkpt>
      <trkpt lat="44.15225" lon="5.31907">
        <ele>1467</ele>
        <time>2011-10-01T15:02:11Z</time>
      </trkpt>
      <trkpt lat="44.15224" lon="5.31907">
        <ele>1467</ele>
        <time>2011-10-01T15:02:16Z</time>
      </trkpt>
      <trkpt lat="44.15224" lon="5.31907">
        <ele>1466.5</ele>
        <time>2011-10-01T15:02:21Z</time>
      </trkpt>
      <trkpt lat="44.15223" lon="5.31907">
        <ele>1467</ele>
        <time>2011-10-01T15:02:26Z</time>
      </trkpt>
      <trkpt lat="44.15223" lon="5.31907">
        <ele>1467.5</ele>
        <time>2011-10-01T15:02:31Z</time>
      </trkpt>
      <trkpt lat="44.15222" lon="5.31907">
        <ele>1468</ele>
        <time>2011-10-01T15:02:36Z</time>
      </trkpt>
      <trkpt lat="44.15224" lon="5.31907">
        <ele>1467.5</ele>
        <time>2011-10-01T15:02:41Z</time>
      </trkpt>
      <trkpt lat="44.15222" lon="5.31907">
        <ele>1468</ele>
        <time>2011-10-01T15:02:46Z</time>
      </trkpt>
      <trkpt lat="44.15222" lon="5.31906">
        <ele>1468</ele>
        <time>2011-10-01T15:02:51Z</time>
      </trkpt>
      <trkpt lat="44.15222" lon="5.31906">
        <ele>1468</ele>
        <time>2011-10-01T15:02:56Z</time>
      </trkpt>
      <trkpt lat="44.15222" lon="5.31905">
        <ele>1468</ele>
        <time>2011-10-01T15:03:01Z</time>
      </trkpt>
      <trkpt lat="44.15222" lon="5.31904">
        <ele>1468</ele>
        <time>2011-10-01T15:03:06Z</time>
      </trkpt>
      <trkpt lat="44.15222" lon="5.31904">
        <ele>1468.5</ele>
        <time>2011-10-01T15:03:11Z</time>
      </trkpt>
      <trkpt lat="44.15221" lon="5.31903">
        <ele>1469</ele>
        <time>2011-10-01T15:03:16Z</time>
      </trkpt>
      <trkpt lat="44.15221" lon="5.31903">
        <ele>1469</ele>
        <time>2011-10-01T15:03:21Z</time>
      </trkpt>
      <trkpt lat="44.15221" lon="5.31903">
        <ele>1470</ele>
        <time>2011-10-01T15:03:26Z</time>
      </trkpt>
      <trkpt lat="44.1522" lon="5.31903">
        <ele>1471.5</ele>
        <time>2011-10-01T15:03:31Z</time>
      </trkpt>
      <trkpt lat="44.1522" lon="5.31903">
        <ele>1472</ele>
        <time>2011-10-01T15:03:36Z</time>
      </trkpt>
      <trkpt lat="44.1522" lon="5.31903">
        <ele>1472</ele>
        <time>2011-10-01T15:03:41Z</time>
      </trkpt>
      <trkpt lat="44.1522" lon="5.31903">
        <ele>1472</ele>
        <time>2011-10-01T15:03:46Z</time>
      </trkpt>
      <trkpt lat="44.1522" lon="5.31903">
        <ele>1472</ele>
        <time>2011-10-01T15:03:51Z</time>
      </trkpt>
      <trkpt lat="44.1522" lon="5.31903">
        <ele>1472.5</ele>
        <time>2011-10-01T15:03:56Z</time>
      </trkpt>
      <trkpt lat="44.15219" lon="5.31901">
        <ele>1476</ele>
        <time>2011-10-01T15:04:01Z</time>
      </trkpt>
      <trkpt lat="44.1522" lon="5.31902">
        <ele>1474.5</ele>
        <time>2011-10-01T15:04:06Z</time>
      </trkpt>
      <trkpt lat="44.15221" lon="5.31902">
        <ele>1473.5</ele>
        <time>2011-10-01T15:04:11Z</time>
      </trkpt>
      <trkpt lat="44.15222" lon="5.31903">
        <ele>1473</ele>
        <time>2011-10-01T15:04:16Z</time>
      </trkpt>
      <trkpt lat="44.15222" lon="5.31903">
        <ele>1472.5</ele>
        <time>2011-10-01T15:04:21Z</time>
      </trkpt>
      <trkpt lat="44.15223" lon="5.31904">
        <ele>1472</ele>
        <time>2011-10-01T15:04:26Z</time>
      </trkpt>
      <trkpt lat="44.15223" lon="5.31904">
        <ele>1471.5</ele>
        <time>2011-10-01T15:04:31Z</time>
      </trkpt>
      <trkpt lat="44.15222" lon="5.31905">
        <ele>1473</ele>
        <time>2011-10-01T15:04:36Z</time>
      </trkpt>
      <trkpt lat="44.15215" lon="5.31901">
        <ele>1473.5</ele>
        <time>2011-10-01T15:04:41Z</time>
      </trkpt>
      <trkpt lat="44.15202" lon="5.31895">
        <ele>1473.5</ele>
        <time>2011-10-01T15:04:46Z</time>
      </trkpt>
      <trkpt lat="44.15187" lon="5.31887">
        <ele>1473</ele>
        <time>2011-10-01T15:04:51Z</time>
      </trkpt>
      <trkpt lat="44.15169" lon="5.31874">
        <ele>1472</ele>
        <time>2011-10-01T15:04:56Z</time>
      </trkpt>
      <trkpt lat="44.15151" lon="5.31858">
        <ele>1472</ele>
        <time>2011-10-01T15:05:01Z</time>
      </trkpt>
      <trkpt lat="44.15132" lon="5.31842">
        <ele>1472</ele>
        <time>2011-10-01T15:05:06Z</time>
      </trkpt>
      <trkpt lat="44.1511" lon="5.31827">
        <ele>1472</ele>
        <time>2011-10-01T15:05:11Z</time>
      </trkpt>
      <trkpt lat="44.15104" lon="5.31824">
        <ele>1473.5</ele>
        <time>2011-10-01T15:05:16Z</time>
      </trkpt>
      <trkpt lat="44.15104" lon="5.31825">
        <ele>1471.5</ele>
        <time>2011-10-01T15:05:21Z</time>
      </trkpt>
      <trkpt lat="44.15103" lon="5.31827">
        <ele>1471.5</ele>
        <time>2011-10-01T15:05:26Z</time>
      </trkpt>
      <trkpt lat="44.15098" lon="5.31824">
        <ele>1470</ele>
        <time>2011-10-01T15:05:31Z</time>
      </trkpt>
      <trkpt lat="44.15086" lon="5.31817">
        <ele>1470</ele>
        <time>2011-10-01T15:05:36Z</time>
      </trkpt>
      <trkpt lat="44.15071" lon="5.3181">
        <ele>1469.5</ele>
        <time>2011-10-01T15:05:41Z</time>
      </trkpt>
      <trkpt lat="44.15051" lon="5.31805">
        <ele>1469</ele>
        <time>2011-10-01T15:05:46Z</time>
      </trkpt>
      <trkpt lat="44.15029" lon="5.31798">
        <ele>1468.5</ele>
        <time>2011-10-01T15:05:51Z</time>
      </trkpt>
      <trkpt lat="44.15004" lon="5.3179">
        <ele>1469</ele>
        <time>2011-10-01T15:05:56Z</time>
      </trkpt>
      <trkpt lat="44.14978" lon="5.31779">
        <ele>1470</ele>
        <time>2011-10-01T15:06:01Z</time>
      </trkpt>
      <trkpt lat="44.14954" lon="5.31771">
        <ele>1470</ele>
        <time>2011-10-01T15:06:06Z</time>
      </trkpt>
      <trkpt lat="44.14932" lon="5.31775">
        <ele>1469.5</ele>
        <time>2011-10-01T15:06:11Z</time>
      </trkpt>
      <trkpt lat="44.14915" lon="5.31797">
        <ele>1469.5</ele>
        <time>2011-10-01T15:06:16Z</time>
      </trkpt>
      <trkpt lat="44.14907" lon="5.3183">
        <ele>1469.5</ele>
        <time>2011-10-01T15:06:21Z</time>
      </trkpt>
      <trkpt lat="44.14903" lon="5.31864">
        <ele>1470</ele>
        <time>2011-10-01T15:06:26Z</time>
      </trkpt>
      <trkpt lat="44.14901" lon="5.31897">
        <ele>1470</ele>
        <time>2011-10-01T15:06:31Z</time>
      </trkpt>
      <trkpt lat="44.14901" lon="5.31934">
        <ele>1469.5</ele>
        <time>2011-10-01T15:06:36Z</time>
      </trkpt>
      <trkpt lat="44.149" lon="5.31954">
        <ele>1468.5</ele>
        <time>2011-10-01T15:06:41Z</time>
      </trkpt>
      <trkpt lat="44.14902" lon="5.31966">
        <ele>1467</ele>
        <time>2011-10-01T15:06:46Z</time>
      </trkpt>
      <trkpt lat="44.14903" lon="5.31987">
        <ele>1467</ele>
        <time>2011-10-01T15:06:51Z</time>
      </trkpt>
      <trkpt lat="44.14903" lon="5.32015">
        <ele>1467</ele>
        <time>2011-10-01T15:06:56Z</time>
      </trkpt>
      <trkpt lat="44.14901" lon="5.32044">
        <ele>1468</ele>
        <time>2011-10-01T15:07:01Z</time>
      </trkpt>
      <trkpt lat="44.14897" lon="5.32072">
        <ele>1468.5</ele>
        <time>2011-10-01T15:07:06Z</time>
      </trkpt>
      <trkpt lat="44.14892" lon="5.32098">
        <ele>1468.5</ele>
        <time>2011-10-01T15:07:11Z</time>
      </trkpt>
      <trkpt lat="44.14886" lon="5.32122">
        <ele>1469.5</ele>
        <time>2011-10-01T15:07:16Z</time>
      </trkpt>
      <trkpt lat="44.14878" lon="5.32143">
        <ele>1470</ele>
        <time>2011-10-01T15:07:21Z</time>
      </trkpt>
      <trkpt lat="44.14866" lon="5.32174">
        <ele>1472</ele>
        <time>2011-10-01T15:07:26Z</time>
      </trkpt>
      <trkpt lat="44.14856" lon="5.32197">
        <ele>1473.5</ele>
        <time>2011-10-01T15:07:31Z</time>
      </trkpt>
      <trkpt lat="44.14852" lon="5.32204">
        <ele>1474.5</ele>
        <time>2011-10-01T15:07:36Z</time>
      </trkpt>
      <trkpt lat="44.14849" lon="5.32205">
        <ele>1474</ele>
        <time>2011-10-01T15:07:41Z</time>
      </trkpt>
      <trkpt lat="44.14844" lon="5.3221">
        <ele>1474.5</ele>
        <time>2011-10-01T15:07:46Z</time>
      </trkpt>
      <trkpt lat="44.14843" lon="5.32215">
        <ele>1474.5</ele>
        <time>2011-10-01T15:07:51Z</time>
      </trkpt>
      <trkpt lat="44.14838" lon="5.32215">
        <ele>1475</ele>
        <time>2011-10-01T15:07:56Z</time>
      </trkpt>
      <trkpt lat="44.14836" lon="5.32215">
        <ele>1473.5</ele>
        <time>2011-10-01T15:08:01Z</time>
      </trkpt>
      <trkpt lat="44.14836" lon="5.32216">
        <ele>1472.5</ele>
        <time>2011-10-01T15:08:06Z</time>
      </trkpt>
      <trkpt lat="44.14838" lon="5.32216">
        <ele>1472.5</ele>
        <time>2011-10-01T15:08:11Z</time>
      </trkpt>
      <trkpt lat="44.14838" lon="5.32218">
        <ele>1473</ele>
        <time>2011-10-01T15:08:16Z</time>
      </trkpt>
      <trkpt lat="44.14838" lon="5.32229">
        <ele>1473.5</ele>
        <time>2011-10-01T15:08:21Z</time>
      </trkpt>
      <trkpt lat="44.1484" lon="5.3225">
        <ele>1471</ele>
        <time>2011-10-01T15:08:26Z</time>
      </trkpt>
      <trkpt lat="44.14846" lon="5.32278">
        <ele>1470.5</ele>
        <time>2011-10-01T15:08:31Z</time>
      </trkpt>
      <trkpt lat="44.14854" lon="5.32303">
        <ele>1471.5</ele>
        <time>2011-10-01T15:08:36Z</time>
      </trkpt>
      <trkpt lat="44.14865" lon="5.32322">
        <ele>1473</ele>
        <time>2011-10-01T15:08:41Z</time>
      </trkpt>
      <trkpt lat="44.14886" lon="5.32342">
        <ele>1471</ele>
        <time>2011-10-01T15:08:46Z</time>
      </trkpt>
      <trkpt lat="44.14907" lon="5.32355">
        <ele>1469.5</ele>
        <time>2011-10-01T15:08:51Z</time>
      </trkpt>
      <trkpt lat="44.14929" lon="5.32369">
        <ele>1469</ele>
        <time>2011-10-01T15:08:56Z</time>
      </trkpt>
      <trkpt lat="44.14952" lon="5.3239">
        <ele>1469</ele>
        <time>2011-10-01T15:09:01Z</time>
      </trkpt>
      <trkpt lat="44.14975" lon="5.32411">
        <ele>1470</ele>
        <time>2011-10-01T15:09:06Z</time>
      </trkpt>
      <trkpt lat="44.14998" lon="5.3243">
        <ele>1470.5</ele>
        <time>2011-10-01T15:09:11Z</time>
      </trkpt>
      <trkpt lat="44.15022" lon="5.32451">
        <ele>1470.5</ele>
        <time>2011-10-01T15:09:16Z</time>
      </trkpt>
      <trkpt lat="44.15045" lon="5.32472">
        <ele>1470.5</ele>
        <time>2011-10-01T15:09:21Z</time>
      </trkpt>
      <trkpt lat="44.15065" lon="5.32496">
        <ele>1470.5</ele>
        <time>2011-10-01T15:09:26Z</time>
      </trkpt>
      <trkpt lat="44.15086" lon="5.32525">
        <ele>1467.5</ele>
        <time>2011-10-01T15:09:31Z</time>
      </trkpt>
      <trkpt lat="44.15105" lon="5.32551">
        <ele>1466</ele>
        <time>2011-10-01T15:09:36Z</time>
      </trkpt>
      <trkpt lat="44.15124" lon="5.3258">
        <ele>1465</ele>
        <time>2011-10-01T15:09:41Z</time>
      </trkpt>
      <trkpt lat="44.15141" lon="5.32609">
        <ele>1463.5</ele>
        <time>2011-10-01T15:09:46Z</time>
      </trkpt>
      <trkpt lat="44.15159" lon="5.32639">
        <ele>1461.5</ele>
        <time>2011-10-01T15:09:51Z</time>
      </trkpt>
      <trkpt lat="44.15178" lon="5.32662">
        <ele>1461</ele>
        <time>2011-10-01T15:09:56Z</time>
      </trkpt>
      <trkpt lat="44.15201" lon="5.32679">
        <ele>1459.5</ele>
        <time>2011-10-01T15:10:01Z</time>
      </trkpt>
      <trkpt lat="44.15224" lon="5.32695">
        <ele>1458.5</ele>
        <time>2011-10-01T15:10:06Z</time>
      </trkpt>
      <trkpt lat="44.15246" lon="5.32708">
        <ele>1458</ele>
        <time>2011-10-01T15:10:11Z</time>
      </trkpt>
      <trkpt lat="44.15264" lon="5.32718">
        <ele>1459</ele>
        <time>2011-10-01T15:10:16Z</time>
      </trkpt>
      <trkpt lat="44.15288" lon="5.32729">
        <ele>1459</ele>
        <time>2011-10-01T15:10:21Z</time>
      </trkpt>
      <trkpt lat="44.1531" lon="5.32739">
        <ele>1459</ele>
        <time>2011-10-01T15:10:26Z</time>
      </trkpt>
      <trkpt lat="44.15322" lon="5.32747">
        <ele>1459</ele>
        <time>2011-10-01T15:10:31Z</time>
      </trkpt>
      <trkpt lat="44.15321" lon="5.32752">
        <ele>1460.5</ele>
        <time>2011-10-01T15:10:36Z</time>
      </trkpt>
      <trkpt lat="44.15322" lon="5.32754">
        <ele>1461.5</ele>
        <time>2011-10-01T15:10:41Z</time>
      </trkpt>
      <trkpt lat="44.15322" lon="5.32756">
        <ele>1462.5</ele>
        <time>2011-10-01T15:10:46Z</time>
      </trkpt>
      <trkpt lat="44.15323" lon="5.32756">
        <ele>1463.5</ele>
        <time>2011-10-01T15:10:51Z</time>
      </trkpt>
      <trkpt lat="44.15324" lon="5.32759">
        <ele>1465</ele>
        <time>2011-10-01T15:10:56Z</time>
      </trkpt>
      <trkpt lat="44.15325" lon="5.32764">
        <ele>1464</ele>
        <time>2011-10-01T15:11:01Z</time>
      </trkpt>
      <trkpt lat="44.15326" lon="5.32766">
        <ele>1462.5</ele>
        <time>2011-10-01T15:11:06Z</time>
      </trkpt>
      <trkpt lat="44.15326" lon="5.32766">
        <ele>1462</ele>
        <time>2011-10-01T15:11:11Z</time>
      </trkpt>
      <trkpt lat="44.15326" lon="5.32768">
        <ele>1463.5</ele>
        <time>2011-10-01T15:11:16Z</time>
      </trkpt>
      <trkpt lat="44.15326" lon="5.32768">
        <ele>1462</ele>
        <time>2011-10-01T15:11:21Z</time>
      </trkpt>
      <trkpt lat="44.15325" lon="5.32768">
        <ele>1464</ele>
        <time>2011-10-01T15:11:26Z</time>
      </trkpt>
      <trkpt lat="44.15325" lon="5.32768">
        <ele>1463</ele>
        <time>2011-10-01T15:11:31Z</time>
      </trkpt>
      <trkpt lat="44.15325" lon="5.32768">
        <ele>1464</ele>
        <time>2011-10-01T15:11:36Z</time>
      </trkpt>
      <trkpt lat="44.15324" lon="5.32768">
        <ele>1463</ele>
        <time>2011-10-01T15:11:41Z</time>
      </trkpt>
      <trkpt lat="44.15324" lon="5.32768">
        <ele>1463</ele>
        <time>2011-10-01T15:11:46Z</time>
      </trkpt>
      <trkpt lat="44.15326" lon="5.32769">
        <ele>1462.5</ele>
        <time>2011-10-01T15:11:51Z</time>
      </trkpt>
      <trkpt lat="44.15325" lon="5.32768">
        <ele>1463</ele>
        <time>2011-10-01T15:11:56Z</time>
      </trkpt>
      <trkpt lat="44.15325" lon="5.32768">
        <ele>1466</ele>
        <time>2011-10-01T15:12:01Z</time>
      </trkpt>
      <trkpt lat="44.15326" lon="5.32769">
        <ele>1465</ele>
        <time>2011-10-01T15:12:06Z</time>
      </trkpt>
      <trkpt lat="44.15326" lon="5.32769">
        <ele>1464.5</ele>
        <time>2011-10-01T15:12:11Z</time>
      </trkpt>
      <trkpt lat="44.15326" lon="5.32769">
        <ele>1465</ele>
        <time>2011-10-01T15:12:16Z</time>
      </trkpt>
      <trkpt lat="44.15326" lon="5.32769">
        <ele>1465</ele>
        <time>2011-10-01T15:12:21Z</time>
      </trkpt>
      <trkpt lat="44.15326" lon="5.32769">
        <ele>1465</ele>
        <time>2011-10-01T15:12:26Z</time>
      </trkpt>
      <trkpt lat="44.15326" lon="5.32769">
        <ele>1464.5</ele>
        <time>2011-10-01T15:12:31Z</time>
      </trkpt>
      <trkpt lat="44.15326" lon="5.32769">
        <ele>1464.5</ele>
        <time>2011-10-01T15:12:36Z</time>
      </trkpt>
      <trkpt lat="44.15326" lon="5.32769">
        <ele>1464.5</ele>
        <time>2011-10-01T15:12:41Z</time>
      </trkpt>
      <trkpt lat="44.15326" lon="5.32769">
        <ele>1464.5</ele>
        <time>2011-10-01T15:12:46Z</time>
      </trkpt>
      <trkpt lat="44.15326" lon="5.32769">
        <ele>1464.5</ele>
        <time>2011-10-01T15:12:51Z</time>
      </trkpt>
      <trkpt lat="44.15326" lon="5.32769">
        <ele>1464.5</ele>
        <time>2011-10-01T15:12:56Z</time>
      </trkpt>
      <trkpt lat="44.15326" lon="5.32769">
        <ele>1465</ele>
        <time>2011-10-01T15:13:01Z</time>
      </trkpt>
      <trkpt lat="44.15326" lon="5.32769">
        <ele>1464.5</ele>
        <time>2011-10-01T15:13:06Z</time>
      </trkpt>
      <trkpt lat="44.15326" lon="5.32769">
        <ele>1464.5</ele>
        <time>2011-10-01T15:13:11Z</time>
      </trkpt>
      <trkpt lat="44.15326" lon="5.32769">
        <ele>1463.5</ele>
        <time>2011-10-01T15:13:16Z</time>
      </trkpt>
      <trkpt lat="44.15327" lon="5.32769">
        <ele>1463</ele>
        <time>2011-10-01T15:13:21Z</time>
      </trkpt>
      <trkpt lat="44.15326" lon="5.32769">
        <ele>1463</ele>
        <time>2011-10-01T15:13:26Z</time>
      </trkpt>
      <trkpt lat="44.15326" lon="5.32769">
        <ele>1463.5</ele>
        <time>2011-10-01T15:13:31Z</time>
      </trkpt>
      <trkpt lat="44.15326" lon="5.32769">
        <ele>1463</ele>
        <time>2011-10-01T15:13:36Z</time>
      </trkpt>
      <trkpt lat="44.15326" lon="5.32769">
        <ele>1462.5</ele>
        <time>2011-10-01T15:13:41Z</time>
      </trkpt>
      <trkpt lat="44.15313" lon="5.32761">
        <ele>1463</ele>
        <time>2011-10-01T15:13:46Z</time>
      </trkpt>
      <trkpt lat="44.15308" lon="5.32759">
        <ele>1463</ele>
        <time>2011-10-01T15:13:51Z</time>
      </trkpt>
      <trkpt lat="44.15303" lon="5.32757">
        <ele>1463</ele>
        <time>2011-10-01T15:13:56Z</time>
      </trkpt>
      <trkpt lat="44.15301" lon="5.32756">
        <ele>1463.5</ele>
        <time>2011-10-01T15:14:01Z</time>
      </trkpt>
      <trkpt lat="44.15298" lon="5.32754">
        <ele>1463.5</ele>
        <time>2011-10-01T15:14:06Z</time>
      </trkpt>
      <trkpt lat="44.15296" lon="5.32754">
        <ele>1464</ele>
        <time>2011-10-01T15:14:11Z</time>
      </trkpt>
      <trkpt lat="44.15294" lon="5.32756">
        <ele>1463.5</ele>
        <time>2011-10-01T15:14:16Z</time>
      </trkpt>
      <trkpt lat="44.15292" lon="5.32756">
        <ele>1463.5</ele>
        <time>2011-10-01T15:14:21Z</time>
      </trkpt>
      <trkpt lat="44.15292" lon="5.32756">
        <ele>1463.5</ele>
        <time>2011-10-01T15:14:26Z</time>
      </trkpt>
      <trkpt lat="44.15292" lon="5.32757">
        <ele>1463.5</ele>
        <time>2011-10-01T15:14:31Z</time>
      </trkpt>
      <trkpt lat="44.15292" lon="5.32757">
        <ele>1465</ele>
        <time>2011-10-01T15:14:36Z</time>
      </trkpt>
      <trkpt lat="44.15292" lon="5.32757">
        <ele>1465.5</ele>
        <time>2011-10-01T15:14:41Z</time>
      </trkpt>
      <trkpt lat="44.15292" lon="5.32758">
        <ele>1465</ele>
        <time>2011-10-01T15:14:46Z</time>
      </trkpt>
      <trkpt lat="44.15289" lon="5.32757">
        <ele>1464.5</ele>
        <time>2011-10-01T15:14:51Z</time>
      </trkpt>
      <trkpt lat="44.15272" lon="5.32749">
        <ele>1464</ele>
        <time>2011-10-01T15:14:56Z</time>
      </trkpt>
      <trkpt lat="44.15257" lon="5.32745">
        <ele>1464</ele>
        <time>2011-10-01T15:15:01Z</time>
      </trkpt>
      <trkpt lat="44.15251" lon="5.32742">
        <ele>1464</ele>
        <time>2011-10-01T15:15:06Z</time>
      </trkpt>
      <trkpt lat="44.15248" lon="5.32742">
        <ele>1464.5</ele>
        <time>2011-10-01T15:15:11Z</time>
      </trkpt>
      <trkpt lat="44.15248" lon="5.32742">
        <ele>1464</ele>
        <time>2011-10-01T15:15:16Z</time>
      </trkpt>
      <trkpt lat="44.15246" lon="5.32741">
        <ele>1463.5</ele>
        <time>2011-10-01T15:15:21Z</time>
      </trkpt>
      <trkpt lat="44.15244" lon="5.32741">
        <ele>1463</ele>
        <time>2011-10-01T15:15:26Z</time>
      </trkpt>
      <trkpt lat="44.1524" lon="5.3274">
        <ele>1463</ele>
        <time>2011-10-01T15:15:31Z</time>
      </trkpt>
      <trkpt lat="44.15212" lon="5.32736">
        <ele>1462.5</ele>
        <time>2011-10-01T15:15:36Z</time>
      </trkpt>
      <trkpt lat="44.15201" lon="5.32734">
        <ele>1462.5</ele>
        <time>2011-10-01T15:15:41Z</time>
      </trkpt>
      <trkpt lat="44.15178" lon="5.32725">
        <ele>1462.5</ele>
        <time>2011-10-01T15:15:46Z</time>
      </trkpt>
      <trkpt lat="44.15163" lon="5.32721">
        <ele>1462</ele>
        <time>2011-10-01T15:15:51Z</time>
      </trkpt>
      <trkpt lat="44.15149" lon="5.32713">
        <ele>1461.5</ele>
        <time>2011-10-01T15:15:56Z</time>
      </trkpt>
      <trkpt lat="44.15146" lon="5.32714">
        <ele>1463</ele>
        <time>2011-10-01T15:16:01Z</time>
      </trkpt>
      <trkpt lat="44.15139" lon="5.32711">
        <ele>1463</ele>
        <time>2011-10-01T15:16:06Z</time>
      </trkpt>
      <trkpt lat="44.15131" lon="5.32708">
        <ele>1463</ele>
        <time>2011-10-01T15:16:11Z</time>
      </trkpt>
      <trkpt lat="44.15123" lon="5.32704">
        <ele>1462</ele>
        <time>2011-10-01T15:16:16Z</time>
      </trkpt>
      <trkpt lat="44.15117" lon="5.327">
        <ele>1461.5</ele>
        <time>2011-10-01T15:16:21Z</time>
      </trkpt>
      <trkpt lat="44.15111" lon="5.32698">
        <ele>1461.5</ele>
        <time>2011-10-01T15:16:26Z</time>
      </trkpt>
      <trkpt lat="44.15094" lon="5.32687">
        <ele>1461.5</ele>
        <time>2011-10-01T15:16:31Z</time>
      </trkpt>
      <trkpt lat="44.15075" lon="5.32674">
        <ele>1462</ele>
        <time>2011-10-01T15:16:36Z</time>
      </trkpt>
      <trkpt lat="44.15052" lon="5.32662">
        <ele>1461.5</ele>
        <time>2011-10-01T15:16:41Z</time>
      </trkpt>
      <trkpt lat="44.15036" lon="5.32652">
        <ele>1461.5</ele>
        <time>2011-10-01T15:16:46Z</time>
      </trkpt>
      <trkpt lat="44.15032" lon="5.32643">
        <ele>1461</ele>
        <time>2011-10-01T15:16:51Z</time>
      </trkpt>
      <trkpt lat="44.15025" lon="5.32638">
        <ele>1459</ele>
        <time>2011-10-01T15:16:56Z</time>
      </trkpt>
      <trkpt lat="44.15019" lon="5.32634">
        <ele>1459</ele>
        <time>2011-10-01T15:17:01Z</time>
      </trkpt>
      <trkpt lat="44.15003" lon="5.32622">
        <ele>1457</ele>
        <time>2011-10-01T15:17:06Z</time>
      </trkpt>
      <trkpt lat="44.14947" lon="5.32586">
        <ele>1458</ele>
        <time>2011-10-01T15:17:16Z</time>
      </trkpt>
      <trkpt lat="44.14936" lon="5.32575">
        <ele>1459</ele>
        <time>2011-10-01T15:17:21Z</time>
      </trkpt>
      <trkpt lat="44.14931" lon="5.32573">
        <ele>1460</ele>
        <time>2011-10-01T15:17:26Z</time>
      </trkpt>
      <trkpt lat="44.1493" lon="5.32572">
        <ele>1460.5</ele>
        <time>2011-10-01T15:17:31Z</time>
      </trkpt>
      <trkpt lat="44.14927" lon="5.32567">
        <ele>1459.5</ele>
        <time>2011-10-01T15:17:36Z</time>
      </trkpt>
      <trkpt lat="44.14924" lon="5.32566">
        <ele>1460</ele>
        <time>2011-10-01T15:17:41Z</time>
      </trkpt>
      <trkpt lat="44.14924" lon="5.32565">
        <ele>1459</ele>
        <time>2011-10-01T15:17:46Z</time>
      </trkpt>
      <trkpt lat="44.14914" lon="5.32559">
        <ele>1457</ele>
        <time>2011-10-01T15:17:51Z</time>
      </trkpt>
      <trkpt lat="44.14895" lon="5.32551">
        <ele>1455</ele>
        <time>2011-10-01T15:17:56Z</time>
      </trkpt>
      <trkpt lat="44.14891" lon="5.32549">
        <ele>1454.5</ele>
        <time>2011-10-01T15:18:01Z</time>
      </trkpt>
      <trkpt lat="44.14876" lon="5.3254">
        <ele>1453.5</ele>
        <time>2011-10-01T15:18:06Z</time>
      </trkpt>
      <trkpt lat="44.14856" lon="5.32532">
        <ele>1454</ele>
        <time>2011-10-01T15:18:11Z</time>
      </trkpt>
      <trkpt lat="44.1485" lon="5.3253">
        <ele>1454</ele>
        <time>2011-10-01T15:18:16Z</time>
      </trkpt>
      <trkpt lat="44.14806" lon="5.32524">
        <ele>1451.5</ele>
        <time>2011-10-01T15:18:21Z</time>
      </trkpt>
      <trkpt lat="44.14784" lon="5.32524">
        <ele>1451</ele>
        <time>2011-10-01T15:18:26Z</time>
      </trkpt>
      <trkpt lat="44.1476" lon="5.32524">
        <ele>1445</ele>
        <time>2011-10-01T15:18:31Z</time>
      </trkpt>
      <trkpt lat="44.14715" lon="5.32526">
        <ele>1435</ele>
        <time>2011-10-01T15:18:36Z</time>
      </trkpt>
      <trkpt lat="44.14688" lon="5.3254">
        <ele>1432.5</ele>
        <time>2011-10-01T15:18:41Z</time>
      </trkpt>
      <trkpt lat="44.14678" lon="5.32552">
        <ele>1430.5</ele>
        <time>2011-10-01T15:18:46Z</time>
      </trkpt>
      <trkpt lat="44.14671" lon="5.32552">
        <ele>1426.5</ele>
        <time>2011-10-01T15:18:51Z</time>
      </trkpt>
      <trkpt lat="44.14669" lon="5.32553">
        <ele>1423</ele>
        <time>2011-10-01T15:18:56Z</time>
      </trkpt>
      <trkpt lat="44.14669" lon="5.32552">
        <ele>1420.5</ele>
        <time>2011-10-01T15:19:01Z</time>
      </trkpt>
      <trkpt lat="44.14671" lon="5.32556">
        <ele>1414.5</ele>
        <time>2011-10-01T15:19:06Z</time>
      </trkpt>
      <trkpt lat="44.14672" lon="5.32557">
        <ele>1413.5</ele>
        <time>2011-10-01T15:19:11Z</time>
      </trkpt>
      <trkpt lat="44.14673" lon="5.32558">
        <ele>1412.5</ele>
        <time>2011-10-01T15:19:16Z</time>
      </trkpt>
      <trkpt lat="44.14672" lon="5.32558">
        <ele>1412.5</ele>
        <time>2011-10-01T15:19:21Z</time>
      </trkpt>
      <trkpt lat="44.14671" lon="5.3259">
        <ele>1404.5</ele>
        <time>2011-10-01T15:19:26Z</time>
      </trkpt>
      <trkpt lat="44.14652" lon="5.32617">
        <ele>1401.5</ele>
        <time>2011-10-01T15:19:31Z</time>
      </trkpt>
      <trkpt lat="44.14627" lon="5.32633">
        <ele>1402.5</ele>
        <time>2011-10-01T15:19:36Z</time>
      </trkpt>
      <trkpt lat="44.1461" lon="5.3265">
        <ele>1402.5</ele>
        <time>2011-10-01T15:19:41Z</time>
      </trkpt>
      <trkpt lat="44.14577" lon="5.32671">
        <ele>1401</ele>
        <time>2011-10-01T15:19:46Z</time>
      </trkpt>
      <trkpt lat="44.14557" lon="5.32679">
        <ele>1398.5</ele>
        <time>2011-10-01T15:19:51Z</time>
      </trkpt>
      <trkpt lat="44.14521" lon="5.32674">
        <ele>1401</ele>
        <time>2011-10-01T15:19:56Z</time>
      </trkpt>
      <trkpt lat="44.14488" lon="5.32658">
        <ele>1402</ele>
        <time>2011-10-01T15:20:01Z</time>
      </trkpt>
      <trkpt lat="44.14466" lon="5.3265">
        <ele>1402.5</ele>
        <time>2011-10-01T15:20:06Z</time>
      </trkpt>
      <trkpt lat="44.14432" lon="5.32637">
        <ele>1402.5</ele>
        <time>2011-10-01T15:20:11Z</time>
      </trkpt>
      <trkpt lat="44.14423" lon="5.32633">
        <ele>1403</ele>
        <time>2011-10-01T15:20:16Z</time>
      </trkpt>
      <trkpt lat="44.14423" lon="5.32635">
        <ele>1404</ele>
        <time>2011-10-01T15:20:21Z</time>
      </trkpt>
      <trkpt lat="44.1442" lon="5.32634">
        <ele>1404</ele>
        <time>2011-10-01T15:20:26Z</time>
      </trkpt>
      <trkpt lat="44.14418" lon="5.32633">
        <ele>1403</ele>
        <time>2011-10-01T15:20:31Z</time>
      </trkpt>
      <trkpt lat="44.14416" lon="5.32633">
        <ele>1403</ele>
        <time>2011-10-01T15:20:36Z</time>
      </trkpt>
      <trkpt lat="44.14412" lon="5.32632">
        <ele>1403.5</ele>
        <time>2011-10-01T15:20:41Z</time>
      </trkpt>
      <trkpt lat="44.14409" lon="5.3263">
        <ele>1402.5</ele>
        <time>2011-10-01T15:20:46Z</time>
      </trkpt>
      <trkpt lat="44.1441" lon="5.32629">
        <ele>1402</ele>
        <time>2011-10-01T15:20:51Z</time>
      </trkpt>
      <trkpt lat="44.14408" lon="5.32629">
        <ele>1402</ele>
        <time>2011-10-01T15:20:56Z</time>
      </trkpt>
      <trkpt lat="44.14407" lon="5.32628">
        <ele>1402.5</ele>
        <time>2011-10-01T15:21:01Z</time>
      </trkpt>
      <trkpt lat="44.14406" lon="5.32627">
        <ele>1402.5</ele>
        <time>2011-10-01T15:21:06Z</time>
      </trkpt>
      <trkpt lat="44.14394" lon="5.32618">
        <ele>1402.5</ele>
        <time>2011-10-01T15:21:11Z</time>
      </trkpt>
      <trkpt lat="44.1436" lon="5.32601">
        <ele>1403</ele>
        <time>2011-10-01T15:21:16Z</time>
      </trkpt>
      <trkpt lat="44.14327" lon="5.32584">
        <ele>1403.5</ele>
        <time>2011-10-01T15:21:21Z</time>
      </trkpt>
      <trkpt lat="44.14298" lon="5.32562">
        <ele>1403.5</ele>
        <time>2011-10-01T15:21:26Z</time>
      </trkpt>
      <trkpt lat="44.14273" lon="5.32555">
        <ele>1402.5</ele>
        <time>2011-10-01T15:21:31Z</time>
      </trkpt>
      <trkpt lat="44.14249" lon="5.32556">
        <ele>1400</ele>
        <time>2011-10-01T15:21:36Z</time>
      </trkpt>
      <trkpt lat="44.1423" lon="5.3256">
        <ele>1395</ele>
        <time>2011-10-01T15:21:41Z</time>
      </trkpt>
      <trkpt lat="44.14215" lon="5.32563">
        <ele>1393</ele>
        <time>2011-10-01T15:21:46Z</time>
      </trkpt>
      <trkpt lat="44.14196" lon="5.32565">
        <ele>1390</ele>
        <time>2011-10-01T15:21:51Z</time>
      </trkpt>
      <trkpt lat="44.14169" lon="5.32565">
        <ele>1388</ele>
        <time>2011-10-01T15:21:56Z</time>
      </trkpt>
      <trkpt lat="44.14138" lon="5.32563">
        <ele>1383.5</ele>
        <time>2011-10-01T15:22:01Z</time>
      </trkpt>
      <trkpt lat="44.14109" lon="5.3257">
        <ele>1382</ele>
        <time>2011-10-01T15:22:06Z</time>
      </trkpt>
      <trkpt lat="44.14096" lon="5.32576">
        <ele>1380.5</ele>
        <time>2011-10-01T15:22:11Z</time>
      </trkpt>
      <trkpt lat="44.14093" lon="5.32582">
        <ele>1376.5</ele>
        <time>2011-10-01T15:22:16Z</time>
      </trkpt>
      <trkpt lat="44.14092" lon="5.32584">
        <ele>1375.5</ele>
        <time>2011-10-01T15:22:21Z</time>
      </trkpt>
      <trkpt lat="44.1409" lon="5.32586">
        <ele>1374</ele>
        <time>2011-10-01T15:22:26Z</time>
      </trkpt>
      <trkpt lat="44.14087" lon="5.32585">
        <ele>1374</ele>
        <time>2011-10-01T15:22:31Z</time>
      </trkpt>
      <trkpt lat="44.14088" lon="5.32585">
        <ele>1371.5</ele>
        <time>2011-10-01T15:22:36Z</time>
      </trkpt>
      <trkpt lat="44.14088" lon="5.32583">
        <ele>1371</ele>
        <time>2011-10-01T15:22:41Z</time>
      </trkpt>
      <trkpt lat="44.14088" lon="5.32582">
        <ele>1370.5</ele>
        <time>2011-10-01T15:22:46Z</time>
      </trkpt>
      <trkpt lat="44.14088" lon="5.32582">
        <ele>1370.5</ele>
        <time>2011-10-01T15:22:51Z</time>
      </trkpt>
      <trkpt lat="44.14088" lon="5.32582">
        <ele>1370.5</ele>
        <time>2011-10-01T15:22:56Z</time>
      </trkpt>
      <trkpt lat="44.14088" lon="5.32582">
        <ele>1370.5</ele>
        <time>2011-10-01T15:23:01Z</time>
      </trkpt>
      <trkpt lat="44.14087" lon="5.32582">
        <ele>1370.5</ele>
        <time>2011-10-01T15:23:06Z</time>
      </trkpt>
      <trkpt lat="44.14083" lon="5.32578">
        <ele>1368</ele>
        <time>2011-10-01T15:23:11Z</time>
      </trkpt>
      <trkpt lat="44.14088" lon="5.32581">
        <ele>1363.5</ele>
        <time>2011-10-01T15:23:16Z</time>
      </trkpt>
      <trkpt lat="44.14091" lon="5.32582">
        <ele>1360.5</ele>
        <time>2011-10-01T15:23:21Z</time>
      </trkpt>
      <trkpt lat="44.14091" lon="5.32582">
        <ele>1360</ele>
        <time>2011-10-01T15:23:26Z</time>
      </trkpt>
      <trkpt lat="44.14097" lon="5.32582">
        <ele>1351.5</ele>
        <time>2011-10-01T15:23:31Z</time>
      </trkpt>
      <trkpt lat="44.14097" lon="5.32583">
        <ele>1350</ele>
        <time>2011-10-01T15:23:36Z</time>
      </trkpt>
      <trkpt lat="44.14098" lon="5.32582">
        <ele>1349</ele>
        <time>2011-10-01T15:23:41Z</time>
      </trkpt>
      <trkpt lat="44.14098" lon="5.32581">
        <ele>1346.5</ele>
        <time>2011-10-01T15:23:46Z</time>
      </trkpt>
      <trkpt lat="44.14098" lon="5.32581">
        <ele>1346.5</ele>
        <time>2011-10-01T15:23:51Z</time>
      </trkpt>
      <trkpt lat="44.14098" lon="5.32581">
        <ele>1346.5</ele>
        <time>2011-10-01T15:23:56Z</time>
      </trkpt>
      <trkpt lat="44.14098" lon="5.32581">
        <ele>1347.5</ele>
        <time>2011-10-01T15:24:01Z</time>
      </trkpt>
      <trkpt lat="44.14097" lon="5.32581">
        <ele>1348</ele>
        <time>2011-10-01T15:24:06Z</time>
      </trkpt>
      <trkpt lat="44.14097" lon="5.32581">
        <ele>1347</ele>
        <time>2011-10-01T15:24:11Z</time>
      </trkpt>
      <trkpt lat="44.14095" lon="5.32583">
        <ele>1346.5</ele>
        <time>2011-10-01T15:24:16Z</time>
      </trkpt>
      <trkpt lat="44.14094" lon="5.32582">
        <ele>1346.5</ele>
        <time>2011-10-01T15:24:21Z</time>
      </trkpt>
      <trkpt lat="44.14086" lon="5.3258">
        <ele>1345.5</ele>
        <time>2011-10-01T15:24:26Z</time>
      </trkpt>
      <trkpt lat="44.14062" lon="5.3259">
        <ele>1343</ele>
        <time>2011-10-01T15:24:31Z</time>
      </trkpt>
      <trkpt lat="44.14028" lon="5.32597">
        <ele>1342</ele>
        <time>2011-10-01T15:24:36Z</time>
      </trkpt>
      <trkpt lat="44.14012" lon="5.32614">
        <ele>1341</ele>
        <time>2011-10-01T15:24:41Z</time>
      </trkpt>
      <trkpt lat="44.13999" lon="5.32638">
        <ele>1339</ele>
        <time>2011-10-01T15:24:46Z</time>
      </trkpt>
      <trkpt lat="44.13978" lon="5.32642">
        <ele>1339</ele>
        <time>2011-10-01T15:24:51Z</time>
      </trkpt>
      <trkpt lat="44.1396" lon="5.32637">
        <ele>1339</ele>
        <time>2011-10-01T15:24:56Z</time>
      </trkpt>
      <trkpt lat="44.13946" lon="5.32633">
        <ele>1338</ele>
        <time>2011-10-01T15:25:01Z</time>
      </trkpt>
      <trkpt lat="44.13943" lon="5.32633">
        <ele>1338</ele>
        <time>2011-10-01T15:25:06Z</time>
      </trkpt>
      <trkpt lat="44.13924" lon="5.32619">
        <ele>1338.5</ele>
        <time>2011-10-01T15:25:11Z</time>
      </trkpt>
      <trkpt lat="44.13919" lon="5.3262">
        <ele>1338.5</ele>
        <time>2011-10-01T15:25:16Z</time>
      </trkpt>
      <trkpt lat="44.13912" lon="5.3262">
        <ele>1338</ele>
        <time>2011-10-01T15:25:21Z</time>
      </trkpt>
      <trkpt lat="44.13914" lon="5.32621">
        <ele>1337.5</ele>
        <time>2011-10-01T15:25:26Z</time>
      </trkpt>
      <trkpt lat="44.13914" lon="5.32621">
        <ele>1337.5</ele>
        <time>2011-10-01T15:25:31Z</time>
      </trkpt>
      <trkpt lat="44.13914" lon="5.3262">
        <ele>1337.5</ele>
        <time>2011-10-01T15:25:36Z</time>
      </trkpt>
      <trkpt lat="44.13909" lon="5.32616">
        <ele>1337.5</ele>
        <time>2011-10-01T15:25:41Z</time>
      </trkpt>
      <trkpt lat="44.13902" lon="5.32608">
        <ele>1337</ele>
        <time>2011-10-01T15:25:46Z</time>
      </trkpt>
      <trkpt lat="44.13895" lon="5.326">
        <ele>1337.5</ele>
        <time>2011-10-01T15:25:51Z</time>
      </trkpt>
      <trkpt lat="44.13891" lon="5.32593">
        <ele>1337</ele>
        <time>2011-10-01T15:25:56Z</time>
      </trkpt>
      <trkpt lat="44.13878" lon="5.3258">
        <ele>1336.5</ele>
        <time>2011-10-01T15:26:01Z</time>
      </trkpt>
      <trkpt lat="44.13876" lon="5.32577">
        <ele>1336.5</ele>
        <time>2011-10-01T15:26:06Z</time>
      </trkpt>
      <trkpt lat="44.13867" lon="5.32557">
        <ele>1336.5</ele>
        <time>2011-10-01T15:26:11Z</time>
      </trkpt>
      <trkpt lat="44.13843" lon="5.32539">
        <ele>1337</ele>
        <time>2011-10-01T15:26:16Z</time>
      </trkpt>
      <trkpt lat="44.13829" lon="5.32521">
        <ele>1336.5</ele>
        <time>2011-10-01T15:26:21Z</time>
      </trkpt>
      <trkpt lat="44.13816" lon="5.3251">
        <ele>1336.5</ele>
        <time>2011-10-01T15:26:26Z</time>
      </trkpt>
      <trkpt lat="44.13802" lon="5.3249">
        <ele>1335</ele>
        <time>2011-10-01T15:26:31Z</time>
      </trkpt>
      <trkpt lat="44.13783" lon="5.32456">
        <ele>1332.5</ele>
        <time>2011-10-01T15:26:36Z</time>
      </trkpt>
      <trkpt lat="44.13796" lon="5.32439">
        <ele>1332.5</ele>
        <time>2011-10-01T15:26:41Z</time>
      </trkpt>
      <trkpt lat="44.13816" lon="5.32414">
        <ele>1331</ele>
        <time>2011-10-01T15:26:46Z</time>
      </trkpt>
      <trkpt lat="44.13824" lon="5.32387">
        <ele>1330.5</ele>
        <time>2011-10-01T15:26:51Z</time>
      </trkpt>
      <trkpt lat="44.1382" lon="5.32372">
        <ele>1330</ele>
        <time>2011-10-01T15:26:56Z</time>
      </trkpt>
      <trkpt lat="44.13833" lon="5.32331">
        <ele>1330.5</ele>
        <time>2011-10-01T15:27:01Z</time>
      </trkpt>
      <trkpt lat="44.13836" lon="5.32292">
        <ele>1328.5</ele>
        <time>2011-10-01T15:27:06Z</time>
      </trkpt>
      <trkpt lat="44.13823" lon="5.32278">
        <ele>1328</ele>
        <time>2011-10-01T15:27:11Z</time>
      </trkpt>
      <trkpt lat="44.13802" lon="5.32253">
        <ele>1328</ele>
        <time>2011-10-01T15:27:16Z</time>
      </trkpt>
      <trkpt lat="44.13802" lon="5.32249">
        <ele>1325</ele>
        <time>2011-10-01T15:27:21Z</time>
      </trkpt>
      <trkpt lat="44.13805" lon="5.32249">
        <ele>1325</ele>
        <time>2011-10-01T15:27:26Z</time>
      </trkpt>
      <trkpt lat="44.13804" lon="5.32244">
        <ele>1325</ele>
        <time>2011-10-01T15:27:31Z</time>
      </trkpt>
      <trkpt lat="44.13803" lon="5.32236">
        <ele>1323.5</ele>
        <time>2011-10-01T15:27:36Z</time>
      </trkpt>
      <trkpt lat="44.13803" lon="5.32228">
        <ele>1318.5</ele>
        <time>2011-10-01T15:27:41Z</time>
      </trkpt>
      <trkpt lat="44.13803" lon="5.32228">
        <ele>1318.5</ele>
        <time>2011-10-01T15:27:46Z</time>
      </trkpt>
      <trkpt lat="44.13803" lon="5.32227">
        <ele>1318.5</ele>
        <time>2011-10-01T15:27:51Z</time>
      </trkpt>
      <trkpt lat="44.13803" lon="5.32227">
        <ele>1318.5</ele>
        <time>2011-10-01T15:27:56Z</time>
      </trkpt>
      <trkpt lat="44.13803" lon="5.32227">
        <ele>1318.5</ele>
        <time>2011-10-01T15:28:01Z</time>
      </trkpt>
      <trkpt lat="44.13802" lon="5.32227">
        <ele>1318.5</ele>
        <time>2011-10-01T15:28:06Z</time>
      </trkpt>
      <trkpt lat="44.13799" lon="5.32215">
        <ele>1318</ele>
        <time>2011-10-01T15:28:11Z</time>
      </trkpt>
      <trkpt lat="44.13778" lon="5.32164">
        <ele>1312.5</ele>
        <time>2011-10-01T15:28:16Z</time>
      </trkpt>
      <trkpt lat="44.13759" lon="5.32125">
        <ele>1310</ele>
        <time>2011-10-01T15:28:21Z</time>
      </trkpt>
      <trkpt lat="44.13736" lon="5.3209">
        <ele>1309.5</ele>
        <time>2011-10-01T15:28:26Z</time>
      </trkpt>
      <trkpt lat="44.13719" lon="5.32056">
        <ele>1306.5</ele>
        <time>2011-10-01T15:28:31Z</time>
      </trkpt>
      <trkpt lat="44.13701" lon="5.32006">
        <ele>1295.5</ele>
        <time>2011-10-01T15:28:36Z</time>
      </trkpt>
      <trkpt lat="44.13694" lon="5.31984">
        <ele>1292</ele>
        <time>2011-10-01T15:28:41Z</time>
      </trkpt>
      <trkpt lat="44.13687" lon="5.31951">
        <ele>1289.5</ele>
        <time>2011-10-01T15:28:46Z</time>
      </trkpt>
      <trkpt lat="44.13676" lon="5.31914">
        <ele>1283</ele>
        <time>2011-10-01T15:28:51Z</time>
      </trkpt>
      <trkpt lat="44.13671" lon="5.31889">
        <ele>1279.5</ele>
        <time>2011-10-01T15:28:56Z</time>
      </trkpt>
      <trkpt lat="44.13677" lon="5.31866">
        <ele>1271.5</ele>
        <time>2011-10-01T15:29:01Z</time>
      </trkpt>
      <trkpt lat="44.13683" lon="5.3186">
        <ele>1263.5</ele>
        <time>2011-10-01T15:29:06Z</time>
      </trkpt>
      <trkpt lat="44.13683" lon="5.31859">
        <ele>1262.5</ele>
        <time>2011-10-01T15:29:11Z</time>
      </trkpt>
      <trkpt lat="44.13684" lon="5.31859">
        <ele>1263</ele>
        <time>2011-10-01T15:29:16Z</time>
      </trkpt>
      <trkpt lat="44.13682" lon="5.31856">
        <ele>1261</ele>
        <time>2011-10-01T15:29:21Z</time>
      </trkpt>
      <trkpt lat="44.13682" lon="5.31851">
        <ele>1253</ele>
        <time>2011-10-01T15:29:26Z</time>
      </trkpt>
      <trkpt lat="44.13678" lon="5.31848">
        <ele>1249</ele>
        <time>2011-10-01T15:29:31Z</time>
      </trkpt>
      <trkpt lat="44.13679" lon="5.31846">
        <ele>1247.5</ele>
        <time>2011-10-01T15:29:36Z</time>
      </trkpt>
      <trkpt lat="44.13678" lon="5.31846">
        <ele>1247.5</ele>
        <time>2011-10-01T15:29:41Z</time>
      </trkpt>
      <trkpt lat="44.13678" lon="5.31845">
        <ele>1247.5</ele>
        <time>2011-10-01T15:29:46Z</time>
      </trkpt>
      <trkpt lat="44.13678" lon="5.31845">
        <ele>1247.5</ele>
        <time>2011-10-01T15:29:51Z</time>
      </trkpt>
      <trkpt lat="44.13678" lon="5.31845">
        <ele>1247.5</ele>
        <time>2011-10-01T15:29:56Z</time>
      </trkpt>
      <trkpt lat="44.13682" lon="5.31842">
        <ele>1239</ele>
        <time>2011-10-01T15:30:01Z</time>
      </trkpt>
      <trkpt lat="44.13687" lon="5.31845">
        <ele>1229.5</ele>
        <time>2011-10-01T15:30:06Z</time>
      </trkpt>
      <trkpt lat="44.13688" lon="5.31845">
        <ele>1228</ele>
        <time>2011-10-01T15:30:11Z</time>
      </trkpt>
      <trkpt lat="44.1369" lon="5.31847">
        <ele>1222.5</ele>
        <time>2011-10-01T15:30:16Z</time>
      </trkpt>
      <trkpt lat="44.13691" lon="5.31849">
        <ele>1223</ele>
        <time>2011-10-01T15:30:21Z</time>
      </trkpt>
      <trkpt lat="44.13691" lon="5.31849">
        <ele>1223</ele>
        <time>2011-10-01T15:30:26Z</time>
      </trkpt>
      <trkpt lat="44.13691" lon="5.31849">
        <ele>1223</ele>
        <time>2011-10-01T15:30:31Z</time>
      </trkpt>
      <trkpt lat="44.13691" lon="5.31849">
        <ele>1222.5</ele>
        <time>2011-10-01T15:30:36Z</time>
      </trkpt>
      <trkpt lat="44.13691" lon="5.31849">
        <ele>1222.5</ele>
        <time>2011-10-01T15:30:41Z</time>
      </trkpt>
      <trkpt lat="44.13692" lon="5.31849">
        <ele>1220.5</ele>
        <time>2011-10-01T15:30:46Z</time>
      </trkpt>
      <trkpt lat="44.1369" lon="5.31847">
        <ele>1220</ele>
        <time>2011-10-01T15:30:51Z</time>
      </trkpt>
      <trkpt lat="44.1369" lon="5.31847">
        <ele>1220</ele>
        <time>2011-10-01T15:30:56Z</time>
      </trkpt>
      <trkpt lat="44.13691" lon="5.31847">
        <ele>1219.5</ele>
        <time>2011-10-01T15:31:01Z</time>
      </trkpt>
      <trkpt lat="44.1369" lon="5.31846">
        <ele>1220</ele>
        <time>2011-10-01T15:31:06Z</time>
      </trkpt>
      <trkpt lat="44.13691" lon="5.31846">
        <ele>1219.5</ele>
        <time>2011-10-01T15:31:11Z</time>
      </trkpt>
      <trkpt lat="44.13692" lon="5.31846">
        <ele>1218</ele>
        <time>2011-10-01T15:31:16Z</time>
      </trkpt>
      <trkpt lat="44.13691" lon="5.31847">
        <ele>1219</ele>
        <time>2011-10-01T15:31:21Z</time>
      </trkpt>
      <trkpt lat="44.13688" lon="5.31855">
        <ele>1221</ele>
        <time>2011-10-01T15:31:26Z</time>
      </trkpt>
      <trkpt lat="44.13681" lon="5.31868">
        <ele>1221</ele>
        <time>2011-10-01T15:31:31Z</time>
      </trkpt>
      <trkpt lat="44.13675" lon="5.31869">
        <ele>1221</ele>
        <time>2011-10-01T15:31:36Z</time>
      </trkpt>
      <trkpt lat="44.13679" lon="5.31861">
        <ele>1221</ele>
        <time>2011-10-01T15:31:41Z</time>
      </trkpt>
      <trkpt lat="44.13678" lon="5.31874">
        <ele>1221</ele>
        <time>2011-10-01T15:31:46Z</time>
      </trkpt>
      <trkpt lat="44.13668" lon="5.3187">
        <ele>1221</ele>
        <time>2011-10-01T15:31:51Z</time>
      </trkpt>
      <trkpt lat="44.13659" lon="5.31857">
        <ele>1220.5</ele>
        <time>2011-10-01T15:31:56Z</time>
      </trkpt>
      <trkpt lat="44.13652" lon="5.31846">
        <ele>1221</ele>
        <time>2011-10-01T15:32:01Z</time>
      </trkpt>
      <trkpt lat="44.13652" lon="5.31848">
        <ele>1221</ele>
        <time>2011-10-01T15:32:06Z</time>
      </trkpt>
      <trkpt lat="44.13649" lon="5.31848">
        <ele>1221</ele>
        <time>2011-10-01T15:32:11Z</time>
      </trkpt>
      <trkpt lat="44.13657" lon="5.31843">
        <ele>1221</ele>
        <time>2011-10-01T15:32:16Z</time>
      </trkpt>
      <trkpt lat="44.13655" lon="5.31833">
        <ele>1221</ele>
        <time>2011-10-01T15:32:21Z</time>
      </trkpt>
      <trkpt lat="44.13644" lon="5.31815">
        <ele>1221.5</ele>
        <time>2011-10-01T15:32:26Z</time>
      </trkpt>
      <trkpt lat="44.13631" lon="5.31805">
        <ele>1221.5</ele>
        <time>2011-10-01T15:32:31Z</time>
      </trkpt>
      <trkpt lat="44.13616" lon="5.31801">
        <ele>1221.5</ele>
        <time>2011-10-01T15:32:36Z</time>
      </trkpt>
      <trkpt lat="44.13608" lon="5.31799">
        <ele>1221.5</ele>
        <time>2011-10-01T15:32:41Z</time>
      </trkpt>
      <trkpt lat="44.13603" lon="5.31793">
        <ele>1222.5</ele>
        <time>2011-10-01T15:32:46Z</time>
      </trkpt>
      <trkpt lat="44.13604" lon="5.31786">
        <ele>1224</ele>
        <time>2011-10-01T15:32:51Z</time>
      </trkpt>
      <trkpt lat="44.13602" lon="5.31782">
        <ele>1221.5</ele>
        <time>2011-10-01T15:32:56Z</time>
      </trkpt>
      <trkpt lat="44.13604" lon="5.31778">
        <ele>1221</ele>
        <time>2011-10-01T15:33:01Z</time>
      </trkpt>
      <trkpt lat="44.13605" lon="5.31778">
        <ele>1222</ele>
        <time>2011-10-01T15:33:06Z</time>
      </trkpt>
      <trkpt lat="44.13605" lon="5.31778">
        <ele>1222</ele>
        <time>2011-10-01T15:33:16Z</time>
      </trkpt>
      <trkpt lat="44.13605" lon="5.31778">
        <ele>1222</ele>
        <time>2011-10-01T15:33:21Z</time>
      </trkpt>
      <trkpt lat="44.13605" lon="5.31776">
        <ele>1221</ele>
        <time>2011-10-01T15:33:26Z</time>
      </trkpt>
      <trkpt lat="44.13605" lon="5.31775">
        <ele>1222</ele>
        <time>2011-10-01T15:33:31Z</time>
      </trkpt>
      <trkpt lat="44.13606" lon="5.31774">
        <ele>1223</ele>
        <time>2011-10-01T15:33:36Z</time>
      </trkpt>
      <trkpt lat="44.13606" lon="5.31774">
        <ele>1223</ele>
        <time>2011-10-01T15:33:41Z</time>
      </trkpt>
      <trkpt lat="44.13606" lon="5.31774">
        <ele>1223</ele>
        <time>2011-10-01T15:33:46Z</time>
      </trkpt>
      <trkpt lat="44.13606" lon="5.31774">
        <ele>1223</ele>
        <time>2011-10-01T15:33:51Z</time>
      </trkpt>
      <trkpt lat="44.1361" lon="5.31772">
        <ele>1222</ele>
        <time>2011-10-01T15:33:56Z</time>
      </trkpt>
      <trkpt lat="44.13612" lon="5.31774">
        <ele>1218.5</ele>
        <time>2011-10-01T15:34:01Z</time>
      </trkpt>
      <trkpt lat="44.13613" lon="5.31774">
        <ele>1218</ele>
        <time>2011-10-01T15:34:06Z</time>
      </trkpt>
      <trkpt lat="44.13608" lon="5.31774">
        <ele>1218.5</ele>
        <time>2011-10-01T15:34:11Z</time>
      </trkpt>
      <trkpt lat="44.13602" lon="5.31773">
        <ele>1218.5</ele>
        <time>2011-10-01T15:34:16Z</time>
      </trkpt>
      <trkpt lat="44.13597" lon="5.31772">
        <ele>1219</ele>
        <time>2011-10-01T15:34:21Z</time>
      </trkpt>
      <trkpt lat="44.13585" lon="5.31774">
        <ele>1219</ele>
        <time>2011-10-01T15:34:26Z</time>
      </trkpt>
      <trkpt lat="44.13557" lon="5.31779">
        <ele>1219</ele>
        <time>2011-10-01T15:34:31Z</time>
      </trkpt>
      <trkpt lat="44.13538" lon="5.31784">
        <ele>1219</ele>
        <time>2011-10-01T15:34:36Z</time>
      </trkpt>
      <trkpt lat="44.13526" lon="5.31788">
        <ele>1218.5</ele>
        <time>2011-10-01T15:34:41Z</time>
      </trkpt>
      <trkpt lat="44.13512" lon="5.31794">
        <ele>1218</ele>
        <time>2011-10-01T15:34:46Z</time>
      </trkpt>
      <trkpt lat="44.135" lon="5.31798">
        <ele>1217.5</ele>
        <time>2011-10-01T15:34:51Z</time>
      </trkpt>
      <trkpt lat="44.13485" lon="5.318">
        <ele>1217.5</ele>
        <time>2011-10-01T15:34:56Z</time>
      </trkpt>
      <trkpt lat="44.13477" lon="5.31801">
        <ele>1218</ele>
        <time>2011-10-01T15:35:01Z</time>
      </trkpt>
      <trkpt lat="44.1347" lon="5.31803">
        <ele>1217.5</ele>
        <time>2011-10-01T15:35:06Z</time>
      </trkpt>
      <trkpt lat="44.13461" lon="5.31806">
        <ele>1217</ele>
        <time>2011-10-01T15:35:11Z</time>
      </trkpt>
      <trkpt lat="44.13449" lon="5.31806">
        <ele>1217</ele>
        <time>2011-10-01T15:35:16Z</time>
      </trkpt>
      <trkpt lat="44.13428" lon="5.31804">
        <ele>1217.5</ele>
        <time>2011-10-01T15:35:21Z</time>
      </trkpt>
      <trkpt lat="44.1341" lon="5.31802">
        <ele>1217.5</ele>
        <time>2011-10-01T15:35:26Z</time>
      </trkpt>
      <trkpt lat="44.13404" lon="5.31801">
        <ele>1218</ele>
        <time>2011-10-01T15:35:31Z</time>
      </trkpt>
      <trkpt lat="44.13395" lon="5.31799">
        <ele>1218</ele>
        <time>2011-10-01T15:35:36Z</time>
      </trkpt>
      <trkpt lat="44.13383" lon="5.31798">
        <ele>1218</ele>
        <time>2011-10-01T15:35:41Z</time>
      </trkpt>
      <trkpt lat="44.13369" lon="5.31795">
        <ele>1218.5</ele>
        <time>2011-10-01T15:35:46Z</time>
      </trkpt>
      <trkpt lat="44.13353" lon="5.31793">
        <ele>1218.5</ele>
        <time>2011-10-01T15:35:51Z</time>
      </trkpt>
      <trkpt lat="44.13341" lon="5.31793">
        <ele>1218.5</ele>
        <time>2011-10-01T15:35:56Z</time>
      </trkpt>
      <trkpt lat="44.13317" lon="5.3179">
        <ele>1219</ele>
        <time>2011-10-01T15:36:01Z</time>
      </trkpt>
      <trkpt lat="44.13292" lon="5.31789">
        <ele>1218.5</ele>
        <time>2011-10-01T15:36:06Z</time>
      </trkpt>
      <trkpt lat="44.13277" lon="5.31788">
        <ele>1219</ele>
        <time>2011-10-01T15:36:11Z</time>
      </trkpt>
      <trkpt lat="44.13253" lon="5.31786">
        <ele>1221</ele>
        <time>2011-10-01T15:36:16Z</time>
      </trkpt>
      <trkpt lat="44.1324" lon="5.31785">
        <ele>1222.5</ele>
        <time>2011-10-01T15:36:21Z</time>
      </trkpt>
      <trkpt lat="44.13231" lon="5.31787">
        <ele>1222.5</ele>
        <time>2011-10-01T15:36:26Z</time>
      </trkpt>
      <trkpt lat="44.13226" lon="5.31793">
        <ele>1221.5</ele>
        <time>2011-10-01T15:36:31Z</time>
      </trkpt>
      <trkpt lat="44.13221" lon="5.31801">
        <ele>1225</ele>
        <time>2011-10-01T15:36:36Z</time>
      </trkpt>
      <trkpt lat="44.1322" lon="5.31809">
        <ele>1225.5</ele>
        <time>2011-10-01T15:36:41Z</time>
      </trkpt>
      <trkpt lat="44.1322" lon="5.31817">
        <ele>1226</ele>
        <time>2011-10-01T15:36:46Z</time>
      </trkpt>
      <trkpt lat="44.13221" lon="5.31828">
        <ele>1227</ele>
        <time>2011-10-01T15:36:51Z</time>
      </trkpt>
      <trkpt lat="44.13223" lon="5.31838">
        <ele>1226.5</ele>
        <time>2011-10-01T15:36:56Z</time>
      </trkpt>
      <trkpt lat="44.13225" lon="5.31851">
        <ele>1227.5</ele>
        <time>2011-10-01T15:37:01Z</time>
      </trkpt>
      <trkpt lat="44.13227" lon="5.31863">
        <ele>1229</ele>
        <time>2011-10-01T15:37:06Z</time>
      </trkpt>
      <trkpt lat="44.13231" lon="5.31875">
        <ele>1229.5</ele>
        <time>2011-10-01T15:37:11Z</time>
      </trkpt>
      <trkpt lat="44.13234" lon="5.31883">
        <ele>1230</ele>
        <time>2011-10-01T15:37:16Z</time>
      </trkpt>
      <trkpt lat="44.13236" lon="5.31891">
        <ele>1231</ele>
        <time>2011-10-01T15:37:21Z</time>
      </trkpt>
      <trkpt lat="44.1324" lon="5.31898">
        <ele>1233.5</ele>
        <time>2011-10-01T15:37:26Z</time>
      </trkpt>
      <trkpt lat="44.13242" lon="5.31904">
        <ele>1233.5</ele>
        <time>2011-10-01T15:37:31Z</time>
      </trkpt>
      <trkpt lat="44.13244" lon="5.31912">
        <ele>1235</ele>
        <time>2011-10-01T15:37:36Z</time>
      </trkpt>
      <trkpt lat="44.13246" lon="5.31922">
        <ele>1234.5</ele>
        <time>2011-10-01T15:37:41Z</time>
      </trkpt>
      <trkpt lat="44.13251" lon="5.31936">
        <ele>1236</ele>
        <time>2011-10-01T15:37:46Z</time>
      </trkpt>
      <trkpt lat="44.13253" lon="5.31948">
        <ele>1237.5</ele>
        <time>2011-10-01T15:37:51Z</time>
      </trkpt>
      <trkpt lat="44.13257" lon="5.31961">
        <ele>1239.5</ele>
        <time>2011-10-01T15:37:56Z</time>
      </trkpt>
      <trkpt lat="44.13263" lon="5.31972">
        <ele>1239.5</ele>
        <time>2011-10-01T15:38:01Z</time>
      </trkpt>
      <trkpt lat="44.13266" lon="5.31979">
        <ele>1239</ele>
        <time>2011-10-01T15:38:06Z</time>
      </trkpt>
      <trkpt lat="44.13266" lon="5.31984">
        <ele>1239.5</ele>
        <time>2011-10-01T15:38:11Z</time>
      </trkpt>
      <trkpt lat="44.13268" lon="5.31991">
        <ele>1241</ele>
        <time>2011-10-01T15:38:16Z</time>
      </trkpt>
      <trkpt lat="44.13272" lon="5.32">
        <ele>1242.5</ele>
        <time>2011-10-01T15:38:21Z</time>
      </trkpt>
      <trkpt lat="44.13276" lon="5.32009">
        <ele>1243</ele>
        <time>2011-10-01T15:38:26Z</time>
      </trkpt>
      <trkpt lat="44.13282" lon="5.32018">
        <ele>1242</ele>
        <time>2011-10-01T15:38:31Z</time>
      </trkpt>
      <trkpt lat="44.13287" lon="5.32027">
        <ele>1242</ele>
        <time>2011-10-01T15:38:36Z</time>
      </trkpt>
      <trkpt lat="44.1329" lon="5.32035">
        <ele>1242</ele>
        <time>2011-10-01T15:38:41Z</time>
      </trkpt>
      <trkpt lat="44.13295" lon="5.32042">
        <ele>1242.5</ele>
        <time>2011-10-01T15:38:46Z</time>
      </trkpt>
      <trkpt lat="44.13299" lon="5.3205">
        <ele>1243</ele>
        <time>2011-10-01T15:38:51Z</time>
      </trkpt>
      <trkpt lat="44.13304" lon="5.32059">
        <ele>1242</ele>
        <time>2011-10-01T15:38:56Z</time>
      </trkpt>
      <trkpt lat="44.13311" lon="5.3207">
        <ele>1243</ele>
        <time>2011-10-01T15:39:01Z</time>
      </trkpt>
      <trkpt lat="44.13316" lon="5.32078">
        <ele>1243</ele>
        <time>2011-10-01T15:39:06Z</time>
      </trkpt>
      <trkpt lat="44.13321" lon="5.32086">
        <ele>1242.5</ele>
        <time>2011-10-01T15:39:11Z</time>
      </trkpt>
      <trkpt lat="44.13327" lon="5.32097">
        <ele>1243</ele>
        <time>2011-10-01T15:39:16Z</time>
      </trkpt>
      <trkpt lat="44.13333" lon="5.32106">
        <ele>1243</ele>
        <time>2011-10-01T15:39:21Z</time>
      </trkpt>
      <trkpt lat="44.13341" lon="5.32117">
        <ele>1244</ele>
        <time>2011-10-01T15:39:26Z</time>
      </trkpt>
      <trkpt lat="44.1335" lon="5.32125">
        <ele>1245.5</ele>
        <time>2011-10-01T15:39:31Z</time>
      </trkpt>
      <trkpt lat="44.13357" lon="5.32133">
        <ele>1245.5</ele>
        <time>2011-10-01T15:39:36Z</time>
      </trkpt>
      <trkpt lat="44.13365" lon="5.32141">
        <ele>1246</ele>
        <time>2011-10-01T15:39:41Z</time>
      </trkpt>
      <trkpt lat="44.13376" lon="5.3215">
        <ele>1247</ele>
        <time>2011-10-01T15:39:46Z</time>
      </trkpt>
      <trkpt lat="44.13383" lon="5.32156">
        <ele>1248.5</ele>
        <time>2011-10-01T15:39:51Z</time>
      </trkpt>
      <trkpt lat="44.13395" lon="5.32165">
        <ele>1251.5</ele>
        <time>2011-10-01T15:39:56Z</time>
      </trkpt>
      <trkpt lat="44.13402" lon="5.32174">
        <ele>1252.5</ele>
        <time>2011-10-01T15:40:01Z</time>
      </trkpt>
      <trkpt lat="44.13411" lon="5.32184">
        <ele>1254.5</ele>
        <time>2011-10-01T15:40:06Z</time>
      </trkpt>
      <trkpt lat="44.13426" lon="5.32195">
        <ele>1257</ele>
        <time>2011-10-01T15:40:11Z</time>
      </trkpt>
      <trkpt lat="44.1344" lon="5.32206">
        <ele>1260</ele>
        <time>2011-10-01T15:40:16Z</time>
      </trkpt>
      <trkpt lat="44.13451" lon="5.32219">
        <ele>1261.5</ele>
        <time>2011-10-01T15:40:21Z</time>
      </trkpt>
      <trkpt lat="44.13461" lon="5.32229">
        <ele>1263.5</ele>
        <time>2011-10-01T15:40:26Z</time>
      </trkpt>
      <trkpt lat="44.13471" lon="5.32241">
        <ele>1264.5</ele>
        <time>2011-10-01T15:40:31Z</time>
      </trkpt>
      <trkpt lat="44.13482" lon="5.3225">
        <ele>1266</ele>
        <time>2011-10-01T15:40:36Z</time>
      </trkpt>
      <trkpt lat="44.13492" lon="5.32263">
        <ele>1267</ele>
        <time>2011-10-01T15:40:41Z</time>
      </trkpt>
      <trkpt lat="44.13501" lon="5.32277">
        <ele>1267.5</ele>
        <time>2011-10-01T15:40:46Z</time>
      </trkpt>
      <trkpt lat="44.13509" lon="5.32287">
        <ele>1267</ele>
        <time>2011-10-01T15:40:51Z</time>
      </trkpt>
      <trkpt lat="44.13521" lon="5.32302">
        <ele>1267</ele>
        <time>2011-10-01T15:40:56Z</time>
      </trkpt>
      <trkpt lat="44.13531" lon="5.32316">
        <ele>1266</ele>
        <time>2011-10-01T15:41:01Z</time>
      </trkpt>
      <trkpt lat="44.13539" lon="5.32326">
        <ele>1266</ele>
        <time>2011-10-01T15:41:06Z</time>
      </trkpt>
      <trkpt lat="44.13549" lon="5.32336">
        <ele>1265</ele>
        <time>2011-10-01T15:41:11Z</time>
      </trkpt>
      <trkpt lat="44.13557" lon="5.32349">
        <ele>1265.5</ele>
        <time>2011-10-01T15:41:16Z</time>
      </trkpt>
      <trkpt lat="44.13563" lon="5.32359">
        <ele>1265.5</ele>
        <time>2011-10-01T15:41:21Z</time>
      </trkpt>
      <trkpt lat="44.13571" lon="5.32368">
        <ele>1265.5</ele>
        <time>2011-10-01T15:41:26Z</time>
      </trkpt>
      <trkpt lat="44.13579" lon="5.3238">
        <ele>1267</ele>
        <time>2011-10-01T15:41:31Z</time>
      </trkpt>
      <trkpt lat="44.13588" lon="5.32394">
        <ele>1268</ele>
        <time>2011-10-01T15:41:36Z</time>
      </trkpt>
      <trkpt lat="44.13595" lon="5.32405">
        <ele>1269.5</ele>
        <time>2011-10-01T15:41:41Z</time>
      </trkpt>
      <trkpt lat="44.13602" lon="5.32415">
        <ele>1271</ele>
        <time>2011-10-01T15:41:46Z</time>
      </trkpt>
      <trkpt lat="44.13608" lon="5.32423">
        <ele>1271.5</ele>
        <time>2011-10-01T15:41:51Z</time>
      </trkpt>
      <trkpt lat="44.13617" lon="5.32437">
        <ele>1272</ele>
        <time>2011-10-01T15:41:56Z</time>
      </trkpt>
      <trkpt lat="44.13623" lon="5.32446">
        <ele>1272.5</ele>
        <time>2011-10-01T15:42:01Z</time>
      </trkpt>
      <trkpt lat="44.13631" lon="5.32458">
        <ele>1273</ele>
        <time>2011-10-01T15:42:06Z</time>
      </trkpt>
      <trkpt lat="44.13638" lon="5.3247">
        <ele>1273</ele>
        <time>2011-10-01T15:42:11Z</time>
      </trkpt>
      <trkpt lat="44.13643" lon="5.32477">
        <ele>1274</ele>
        <time>2011-10-01T15:42:16Z</time>
      </trkpt>
      <trkpt lat="44.1365" lon="5.32489">
        <ele>1274.5</ele>
        <time>2011-10-01T15:42:21Z</time>
      </trkpt>
      <trkpt lat="44.13658" lon="5.325">
        <ele>1276</ele>
        <time>2011-10-01T15:42:26Z</time>
      </trkpt>
      <trkpt lat="44.13665" lon="5.32514">
        <ele>1276.5</ele>
        <time>2011-10-01T15:42:31Z</time>
      </trkpt>
      <trkpt lat="44.13671" lon="5.32526">
        <ele>1276.5</ele>
        <time>2011-10-01T15:42:36Z</time>
      </trkpt>
      <trkpt lat="44.13675" lon="5.32537">
        <ele>1276.5</ele>
        <time>2011-10-01T15:42:41Z</time>
      </trkpt>
      <trkpt lat="44.13682" lon="5.32555">
        <ele>1275</ele>
        <time>2011-10-01T15:42:46Z</time>
      </trkpt>
      <trkpt lat="44.13686" lon="5.32566">
        <ele>1274.5</ele>
        <time>2011-10-01T15:42:51Z</time>
      </trkpt>
      <trkpt lat="44.13691" lon="5.32584">
        <ele>1276.5</ele>
        <time>2011-10-01T15:42:56Z</time>
      </trkpt>
      <trkpt lat="44.13694" lon="5.32594">
        <ele>1279</ele>
        <time>2011-10-01T15:43:01Z</time>
      </trkpt>
      <trkpt lat="44.137" lon="5.32602">
        <ele>1279</ele>
        <time>2011-10-01T15:43:06Z</time>
      </trkpt>
      <trkpt lat="44.13705" lon="5.3261">
        <ele>1279.5</ele>
        <time>2011-10-01T15:43:11Z</time>
      </trkpt>
      <trkpt lat="44.13708" lon="5.32617">
        <ele>1281.5</ele>
        <time>2011-10-01T15:43:16Z</time>
      </trkpt>
      <trkpt lat="44.13712" lon="5.32625">
        <ele>1282.5</ele>
        <time>2011-10-01T15:43:21Z</time>
      </trkpt>
      <trkpt lat="44.13718" lon="5.32633">
        <ele>1283.5</ele>
        <time>2011-10-01T15:43:26Z</time>
      </trkpt>
      <trkpt lat="44.13723" lon="5.3264">
        <ele>1283</ele>
        <time>2011-10-01T15:43:31Z</time>
      </trkpt>
      <trkpt lat="44.13728" lon="5.3265">
        <ele>1284</ele>
        <time>2011-10-01T15:43:36Z</time>
      </trkpt>
      <trkpt lat="44.13734" lon="5.32657">
        <ele>1285.5</ele>
        <time>2011-10-01T15:43:41Z</time>
      </trkpt>
      <trkpt lat="44.13739" lon="5.32665">
        <ele>1286.5</ele>
        <time>2011-10-01T15:43:46Z</time>
      </trkpt>
      <trkpt lat="44.13744" lon="5.32674">
        <ele>1286</ele>
        <time>2011-10-01T15:43:51Z</time>
      </trkpt>
      <trkpt lat="44.1375" lon="5.32684">
        <ele>1288</ele>
        <time>2011-10-01T15:43:56Z</time>
      </trkpt>
      <trkpt lat="44.13754" lon="5.32693">
        <ele>1289</ele>
        <time>2011-10-01T15:44:01Z</time>
      </trkpt>
      <trkpt lat="44.13761" lon="5.32708">
        <ele>1288</ele>
        <time>2011-10-01T15:44:06Z</time>
      </trkpt>
      <trkpt lat="44.13764" lon="5.32715">
        <ele>1288.5</ele>
        <time>2011-10-01T15:44:11Z</time>
      </trkpt>
      <trkpt lat="44.13769" lon="5.32724">
        <ele>1289</ele>
        <time>2011-10-01T15:44:16Z</time>
      </trkpt>
      <trkpt lat="44.13772" lon="5.32734">
        <ele>1289.5</ele>
        <time>2011-10-01T15:44:21Z</time>
      </trkpt>
      <trkpt lat="44.13775" lon="5.32745">
        <ele>1292</ele>
        <time>2011-10-01T15:44:26Z</time>
      </trkpt>
      <trkpt lat="44.13778" lon="5.32752">
        <ele>1293</ele>
        <time>2011-10-01T15:44:31Z</time>
      </trkpt>
      <trkpt lat="44.13782" lon="5.32765">
        <ele>1295</ele>
        <time>2011-10-01T15:44:36Z</time>
      </trkpt>
      <trkpt lat="44.13784" lon="5.32772">
        <ele>1296.5</ele>
        <time>2011-10-01T15:44:41Z</time>
      </trkpt>
      <trkpt lat="44.13788" lon="5.32784">
        <ele>1299.5</ele>
        <time>2011-10-01T15:44:46Z</time>
      </trkpt>
      <trkpt lat="44.13793" lon="5.32793">
        <ele>1299</ele>
        <time>2011-10-01T15:44:51Z</time>
      </trkpt>
      <trkpt lat="44.13797" lon="5.32805">
        <ele>1299</ele>
        <time>2011-10-01T15:44:56Z</time>
      </trkpt>
      <trkpt lat="44.138" lon="5.32814">
        <ele>1299</ele>
        <time>2011-10-01T15:45:01Z</time>
      </trkpt>
      <trkpt lat="44.13803" lon="5.32822">
        <ele>1301</ele>
        <time>2011-10-01T15:45:06Z</time>
      </trkpt>
      <trkpt lat="44.13807" lon="5.3283">
        <ele>1302</ele>
        <time>2011-10-01T15:45:11Z</time>
      </trkpt>
      <trkpt lat="44.13813" lon="5.32844">
        <ele>1300.5</ele>
        <time>2011-10-01T15:45:16Z</time>
      </trkpt>
      <trkpt lat="44.13819" lon="5.32856">
        <ele>1299</ele>
        <time>2011-10-01T15:45:21Z</time>
      </trkpt>
      <trkpt lat="44.13825" lon="5.32869">
        <ele>1297</ele>
        <time>2011-10-01T15:45:26Z</time>
      </trkpt>
      <trkpt lat="44.1383" lon="5.32883">
        <ele>1297</ele>
        <time>2011-10-01T15:45:31Z</time>
      </trkpt>
      <trkpt lat="44.13839" lon="5.32902">
        <ele>1290.5</ele>
        <time>2011-10-01T15:45:36Z</time>
      </trkpt>
      <trkpt lat="44.13843" lon="5.32922">
        <ele>1284</ele>
        <time>2011-10-01T15:45:41Z</time>
      </trkpt>
      <trkpt lat="44.13844" lon="5.3294">
        <ele>1281</ele>
        <time>2011-10-01T15:45:46Z</time>
      </trkpt>
      <trkpt lat="44.13846" lon="5.32955">
        <ele>1279.5</ele>
        <time>2011-10-01T15:45:51Z</time>
      </trkpt>
      <trkpt lat="44.13847" lon="5.32971">
        <ele>1279</ele>
        <time>2011-10-01T15:45:56Z</time>
      </trkpt>
      <trkpt lat="44.13846" lon="5.32983">
        <ele>1279.5</ele>
        <time>2011-10-01T15:46:01Z</time>
      </trkpt>
      <trkpt lat="44.13844" lon="5.33003">
        <ele>1281</ele>
        <time>2011-10-01T15:46:06Z</time>
      </trkpt>
      <trkpt lat="44.1384" lon="5.33018">
        <ele>1282</ele>
        <time>2011-10-01T15:46:11Z</time>
      </trkpt>
      <trkpt lat="44.1384" lon="5.33033">
        <ele>1283.5</ele>
        <time>2011-10-01T15:46:16Z</time>
      </trkpt>
      <trkpt lat="44.13838" lon="5.33048">
        <ele>1281.5</ele>
        <time>2011-10-01T15:46:21Z</time>
      </trkpt>
      <trkpt lat="44.13838" lon="5.33061">
        <ele>1282.5</ele>
        <time>2011-10-01T15:46:26Z</time>
      </trkpt>
      <trkpt lat="44.13841" lon="5.33075">
        <ele>1283.5</ele>
        <time>2011-10-01T15:46:31Z</time>
      </trkpt>
      <trkpt lat="44.13845" lon="5.33089">
        <ele>1282.5</ele>
        <time>2011-10-01T15:46:36Z</time>
      </trkpt>
      <trkpt lat="44.13847" lon="5.33098">
        <ele>1283</ele>
        <time>2011-10-01T15:46:41Z</time>
      </trkpt>
      <trkpt lat="44.13849" lon="5.33109">
        <ele>1283.5</ele>
        <time>2011-10-01T15:46:46Z</time>
      </trkpt>
      <trkpt lat="44.13849" lon="5.33121">
        <ele>1283.5</ele>
        <time>2011-10-01T15:46:51Z</time>
      </trkpt>
      <trkpt lat="44.13853" lon="5.3313">
        <ele>1284.5</ele>
        <time>2011-10-01T15:46:56Z</time>
      </trkpt>
      <trkpt lat="44.13859" lon="5.33139">
        <ele>1285</ele>
        <time>2011-10-01T15:47:01Z</time>
      </trkpt>
      <trkpt lat="44.1386" lon="5.33147">
        <ele>1285.5</ele>
        <time>2011-10-01T15:47:06Z</time>
      </trkpt>
      <trkpt lat="44.13858" lon="5.33149">
        <ele>1286.5</ele>
        <time>2011-10-01T15:47:11Z</time>
      </trkpt>
      <trkpt lat="44.13857" lon="5.33154">
        <ele>1288</ele>
        <time>2011-10-01T15:47:16Z</time>
      </trkpt>
      <trkpt lat="44.13863" lon="5.33164">
        <ele>1288</ele>
        <time>2011-10-01T15:47:21Z</time>
      </trkpt>
      <trkpt lat="44.13863" lon="5.33169">
        <ele>1288</ele>
        <time>2011-10-01T15:47:26Z</time>
      </trkpt>
      <trkpt lat="44.13865" lon="5.33173">
        <ele>1288.5</ele>
        <time>2011-10-01T15:47:31Z</time>
      </trkpt>
      <trkpt lat="44.13866" lon="5.33179">
        <ele>1290</ele>
        <time>2011-10-01T15:47:36Z</time>
      </trkpt>
      <trkpt lat="44.13865" lon="5.33194">
        <ele>1288</ele>
        <time>2011-10-01T15:47:41Z</time>
      </trkpt>
      <trkpt lat="44.13858" lon="5.33205">
        <ele>1285.5</ele>
        <time>2011-10-01T15:47:46Z</time>
      </trkpt>
      <trkpt lat="44.13851" lon="5.33207">
        <ele>1285.5</ele>
        <time>2011-10-01T15:47:51Z</time>
      </trkpt>
      <trkpt lat="44.13842" lon="5.33209">
        <ele>1285</ele>
        <time>2011-10-01T15:47:56Z</time>
      </trkpt>
      <trkpt lat="44.13835" lon="5.33214">
        <ele>1284.5</ele>
        <time>2011-10-01T15:48:01Z</time>
      </trkpt>
      <trkpt lat="44.1383" lon="5.33223">
        <ele>1284.5</ele>
        <time>2011-10-01T15:48:06Z</time>
      </trkpt>
      <trkpt lat="44.13825" lon="5.33232">
        <ele>1284.5</ele>
        <time>2011-10-01T15:48:11Z</time>
      </trkpt>
      <trkpt lat="44.13819" lon="5.33242">
        <ele>1286.5</ele>
        <time>2011-10-01T15:48:16Z</time>
      </trkpt>
      <trkpt lat="44.13816" lon="5.33252">
        <ele>1289</ele>
        <time>2011-10-01T15:48:21Z</time>
      </trkpt>
      <trkpt lat="44.13813" lon="5.33263">
        <ele>1289</ele>
        <time>2011-10-01T15:48:26Z</time>
      </trkpt>
      <trkpt lat="44.13811" lon="5.33275">
        <ele>1289</ele>
        <time>2011-10-01T15:48:31Z</time>
      </trkpt>
      <trkpt lat="44.13805" lon="5.33287">
        <ele>1290</ele>
        <time>2011-10-01T15:48:36Z</time>
      </trkpt>
      <trkpt lat="44.13801" lon="5.33298">
        <ele>1291.5</ele>
        <time>2011-10-01T15:48:41Z</time>
      </trkpt>
      <trkpt lat="44.13798" lon="5.3331">
        <ele>1291.5</ele>
        <time>2011-10-01T15:48:46Z</time>
      </trkpt>
      <trkpt lat="44.13797" lon="5.33324">
        <ele>1290.5</ele>
        <time>2011-10-01T15:48:51Z</time>
      </trkpt>
      <trkpt lat="44.13793" lon="5.33337">
        <ele>1290.5</ele>
        <time>2011-10-01T15:48:56Z</time>
      </trkpt>
      <trkpt lat="44.1379" lon="5.33348">
        <ele>1290</ele>
        <time>2011-10-01T15:49:01Z</time>
      </trkpt>
      <trkpt lat="44.13787" lon="5.33357">
        <ele>1290.5</ele>
        <time>2011-10-01T15:49:06Z</time>
      </trkpt>
      <trkpt lat="44.13786" lon="5.33369">
        <ele>1291</ele>
        <time>2011-10-01T15:49:11Z</time>
      </trkpt>
      <trkpt lat="44.13785" lon="5.33378">
        <ele>1291</ele>
        <time>2011-10-01T15:49:16Z</time>
      </trkpt>
      <trkpt lat="44.13785" lon="5.33391">
        <ele>1292</ele>
        <time>2011-10-01T15:49:21Z</time>
      </trkpt>
      <trkpt lat="44.13786" lon="5.33404">
        <ele>1293</ele>
        <time>2011-10-01T15:49:26Z</time>
      </trkpt>
      <trkpt lat="44.13784" lon="5.33419">
        <ele>1293.5</ele>
        <time>2011-10-01T15:49:31Z</time>
      </trkpt>
      <trkpt lat="44.13785" lon="5.3343">
        <ele>1294</ele>
        <time>2011-10-01T15:49:36Z</time>
      </trkpt>
      <trkpt lat="44.13783" lon="5.33437">
        <ele>1293</ele>
        <time>2011-10-01T15:49:41Z</time>
      </trkpt>
      <trkpt lat="44.13782" lon="5.33442">
        <ele>1293.5</ele>
        <time>2011-10-01T15:49:46Z</time>
      </trkpt>
      <trkpt lat="44.13785" lon="5.33454">
        <ele>1295</ele>
        <time>2011-10-01T15:49:51Z</time>
      </trkpt>
      <trkpt lat="44.13784" lon="5.33457">
        <ele>1295</ele>
        <time>2011-10-01T15:49:56Z</time>
      </trkpt>
      <trkpt lat="44.13783" lon="5.33457">
        <ele>1295</ele>
        <time>2011-10-01T15:50:01Z</time>
      </trkpt>
      <trkpt lat="44.13782" lon="5.33457">
        <ele>1295</ele>
        <time>2011-10-01T15:50:06Z</time>
      </trkpt>
      <trkpt lat="44.13781" lon="5.33459">
        <ele>1294.5</ele>
        <time>2011-10-01T15:50:11Z</time>
      </trkpt>
      <trkpt lat="44.13782" lon="5.3346">
        <ele>1296</ele>
        <time>2011-10-01T15:50:16Z</time>
      </trkpt>
      <trkpt lat="44.13782" lon="5.33461">
        <ele>1297.5</ele>
        <time>2011-10-01T15:50:21Z</time>
      </trkpt>
      <trkpt lat="44.13782" lon="5.33461">
        <ele>1297.5</ele>
        <time>2011-10-01T15:50:26Z</time>
      </trkpt>
      <trkpt lat="44.13782" lon="5.33461">
        <ele>1297.5</ele>
        <time>2011-10-01T15:50:31Z</time>
      </trkpt>
      <trkpt lat="44.13781" lon="5.33461">
        <ele>1297.5</ele>
        <time>2011-10-01T15:50:36Z</time>
      </trkpt>
      <trkpt lat="44.13781" lon="5.33461">
        <ele>1297.5</ele>
        <time>2011-10-01T15:50:41Z</time>
      </trkpt>
      <trkpt lat="44.13781" lon="5.33461">
        <ele>1297.5</ele>
        <time>2011-10-01T15:50:46Z</time>
      </trkpt>
      <trkpt lat="44.13781" lon="5.33461">
        <ele>1297.5</ele>
        <time>2011-10-01T15:50:51Z</time>
      </trkpt>
      <trkpt lat="44.13781" lon="5.33461">
        <ele>1298.5</ele>
        <time>2011-10-01T15:50:56Z</time>
      </trkpt>
      <trkpt lat="44.13781" lon="5.33461">
        <ele>1298.5</ele>
        <time>2011-10-01T15:51:01Z</time>
      </trkpt>
      <trkpt lat="44.13781" lon="5.33461">
        <ele>1298.5</ele>
        <time>2011-10-01T15:51:06Z</time>
      </trkpt>
      <trkpt lat="44.13781" lon="5.33462">
        <ele>1299</ele>
        <time>2011-10-01T15:51:11Z</time>
      </trkpt>
      <trkpt lat="44.13781" lon="5.33462">
        <ele>1300</ele>
        <time>2011-10-01T15:51:16Z</time>
      </trkpt>
      <trkpt lat="44.13781" lon="5.33462">
        <ele>1300</ele>
        <time>2011-10-01T15:51:21Z</time>
      </trkpt>
      <trkpt lat="44.13781" lon="5.33463">
        <ele>1299</ele>
        <time>2011-10-01T15:51:26Z</time>
      </trkpt>
      <trkpt lat="44.13781" lon="5.33463">
        <ele>1298.5</ele>
        <time>2011-10-01T15:51:31Z</time>
      </trkpt>
      <trkpt lat="44.13781" lon="5.33464">
        <ele>1298.5</ele>
        <time>2011-10-01T15:51:36Z</time>
      </trkpt>
      <trkpt lat="44.1378" lon="5.33465">
        <ele>1299.5</ele>
        <time>2011-10-01T15:51:41Z</time>
      </trkpt>
      <trkpt lat="44.1378" lon="5.33465">
        <ele>1299.5</ele>
        <time>2011-10-01T15:51:46Z</time>
      </trkpt>
      <trkpt lat="44.1378" lon="5.33465">
        <ele>1299.5</ele>
        <time>2011-10-01T15:51:51Z</time>
      </trkpt>
      <trkpt lat="44.1378" lon="5.33465">
        <ele>1299.5</ele>
        <time>2011-10-01T15:51:56Z</time>
      </trkpt>
      <trkpt lat="44.1378" lon="5.33464">
        <ele>1299.5</ele>
        <time>2011-10-01T15:52:01Z</time>
      </trkpt>
      <trkpt lat="44.13781" lon="5.33464">
        <ele>1299.5</ele>
        <time>2011-10-01T15:52:06Z</time>
      </trkpt>
      <trkpt lat="44.13781" lon="5.33463">
        <ele>1299</ele>
        <time>2011-10-01T15:52:11Z</time>
      </trkpt>
      <trkpt lat="44.13781" lon="5.33463">
        <ele>1299</ele>
        <time>2011-10-01T15:52:16Z</time>
      </trkpt>
      <trkpt lat="44.13781" lon="5.33463">
        <ele>1299</ele>
        <time>2011-10-01T15:52:21Z</time>
      </trkpt>
      <trkpt lat="44.13782" lon="5.33463">
        <ele>1299.5</ele>
        <time>2011-10-01T15:52:26Z</time>
      </trkpt>
      <trkpt lat="44.13781" lon="5.33463">
        <ele>1300</ele>
        <time>2011-10-01T15:52:31Z</time>
      </trkpt>
      <trkpt lat="44.13781" lon="5.33464">
        <ele>1300.5</ele>
        <time>2011-10-01T15:52:36Z</time>
      </trkpt>
      <trkpt lat="44.13781" lon="5.33464">
        <ele>1300.5</ele>
        <time>2011-10-01T15:52:41Z</time>
      </trkpt>
      <trkpt lat="44.13781" lon="5.33464">
        <ele>1300.5</ele>
        <time>2011-10-01T15:52:46Z</time>
      </trkpt>
      <trkpt lat="44.13781" lon="5.33464">
        <ele>1300.5</ele>
        <time>2011-10-01T15:52:51Z</time>
      </trkpt>
      <trkpt lat="44.13781" lon="5.33464">
        <ele>1301</ele>
        <time>2011-10-01T15:52:56Z</time>
      </trkpt>
      <trkpt lat="44.1378" lon="5.33464">
        <ele>1301.5</ele>
        <time>2011-10-01T15:53:01Z</time>
      </trkpt>
      <trkpt lat="44.1378" lon="5.33465">
        <ele>1302</ele>
        <time>2011-10-01T15:53:06Z</time>
      </trkpt>
      <trkpt lat="44.13781" lon="5.33464">
        <ele>1301.5</ele>
        <time>2011-10-01T15:53:11Z</time>
      </trkpt>
      <trkpt lat="44.13781" lon="5.33464">
        <ele>1300.5</ele>
        <time>2011-10-01T15:53:16Z</time>
      </trkpt>
      <trkpt lat="44.13781" lon="5.33465">
        <ele>1300.5</ele>
        <time>2011-10-01T15:53:21Z</time>
      </trkpt>
      <trkpt lat="44.13781" lon="5.33465">
        <ele>1300.5</ele>
        <time>2011-10-01T15:53:26Z</time>
      </trkpt>
      <trkpt lat="44.13781" lon="5.33465">
        <ele>1300.5</ele>
        <time>2011-10-01T15:53:31Z</time>
      </trkpt>
      <trkpt lat="44.13781" lon="5.33465">
        <ele>1300.5</ele>
        <time>2011-10-01T15:53:36Z</time>
      </trkpt>
      <trkpt lat="44.13781" lon="5.33465">
        <ele>1300.5</ele>
        <time>2011-10-01T15:53:41Z</time>
      </trkpt>
      <trkpt lat="44.13781" lon="5.33465">
        <ele>1300.5</ele>
        <time>2011-10-01T15:53:46Z</time>
      </trkpt>
      <trkpt lat="44.13781" lon="5.33465">
        <ele>1300.5</ele>
        <time>2011-10-01T15:53:51Z</time>
      </trkpt>
      <trkpt lat="44.13781" lon="5.33464">
        <ele>1301</ele>
        <time>2011-10-01T15:54:01Z</time>
      </trkpt>
      <trkpt lat="44.13782" lon="5.33465">
        <ele>1301.5</ele>
        <time>2011-10-01T15:54:06Z</time>
      </trkpt>
      <trkpt lat="44.13785" lon="5.33473">
        <ele>1302.5</ele>
        <time>2011-10-01T15:54:11Z</time>
      </trkpt>
      <trkpt lat="44.13784" lon="5.33492">
        <ele>1302.5</ele>
        <time>2011-10-01T15:54:16Z</time>
      </trkpt>
      <trkpt lat="44.13784" lon="5.33508">
        <ele>1304.5</ele>
        <time>2011-10-01T15:54:21Z</time>
      </trkpt>
      <trkpt lat="44.13788" lon="5.33515">
        <ele>1302.5</ele>
        <time>2011-10-01T15:54:26Z</time>
      </trkpt>
      <trkpt lat="44.1379" lon="5.33518">
        <ele>1302.5</ele>
        <time>2011-10-01T15:54:31Z</time>
      </trkpt>
      <trkpt lat="44.13795" lon="5.33527">
        <ele>1302</ele>
        <time>2011-10-01T15:54:36Z</time>
      </trkpt>
      <trkpt lat="44.13802" lon="5.33539">
        <ele>1301</ele>
        <time>2011-10-01T15:54:41Z</time>
      </trkpt>
      <trkpt lat="44.13806" lon="5.33549">
        <ele>1300.5</ele>
        <time>2011-10-01T15:54:46Z</time>
      </trkpt>
      <trkpt lat="44.13814" lon="5.33561">
        <ele>1301.5</ele>
        <time>2011-10-01T15:54:51Z</time>
      </trkpt>
      <trkpt lat="44.1382" lon="5.33571">
        <ele>1303</ele>
        <time>2011-10-01T15:54:56Z</time>
      </trkpt>
      <trkpt lat="44.13826" lon="5.33577">
        <ele>1304.5</ele>
        <time>2011-10-01T15:55:01Z</time>
      </trkpt>
      <trkpt lat="44.13831" lon="5.33585">
        <ele>1306.5</ele>
        <time>2011-10-01T15:55:06Z</time>
      </trkpt>
      <trkpt lat="44.13833" lon="5.33598">
        <ele>1308</ele>
        <time>2011-10-01T15:55:11Z</time>
      </trkpt>
      <trkpt lat="44.13825" lon="5.33607">
        <ele>1308</ele>
        <time>2011-10-01T15:55:16Z</time>
      </trkpt>
      <trkpt lat="44.13817" lon="5.3361">
        <ele>1308</ele>
        <time>2011-10-01T15:55:21Z</time>
      </trkpt>
      <trkpt lat="44.13808" lon="5.33608">
        <ele>1308.5</ele>
        <time>2011-10-01T15:55:26Z</time>
      </trkpt>
      <trkpt lat="44.13795" lon="5.33606">
        <ele>1308.5</ele>
        <time>2011-10-01T15:55:31Z</time>
      </trkpt>
      <trkpt lat="44.13784" lon="5.33611">
        <ele>1308.5</ele>
        <time>2011-10-01T15:55:36Z</time>
      </trkpt>
      <trkpt lat="44.13778" lon="5.33621">
        <ele>1309</ele>
        <time>2011-10-01T15:55:41Z</time>
      </trkpt>
      <trkpt lat="44.13778" lon="5.33635">
        <ele>1310</ele>
        <time>2011-10-01T15:55:46Z</time>
      </trkpt>
      <trkpt lat="44.13776" lon="5.33649">
        <ele>1311</ele>
        <time>2011-10-01T15:55:51Z</time>
      </trkpt>
      <trkpt lat="44.13776" lon="5.33664">
        <ele>1311</ele>
        <time>2011-10-01T15:55:56Z</time>
      </trkpt>
      <trkpt lat="44.13777" lon="5.33678">
        <ele>1312</ele>
        <time>2011-10-01T15:56:01Z</time>
      </trkpt>
      <trkpt lat="44.13779" lon="5.33692">
        <ele>1313</ele>
        <time>2011-10-01T15:56:06Z</time>
      </trkpt>
      <trkpt lat="44.1378" lon="5.33704">
        <ele>1314</ele>
        <time>2011-10-01T15:56:11Z</time>
      </trkpt>
      <trkpt lat="44.13783" lon="5.33723">
        <ele>1314.5</ele>
        <time>2011-10-01T15:56:16Z</time>
      </trkpt>
      <trkpt lat="44.13788" lon="5.33737">
        <ele>1315</ele>
        <time>2011-10-01T15:56:21Z</time>
      </trkpt>
      <trkpt lat="44.13793" lon="5.33748">
        <ele>1315.5</ele>
        <time>2011-10-01T15:56:26Z</time>
      </trkpt>
      <trkpt lat="44.13798" lon="5.33759">
        <ele>1316</ele>
        <time>2011-10-01T15:56:31Z</time>
      </trkpt>
      <trkpt lat="44.13797" lon="5.33774">
        <ele>1318</ele>
        <time>2011-10-01T15:56:36Z</time>
      </trkpt>
      <trkpt lat="44.13792" lon="5.33786">
        <ele>1319</ele>
        <time>2011-10-01T15:56:41Z</time>
      </trkpt>
      <trkpt lat="44.13789" lon="5.338">
        <ele>1320</ele>
        <time>2011-10-01T15:56:46Z</time>
      </trkpt>
      <trkpt lat="44.13786" lon="5.33815">
        <ele>1321.5</ele>
        <time>2011-10-01T15:56:51Z</time>
      </trkpt>
      <trkpt lat="44.13781" lon="5.33827">
        <ele>1321.5</ele>
        <time>2011-10-01T15:56:56Z</time>
      </trkpt>
      <trkpt lat="44.13776" lon="5.33839">
        <ele>1321</ele>
        <time>2011-10-01T15:57:01Z</time>
      </trkpt>
      <trkpt lat="44.13777" lon="5.33855">
        <ele>1320.5</ele>
        <time>2011-10-01T15:57:06Z</time>
      </trkpt>
      <trkpt lat="44.13777" lon="5.3387">
        <ele>1321</ele>
        <time>2011-10-01T15:57:11Z</time>
      </trkpt>
      <trkpt lat="44.13774" lon="5.33878">
        <ele>1322</ele>
        <time>2011-10-01T15:57:16Z</time>
      </trkpt>
      <trkpt lat="44.13759" lon="5.33889">
        <ele>1322.5</ele>
        <time>2011-10-01T15:57:21Z</time>
      </trkpt>
      <trkpt lat="44.13743" lon="5.33891">
        <ele>1321.5</ele>
        <time>2011-10-01T15:57:26Z</time>
      </trkpt>
      <trkpt lat="44.1373" lon="5.3389">
        <ele>1321.5</ele>
        <time>2011-10-01T15:57:31Z</time>
      </trkpt>
      <trkpt lat="44.1372" lon="5.33893">
        <ele>1321.5</ele>
        <time>2011-10-01T15:57:36Z</time>
      </trkpt>
      <trkpt lat="44.13708" lon="5.33895">
        <ele>1321</ele>
        <time>2011-10-01T15:57:41Z</time>
      </trkpt>
      <trkpt lat="44.13691" lon="5.33895">
        <ele>1321</ele>
        <time>2011-10-01T15:57:46Z</time>
      </trkpt>
      <trkpt lat="44.13676" lon="5.33893">
        <ele>1321</ele>
        <time>2011-10-01T15:57:51Z</time>
      </trkpt>
      <trkpt lat="44.13666" lon="5.3389">
        <ele>1321</ele>
        <time>2011-10-01T15:57:56Z</time>
      </trkpt>
      <trkpt lat="44.13654" lon="5.33887">
        <ele>1321</ele>
        <time>2011-10-01T15:58:01Z</time>
      </trkpt>
      <trkpt lat="44.13639" lon="5.33886">
        <ele>1321.5</ele>
        <time>2011-10-01T15:58:06Z</time>
      </trkpt>
      <trkpt lat="44.13628" lon="5.33894">
        <ele>1321</ele>
        <time>2011-10-01T15:58:11Z</time>
      </trkpt>
      <trkpt lat="44.13624" lon="5.33907">
        <ele>1318.5</ele>
        <time>2011-10-01T15:58:16Z</time>
      </trkpt>
      <trkpt lat="44.13626" lon="5.33927">
        <ele>1319</ele>
        <time>2011-10-01T15:58:21Z</time>
      </trkpt>
      <trkpt lat="44.13627" lon="5.33948">
        <ele>1319.5</ele>
        <time>2011-10-01T15:58:26Z</time>
      </trkpt>
      <trkpt lat="44.13625" lon="5.33973">
        <ele>1319.5</ele>
        <time>2011-10-01T15:58:31Z</time>
      </trkpt>
      <trkpt lat="44.13628" lon="5.34004">
        <ele>1316</ele>
        <time>2011-10-01T15:58:36Z</time>
      </trkpt>
      <trkpt lat="44.1363" lon="5.34029">
        <ele>1315.5</ele>
        <time>2011-10-01T15:58:41Z</time>
      </trkpt>
      <trkpt lat="44.13635" lon="5.34065">
        <ele>1316</ele>
        <time>2011-10-01T15:58:46Z</time>
      </trkpt>
      <trkpt lat="44.13645" lon="5.34091">
        <ele>1316</ele>
        <time>2011-10-01T15:58:51Z</time>
      </trkpt>
      <trkpt lat="44.13659" lon="5.34117">
        <ele>1317</ele>
        <time>2011-10-01T15:58:56Z</time>
      </trkpt>
      <trkpt lat="44.1367" lon="5.34132">
        <ele>1318.5</ele>
        <time>2011-10-01T15:59:01Z</time>
      </trkpt>
      <trkpt lat="44.1368" lon="5.34142">
        <ele>1321</ele>
        <time>2011-10-01T15:59:06Z</time>
      </trkpt>
      <trkpt lat="44.13696" lon="5.3416">
        <ele>1324</ele>
        <time>2011-10-01T15:59:11Z</time>
      </trkpt>
      <trkpt lat="44.13714" lon="5.34166">
        <ele>1326.5</ele>
        <time>2011-10-01T15:59:16Z</time>
      </trkpt>
      <trkpt lat="44.13737" lon="5.34169">
        <ele>1327.5</ele>
        <time>2011-10-01T15:59:21Z</time>
      </trkpt>
      <trkpt lat="44.13758" lon="5.34174">
        <ele>1328.5</ele>
        <time>2011-10-01T15:59:26Z</time>
      </trkpt>
      <trkpt lat="44.13773" lon="5.3418">
        <ele>1329.5</ele>
        <time>2011-10-01T15:59:31Z</time>
      </trkpt>
      <trkpt lat="44.13788" lon="5.34184">
        <ele>1329.5</ele>
        <time>2011-10-01T15:59:36Z</time>
      </trkpt>
      <trkpt lat="44.138" lon="5.34217">
        <ele>1329.5</ele>
        <time>2011-10-01T15:59:41Z</time>
      </trkpt>
      <trkpt lat="44.13785" lon="5.34229">
        <ele>1328</ele>
        <time>2011-10-01T15:59:46Z</time>
      </trkpt>
      <trkpt lat="44.13773" lon="5.34238">
        <ele>1327.5</ele>
        <time>2011-10-01T15:59:51Z</time>
      </trkpt>
      <trkpt lat="44.13752" lon="5.34255">
        <ele>1327</ele>
        <time>2011-10-01T15:59:56Z</time>
      </trkpt>
      <trkpt lat="44.13734" lon="5.34267">
        <ele>1326</ele>
        <time>2011-10-01T16:00:01Z</time>
      </trkpt>
      <trkpt lat="44.13724" lon="5.34275">
        <ele>1325.5</ele>
        <time>2011-10-01T16:00:06Z</time>
      </trkpt>
      <trkpt lat="44.13704" lon="5.34292">
        <ele>1326</ele>
        <time>2011-10-01T16:00:11Z</time>
      </trkpt>
      <trkpt lat="44.13699" lon="5.3432">
        <ele>1327.5</ele>
        <time>2011-10-01T16:00:16Z</time>
      </trkpt>
      <trkpt lat="44.13691" lon="5.34346">
        <ele>1326.5</ele>
        <time>2011-10-01T16:00:21Z</time>
      </trkpt>
      <trkpt lat="44.13667" lon="5.34356">
        <ele>1326</ele>
        <time>2011-10-01T16:00:26Z</time>
      </trkpt>
      <trkpt lat="44.13647" lon="5.34354">
        <ele>1325.5</ele>
        <time>2011-10-01T16:00:31Z</time>
      </trkpt>
      <trkpt lat="44.13632" lon="5.34355">
        <ele>1325.5</ele>
        <time>2011-10-01T16:00:36Z</time>
      </trkpt>
      <trkpt lat="44.13613" lon="5.34359">
        <ele>1325.5</ele>
        <time>2011-10-01T16:00:41Z</time>
      </trkpt>
      <trkpt lat="44.13594" lon="5.34364">
        <ele>1325</ele>
        <time>2011-10-01T16:00:46Z</time>
      </trkpt>
      <trkpt lat="44.13574" lon="5.3437">
        <ele>1324</ele>
        <time>2011-10-01T16:00:51Z</time>
      </trkpt>
      <trkpt lat="44.13554" lon="5.34376">
        <ele>1324</ele>
        <time>2011-10-01T16:00:56Z</time>
      </trkpt>
      <trkpt lat="44.13535" lon="5.34387">
        <ele>1323.5</ele>
        <time>2011-10-01T16:01:01Z</time>
      </trkpt>
      <trkpt lat="44.13512" lon="5.34397">
        <ele>1322.5</ele>
        <time>2011-10-01T16:01:06Z</time>
      </trkpt>
      <trkpt lat="44.13492" lon="5.34409">
        <ele>1322.5</ele>
        <time>2011-10-01T16:01:11Z</time>
      </trkpt>
      <trkpt lat="44.13477" lon="5.34425">
        <ele>1322.5</ele>
        <time>2011-10-01T16:01:16Z</time>
      </trkpt>
      <trkpt lat="44.13467" lon="5.34442">
        <ele>1322</ele>
        <time>2011-10-01T16:01:21Z</time>
      </trkpt>
      <trkpt lat="44.13453" lon="5.34469">
        <ele>1322</ele>
        <time>2011-10-01T16:01:26Z</time>
      </trkpt>
      <trkpt lat="44.13451" lon="5.34489">
        <ele>1323</ele>
        <time>2011-10-01T16:01:31Z</time>
      </trkpt>
      <trkpt lat="44.13451" lon="5.34506">
        <ele>1324</ele>
        <time>2011-10-01T16:01:36Z</time>
      </trkpt>
      <trkpt lat="44.13456" lon="5.34518">
        <ele>1326</ele>
        <time>2011-10-01T16:01:41Z</time>
      </trkpt>
      <trkpt lat="44.1346" lon="5.34542">
        <ele>1326.5</ele>
        <time>2011-10-01T16:01:46Z</time>
      </trkpt>
      <trkpt lat="44.1347" lon="5.34567">
        <ele>1327.5</ele>
        <time>2011-10-01T16:01:51Z</time>
      </trkpt>
      <trkpt lat="44.13482" lon="5.34611">
        <ele>1327</ele>
        <time>2011-10-01T16:01:56Z</time>
      </trkpt>
      <trkpt lat="44.13488" lon="5.3464">
        <ele>1328</ele>
        <time>2011-10-01T16:02:01Z</time>
      </trkpt>
      <trkpt lat="44.13494" lon="5.34666">
        <ele>1328</ele>
        <time>2011-10-01T16:02:06Z</time>
      </trkpt>
      <trkpt lat="44.13498" lon="5.34689">
        <ele>1328.5</ele>
        <time>2011-10-01T16:02:11Z</time>
      </trkpt>
      <trkpt lat="44.13493" lon="5.34703">
        <ele>1327.5</ele>
        <time>2011-10-01T16:02:16Z</time>
      </trkpt>
      <trkpt lat="44.13494" lon="5.34711">
        <ele>1325.5</ele>
        <time>2011-10-01T16:02:21Z</time>
      </trkpt>
      <trkpt lat="44.13493" lon="5.34714">
        <ele>1324.5</ele>
        <time>2011-10-01T16:02:26Z</time>
      </trkpt>
      <trkpt lat="44.13486" lon="5.34718">
        <ele>1322.5</ele>
        <time>2011-10-01T16:02:31Z</time>
      </trkpt>
      <trkpt lat="44.13483" lon="5.34718">
        <ele>1322.5</ele>
        <time>2011-10-01T16:02:36Z</time>
      </trkpt>
      <trkpt lat="44.13482" lon="5.34718">
        <ele>1322</ele>
        <time>2011-10-01T16:02:41Z</time>
      </trkpt>
      <trkpt lat="44.13476" lon="5.34719">
        <ele>1319.5</ele>
        <time>2011-10-01T16:02:46Z</time>
      </trkpt>
      <trkpt lat="44.13474" lon="5.3472">
        <ele>1320</ele>
        <time>2011-10-01T16:02:51Z</time>
      </trkpt>
      <trkpt lat="44.13474" lon="5.34721">
        <ele>1318.5</ele>
        <time>2011-10-01T16:02:56Z</time>
      </trkpt>
      <trkpt lat="44.13474" lon="5.34722">
        <ele>1319.5</ele>
        <time>2011-10-01T16:03:01Z</time>
      </trkpt>
      <trkpt lat="44.13475" lon="5.34723">
        <ele>1320</ele>
        <time>2011-10-01T16:03:06Z</time>
      </trkpt>
      <trkpt lat="44.13475" lon="5.34723">
        <ele>1320</ele>
        <time>2011-10-01T16:03:11Z</time>
      </trkpt>
      <trkpt lat="44.13475" lon="5.34723">
        <ele>1321.5</ele>
        <time>2011-10-01T16:03:16Z</time>
      </trkpt>
      <trkpt lat="44.13475" lon="5.34724">
        <ele>1322.5</ele>
        <time>2011-10-01T16:03:21Z</time>
      </trkpt>
      <trkpt lat="44.13474" lon="5.34725">
        <ele>1323</ele>
        <time>2011-10-01T16:03:26Z</time>
      </trkpt>
      <trkpt lat="44.13474" lon="5.34725">
        <ele>1322.5</ele>
        <time>2011-10-01T16:03:31Z</time>
      </trkpt>
      <trkpt lat="44.13474" lon="5.34725">
        <ele>1323.5</ele>
        <time>2011-10-01T16:03:36Z</time>
      </trkpt>
      <trkpt lat="44.13474" lon="5.34725">
        <ele>1324</ele>
        <time>2011-10-01T16:03:41Z</time>
      </trkpt>
      <trkpt lat="44.13474" lon="5.34724">
        <ele>1324.5</ele>
        <time>2011-10-01T16:03:46Z</time>
      </trkpt>
      <trkpt lat="44.13474" lon="5.34724">
        <ele>1324.5</ele>
        <time>2011-10-01T16:03:51Z</time>
      </trkpt>
      <trkpt lat="44.13474" lon="5.34724">
        <ele>1324.5</ele>
        <time>2011-10-01T16:03:56Z</time>
      </trkpt>
      <trkpt lat="44.13472" lon="5.34725">
        <ele>1324.5</ele>
        <time>2011-10-01T16:04:01Z</time>
      </trkpt>
      <trkpt lat="44.1346" lon="5.3473">
        <ele>1324</ele>
        <time>2011-10-01T16:04:06Z</time>
      </trkpt>
      <trkpt lat="44.13434" lon="5.34732">
        <ele>1323.5</ele>
        <time>2011-10-01T16:04:11Z</time>
      </trkpt>
      <trkpt lat="44.13402" lon="5.34749">
        <ele>1322</ele>
        <time>2011-10-01T16:04:16Z</time>
      </trkpt>
      <trkpt lat="44.13373" lon="5.3477">
        <ele>1321</ele>
        <time>2011-10-01T16:04:21Z</time>
      </trkpt>
      <trkpt lat="44.1334" lon="5.34784">
        <ele>1320</ele>
        <time>2011-10-01T16:04:26Z</time>
      </trkpt>
      <trkpt lat="44.13302" lon="5.34786">
        <ele>1319</ele>
        <time>2011-10-01T16:04:31Z</time>
      </trkpt>
      <trkpt lat="44.13263" lon="5.34788">
        <ele>1318</ele>
        <time>2011-10-01T16:04:36Z</time>
      </trkpt>
      <trkpt lat="44.13223" lon="5.34791">
        <ele>1317</ele>
        <time>2011-10-01T16:04:41Z</time>
      </trkpt>
      <trkpt lat="44.13186" lon="5.34802">
        <ele>1316.5</ele>
        <time>2011-10-01T16:04:46Z</time>
      </trkpt>
      <trkpt lat="44.13156" lon="5.3483">
        <ele>1315.5</ele>
        <time>2011-10-01T16:04:51Z</time>
      </trkpt>
      <trkpt lat="44.13126" lon="5.34857">
        <ele>1314</ele>
        <time>2011-10-01T16:04:56Z</time>
      </trkpt>
      <trkpt lat="44.13109" lon="5.34877">
        <ele>1313</ele>
        <time>2011-10-01T16:05:01Z</time>
      </trkpt>
      <trkpt lat="44.1308" lon="5.34911">
        <ele>1313</ele>
        <time>2011-10-01T16:05:06Z</time>
      </trkpt>
      <trkpt lat="44.13063" lon="5.34938">
        <ele>1311.5</ele>
        <time>2011-10-01T16:05:11Z</time>
      </trkpt>
      <trkpt lat="44.13029" lon="5.3497">
        <ele>1311</ele>
        <time>2011-10-01T16:05:16Z</time>
      </trkpt>
      <trkpt lat="44.12998" lon="5.34988">
        <ele>1310</ele>
        <time>2011-10-01T16:05:21Z</time>
      </trkpt>
      <trkpt lat="44.12967" lon="5.35006">
        <ele>1309.5</ele>
        <time>2011-10-01T16:05:26Z</time>
      </trkpt>
      <trkpt lat="44.12934" lon="5.35022">
        <ele>1307</ele>
        <time>2011-10-01T16:05:31Z</time>
      </trkpt>
      <trkpt lat="44.12906" lon="5.35048">
        <ele>1306</ele>
        <time>2011-10-01T16:05:36Z</time>
      </trkpt>
      <trkpt lat="44.12881" lon="5.35061">
        <ele>1304.5</ele>
        <time>2011-10-01T16:05:41Z</time>
      </trkpt>
      <trkpt lat="44.12878" lon="5.35063">
        <ele>1303.5</ele>
        <time>2011-10-01T16:05:46Z</time>
      </trkpt>
      <trkpt lat="44.12874" lon="5.35062">
        <ele>1307</ele>
        <time>2011-10-01T16:05:51Z</time>
      </trkpt>
      <trkpt lat="44.12873" lon="5.35062">
        <ele>1307.5</ele>
        <time>2011-10-01T16:05:56Z</time>
      </trkpt>
      <trkpt lat="44.12873" lon="5.35061">
        <ele>1307</ele>
        <time>2011-10-01T16:06:01Z</time>
      </trkpt>
      <trkpt lat="44.12874" lon="5.35061">
        <ele>1306</ele>
        <time>2011-10-01T16:06:06Z</time>
      </trkpt>
      <trkpt lat="44.12874" lon="5.35061">
        <ele>1306</ele>
        <time>2011-10-01T16:06:16Z</time>
      </trkpt>
      <trkpt lat="44.12873" lon="5.35061">
        <ele>1306</ele>
        <time>2011-10-01T16:06:21Z</time>
      </trkpt>
      <trkpt lat="44.12866" lon="5.35065">
        <ele>1304.5</ele>
        <time>2011-10-01T16:06:26Z</time>
      </trkpt>
      <trkpt lat="44.12848" lon="5.35077">
        <ele>1302.5</ele>
        <time>2011-10-01T16:06:31Z</time>
      </trkpt>
      <trkpt lat="44.12826" lon="5.35096">
        <ele>1302</ele>
        <time>2011-10-01T16:06:36Z</time>
      </trkpt>
      <trkpt lat="44.12793" lon="5.35099">
        <ele>1301.5</ele>
        <time>2011-10-01T16:06:41Z</time>
      </trkpt>
      <trkpt lat="44.12761" lon="5.35098">
        <ele>1300.5</ele>
        <time>2011-10-01T16:06:46Z</time>
      </trkpt>
      <trkpt lat="44.12727" lon="5.351">
        <ele>1299.5</ele>
        <time>2011-10-01T16:06:51Z</time>
      </trkpt>
      <trkpt lat="44.12697" lon="5.35112">
        <ele>1299</ele>
        <time>2011-10-01T16:06:56Z</time>
      </trkpt>
      <trkpt lat="44.12664" lon="5.35117">
        <ele>1298.5</ele>
        <time>2011-10-01T16:07:01Z</time>
      </trkpt>
      <trkpt lat="44.12629" lon="5.35123">
        <ele>1298</ele>
        <time>2011-10-01T16:07:06Z</time>
      </trkpt>
      <trkpt lat="44.12594" lon="5.35131">
        <ele>1297</ele>
        <time>2011-10-01T16:07:11Z</time>
      </trkpt>
      <trkpt lat="44.12563" lon="5.35136">
        <ele>1296.5</ele>
        <time>2011-10-01T16:07:16Z</time>
      </trkpt>
      <trkpt lat="44.1253" lon="5.3514">
        <ele>1296</ele>
        <time>2011-10-01T16:07:21Z</time>
      </trkpt>
      <trkpt lat="44.12497" lon="5.35137">
        <ele>1295.5</ele>
        <time>2011-10-01T16:07:26Z</time>
      </trkpt>
      <trkpt lat="44.12466" lon="5.35127">
        <ele>1294.5</ele>
        <time>2011-10-01T16:07:31Z</time>
      </trkpt>
      <trkpt lat="44.12437" lon="5.35126">
        <ele>1294</ele>
        <time>2011-10-01T16:07:36Z</time>
      </trkpt>
      <trkpt lat="44.12411" lon="5.35126">
        <ele>1293.5</ele>
        <time>2011-10-01T16:07:41Z</time>
      </trkpt>
      <trkpt lat="44.12381" lon="5.35124">
        <ele>1293</ele>
        <time>2011-10-01T16:07:46Z</time>
      </trkpt>
      <trkpt lat="44.12351" lon="5.35114">
        <ele>1292</ele>
        <time>2011-10-01T16:07:51Z</time>
      </trkpt>
      <trkpt lat="44.12322" lon="5.35097">
        <ele>1291</ele>
        <time>2011-10-01T16:07:56Z</time>
      </trkpt>
      <trkpt lat="44.12294" lon="5.35085">
        <ele>1290</ele>
        <time>2011-10-01T16:08:01Z</time>
      </trkpt>
      <trkpt lat="44.12269" lon="5.35073">
        <ele>1289.5</ele>
        <time>2011-10-01T16:08:06Z</time>
      </trkpt>
      <trkpt lat="44.12242" lon="5.35064">
        <ele>1288.5</ele>
        <time>2011-10-01T16:08:11Z</time>
      </trkpt>
      <trkpt lat="44.12216" lon="5.35067">
        <ele>1287</ele>
        <time>2011-10-01T16:08:16Z</time>
      </trkpt>
      <trkpt lat="44.122" lon="5.35068">
        <ele>1284.5</ele>
        <time>2011-10-01T16:08:21Z</time>
      </trkpt>
      <trkpt lat="44.12199" lon="5.35066">
        <ele>1283.5</ele>
        <time>2011-10-01T16:08:26Z</time>
      </trkpt>
      <trkpt lat="44.12199" lon="5.35066">
        <ele>1282.5</ele>
        <time>2011-10-01T16:08:31Z</time>
      </trkpt>
      <trkpt lat="44.12199" lon="5.35062">
        <ele>1281.5</ele>
        <time>2011-10-01T16:08:36Z</time>
      </trkpt>
      <trkpt lat="44.12198" lon="5.35062">
        <ele>1279.5</ele>
        <time>2011-10-01T16:08:41Z</time>
      </trkpt>
      <trkpt lat="44.12198" lon="5.35062">
        <ele>1279.5</ele>
        <time>2011-10-01T16:08:46Z</time>
      </trkpt>
      <trkpt lat="44.12198" lon="5.35062">
        <ele>1279</ele>
        <time>2011-10-01T16:08:51Z</time>
      </trkpt>
      <trkpt lat="44.12198" lon="5.35061">
        <ele>1278</ele>
        <time>2011-10-01T16:08:56Z</time>
      </trkpt>
      <trkpt lat="44.12198" lon="5.35061">
        <ele>1277</ele>
        <time>2011-10-01T16:09:01Z</time>
      </trkpt>
      <trkpt lat="44.12198" lon="5.35061">
        <ele>1277</ele>
        <time>2011-10-01T16:09:06Z</time>
      </trkpt>
      <trkpt lat="44.12198" lon="5.35061">
        <ele>1276.5</ele>
        <time>2011-10-01T16:09:11Z</time>
      </trkpt>
      <trkpt lat="44.12198" lon="5.35061">
        <ele>1276.5</ele>
        <time>2011-10-01T16:09:16Z</time>
      </trkpt>
      <trkpt lat="44.12198" lon="5.35061">
        <ele>1276.5</ele>
        <time>2011-10-01T16:09:21Z</time>
      </trkpt>
      <trkpt lat="44.12198" lon="5.35061">
        <ele>1276.5</ele>
        <time>2011-10-01T16:09:26Z</time>
      </trkpt>
      <trkpt lat="44.12198" lon="5.3506">
        <ele>1276</ele>
        <time>2011-10-01T16:09:31Z</time>
      </trkpt>
      <trkpt lat="44.12198" lon="5.35059">
        <ele>1275.5</ele>
        <time>2011-10-01T16:09:36Z</time>
      </trkpt>
      <trkpt lat="44.12199" lon="5.35058">
        <ele>1275</ele>
        <time>2011-10-01T16:09:41Z</time>
      </trkpt>
      <trkpt lat="44.12198" lon="5.35059">
        <ele>1275</ele>
        <time>2011-10-01T16:09:46Z</time>
      </trkpt>
      <trkpt lat="44.12183" lon="5.35065">
        <ele>1274</ele>
        <time>2011-10-01T16:09:51Z</time>
      </trkpt>
      <trkpt lat="44.1216" lon="5.35074">
        <ele>1272</ele>
        <time>2011-10-01T16:09:56Z</time>
      </trkpt>
      <trkpt lat="44.12129" lon="5.35081">
        <ele>1271.5</ele>
        <time>2011-10-01T16:10:01Z</time>
      </trkpt>
      <trkpt lat="44.12097" lon="5.35079">
        <ele>1271</ele>
        <time>2011-10-01T16:10:06Z</time>
      </trkpt>
      <trkpt lat="44.12063" lon="5.35076">
        <ele>1270.5</ele>
        <time>2011-10-01T16:10:11Z</time>
      </trkpt>
      <trkpt lat="44.12029" lon="5.35073">
        <ele>1269.5</ele>
        <time>2011-10-01T16:10:16Z</time>
      </trkpt>
      <trkpt lat="44.11994" lon="5.35077">
        <ele>1268.5</ele>
        <time>2011-10-01T16:10:21Z</time>
      </trkpt>
      <trkpt lat="44.11958" lon="5.35068">
        <ele>1267.5</ele>
        <time>2011-10-01T16:10:26Z</time>
      </trkpt>
      <trkpt lat="44.11936" lon="5.35064">
        <ele>1266.5</ele>
        <time>2011-10-01T16:10:31Z</time>
      </trkpt>
      <trkpt lat="44.1193" lon="5.35066">
        <ele>1265.5</ele>
        <time>2011-10-01T16:10:36Z</time>
      </trkpt>
      <trkpt lat="44.1193" lon="5.35071">
        <ele>1265</ele>
        <time>2011-10-01T16:10:41Z</time>
      </trkpt>
      <trkpt lat="44.1193" lon="5.35071">
        <ele>1265</ele>
        <time>2011-10-01T16:10:46Z</time>
      </trkpt>
      <trkpt lat="44.11929" lon="5.35071">
        <ele>1265</ele>
        <time>2011-10-01T16:10:51Z</time>
      </trkpt>
      <trkpt lat="44.11929" lon="5.3507">
        <ele>1263</ele>
        <time>2011-10-01T16:10:56Z</time>
      </trkpt>
      <trkpt lat="44.11929" lon="5.3507">
        <ele>1261.5</ele>
        <time>2011-10-01T16:11:01Z</time>
      </trkpt>
      <trkpt lat="44.11928" lon="5.3507">
        <ele>1260</ele>
        <time>2011-10-01T16:11:06Z</time>
      </trkpt>
      <trkpt lat="44.11929" lon="5.35071">
        <ele>1258</ele>
        <time>2011-10-01T16:11:11Z</time>
      </trkpt>
      <trkpt lat="44.11928" lon="5.35072">
        <ele>1259</ele>
        <time>2011-10-01T16:11:16Z</time>
      </trkpt>
      <trkpt lat="44.11928" lon="5.35072">
        <ele>1259</ele>
        <time>2011-10-01T16:11:21Z</time>
      </trkpt>
      <trkpt lat="44.11928" lon="5.35072">
        <ele>1258.5</ele>
        <time>2011-10-01T16:11:26Z</time>
      </trkpt>
      <trkpt lat="44.11928" lon="5.35072">
        <ele>1258.5</ele>
        <time>2011-10-01T16:11:31Z</time>
      </trkpt>
      <trkpt lat="44.11928" lon="5.35072">
        <ele>1258.5</ele>
        <time>2011-10-01T16:11:36Z</time>
      </trkpt>
      <trkpt lat="44.11929" lon="5.35069">
        <ele>1251.5</ele>
        <time>2011-10-01T16:11:41Z</time>
      </trkpt>
      <trkpt lat="44.11929" lon="5.35068">
        <ele>1250.5</ele>
        <time>2011-10-01T16:11:46Z</time>
      </trkpt>
      <trkpt lat="44.11929" lon="5.35069">
        <ele>1250.5</ele>
        <time>2011-10-01T16:11:51Z</time>
      </trkpt>
      <trkpt lat="44.11928" lon="5.35069">
        <ele>1250.5</ele>
        <time>2011-10-01T16:11:56Z</time>
      </trkpt>
      <trkpt lat="44.11926" lon="5.3507">
        <ele>1251</ele>
        <time>2011-10-01T16:12:01Z</time>
      </trkpt>
      <trkpt lat="44.11926" lon="5.3507">
        <ele>1250.5</ele>
        <time>2011-10-01T16:12:06Z</time>
      </trkpt>
      <trkpt lat="44.11926" lon="5.35072">
        <ele>1250.5</ele>
        <time>2011-10-01T16:12:11Z</time>
      </trkpt>
      <trkpt lat="44.11926" lon="5.35073">
        <ele>1251.5</ele>
        <time>2011-10-01T16:12:16Z</time>
      </trkpt>
      <trkpt lat="44.11927" lon="5.35073">
        <ele>1251</ele>
        <time>2011-10-01T16:12:21Z</time>
      </trkpt>
      <trkpt lat="44.11928" lon="5.35072">
        <ele>1250</ele>
        <time>2011-10-01T16:12:26Z</time>
      </trkpt>
      <trkpt lat="44.11928" lon="5.35073">
        <ele>1249.5</ele>
        <time>2011-10-01T16:12:31Z</time>
      </trkpt>
      <trkpt lat="44.11929" lon="5.35073">
        <ele>1247.5</ele>
        <time>2011-10-01T16:12:36Z</time>
      </trkpt>
      <trkpt lat="44.11926" lon="5.35075">
        <ele>1247.5</ele>
        <time>2011-10-01T16:12:41Z</time>
      </trkpt>
      <trkpt lat="44.11916" lon="5.35087">
        <ele>1246</ele>
        <time>2011-10-01T16:12:46Z</time>
      </trkpt>
      <trkpt lat="44.11907" lon="5.351">
        <ele>1242</ele>
        <time>2011-10-01T16:12:51Z</time>
      </trkpt>
      <trkpt lat="44.11891" lon="5.35117">
        <ele>1239.5</ele>
        <time>2011-10-01T16:12:56Z</time>
      </trkpt>
      <trkpt lat="44.11877" lon="5.35137">
        <ele>1238</ele>
        <time>2011-10-01T16:13:01Z</time>
      </trkpt>
      <trkpt lat="44.11855" lon="5.35159">
        <ele>1236.5</ele>
        <time>2011-10-01T16:13:06Z</time>
      </trkpt>
      <trkpt lat="44.11834" lon="5.35189">
        <ele>1234.5</ele>
        <time>2011-10-01T16:13:11Z</time>
      </trkpt>
      <trkpt lat="44.11817" lon="5.35222">
        <ele>1230.5</ele>
        <time>2011-10-01T16:13:16Z</time>
      </trkpt>
      <trkpt lat="44.11793" lon="5.35249">
        <ele>1227.5</ele>
        <time>2011-10-01T16:13:21Z</time>
      </trkpt>
      <trkpt lat="44.11765" lon="5.35272">
        <ele>1226</ele>
        <time>2011-10-01T16:13:26Z</time>
      </trkpt>
      <trkpt lat="44.11736" lon="5.35296">
        <ele>1224.5</ele>
        <time>2011-10-01T16:13:31Z</time>
      </trkpt>
      <trkpt lat="44.11709" lon="5.3533">
        <ele>1224</ele>
        <time>2011-10-01T16:13:36Z</time>
      </trkpt>
      <trkpt lat="44.1168" lon="5.35367">
        <ele>1222.5</ele>
        <time>2011-10-01T16:13:41Z</time>
      </trkpt>
      <trkpt lat="44.11654" lon="5.35396">
        <ele>1218.5</ele>
        <time>2011-10-01T16:13:46Z</time>
      </trkpt>
      <trkpt lat="44.11654" lon="5.35405">
        <ele>1214.5</ele>
        <time>2011-10-01T16:13:51Z</time>
      </trkpt>
      <trkpt lat="44.11659" lon="5.35416">
        <ele>1210</ele>
        <time>2011-10-01T16:13:56Z</time>
      </trkpt>
      <trkpt lat="44.1166" lon="5.35426">
        <ele>1204.5</ele>
        <time>2011-10-01T16:14:01Z</time>
      </trkpt>
      <trkpt lat="44.11663" lon="5.35433">
        <ele>1202.5</ele>
        <time>2011-10-01T16:14:06Z</time>
      </trkpt>
      <trkpt lat="44.1166" lon="5.35434">
        <ele>1201.5</ele>
        <time>2011-10-01T16:14:11Z</time>
      </trkpt>
      <trkpt lat="44.11661" lon="5.35434">
        <ele>1201</ele>
        <time>2011-10-01T16:14:16Z</time>
      </trkpt>
      <trkpt lat="44.11665" lon="5.35447">
        <ele>1200</ele>
        <time>2011-10-01T16:14:21Z</time>
      </trkpt>
      <trkpt lat="44.11672" lon="5.35472">
        <ele>1199</ele>
        <time>2011-10-01T16:14:26Z</time>
      </trkpt>
      <trkpt lat="44.11678" lon="5.3549">
        <ele>1197</ele>
        <time>2011-10-01T16:14:31Z</time>
      </trkpt>
      <trkpt lat="44.11677" lon="5.35498">
        <ele>1194.5</ele>
        <time>2011-10-01T16:14:36Z</time>
      </trkpt>
      <trkpt lat="44.11675" lon="5.35499">
        <ele>1192.5</ele>
        <time>2011-10-01T16:14:41Z</time>
      </trkpt>
      <trkpt lat="44.11673" lon="5.35499">
        <ele>1191.5</ele>
        <time>2011-10-01T16:14:46Z</time>
      </trkpt>
      <trkpt lat="44.11671" lon="5.35507">
        <ele>1191.5</ele>
        <time>2011-10-01T16:14:51Z</time>
      </trkpt>
      <trkpt lat="44.1167" lon="5.35515">
        <ele>1191.5</ele>
        <time>2011-10-01T16:14:56Z</time>
      </trkpt>
      <trkpt lat="44.1167" lon="5.35515">
        <ele>1191</ele>
        <time>2011-10-01T16:15:01Z</time>
      </trkpt>
      <trkpt lat="44.1167" lon="5.35517">
        <ele>1191.5</ele>
        <time>2011-10-01T16:15:06Z</time>
      </trkpt>
      <trkpt lat="44.11673" lon="5.35529">
        <ele>1191.5</ele>
        <time>2011-10-01T16:15:11Z</time>
      </trkpt>
      <trkpt lat="44.11673" lon="5.35536">
        <ele>1191</ele>
        <time>2011-10-01T16:15:16Z</time>
      </trkpt>
      <trkpt lat="44.11673" lon="5.35545">
        <ele>1190.5</ele>
        <time>2011-10-01T16:15:21Z</time>
      </trkpt>
      <trkpt lat="44.11675" lon="5.35554">
        <ele>1191</ele>
        <time>2011-10-01T16:15:26Z</time>
      </trkpt>
      <trkpt lat="44.11677" lon="5.35558">
        <ele>1192</ele>
        <time>2011-10-01T16:15:31Z</time>
      </trkpt>
      <trkpt lat="44.1168" lon="5.35565">
        <ele>1191</ele>
        <time>2011-10-01T16:15:36Z</time>
      </trkpt>
      <trkpt lat="44.11677" lon="5.35574">
        <ele>1190</ele>
        <time>2011-10-01T16:15:41Z</time>
      </trkpt>
      <trkpt lat="44.11671" lon="5.35581">
        <ele>1189</ele>
        <time>2011-10-01T16:15:46Z</time>
      </trkpt>
      <trkpt lat="44.11659" lon="5.35594">
        <ele>1187.5</ele>
        <time>2011-10-01T16:15:51Z</time>
      </trkpt>
      <trkpt lat="44.11638" lon="5.35608">
        <ele>1185.5</ele>
        <time>2011-10-01T16:15:56Z</time>
      </trkpt>
      <trkpt lat="44.11619" lon="5.35617">
        <ele>1185</ele>
        <time>2011-10-01T16:16:01Z</time>
      </trkpt>
      <trkpt lat="44.11604" lon="5.35636">
        <ele>1182</ele>
        <time>2011-10-01T16:16:06Z</time>
      </trkpt>
      <trkpt lat="44.11592" lon="5.35645">
        <ele>1180.5</ele>
        <time>2011-10-01T16:16:11Z</time>
      </trkpt>
      <trkpt lat="44.11586" lon="5.35657">
        <ele>1178.5</ele>
        <time>2011-10-01T16:16:16Z</time>
      </trkpt>
      <trkpt lat="44.11582" lon="5.3566">
        <ele>1178</ele>
        <time>2011-10-01T16:16:21Z</time>
      </trkpt>
      <trkpt lat="44.11577" lon="5.35662">
        <ele>1177.5</ele>
        <time>2011-10-01T16:16:26Z</time>
      </trkpt>
      <trkpt lat="44.11577" lon="5.35665">
        <ele>1175</ele>
        <time>2011-10-01T16:16:31Z</time>
      </trkpt>
      <trkpt lat="44.11577" lon="5.35666">
        <ele>1174</ele>
        <time>2011-10-01T16:16:36Z</time>
      </trkpt>
      <trkpt lat="44.11577" lon="5.35667">
        <ele>1174</ele>
        <time>2011-10-01T16:16:41Z</time>
      </trkpt>
      <trkpt lat="44.11577" lon="5.35667">
        <ele>1174</ele>
        <time>2011-10-01T16:16:46Z</time>
      </trkpt>
      <trkpt lat="44.11577" lon="5.35667">
        <ele>1173</ele>
        <time>2011-10-01T16:16:51Z</time>
      </trkpt>
      <trkpt lat="44.11576" lon="5.35667">
        <ele>1173</ele>
        <time>2011-10-01T16:16:56Z</time>
      </trkpt>
      <trkpt lat="44.11575" lon="5.35667">
        <ele>1170.5</ele>
        <time>2011-10-01T16:17:01Z</time>
      </trkpt>
      <trkpt lat="44.11575" lon="5.35667">
        <ele>1169</ele>
        <time>2011-10-01T16:17:06Z</time>
      </trkpt>
      <trkpt lat="44.11575" lon="5.35667">
        <ele>1169</ele>
        <time>2011-10-01T16:17:11Z</time>
      </trkpt>
      <trkpt lat="44.11575" lon="5.35667">
        <ele>1169</ele>
        <time>2011-10-01T16:17:16Z</time>
      </trkpt>
      <trkpt lat="44.11575" lon="5.35667">
        <ele>1169</ele>
        <time>2011-10-01T16:17:21Z</time>
      </trkpt>
      <trkpt lat="44.11573" lon="5.35669">
        <ele>1167.5</ele>
        <time>2011-10-01T16:17:26Z</time>
      </trkpt>
      <trkpt lat="44.11571" lon="5.35671">
        <ele>1165.5</ele>
        <time>2011-10-01T16:17:31Z</time>
      </trkpt>
      <trkpt lat="44.1157" lon="5.35672">
        <ele>1165</ele>
        <time>2011-10-01T16:17:36Z</time>
      </trkpt>
      <trkpt lat="44.11569" lon="5.35672">
        <ele>1163.5</ele>
        <time>2011-10-01T16:17:41Z</time>
      </trkpt>
      <trkpt lat="44.11568" lon="5.35672">
        <ele>1162</ele>
        <time>2011-10-01T16:17:46Z</time>
      </trkpt>
      <trkpt lat="44.11568" lon="5.35672">
        <ele>1160</ele>
        <time>2011-10-01T16:17:51Z</time>
      </trkpt>
      <trkpt lat="44.11569" lon="5.35673">
        <ele>1160</ele>
        <time>2011-10-01T16:17:56Z</time>
      </trkpt>
      <trkpt lat="44.11568" lon="5.35673">
        <ele>1159</ele>
        <time>2011-10-01T16:18:01Z</time>
      </trkpt>
      <trkpt lat="44.11568" lon="5.35672">
        <ele>1158</ele>
        <time>2011-10-01T16:18:06Z</time>
      </trkpt>
      <trkpt lat="44.11568" lon="5.35672">
        <ele>1158</ele>
        <time>2011-10-01T16:18:11Z</time>
      </trkpt>
      <trkpt lat="44.11566" lon="5.35672">
        <ele>1156</ele>
        <time>2011-10-01T16:18:16Z</time>
      </trkpt>
      <trkpt lat="44.11564" lon="5.35674">
        <ele>1155</ele>
        <time>2011-10-01T16:18:21Z</time>
      </trkpt>
      <trkpt lat="44.11556" lon="5.35681">
        <ele>1150</ele>
        <time>2011-10-01T16:18:26Z</time>
      </trkpt>
      <trkpt lat="44.1155" lon="5.35687">
        <ele>1146</ele>
        <time>2011-10-01T16:18:31Z</time>
      </trkpt>
      <trkpt lat="44.11543" lon="5.35693">
        <ele>1144.5</ele>
        <time>2011-10-01T16:18:36Z</time>
      </trkpt>
      <trkpt lat="44.11536" lon="5.35699">
        <ele>1142.5</ele>
        <time>2011-10-01T16:18:41Z</time>
      </trkpt>
      <trkpt lat="44.11529" lon="5.35706">
        <ele>1141</ele>
        <time>2011-10-01T16:18:46Z</time>
      </trkpt>
      <trkpt lat="44.11521" lon="5.35713">
        <ele>1139.5</ele>
        <time>2011-10-01T16:18:51Z</time>
      </trkpt>
      <trkpt lat="44.11513" lon="5.35719">
        <ele>1138.5</ele>
        <time>2011-10-01T16:18:56Z</time>
      </trkpt>
      <trkpt lat="44.11502" lon="5.35726">
        <ele>1137</ele>
        <time>2011-10-01T16:19:01Z</time>
      </trkpt>
      <trkpt lat="44.11494" lon="5.35729">
        <ele>1136.5</ele>
        <time>2011-10-01T16:19:06Z</time>
      </trkpt>
      <trkpt lat="44.11492" lon="5.35733">
        <ele>1136</ele>
        <time>2011-10-01T16:19:11Z</time>
      </trkpt>
      <trkpt lat="44.11492" lon="5.35734">
        <ele>1135</ele>
        <time>2011-10-01T16:19:16Z</time>
      </trkpt>
      <trkpt lat="44.11492" lon="5.35735">
        <ele>1133</ele>
        <time>2011-10-01T16:19:21Z</time>
      </trkpt>
      <trkpt lat="44.11491" lon="5.35736">
        <ele>1130.5</ele>
        <time>2011-10-01T16:19:26Z</time>
      </trkpt>
      <trkpt lat="44.1149" lon="5.35735">
        <ele>1128.5</ele>
        <time>2011-10-01T16:19:31Z</time>
      </trkpt>
      <trkpt lat="44.1149" lon="5.35736">
        <ele>1126.5</ele>
        <time>2011-10-01T16:19:36Z</time>
      </trkpt>
      <trkpt lat="44.11488" lon="5.35736">
        <ele>1126</ele>
        <time>2011-10-01T16:19:41Z</time>
      </trkpt>
      <trkpt lat="44.11486" lon="5.3574">
        <ele>1125.5</ele>
        <time>2011-10-01T16:19:46Z</time>
      </trkpt>
      <trkpt lat="44.11481" lon="5.35745">
        <ele>1124</ele>
        <time>2011-10-01T16:19:51Z</time>
      </trkpt>
      <trkpt lat="44.11478" lon="5.35751">
        <ele>1122.5</ele>
        <time>2011-10-01T16:19:56Z</time>
      </trkpt>
      <trkpt lat="44.11474" lon="5.35757">
        <ele>1121.5</ele>
        <time>2011-10-01T16:20:01Z</time>
      </trkpt>
      <trkpt lat="44.11472" lon="5.35764">
        <ele>1121</ele>
        <time>2011-10-01T16:20:06Z</time>
      </trkpt>
      <trkpt lat="44.11472" lon="5.35764">
        <ele>1121</ele>
        <time>2011-10-01T16:20:11Z</time>
      </trkpt>
      <trkpt lat="44.11471" lon="5.35767">
        <ele>1119</ele>
        <time>2011-10-01T16:20:16Z</time>
      </trkpt>
      <trkpt lat="44.1147" lon="5.35771">
        <ele>1117.5</ele>
        <time>2011-10-01T16:20:21Z</time>
      </trkpt>
      <trkpt lat="44.11467" lon="5.35774">
        <ele>1117</ele>
        <time>2011-10-01T16:20:26Z</time>
      </trkpt>
      <trkpt lat="44.11465" lon="5.35775">
        <ele>1115</ele>
        <time>2011-10-01T16:20:31Z</time>
      </trkpt>
      <trkpt lat="44.11462" lon="5.35778">
        <ele>1115</ele>
        <time>2011-10-01T16:20:36Z</time>
      </trkpt>
      <trkpt lat="44.11459" lon="5.35781">
        <ele>1114.5</ele>
        <time>2011-10-01T16:20:41Z</time>
      </trkpt>
      <trkpt lat="44.11458" lon="5.35786">
        <ele>1114</ele>
        <time>2011-10-01T16:20:46Z</time>
      </trkpt>
      <trkpt lat="44.11456" lon="5.3579">
        <ele>1113.5</ele>
        <time>2011-10-01T16:20:51Z</time>
      </trkpt>
      <trkpt lat="44.11452" lon="5.35792">
        <ele>1112.5</ele>
        <time>2011-10-01T16:20:56Z</time>
      </trkpt>
      <trkpt lat="44.11451" lon="5.35792">
        <ele>1112</ele>
        <time>2011-10-01T16:21:01Z</time>
      </trkpt>
      <trkpt lat="44.11448" lon="5.35797">
        <ele>1111.5</ele>
        <time>2011-10-01T16:21:06Z</time>
      </trkpt>
      <trkpt lat="44.11446" lon="5.358">
        <ele>1111.5</ele>
        <time>2011-10-01T16:21:11Z</time>
      </trkpt>
      <trkpt lat="44.11444" lon="5.35803">
        <ele>1110.5</ele>
        <time>2011-10-01T16:21:16Z</time>
      </trkpt>
      <trkpt lat="44.11442" lon="5.35803">
        <ele>1110</ele>
        <time>2011-10-01T16:21:21Z</time>
      </trkpt>
      <trkpt lat="44.11442" lon="5.35803">
        <ele>1109</ele>
        <time>2011-10-01T16:21:26Z</time>
      </trkpt>
      <trkpt lat="44.1144" lon="5.35806">
        <ele>1107.5</ele>
        <time>2011-10-01T16:21:31Z</time>
      </trkpt>
      <trkpt lat="44.11436" lon="5.35807">
        <ele>1105.5</ele>
        <time>2011-10-01T16:21:36Z</time>
      </trkpt>
      <trkpt lat="44.11434" lon="5.35809">
        <ele>1105.5</ele>
        <time>2011-10-01T16:21:41Z</time>
      </trkpt>
      <trkpt lat="44.11434" lon="5.35809">
        <ele>1105</ele>
        <time>2011-10-01T16:21:46Z</time>
      </trkpt>
      <trkpt lat="44.11435" lon="5.35808">
        <ele>1103</ele>
        <time>2011-10-01T16:21:51Z</time>
      </trkpt>
      <trkpt lat="44.11432" lon="5.3581">
        <ele>1103</ele>
        <time>2011-10-01T16:21:56Z</time>
      </trkpt>
      <trkpt lat="44.11427" lon="5.35813">
        <ele>1102.5</ele>
        <time>2011-10-01T16:22:01Z</time>
      </trkpt>
      <trkpt lat="44.11421" lon="5.3582">
        <ele>1102</ele>
        <time>2011-10-01T16:22:06Z</time>
      </trkpt>
      <trkpt lat="44.11414" lon="5.35828">
        <ele>1102.5</ele>
        <time>2011-10-01T16:22:11Z</time>
      </trkpt>
      <trkpt lat="44.11404" lon="5.35841">
        <ele>1101.5</ele>
        <time>2011-10-01T16:22:16Z</time>
      </trkpt>
      <trkpt lat="44.11394" lon="5.35856">
        <ele>1099.5</ele>
        <time>2011-10-01T16:22:21Z</time>
      </trkpt>
      <trkpt lat="44.11381" lon="5.35872">
        <ele>1100</ele>
        <time>2011-10-01T16:22:26Z</time>
      </trkpt>
      <trkpt lat="44.11373" lon="5.35889">
        <ele>1099.5</ele>
        <time>2011-10-01T16:22:31Z</time>
      </trkpt>
      <trkpt lat="44.11366" lon="5.35903">
        <ele>1098.5</ele>
        <time>2011-10-01T16:22:36Z</time>
      </trkpt>
      <trkpt lat="44.11352" lon="5.3592">
        <ele>1096</ele>
        <time>2011-10-01T16:22:41Z</time>
      </trkpt>
      <trkpt lat="44.11341" lon="5.35935">
        <ele>1094.5</ele>
        <time>2011-10-01T16:22:46Z</time>
      </trkpt>
      <trkpt lat="44.11332" lon="5.35948">
        <ele>1092.5</ele>
        <time>2011-10-01T16:22:51Z</time>
      </trkpt>
      <trkpt lat="44.11324" lon="5.35961">
        <ele>1090.5</ele>
        <time>2011-10-01T16:22:56Z</time>
      </trkpt>
      <trkpt lat="44.11317" lon="5.35973">
        <ele>1088.5</ele>
        <time>2011-10-01T16:23:01Z</time>
      </trkpt>
      <trkpt lat="44.11309" lon="5.35983">
        <ele>1086.5</ele>
        <time>2011-10-01T16:23:06Z</time>
      </trkpt>
      <trkpt lat="44.11302" lon="5.35994">
        <ele>1085.5</ele>
        <time>2011-10-01T16:23:11Z</time>
      </trkpt>
      <trkpt lat="44.11292" lon="5.36003">
        <ele>1083</ele>
        <time>2011-10-01T16:23:16Z</time>
      </trkpt>
      <trkpt lat="44.11279" lon="5.36014">
        <ele>1078</ele>
        <time>2011-10-01T16:23:21Z</time>
      </trkpt>
      <trkpt lat="44.11268" lon="5.36022">
        <ele>1072</ele>
        <time>2011-10-01T16:23:26Z</time>
      </trkpt>
      <trkpt lat="44.11254" lon="5.36029">
        <ele>1068</ele>
        <time>2011-10-01T16:23:31Z</time>
      </trkpt>
      <trkpt lat="44.11244" lon="5.36036">
        <ele>1065.5</ele>
        <time>2011-10-01T16:23:36Z</time>
      </trkpt>
      <trkpt lat="44.11232" lon="5.36045">
        <ele>1063</ele>
        <time>2011-10-01T16:23:41Z</time>
      </trkpt>
      <trkpt lat="44.11219" lon="5.36053">
        <ele>1060</ele>
        <time>2011-10-01T16:23:46Z</time>
      </trkpt>
      <trkpt lat="44.11209" lon="5.36061">
        <ele>1054.5</ele>
        <time>2011-10-01T16:23:51Z</time>
      </trkpt>
      <trkpt lat="44.112" lon="5.36069">
        <ele>1049</ele>
        <time>2011-10-01T16:23:56Z</time>
      </trkpt>
      <trkpt lat="44.11192" lon="5.36075">
        <ele>1045</ele>
        <time>2011-10-01T16:24:01Z</time>
      </trkpt>
      <trkpt lat="44.11184" lon="5.36083">
        <ele>1043</ele>
        <time>2011-10-01T16:24:06Z</time>
      </trkpt>
      <trkpt lat="44.11177" lon="5.36091">
        <ele>1039.5</ele>
        <time>2011-10-01T16:24:11Z</time>
      </trkpt>
      <trkpt lat="44.11171" lon="5.36097">
        <ele>1033.5</ele>
        <time>2011-10-01T16:24:16Z</time>
      </trkpt>
      <trkpt lat="44.11167" lon="5.36097">
        <ele>1032</ele>
        <time>2011-10-01T16:24:21Z</time>
      </trkpt>
      <trkpt lat="44.11165" lon="5.36097">
        <ele>1029.5</ele>
        <time>2011-10-01T16:24:26Z</time>
      </trkpt>
      <trkpt lat="44.11163" lon="5.36097">
        <ele>1028</ele>
        <time>2011-10-01T16:24:31Z</time>
      </trkpt>
      <trkpt lat="44.11163" lon="5.36097">
        <ele>1027.5</ele>
        <time>2011-10-01T16:24:36Z</time>
      </trkpt>
      <trkpt lat="44.11163" lon="5.36097">
        <ele>1027.5</ele>
        <time>2011-10-01T16:24:41Z</time>
      </trkpt>
      <trkpt lat="44.11163" lon="5.36097">
        <ele>1028</ele>
        <time>2011-10-01T16:24:46Z</time>
      </trkpt>
      <trkpt lat="44.11162" lon="5.36097">
        <ele>1026</ele>
        <time>2011-10-01T16:24:51Z</time>
      </trkpt>
      <trkpt lat="44.1116" lon="5.36098">
        <ele>1024.5</ele>
        <time>2011-10-01T16:24:56Z</time>
      </trkpt>
      <trkpt lat="44.11158" lon="5.36098">
        <ele>1023</ele>
        <time>2011-10-01T16:25:01Z</time>
      </trkpt>
      <trkpt lat="44.11158" lon="5.36098">
        <ele>1022.5</ele>
        <time>2011-10-01T16:25:06Z</time>
      </trkpt>
      <trkpt lat="44.11157" lon="5.36098">
        <ele>1023</ele>
        <time>2011-10-01T16:25:11Z</time>
      </trkpt>
      <trkpt lat="44.11154" lon="5.36102">
        <ele>1022</ele>
        <time>2011-10-01T16:25:16Z</time>
      </trkpt>
      <trkpt lat="44.1115" lon="5.36105">
        <ele>1019</ele>
        <time>2011-10-01T16:25:21Z</time>
      </trkpt>
      <trkpt lat="44.11149" lon="5.36105">
        <ele>1018.5</ele>
        <time>2011-10-01T16:25:26Z</time>
      </trkpt>
      <trkpt lat="44.11142" lon="5.36111">
        <ele>1016.5</ele>
        <time>2011-10-01T16:25:31Z</time>
      </trkpt>
      <trkpt lat="44.11135" lon="5.36115">
        <ele>1015</ele>
        <time>2011-10-01T16:25:36Z</time>
      </trkpt>
      <trkpt lat="44.1113" lon="5.36119">
        <ele>1013</ele>
        <time>2011-10-01T16:25:41Z</time>
      </trkpt>
      <trkpt lat="44.11122" lon="5.36123">
        <ele>1010</ele>
        <time>2011-10-01T16:25:46Z</time>
      </trkpt>
      <trkpt lat="44.11114" lon="5.3613">
        <ele>1008</ele>
        <time>2011-10-01T16:25:51Z</time>
      </trkpt>
      <trkpt lat="44.11106" lon="5.3614">
        <ele>1006</ele>
        <time>2011-10-01T16:25:56Z</time>
      </trkpt>
      <trkpt lat="44.111" lon="5.36149">
        <ele>1003.5</ele>
        <time>2011-10-01T16:26:01Z</time>
      </trkpt>
      <trkpt lat="44.11095" lon="5.36157">
        <ele>999</ele>
        <time>2011-10-01T16:26:06Z</time>
      </trkpt>
      <trkpt lat="44.11089" lon="5.36163">
        <ele>996.5</ele>
        <time>2011-10-01T16:26:11Z</time>
      </trkpt>
      <trkpt lat="44.11086" lon="5.36165">
        <ele>996</ele>
        <time>2011-10-01T16:26:16Z</time>
      </trkpt>
      <trkpt lat="44.11077" lon="5.36172">
        <ele>993</ele>
        <time>2011-10-01T16:26:21Z</time>
      </trkpt>
      <trkpt lat="44.11065" lon="5.36181">
        <ele>989.5</ele>
        <time>2011-10-01T16:26:26Z</time>
      </trkpt>
      <trkpt lat="44.11057" lon="5.36186">
        <ele>987.5</ele>
        <time>2011-10-01T16:26:31Z</time>
      </trkpt>
      <trkpt lat="44.1105" lon="5.3619">
        <ele>983</ele>
        <time>2011-10-01T16:26:36Z</time>
      </trkpt>
      <trkpt lat="44.11044" lon="5.36197">
        <ele>978.5</ele>
        <time>2011-10-01T16:26:41Z</time>
      </trkpt>
      <trkpt lat="44.11036" lon="5.36205">
        <ele>974.5</ele>
        <time>2011-10-01T16:26:46Z</time>
      </trkpt>
      <trkpt lat="44.11028" lon="5.36215">
        <ele>971</ele>
        <time>2011-10-01T16:26:51Z</time>
      </trkpt>
      <trkpt lat="44.11022" lon="5.36223">
        <ele>969</ele>
        <time>2011-10-01T16:26:56Z</time>
      </trkpt>
      <trkpt lat="44.11015" lon="5.36231">
        <ele>966.5</ele>
        <time>2011-10-01T16:27:01Z</time>
      </trkpt>
      <trkpt lat="44.11009" lon="5.36239">
        <ele>965</ele>
        <time>2011-10-01T16:27:06Z</time>
      </trkpt>
      <trkpt lat="44.11006" lon="5.36246">
        <ele>963</ele>
        <time>2011-10-01T16:27:11Z</time>
      </trkpt>
      <trkpt lat="44.11001" lon="5.36255">
        <ele>961.5</ele>
        <time>2011-10-01T16:27:16Z</time>
      </trkpt>
      <trkpt lat="44.10997" lon="5.36259">
        <ele>961.5</ele>
        <time>2011-10-01T16:27:21Z</time>
      </trkpt>
      <trkpt lat="44.10992" lon="5.36265">
        <ele>961</ele>
        <time>2011-10-01T16:27:26Z</time>
      </trkpt>
      <trkpt lat="44.10988" lon="5.36269">
        <ele>958.5</ele>
        <time>2011-10-01T16:27:31Z</time>
      </trkpt>
      <trkpt lat="44.10985" lon="5.36269">
        <ele>956</ele>
        <time>2011-10-01T16:27:36Z</time>
      </trkpt>
      <trkpt lat="44.10984" lon="5.36269">
        <ele>955</ele>
        <time>2011-10-01T16:27:41Z</time>
      </trkpt>
      <trkpt lat="44.10984" lon="5.3627">
        <ele>955</ele>
        <time>2011-10-01T16:27:46Z</time>
      </trkpt>
      <trkpt lat="44.10984" lon="5.3627">
        <ele>955</ele>
        <time>2011-10-01T16:27:51Z</time>
      </trkpt>
      <trkpt lat="44.10984" lon="5.3627">
        <ele>955</ele>
        <time>2011-10-01T16:27:56Z</time>
      </trkpt>
      <trkpt lat="44.10984" lon="5.3627">
        <ele>955</ele>
        <time>2011-10-01T16:28:01Z</time>
      </trkpt>
      <trkpt lat="44.10983" lon="5.3627">
        <ele>955</ele>
        <time>2011-10-01T16:28:06Z</time>
      </trkpt>
      <trkpt lat="44.10982" lon="5.36271">
        <ele>955</ele>
        <time>2011-10-01T16:28:11Z</time>
      </trkpt>
      <trkpt lat="44.10979" lon="5.36272">
        <ele>954</ele>
        <time>2011-10-01T16:28:16Z</time>
      </trkpt>
      <trkpt lat="44.10975" lon="5.36275">
        <ele>954.5</ele>
        <time>2011-10-01T16:28:21Z</time>
      </trkpt>
      <trkpt lat="44.10959" lon="5.36285">
        <ele>952</ele>
        <time>2011-10-01T16:28:26Z</time>
      </trkpt>
      <trkpt lat="44.10944" lon="5.36295">
        <ele>949.5</ele>
        <time>2011-10-01T16:28:31Z</time>
      </trkpt>
      <trkpt lat="44.10929" lon="5.36304">
        <ele>946.5</ele>
        <time>2011-10-01T16:28:36Z</time>
      </trkpt>
      <trkpt lat="44.10905" lon="5.36313">
        <ele>943.5</ele>
        <time>2011-10-01T16:28:41Z</time>
      </trkpt>
      <trkpt lat="44.10887" lon="5.36321">
        <ele>941</ele>
        <time>2011-10-01T16:28:46Z</time>
      </trkpt>
      <trkpt lat="44.10868" lon="5.36328">
        <ele>938</ele>
        <time>2011-10-01T16:28:51Z</time>
      </trkpt>
      <trkpt lat="44.10848" lon="5.36335">
        <ele>934.5</ele>
        <time>2011-10-01T16:28:56Z</time>
      </trkpt>
      <trkpt lat="44.1083" lon="5.3634">
        <ele>930</ele>
        <time>2011-10-01T16:29:01Z</time>
      </trkpt>
      <trkpt lat="44.10813" lon="5.36344">
        <ele>924.5</ele>
        <time>2011-10-01T16:29:06Z</time>
      </trkpt>
      <trkpt lat="44.10798" lon="5.3635">
        <ele>921</ele>
        <time>2011-10-01T16:29:11Z</time>
      </trkpt>
      <trkpt lat="44.10781" lon="5.36355">
        <ele>918</ele>
        <time>2011-10-01T16:29:16Z</time>
      </trkpt>
      <trkpt lat="44.10767" lon="5.3636">
        <ele>915.5</ele>
        <time>2011-10-01T16:29:21Z</time>
      </trkpt>
      <trkpt lat="44.10753" lon="5.36365">
        <ele>912.5</ele>
        <time>2011-10-01T16:29:26Z</time>
      </trkpt>
      <trkpt lat="44.10745" lon="5.3637">
        <ele>910</ele>
        <time>2011-10-01T16:29:31Z</time>
      </trkpt>
      <trkpt lat="44.10735" lon="5.36374">
        <ele>908</ele>
        <time>2011-10-01T16:29:36Z</time>
      </trkpt>
      <trkpt lat="44.10729" lon="5.36383">
        <ele>905</ele>
        <time>2011-10-01T16:29:41Z</time>
      </trkpt>
      <trkpt lat="44.10722" lon="5.36391">
        <ele>901</ele>
        <time>2011-10-01T16:29:46Z</time>
      </trkpt>
      <trkpt lat="44.10717" lon="5.36398">
        <ele>898.5</ele>
        <time>2011-10-01T16:29:51Z</time>
      </trkpt>
      <trkpt lat="44.10716" lon="5.36398">
        <ele>896</ele>
        <time>2011-10-01T16:29:56Z</time>
      </trkpt>
      <trkpt lat="44.10716" lon="5.36397">
        <ele>895.5</ele>
        <time>2011-10-01T16:30:01Z</time>
      </trkpt>
      <trkpt lat="44.10716" lon="5.36397">
        <ele>893.5</ele>
        <time>2011-10-01T16:30:06Z</time>
      </trkpt>
      <trkpt lat="44.10715" lon="5.36396">
        <ele>891.5</ele>
        <time>2011-10-01T16:30:11Z</time>
      </trkpt>
      <trkpt lat="44.10715" lon="5.36396">
        <ele>891</ele>
        <time>2011-10-01T16:30:16Z</time>
      </trkpt>
      <trkpt lat="44.10713" lon="5.36396">
        <ele>888</ele>
        <time>2011-10-01T16:30:21Z</time>
      </trkpt>
      <trkpt lat="44.10713" lon="5.36397">
        <ele>887.5</ele>
        <time>2011-10-01T16:30:26Z</time>
      </trkpt>
      <trkpt lat="44.10713" lon="5.36397">
        <ele>887.5</ele>
        <time>2011-10-01T16:30:31Z</time>
      </trkpt>
      <trkpt lat="44.10713" lon="5.36397">
        <ele>887.5</ele>
        <time>2011-10-01T16:30:36Z</time>
      </trkpt>
      <trkpt lat="44.10713" lon="5.36397">
        <ele>887.5</ele>
        <time>2011-10-01T16:30:41Z</time>
      </trkpt>
      <trkpt lat="44.10712" lon="5.36397">
        <ele>886.5</ele>
        <time>2011-10-01T16:30:46Z</time>
      </trkpt>
      <trkpt lat="44.10712" lon="5.36397">
        <ele>886.5</ele>
        <time>2011-10-01T16:30:51Z</time>
      </trkpt>
      <trkpt lat="44.10711" lon="5.36397">
        <ele>886</ele>
        <time>2011-10-01T16:30:56Z</time>
      </trkpt>
      <trkpt lat="44.10711" lon="5.36396">
        <ele>886</ele>
        <time>2011-10-01T16:31:01Z</time>
      </trkpt>
      <trkpt lat="44.10709" lon="5.36398">
        <ele>885</ele>
        <time>2011-10-01T16:31:06Z</time>
      </trkpt>
      <trkpt lat="44.10704" lon="5.36401">
        <ele>885</ele>
        <time>2011-10-01T16:31:11Z</time>
      </trkpt>
      <trkpt lat="44.10698" lon="5.364">
        <ele>883.5</ele>
        <time>2011-10-01T16:31:16Z</time>
      </trkpt>
      <trkpt lat="44.10688" lon="5.36397">
        <ele>883.5</ele>
        <time>2011-10-01T16:31:21Z</time>
      </trkpt>
      <trkpt lat="44.10671" lon="5.36398">
        <ele>880</ele>
        <time>2011-10-01T16:31:26Z</time>
      </trkpt>
      <trkpt lat="44.10661" lon="5.36399">
        <ele>876.5</ele>
        <time>2011-10-01T16:31:31Z</time>
      </trkpt>
      <trkpt lat="44.10657" lon="5.364">
        <ele>876</ele>
        <time>2011-10-01T16:31:36Z</time>
      </trkpt>
      <trkpt lat="44.1065" lon="5.36401">
        <ele>876</ele>
        <time>2011-10-01T16:31:41Z</time>
      </trkpt>
      <trkpt lat="44.10646" lon="5.36402">
        <ele>876</ele>
        <time>2011-10-01T16:31:46Z</time>
      </trkpt>
      <trkpt lat="44.10642" lon="5.36407">
        <ele>876</ele>
        <time>2011-10-01T16:31:51Z</time>
      </trkpt>
      <trkpt lat="44.10632" lon="5.36431">
        <ele>873</ele>
        <time>2011-10-01T16:31:56Z</time>
      </trkpt>
      <trkpt lat="44.10627" lon="5.36442">
        <ele>871.5</ele>
        <time>2011-10-01T16:32:01Z</time>
      </trkpt>
      <trkpt lat="44.10595" lon="5.36481">
        <ele>861.5</ele>
        <time>2011-10-01T16:32:06Z</time>
      </trkpt>
      <trkpt lat="44.10568" lon="5.36514">
        <ele>856.5</ele>
        <time>2011-10-01T16:32:11Z</time>
      </trkpt>
      <trkpt lat="44.10552" lon="5.36538">
        <ele>854</ele>
        <time>2011-10-01T16:32:16Z</time>
      </trkpt>
      <trkpt lat="44.10546" lon="5.36562">
        <ele>851.5</ele>
        <time>2011-10-01T16:32:21Z</time>
      </trkpt>
      <trkpt lat="44.10544" lon="5.36583">
        <ele>851</ele>
        <time>2011-10-01T16:32:26Z</time>
      </trkpt>
      <trkpt lat="44.10542" lon="5.36588">
        <ele>850</ele>
        <time>2011-10-01T16:32:31Z</time>
      </trkpt>
      <trkpt lat="44.10538" lon="5.36592">
        <ele>848.5</ele>
        <time>2011-10-01T16:32:36Z</time>
      </trkpt>
      <trkpt lat="44.10531" lon="5.36603">
        <ele>846.5</ele>
        <time>2011-10-01T16:32:41Z</time>
      </trkpt>
      <trkpt lat="44.1051" lon="5.36618">
        <ele>843.5</ele>
        <time>2011-10-01T16:32:46Z</time>
      </trkpt>
      <trkpt lat="44.10483" lon="5.36636">
        <ele>841</ele>
        <time>2011-10-01T16:32:51Z</time>
      </trkpt>
      <trkpt lat="44.10467" lon="5.3667">
        <ele>839</ele>
        <time>2011-10-01T16:32:56Z</time>
      </trkpt>
      <trkpt lat="44.10463" lon="5.36687">
        <ele>839</ele>
        <time>2011-10-01T16:33:01Z</time>
      </trkpt>
      <trkpt lat="44.10463" lon="5.36688">
        <ele>839</ele>
        <time>2011-10-01T16:33:06Z</time>
      </trkpt>
      <trkpt lat="44.10462" lon="5.36688">
        <ele>839</ele>
        <time>2011-10-01T16:33:11Z</time>
      </trkpt>
      <trkpt lat="44.10463" lon="5.36688">
        <ele>839</ele>
        <time>2011-10-01T16:33:16Z</time>
      </trkpt>
      <trkpt lat="44.10461" lon="5.36687">
        <ele>838.5</ele>
        <time>2011-10-01T16:33:21Z</time>
      </trkpt>
      <trkpt lat="44.10459" lon="5.36687">
        <ele>839</ele>
        <time>2011-10-01T16:33:26Z</time>
      </trkpt>
      <trkpt lat="44.10459" lon="5.36687">
        <ele>839.5</ele>
        <time>2011-10-01T16:33:31Z</time>
      </trkpt>
      <trkpt lat="44.10459" lon="5.36688">
        <ele>839.5</ele>
        <time>2011-10-01T16:33:36Z</time>
      </trkpt>
      <trkpt lat="44.10447" lon="5.36681">
        <ele>839.5</ele>
        <time>2011-10-01T16:33:41Z</time>
      </trkpt>
      <trkpt lat="44.10432" lon="5.3668">
        <ele>839</ele>
        <time>2011-10-01T16:33:46Z</time>
      </trkpt>
      <trkpt lat="44.10406" lon="5.36684">
        <ele>838.5</ele>
        <time>2011-10-01T16:33:51Z</time>
      </trkpt>
      <trkpt lat="44.10378" lon="5.36688">
        <ele>837.5</ele>
        <time>2011-10-01T16:33:56Z</time>
      </trkpt>
      <trkpt lat="44.10356" lon="5.36686">
        <ele>837</ele>
        <time>2011-10-01T16:34:01Z</time>
      </trkpt>
      <trkpt lat="44.1034" lon="5.36689">
        <ele>837</ele>
        <time>2011-10-01T16:34:06Z</time>
      </trkpt>
      <trkpt lat="44.10326" lon="5.36675">
        <ele>837</ele>
        <time>2011-10-01T16:34:11Z</time>
      </trkpt>
      <trkpt lat="44.10327" lon="5.36654">
        <ele>838</ele>
        <time>2011-10-01T16:34:16Z</time>
      </trkpt>
      <trkpt lat="44.10331" lon="5.36647">
        <ele>838</ele>
        <time>2011-10-01T16:34:21Z</time>
      </trkpt>
      <trkpt lat="44.1033" lon="5.36645">
        <ele>838.5</ele>
        <time>2011-10-01T16:34:26Z</time>
      </trkpt>
      <trkpt lat="44.1033" lon="5.36645">
        <ele>838</ele>
        <time>2011-10-01T16:34:31Z</time>
      </trkpt>
      <trkpt lat="44.1033" lon="5.36645">
        <ele>838</ele>
        <time>2011-10-01T16:34:36Z</time>
      </trkpt>
      <trkpt lat="44.1033" lon="5.36645">
        <ele>838</ele>
        <time>2011-10-01T16:34:41Z</time>
      </trkpt>
      <trkpt lat="44.1033" lon="5.36647">
        <ele>838.5</ele>
        <time>2011-10-01T16:34:46Z</time>
      </trkpt>
      <trkpt lat="44.1033" lon="5.36645">
        <ele>836.5</ele>
        <time>2011-10-01T16:34:51Z</time>
      </trkpt>
      <trkpt lat="44.10329" lon="5.36643">
        <ele>835.5</ele>
        <time>2011-10-01T16:34:56Z</time>
      </trkpt>
      <trkpt lat="44.10329" lon="5.36643">
        <ele>833.5</ele>
        <time>2011-10-01T16:35:01Z</time>
      </trkpt>
      <trkpt lat="44.10329" lon="5.36644">
        <ele>832.5</ele>
        <time>2011-10-01T16:35:06Z</time>
      </trkpt>
      <trkpt lat="44.10329" lon="5.36645">
        <ele>830</ele>
        <time>2011-10-01T16:35:11Z</time>
      </trkpt>
      <trkpt lat="44.10326" lon="5.3665">
        <ele>828.5</ele>
        <time>2011-10-01T16:35:16Z</time>
      </trkpt>
      <trkpt lat="44.10324" lon="5.36661">
        <ele>825.5</ele>
        <time>2011-10-01T16:35:21Z</time>
      </trkpt>
      <trkpt lat="44.10325" lon="5.3668">
        <ele>823</ele>
        <time>2011-10-01T16:35:26Z</time>
      </trkpt>
      <trkpt lat="44.10329" lon="5.36686">
        <ele>822.5</ele>
        <time>2011-10-01T16:35:31Z</time>
      </trkpt>
      <trkpt lat="44.1033" lon="5.36685">
        <ele>823.5</ele>
        <time>2011-10-01T16:35:36Z</time>
      </trkpt>
      <trkpt lat="44.10328" lon="5.36684">
        <ele>822.5</ele>
        <time>2011-10-01T16:35:41Z</time>
      </trkpt>
      <trkpt lat="44.10327" lon="5.36681">
        <ele>822</ele>
        <time>2011-10-01T16:35:46Z</time>
      </trkpt>
      <trkpt lat="44.10322" lon="5.36672">
        <ele>823</ele>
        <time>2011-10-01T16:35:51Z</time>
      </trkpt>
      <trkpt lat="44.10321" lon="5.3667">
        <ele>822.5</ele>
        <time>2011-10-01T16:35:56Z</time>
      </trkpt>
      <trkpt lat="44.10321" lon="5.3667">
        <ele>822.5</ele>
        <time>2011-10-01T16:36:01Z</time>
      </trkpt>
      <trkpt lat="44.10321" lon="5.36671">
        <ele>821.5</ele>
        <time>2011-10-01T16:36:06Z</time>
      </trkpt>
      <trkpt lat="44.1032" lon="5.3667">
        <ele>821</ele>
        <time>2011-10-01T16:36:11Z</time>
      </trkpt>
      <trkpt lat="44.10316" lon="5.36662">
        <ele>820</ele>
        <time>2011-10-01T16:36:16Z</time>
      </trkpt>
      <trkpt lat="44.10306" lon="5.36658">
        <ele>818</ele>
        <time>2011-10-01T16:36:21Z</time>
      </trkpt>
      <trkpt lat="44.10294" lon="5.36648">
        <ele>816.5</ele>
        <time>2011-10-01T16:36:26Z</time>
      </trkpt>
      <trkpt lat="44.10284" lon="5.36642">
        <ele>816</ele>
        <time>2011-10-01T16:36:31Z</time>
      </trkpt>
      <trkpt lat="44.10274" lon="5.36632">
        <ele>814.5</ele>
        <time>2011-10-01T16:36:36Z</time>
      </trkpt>
      <trkpt lat="44.10269" lon="5.36608">
        <ele>811.5</ele>
        <time>2011-10-01T16:36:41Z</time>
      </trkpt>
      <trkpt lat="44.10266" lon="5.36599">
        <ele>810.5</ele>
        <time>2011-10-01T16:36:46Z</time>
      </trkpt>
      <trkpt lat="44.10262" lon="5.36598">
        <ele>808.5</ele>
        <time>2011-10-01T16:36:51Z</time>
      </trkpt>
      <trkpt lat="44.10248" lon="5.36606">
        <ele>804.5</ele>
        <time>2011-10-01T16:36:56Z</time>
      </trkpt>
      <trkpt lat="44.10218" lon="5.36627">
        <ele>803</ele>
        <time>2011-10-01T16:37:01Z</time>
      </trkpt>
      <trkpt lat="44.10185" lon="5.36652">
        <ele>802</ele>
        <time>2011-10-01T16:37:06Z</time>
      </trkpt>
      <trkpt lat="44.10145" lon="5.36683">
        <ele>801</ele>
        <time>2011-10-01T16:37:11Z</time>
      </trkpt>
      <trkpt lat="44.10103" lon="5.36717">
        <ele>799</ele>
        <time>2011-10-01T16:37:16Z</time>
      </trkpt>
      <trkpt lat="44.10057" lon="5.36752">
        <ele>796.5</ele>
        <time>2011-10-01T16:37:21Z</time>
      </trkpt>
      <trkpt lat="44.10009" lon="5.36791">
        <ele>794</ele>
        <time>2011-10-01T16:37:26Z</time>
      </trkpt>
      <trkpt lat="44.09967" lon="5.36836">
        <ele>791.5</ele>
        <time>2011-10-01T16:37:31Z</time>
      </trkpt>
      <trkpt lat="44.09928" lon="5.36883">
        <ele>789</ele>
        <time>2011-10-01T16:37:36Z</time>
      </trkpt>
      <trkpt lat="44.09894" lon="5.36918">
        <ele>787.5</ele>
        <time>2011-10-01T16:37:41Z</time>
      </trkpt>
      <trkpt lat="44.09838" lon="5.36963">
        <ele>786</ele>
        <time>2011-10-01T16:37:46Z</time>
      </trkpt>
      <trkpt lat="44.09794" lon="5.37">
        <ele>784</ele>
        <time>2011-10-01T16:37:51Z</time>
      </trkpt>
      <trkpt lat="44.0975" lon="5.37026">
        <ele>781.5</ele>
        <time>2011-10-01T16:37:56Z</time>
      </trkpt>
      <trkpt lat="44.09701" lon="5.37008">
        <ele>781.5</ele>
        <time>2011-10-01T16:38:01Z</time>
      </trkpt>
      <trkpt lat="44.0965" lon="5.37008">
        <ele>782</ele>
        <time>2011-10-01T16:38:06Z</time>
      </trkpt>
      <trkpt lat="44.09602" lon="5.37034">
        <ele>781</ele>
        <time>2011-10-01T16:38:11Z</time>
      </trkpt>
      <trkpt lat="44.09554" lon="5.37059">
        <ele>781.5</ele>
        <time>2011-10-01T16:38:16Z</time>
      </trkpt>
      <trkpt lat="44.09505" lon="5.37085">
        <ele>779.5</ele>
        <time>2011-10-01T16:38:21Z</time>
      </trkpt>
      <trkpt lat="44.09453" lon="5.37113">
        <ele>778</ele>
        <time>2011-10-01T16:38:26Z</time>
      </trkpt>
      <trkpt lat="44.09401" lon="5.37145">
        <ele>774</ele>
        <time>2011-10-01T16:38:31Z</time>
      </trkpt>
      <trkpt lat="44.09351" lon="5.37184">
        <ele>771</ele>
        <time>2011-10-01T16:38:36Z</time>
      </trkpt>
      <trkpt lat="44.09303" lon="5.37222">
        <ele>769</ele>
        <time>2011-10-01T16:38:41Z</time>
      </trkpt>
      <trkpt lat="44.09256" lon="5.37258">
        <ele>768</ele>
        <time>2011-10-01T16:38:46Z</time>
      </trkpt>
      <trkpt lat="44.09216" lon="5.37291">
        <ele>766.5</ele>
        <time>2011-10-01T16:38:51Z</time>
      </trkpt>
      <trkpt lat="44.09197" lon="5.37302">
        <ele>762</ele>
        <time>2011-10-01T16:38:56Z</time>
      </trkpt>
      <trkpt lat="44.09191" lon="5.37304">
        <ele>761</ele>
        <time>2011-10-01T16:39:01Z</time>
      </trkpt>
      <trkpt lat="44.09192" lon="5.37304">
        <ele>759</ele>
        <time>2011-10-01T16:39:06Z</time>
      </trkpt>
      <trkpt lat="44.09194" lon="5.37304">
        <ele>758</ele>
        <time>2011-10-01T16:39:11Z</time>
      </trkpt>
      <trkpt lat="44.0919" lon="5.37315">
        <ele>757</ele>
        <time>2011-10-01T16:39:16Z</time>
      </trkpt>
      <trkpt lat="44.09186" lon="5.37321">
        <ele>756.5</ele>
        <time>2011-10-01T16:39:21Z</time>
      </trkpt>
      <trkpt lat="44.09186" lon="5.37323">
        <ele>755</ele>
        <time>2011-10-01T16:39:26Z</time>
      </trkpt>
      <trkpt lat="44.09187" lon="5.37342">
        <ele>756.5</ele>
        <time>2011-10-01T16:39:31Z</time>
      </trkpt>
      <trkpt lat="44.09192" lon="5.3738">
        <ele>756</ele>
        <time>2011-10-01T16:39:36Z</time>
      </trkpt>
      <trkpt lat="44.09201" lon="5.37424">
        <ele>755</ele>
        <time>2011-10-01T16:39:41Z</time>
      </trkpt>
      <trkpt lat="44.09209" lon="5.37466">
        <ele>753.5</ele>
        <time>2011-10-01T16:39:46Z</time>
      </trkpt>
      <trkpt lat="44.09221" lon="5.37522">
        <ele>752.5</ele>
        <time>2011-10-01T16:39:51Z</time>
      </trkpt>
      <trkpt lat="44.09233" lon="5.37577">
        <ele>751</ele>
        <time>2011-10-01T16:39:56Z</time>
      </trkpt>
      <trkpt lat="44.09243" lon="5.37632">
        <ele>751</ele>
        <time>2011-10-01T16:40:01Z</time>
      </trkpt>
      <trkpt lat="44.09248" lon="5.37699">
        <ele>750</ele>
        <time>2011-10-01T16:40:06Z</time>
      </trkpt>
      <trkpt lat="44.09248" lon="5.37757">
        <ele>749</ele>
        <time>2011-10-01T16:40:11Z</time>
      </trkpt>
      <trkpt lat="44.09256" lon="5.37817">
        <ele>748</ele>
        <time>2011-10-01T16:40:16Z</time>
      </trkpt>
      <trkpt lat="44.09269" lon="5.37876">
        <ele>748</ele>
        <time>2011-10-01T16:40:21Z</time>
      </trkpt>
      <trkpt lat="44.09283" lon="5.37932">
        <ele>748</ele>
        <time>2011-10-01T16:40:26Z</time>
      </trkpt>
      <trkpt lat="44.09297" lon="5.37989">
        <ele>746.5</ele>
        <time>2011-10-01T16:40:31Z</time>
      </trkpt>
      <trkpt lat="44.09311" lon="5.38047">
        <ele>746</ele>
        <time>2011-10-01T16:40:36Z</time>
      </trkpt>
      <trkpt lat="44.09327" lon="5.38104">
        <ele>745.5</ele>
        <time>2011-10-01T16:40:41Z</time>
      </trkpt>
      <trkpt lat="44.09335" lon="5.38162">
        <ele>744</ele>
        <time>2011-10-01T16:40:46Z</time>
      </trkpt>
      <trkpt lat="44.09329" lon="5.3822">
        <ele>743.5</ele>
        <time>2011-10-01T16:40:51Z</time>
      </trkpt>
      <trkpt lat="44.0932" lon="5.38277">
        <ele>742.5</ele>
        <time>2011-10-01T16:40:56Z</time>
      </trkpt>
      <trkpt lat="44.09311" lon="5.38332">
        <ele>741.5</ele>
        <time>2011-10-01T16:41:01Z</time>
      </trkpt>
      <trkpt lat="44.09305" lon="5.38388">
        <ele>741</ele>
        <time>2011-10-01T16:41:06Z</time>
      </trkpt>
      <trkpt lat="44.09306" lon="5.38444">
        <ele>740.5</ele>
        <time>2011-10-01T16:41:11Z</time>
      </trkpt>
      <trkpt lat="44.09312" lon="5.38498">
        <ele>740.5</ele>
        <time>2011-10-01T16:41:16Z</time>
      </trkpt>
      <trkpt lat="44.09315" lon="5.38555">
        <ele>741</ele>
        <time>2011-10-01T16:41:21Z</time>
      </trkpt>
      <trkpt lat="44.09319" lon="5.38612">
        <ele>740.5</ele>
        <time>2011-10-01T16:41:26Z</time>
      </trkpt>
      <trkpt lat="44.09325" lon="5.38668">
        <ele>740.5</ele>
        <time>2011-10-01T16:41:31Z</time>
      </trkpt>
      <trkpt lat="44.09331" lon="5.38723">
        <ele>741</ele>
        <time>2011-10-01T16:41:36Z</time>
      </trkpt>
      <trkpt lat="44.09335" lon="5.38778">
        <ele>741</ele>
        <time>2011-10-01T16:41:41Z</time>
      </trkpt>
      <trkpt lat="44.0934" lon="5.38836">
        <ele>741.5</ele>
        <time>2011-10-01T16:41:46Z</time>
      </trkpt>
      <trkpt lat="44.09344" lon="5.38894">
        <ele>740.5</ele>
        <time>2011-10-01T16:41:51Z</time>
      </trkpt>
      <trkpt lat="44.09348" lon="5.38952">
        <ele>740.5</ele>
        <time>2011-10-01T16:41:56Z</time>
      </trkpt>
      <trkpt lat="44.09354" lon="5.39007">
        <ele>740</ele>
        <time>2011-10-01T16:42:01Z</time>
      </trkpt>
      <trkpt lat="44.09361" lon="5.39062">
        <ele>741</ele>
        <time>2011-10-01T16:42:06Z</time>
      </trkpt>
      <trkpt lat="44.09365" lon="5.39105">
        <ele>740.5</ele>
        <time>2011-10-01T16:42:11Z</time>
      </trkpt>
      <trkpt lat="44.09371" lon="5.39169">
        <ele>741.5</ele>
        <time>2011-10-01T16:42:16Z</time>
      </trkpt>
      <trkpt lat="44.09373" lon="5.39212">
        <ele>742</ele>
        <time>2011-10-01T16:42:21Z</time>
      </trkpt>
      <trkpt lat="44.09376" lon="5.39265">
        <ele>742</ele>
        <time>2011-10-01T16:42:26Z</time>
      </trkpt>
      <trkpt lat="44.0938" lon="5.39317">
        <ele>742.5</ele>
        <time>2011-10-01T16:42:31Z</time>
      </trkpt>
      <trkpt lat="44.09381" lon="5.39354">
        <ele>743</ele>
        <time>2011-10-01T16:42:36Z</time>
      </trkpt>
      <trkpt lat="44.09383" lon="5.39415">
        <ele>744</ele>
        <time>2011-10-01T16:42:41Z</time>
      </trkpt>
      <trkpt lat="44.09382" lon="5.39458">
        <ele>743.5</ele>
        <time>2011-10-01T16:42:46Z</time>
      </trkpt>
      <trkpt lat="44.09382" lon="5.39499">
        <ele>744</ele>
        <time>2011-10-01T16:42:51Z</time>
      </trkpt>
      <trkpt lat="44.09383" lon="5.39541">
        <ele>744.5</ele>
        <time>2011-10-01T16:42:56Z</time>
      </trkpt>
      <trkpt lat="44.09384" lon="5.39582">
        <ele>745.5</ele>
        <time>2011-10-01T16:43:01Z</time>
      </trkpt>
      <trkpt lat="44.09385" lon="5.39622">
        <ele>746</ele>
        <time>2011-10-01T16:43:06Z</time>
      </trkpt>
      <trkpt lat="44.09386" lon="5.39661">
        <ele>746.5</ele>
        <time>2011-10-01T16:43:11Z</time>
      </trkpt>
      <trkpt lat="44.09384" lon="5.39701">
        <ele>748</ele>
        <time>2011-10-01T16:43:16Z</time>
      </trkpt>
      <trkpt lat="44.09381" lon="5.39742">
        <ele>748.5</ele>
        <time>2011-10-01T16:43:21Z</time>
      </trkpt>
      <trkpt lat="44.09378" lon="5.39789">
        <ele>748</ele>
        <time>2011-10-01T16:43:26Z</time>
      </trkpt>
      <trkpt lat="44.09373" lon="5.39845">
        <ele>749</ele>
        <time>2011-10-01T16:43:31Z</time>
      </trkpt>
      <trkpt lat="44.09367" lon="5.39898">
        <ele>749</ele>
        <time>2011-10-01T16:43:36Z</time>
      </trkpt>
      <trkpt lat="44.09345" lon="5.39939">
        <ele>747</ele>
        <time>2011-10-01T16:43:41Z</time>
      </trkpt>
      <trkpt lat="44.09312" lon="5.39967">
        <ele>745.5</ele>
        <time>2011-10-01T16:43:46Z</time>
      </trkpt>
      <trkpt lat="44.09291" lon="5.40005">
        <ele>746.5</ele>
        <time>2011-10-01T16:43:51Z</time>
      </trkpt>
      <trkpt lat="44.09275" lon="5.40043">
        <ele>747.5</ele>
        <time>2011-10-01T16:43:56Z</time>
      </trkpt>
      <trkpt lat="44.0926" lon="5.40075">
        <ele>748.5</ele>
        <time>2011-10-01T16:44:01Z</time>
      </trkpt>
      <trkpt lat="44.09247" lon="5.40105">
        <ele>748.5</ele>
        <time>2011-10-01T16:44:06Z</time>
      </trkpt>
      <trkpt lat="44.09233" lon="5.40135">
        <ele>749</ele>
        <time>2011-10-01T16:44:11Z</time>
      </trkpt>
      <trkpt lat="44.0922" lon="5.40165">
        <ele>749</ele>
        <time>2011-10-01T16:44:16Z</time>
      </trkpt>
      <trkpt lat="44.09206" lon="5.40198">
        <ele>749</ele>
        <time>2011-10-01T16:44:21Z</time>
      </trkpt>
      <trkpt lat="44.09192" lon="5.40229">
        <ele>750</ele>
        <time>2011-10-01T16:44:26Z</time>
      </trkpt>
      <trkpt lat="44.09179" lon="5.40262">
        <ele>750</ele>
        <time>2011-10-01T16:44:31Z</time>
      </trkpt>
      <trkpt lat="44.09166" lon="5.40294">
        <ele>749.5</ele>
        <time>2011-10-01T16:44:36Z</time>
      </trkpt>
      <trkpt lat="44.09157" lon="5.40318">
        <ele>750</ele>
        <time>2011-10-01T16:44:41Z</time>
      </trkpt>
      <trkpt lat="44.09145" lon="5.40345">
        <ele>750</ele>
        <time>2011-10-01T16:44:46Z</time>
      </trkpt>
      <trkpt lat="44.09134" lon="5.40371">
        <ele>750</ele>
        <time>2011-10-01T16:44:51Z</time>
      </trkpt>
      <trkpt lat="44.09122" lon="5.40398">
        <ele>751.5</ele>
        <time>2011-10-01T16:44:56Z</time>
      </trkpt>
      <trkpt lat="44.09107" lon="5.40431">
        <ele>751.5</ele>
        <time>2011-10-01T16:45:01Z</time>
      </trkpt>
      <trkpt lat="44.09096" lon="5.40459">
        <ele>752</ele>
        <time>2011-10-01T16:45:06Z</time>
      </trkpt>
      <trkpt lat="44.09086" lon="5.40487">
        <ele>752.5</ele>
        <time>2011-10-01T16:45:11Z</time>
      </trkpt>
      <trkpt lat="44.09078" lon="5.40515">
        <ele>753.5</ele>
        <time>2011-10-01T16:45:16Z</time>
      </trkpt>
      <trkpt lat="44.09072" lon="5.40544">
        <ele>754.5</ele>
        <time>2011-10-01T16:45:21Z</time>
      </trkpt>
      <trkpt lat="44.09066" lon="5.40567">
        <ele>755</ele>
        <time>2011-10-01T16:45:26Z</time>
      </trkpt>
      <trkpt lat="44.09055" lon="5.40599">
        <ele>756.5</ele>
        <time>2011-10-01T16:45:31Z</time>
      </trkpt>
      <trkpt lat="44.0904" lon="5.40619">
        <ele>757</ele>
        <time>2011-10-01T16:45:36Z</time>
      </trkpt>
      <trkpt lat="44.09023" lon="5.40633">
        <ele>757</ele>
        <time>2011-10-01T16:45:41Z</time>
      </trkpt>
      <trkpt lat="44.09009" lon="5.40646">
        <ele>755.5</ele>
        <time>2011-10-01T16:45:46Z</time>
      </trkpt>
      <trkpt lat="44.08995" lon="5.40657">
        <ele>752.5</ele>
        <time>2011-10-01T16:45:51Z</time>
      </trkpt>
      <trkpt lat="44.08987" lon="5.40673">
        <ele>753</ele>
        <time>2011-10-01T16:45:56Z</time>
      </trkpt>
      <trkpt lat="44.08985" lon="5.40687">
        <ele>755.5</ele>
        <time>2011-10-01T16:46:01Z</time>
      </trkpt>
      <trkpt lat="44.08986" lon="5.40696">
        <ele>757.5</ele>
        <time>2011-10-01T16:46:06Z</time>
      </trkpt>
      <trkpt lat="44.08991" lon="5.407">
        <ele>757.5</ele>
        <time>2011-10-01T16:46:11Z</time>
      </trkpt>
      <trkpt lat="44.08986" lon="5.40707">
        <ele>758</ele>
        <time>2011-10-01T16:46:16Z</time>
      </trkpt>
      <trkpt lat="44.08985" lon="5.40713">
        <ele>760.5</ele>
        <time>2011-10-01T16:46:21Z</time>
      </trkpt>
      <trkpt lat="44.08979" lon="5.40736">
        <ele>763</ele>
        <time>2011-10-01T16:46:26Z</time>
      </trkpt>
      <trkpt lat="44.08981" lon="5.40764">
        <ele>764</ele>
        <time>2011-10-01T16:46:31Z</time>
      </trkpt>
      <trkpt lat="44.08983" lon="5.40792">
        <ele>766</ele>
        <time>2011-10-01T16:46:36Z</time>
      </trkpt>
      <trkpt lat="44.08985" lon="5.40818">
        <ele>768.5</ele>
        <time>2011-10-01T16:46:41Z</time>
      </trkpt>
      <trkpt lat="44.08988" lon="5.40842">
        <ele>771.5</ele>
        <time>2011-10-01T16:46:46Z</time>
      </trkpt>
      <trkpt lat="44.0899" lon="5.40866">
        <ele>773.5</ele>
        <time>2011-10-01T16:46:51Z</time>
      </trkpt>
      <trkpt lat="44.08987" lon="5.4089">
        <ele>775.5</ele>
        <time>2011-10-01T16:46:56Z</time>
      </trkpt>
      <trkpt lat="44.08981" lon="5.40912">
        <ele>777</ele>
        <time>2011-10-01T16:47:01Z</time>
      </trkpt>
      <trkpt lat="44.08976" lon="5.40932">
        <ele>777</ele>
        <time>2011-10-01T16:47:06Z</time>
      </trkpt>
      <trkpt lat="44.08971" lon="5.40951">
        <ele>778.5</ele>
        <time>2011-10-01T16:47:11Z</time>
      </trkpt>
      <trkpt lat="44.08966" lon="5.40971">
        <ele>780</ele>
        <time>2011-10-01T16:47:16Z</time>
      </trkpt>
      <trkpt lat="44.0896" lon="5.4099">
        <ele>781</ele>
        <time>2011-10-01T16:47:21Z</time>
      </trkpt>
      <trkpt lat="44.08955" lon="5.4101">
        <ele>782.5</ele>
        <time>2011-10-01T16:47:26Z</time>
      </trkpt>
      <trkpt lat="44.0895" lon="5.41026">
        <ele>783.5</ele>
        <time>2011-10-01T16:47:31Z</time>
      </trkpt>
      <trkpt lat="44.08945" lon="5.41048">
        <ele>784.5</ele>
        <time>2011-10-01T16:47:36Z</time>
      </trkpt>
      <trkpt lat="44.08933" lon="5.41065">
        <ele>784.5</ele>
        <time>2011-10-01T16:47:41Z</time>
      </trkpt>
      <trkpt lat="44.08919" lon="5.41076">
        <ele>786</ele>
        <time>2011-10-01T16:47:46Z</time>
      </trkpt>
      <trkpt lat="44.08902" lon="5.41082">
        <ele>785</ele>
        <time>2011-10-01T16:47:51Z</time>
      </trkpt>
      <trkpt lat="44.08888" lon="5.41091">
        <ele>784.5</ele>
        <time>2011-10-01T16:47:56Z</time>
      </trkpt>
      <trkpt lat="44.08877" lon="5.41104">
        <ele>785</ele>
        <time>2011-10-01T16:48:01Z</time>
      </trkpt>
      <trkpt lat="44.08869" lon="5.41121">
        <ele>785.5</ele>
        <time>2011-10-01T16:48:06Z</time>
      </trkpt>
      <trkpt lat="44.08864" lon="5.41141">
        <ele>787.5</ele>
        <time>2011-10-01T16:48:11Z</time>
      </trkpt>
      <trkpt lat="44.08863" lon="5.41162">
        <ele>788.5</ele>
        <time>2011-10-01T16:48:16Z</time>
      </trkpt>
      <trkpt lat="44.08862" lon="5.41183">
        <ele>790</ele>
        <time>2011-10-01T16:48:21Z</time>
      </trkpt>
      <trkpt lat="44.08861" lon="5.41204">
        <ele>791.5</ele>
        <time>2011-10-01T16:48:26Z</time>
      </trkpt>
      <trkpt lat="44.08859" lon="5.41226">
        <ele>793.5</ele>
        <time>2011-10-01T16:48:31Z</time>
      </trkpt>
      <trkpt lat="44.08858" lon="5.41239">
        <ele>794.5</ele>
        <time>2011-10-01T16:48:36Z</time>
      </trkpt>
      <trkpt lat="44.08859" lon="5.41269">
        <ele>797.5</ele>
        <time>2011-10-01T16:48:41Z</time>
      </trkpt>
      <trkpt lat="44.08861" lon="5.41291">
        <ele>799</ele>
        <time>2011-10-01T16:48:46Z</time>
      </trkpt>
      <trkpt lat="44.08866" lon="5.41308">
        <ele>800.5</ele>
        <time>2011-10-01T16:48:51Z</time>
      </trkpt>
      <trkpt lat="44.08873" lon="5.41307">
        <ele>800</ele>
        <time>2011-10-01T16:48:56Z</time>
      </trkpt>
      <trkpt lat="44.08874" lon="5.41288">
        <ele>798.5</ele>
        <time>2011-10-01T16:49:01Z</time>
      </trkpt>
      <trkpt lat="44.08873" lon="5.41268">
        <ele>797.5</ele>
        <time>2011-10-01T16:49:06Z</time>
      </trkpt>
      <trkpt lat="44.08872" lon="5.41248">
        <ele>797</ele>
        <time>2011-10-01T16:49:11Z</time>
      </trkpt>
      <trkpt lat="44.08872" lon="5.41231">
        <ele>796.5</ele>
        <time>2011-10-01T16:49:16Z</time>
      </trkpt>
      <trkpt lat="44.08871" lon="5.41214">
        <ele>798</ele>
        <time>2011-10-01T16:49:21Z</time>
      </trkpt>
      <trkpt lat="44.0887" lon="5.41197">
        <ele>801.5</ele>
        <time>2011-10-01T16:49:26Z</time>
      </trkpt>
      <trkpt lat="44.08875" lon="5.41179">
        <ele>801.5</ele>
        <time>2011-10-01T16:49:31Z</time>
      </trkpt>
      <trkpt lat="44.08882" lon="5.41164">
        <ele>803.5</ele>
        <time>2011-10-01T16:49:36Z</time>
      </trkpt>
      <trkpt lat="44.08891" lon="5.41153">
        <ele>803</ele>
        <time>2011-10-01T16:49:41Z</time>
      </trkpt>
      <trkpt lat="44.08903" lon="5.41149">
        <ele>804</ele>
        <time>2011-10-01T16:49:46Z</time>
      </trkpt>
      <trkpt lat="44.08915" lon="5.4115">
        <ele>805</ele>
        <time>2011-10-01T16:49:51Z</time>
      </trkpt>
      <trkpt lat="44.08927" lon="5.41152">
        <ele>807</ele>
        <time>2011-10-01T16:49:56Z</time>
      </trkpt>
      <trkpt lat="44.08937" lon="5.41152">
        <ele>812</ele>
        <time>2011-10-01T16:50:01Z</time>
      </trkpt>
      <trkpt lat="44.08948" lon="5.41149">
        <ele>814.5</ele>
        <time>2011-10-01T16:50:06Z</time>
      </trkpt>
      <trkpt lat="44.0896" lon="5.41146">
        <ele>816.5</ele>
        <time>2011-10-01T16:50:11Z</time>
      </trkpt>
      <trkpt lat="44.08971" lon="5.41136">
        <ele>814.5</ele>
        <time>2011-10-01T16:50:16Z</time>
      </trkpt>
      <trkpt lat="44.08981" lon="5.41126">
        <ele>814.5</ele>
        <time>2011-10-01T16:50:21Z</time>
      </trkpt>
      <trkpt lat="44.08989" lon="5.41114">
        <ele>814.5</ele>
        <time>2011-10-01T16:50:26Z</time>
      </trkpt>
      <trkpt lat="44.08991" lon="5.41102">
        <ele>818.5</ele>
        <time>2011-10-01T16:50:31Z</time>
      </trkpt>
      <trkpt lat="44.08995" lon="5.41088">
        <ele>821.5</ele>
        <time>2011-10-01T16:50:36Z</time>
      </trkpt>
      <trkpt lat="44.09003" lon="5.41072">
        <ele>824</ele>
        <time>2011-10-01T16:50:41Z</time>
      </trkpt>
      <trkpt lat="44.09014" lon="5.41056">
        <ele>824</ele>
        <time>2011-10-01T16:50:46Z</time>
      </trkpt>
      <trkpt lat="44.09031" lon="5.41038">
        <ele>826</ele>
        <time>2011-10-01T16:50:51Z</time>
      </trkpt>
      <trkpt lat="44.09051" lon="5.41021">
        <ele>828</ele>
        <time>2011-10-01T16:50:56Z</time>
      </trkpt>
      <trkpt lat="44.09067" lon="5.41006">
        <ele>829.5</ele>
        <time>2011-10-01T16:51:01Z</time>
      </trkpt>
      <trkpt lat="44.09094" lon="5.40983">
        <ele>829</ele>
        <time>2011-10-01T16:51:06Z</time>
      </trkpt>
      <trkpt lat="44.09109" lon="5.40962">
        <ele>828.5</ele>
        <time>2011-10-01T16:51:11Z</time>
      </trkpt>
      <trkpt lat="44.09126" lon="5.40948">
        <ele>827.5</ele>
        <time>2011-10-01T16:51:16Z</time>
      </trkpt>
      <trkpt lat="44.09143" lon="5.40943">
        <ele>826</ele>
        <time>2011-10-01T16:51:21Z</time>
      </trkpt>
      <trkpt lat="44.09163" lon="5.40937">
        <ele>826</ele>
        <time>2011-10-01T16:51:26Z</time>
      </trkpt>
      <trkpt lat="44.09181" lon="5.40924">
        <ele>828</ele>
        <time>2011-10-01T16:51:31Z</time>
      </trkpt>
      <trkpt lat="44.09193" lon="5.40922">
        <ele>830</ele>
        <time>2011-10-01T16:51:36Z</time>
      </trkpt>
      <trkpt lat="44.09204" lon="5.40911">
        <ele>829.5</ele>
        <time>2011-10-01T16:51:41Z</time>
      </trkpt>
      <trkpt lat="44.09215" lon="5.40905">
        <ele>829.5</ele>
        <time>2011-10-01T16:51:46Z</time>
      </trkpt>
      <trkpt lat="44.09227" lon="5.4091">
        <ele>828</ele>
        <time>2011-10-01T16:51:51Z</time>
      </trkpt>
      <trkpt lat="44.09237" lon="5.40904">
        <ele>830</ele>
        <time>2011-10-01T16:51:56Z</time>
      </trkpt>
      <trkpt lat="44.09238" lon="5.40897">
        <ele>835.5</ele>
        <time>2011-10-01T16:52:01Z</time>
      </trkpt>
      <trkpt lat="44.09242" lon="5.40899">
        <ele>838.5</ele>
        <time>2011-10-01T16:52:06Z</time>
      </trkpt>
      <trkpt lat="44.09246" lon="5.40901">
        <ele>838</ele>
        <time>2011-10-01T16:52:11Z</time>
      </trkpt>
      <trkpt lat="44.09249" lon="5.40904">
        <ele>839</ele>
        <time>2011-10-01T16:52:16Z</time>
      </trkpt>
      <trkpt lat="44.09249" lon="5.40907">
        <ele>840</ele>
        <time>2011-10-01T16:52:21Z</time>
      </trkpt>
      <trkpt lat="44.09248" lon="5.40907">
        <ele>839.5</ele>
        <time>2011-10-01T16:52:26Z</time>
      </trkpt>
      <trkpt lat="44.09248" lon="5.40907">
        <ele>839</ele>
        <time>2011-10-01T16:52:31Z</time>
      </trkpt>
      <trkpt lat="44.09248" lon="5.40906">
        <ele>839</ele>
        <time>2011-10-01T16:52:36Z</time>
      </trkpt>
      <trkpt lat="44.09248" lon="5.40906">
        <ele>839.5</ele>
        <time>2011-10-01T16:52:41Z</time>
      </trkpt>
      <trkpt lat="44.09248" lon="5.40905">
        <ele>839</ele>
        <time>2011-10-01T16:52:46Z</time>
      </trkpt>
      <trkpt lat="44.09249" lon="5.40905">
        <ele>839</ele>
        <time>2011-10-01T16:52:51Z</time>
      </trkpt>
      <trkpt lat="44.09249" lon="5.40905">
        <ele>838.5</ele>
        <time>2011-10-01T16:52:56Z</time>
      </trkpt>
      <trkpt lat="44.09249" lon="5.40905">
        <ele>839</ele>
        <time>2011-10-01T16:53:01Z</time>
      </trkpt>
      <trkpt lat="44.09249" lon="5.40905">
        <ele>838</ele>
        <time>2011-10-01T16:53:06Z</time>
      </trkpt>
      <trkpt lat="44.09249" lon="5.40905">
        <ele>837.5</ele>
        <time>2011-10-01T16:53:11Z</time>
      </trkpt>
      <trkpt lat="44.09249" lon="5.40905">
        <ele>837.5</ele>
        <time>2011-10-01T16:53:16Z</time>
      </trkpt>
    </trkseg>
  </trk>
</gpx>